<?xml version="1.0" encoding="UTF-8" standalone="no" ?>
<gpx xmlns="http://www.topografix.com/GPX/1/1" xmlns:xsi="http://www.w3.org/2001/XMLSchema-instance" xsi:schemaLocation="http://www.topografix.com/GPX/1/1 http://www.topografix.com/GPX/1/1/gpx.xsd" version="1.1" creator="VisuGPX - https://www.visugpx.com">
  <metadata>
    <name>LGT : Plouisy - Le circuit des Moulins</name>
    <desc><![CDATA[Une balade d'environ 9 km au départ du Parking du cimetière de Plouisy. Ce circuit proposé par la Mairie vous emmènera, via de jolis chemins arborés, vers l'Espace du Champ de Tir puis vous ramènera vers le château de Kernabas. Après avoir pénétré la vallée du ruisseau de prat-An-Lan, vous remonterez alors jusqu'à votre point de départ.]]></desc>
  </metadata>
  <trk>
    <name><![CDATA[LGT : Plouisy - Le circuit des Moulins_1]]></name>
    <trkseg>
      <trkpt lat="48.57594" lon="-3.18539">
        <ele>191</ele>
        <time>2016-06-06T07:30:28.1Z</time>
      </trkpt>
      <trkpt lat="48.57594" lon="-3.18541">
        <ele>191</ele>
        <time>2016-06-06T07:30:30.1Z</time>
      </trkpt>
      <trkpt lat="48.57595" lon="-3.18543">
        <ele>191</ele>
        <time>2016-06-06T07:30:32.1Z</time>
      </trkpt>
      <trkpt lat="48.57597" lon="-3.18546">
        <ele>191</ele>
        <time>2016-06-06T07:30:35.1Z</time>
      </trkpt>
      <trkpt lat="48.57598" lon="-3.18549">
        <ele>191</ele>
        <time>2016-06-06T07:30:38.1Z</time>
      </trkpt>
      <trkpt lat="48.57599" lon="-3.18552">
        <ele>191</ele>
        <time>2016-06-06T07:30:40.1Z</time>
      </trkpt>
      <trkpt lat="48.57601" lon="-3.18556">
        <ele>191</ele>
        <time>2016-06-06T07:30:43.1Z</time>
      </trkpt>
      <trkpt lat="48.57602" lon="-3.18558">
        <ele>192</ele>
        <time>2016-06-06T07:30:46.1Z</time>
      </trkpt>
      <trkpt lat="48.57603" lon="-3.1856">
        <ele>192</ele>
        <time>2016-06-06T07:30:48.1Z</time>
      </trkpt>
      <trkpt lat="48.57605" lon="-3.18563">
        <ele>192</ele>
        <time>2016-06-06T07:30:51.1Z</time>
      </trkpt>
      <trkpt lat="48.57605" lon="-3.18568">
        <ele>192</ele>
        <time>2016-06-06T07:30:54.1Z</time>
      </trkpt>
      <trkpt lat="48.57605" lon="-3.18571">
        <ele>192</ele>
        <time>2016-06-06T07:30:56.1Z</time>
      </trkpt>
      <trkpt lat="48.57605" lon="-3.18576">
        <ele>192</ele>
        <time>2016-06-06T07:30:59.1Z</time>
      </trkpt>
      <trkpt lat="48.57605" lon="-3.1858">
        <ele>192</ele>
        <time>2016-06-06T07:31:02.1Z</time>
      </trkpt>
      <trkpt lat="48.57606" lon="-3.18584">
        <ele>192</ele>
        <time>2016-06-06T07:31:05.1Z</time>
      </trkpt>
      <trkpt lat="48.57607" lon="-3.18587">
        <ele>192</ele>
        <time>2016-06-06T07:31:07.1Z</time>
      </trkpt>
      <trkpt lat="48.57609" lon="-3.18591">
        <ele>193</ele>
        <time>2016-06-06T07:31:10.1Z</time>
      </trkpt>
      <trkpt lat="48.57611" lon="-3.18594">
        <ele>192</ele>
        <time>2016-06-06T07:31:12.1Z</time>
      </trkpt>
      <trkpt lat="48.57613" lon="-3.18598">
        <ele>192</ele>
        <time>2016-06-06T07:31:15.1Z</time>
      </trkpt>
      <trkpt lat="48.57615" lon="-3.18602">
        <ele>192</ele>
        <time>2016-06-06T07:31:18.1Z</time>
      </trkpt>
      <trkpt lat="48.57616" lon="-3.18605">
        <ele>193</ele>
        <time>2016-06-06T07:31:20.1Z</time>
      </trkpt>
      <trkpt lat="48.57618" lon="-3.18609">
        <ele>193</ele>
        <time>2016-06-06T07:31:23.1Z</time>
      </trkpt>
      <trkpt lat="48.57619" lon="-3.18612">
        <ele>193</ele>
        <time>2016-06-06T07:31:25.1Z</time>
      </trkpt>
      <trkpt lat="48.5762" lon="-3.18616">
        <ele>193</ele>
        <time>2016-06-06T07:31:28.1Z</time>
      </trkpt>
      <trkpt lat="48.57622" lon="-3.1862">
        <ele>193</ele>
        <time>2016-06-06T07:31:31.1Z</time>
      </trkpt>
      <trkpt lat="48.57623" lon="-3.18623">
        <ele>194</ele>
        <time>2016-06-06T07:31:33.1Z</time>
      </trkpt>
      <trkpt lat="48.57624" lon="-3.18626">
        <ele>193</ele>
        <time>2016-06-06T07:31:36.1Z</time>
      </trkpt>
      <trkpt lat="48.57626" lon="-3.1863">
        <ele>193</ele>
        <time>2016-06-06T07:31:39.1Z</time>
      </trkpt>
      <trkpt lat="48.57627" lon="-3.18632">
        <ele>194</ele>
        <time>2016-06-06T07:31:41.1Z</time>
      </trkpt>
      <trkpt lat="48.57629" lon="-3.18636">
        <ele>194</ele>
        <time>2016-06-06T07:31:44.1Z</time>
      </trkpt>
      <trkpt lat="48.57631" lon="-3.18639">
        <ele>194</ele>
        <time>2016-06-06T07:31:47.1Z</time>
      </trkpt>
      <trkpt lat="48.57634" lon="-3.18641">
        <ele>194</ele>
        <time>2016-06-06T07:31:50.1Z</time>
      </trkpt>
      <trkpt lat="48.57634" lon="-3.18643">
        <ele>194</ele>
        <time>2016-06-06T07:31:52.1Z</time>
      </trkpt>
      <trkpt lat="48.57636" lon="-3.18646">
        <ele>195</ele>
        <time>2016-06-06T07:31:55.1Z</time>
      </trkpt>
      <trkpt lat="48.57638" lon="-3.18648">
        <ele>195</ele>
        <time>2016-06-06T07:31:58.1Z</time>
      </trkpt>
      <trkpt lat="48.57639" lon="-3.1865">
        <ele>195</ele>
        <time>2016-06-06T07:32:00.1Z</time>
      </trkpt>
      <trkpt lat="48.57642" lon="-3.18651">
        <ele>195</ele>
        <time>2016-06-06T07:32:03.1Z</time>
      </trkpt>
      <trkpt lat="48.57644" lon="-3.18652">
        <ele>196</ele>
        <time>2016-06-06T07:32:05.1Z</time>
      </trkpt>
      <trkpt lat="48.57647" lon="-3.18651">
        <ele>196</ele>
        <time>2016-06-06T07:32:08.1Z</time>
      </trkpt>
      <trkpt lat="48.57648" lon="-3.18649">
        <ele>196</ele>
        <time>2016-06-06T07:32:11.1Z</time>
      </trkpt>
      <trkpt lat="48.5765" lon="-3.18647">
        <ele>196</ele>
        <time>2016-06-06T07:32:13.1Z</time>
      </trkpt>
      <trkpt lat="48.57653" lon="-3.18645">
        <ele>196</ele>
        <time>2016-06-06T07:32:16.1Z</time>
      </trkpt>
      <trkpt lat="48.57654" lon="-3.18643">
        <ele>197</ele>
        <time>2016-06-06T07:32:18.1Z</time>
      </trkpt>
      <trkpt lat="48.57657" lon="-3.18639">
        <ele>196</ele>
        <time>2016-06-06T07:32:21.1Z</time>
      </trkpt>
      <trkpt lat="48.57659" lon="-3.18636">
        <ele>197</ele>
        <time>2016-06-06T07:32:24.1Z</time>
      </trkpt>
      <trkpt lat="48.57661" lon="-3.18634">
        <ele>197</ele>
        <time>2016-06-06T07:32:26.1Z</time>
      </trkpt>
      <trkpt lat="48.57663" lon="-3.18631">
        <ele>196</ele>
        <time>2016-06-06T07:32:29.1Z</time>
      </trkpt>
      <trkpt lat="48.57665" lon="-3.18629">
        <ele>196</ele>
        <time>2016-06-06T07:32:31.1Z</time>
      </trkpt>
      <trkpt lat="48.57668" lon="-3.18625">
        <ele>196</ele>
        <time>2016-06-06T07:32:34.1Z</time>
      </trkpt>
      <trkpt lat="48.5767" lon="-3.18622">
        <ele>196</ele>
        <time>2016-06-06T07:32:37.1Z</time>
      </trkpt>
      <trkpt lat="48.57673" lon="-3.18619">
        <ele>197</ele>
        <time>2016-06-06T07:32:40.1Z</time>
      </trkpt>
      <trkpt lat="48.57675" lon="-3.18615">
        <ele>197</ele>
        <time>2016-06-06T07:32:43.1Z</time>
      </trkpt>
      <trkpt lat="48.57676" lon="-3.18613">
        <ele>196</ele>
        <time>2016-06-06T07:32:45.1Z</time>
      </trkpt>
      <trkpt lat="48.57678" lon="-3.18611">
        <ele>197</ele>
        <time>2016-06-06T07:32:47.1Z</time>
      </trkpt>
      <trkpt lat="48.57681" lon="-3.18608">
        <ele>197</ele>
        <time>2016-06-06T07:32:50.1Z</time>
      </trkpt>
      <trkpt lat="48.57684" lon="-3.18605">
        <ele>197</ele>
        <time>2016-06-06T07:32:53.1Z</time>
      </trkpt>
      <trkpt lat="48.57687" lon="-3.18602">
        <ele>197</ele>
        <time>2016-06-06T07:32:56.1Z</time>
      </trkpt>
      <trkpt lat="48.57689" lon="-3.18599">
        <ele>197</ele>
        <time>2016-06-06T07:32:59.1Z</time>
      </trkpt>
      <trkpt lat="48.57692" lon="-3.18595">
        <ele>197</ele>
        <time>2016-06-06T07:33:02.1Z</time>
      </trkpt>
      <trkpt lat="48.57695" lon="-3.18593">
        <ele>197</ele>
        <time>2016-06-06T07:33:05.1Z</time>
      </trkpt>
      <trkpt lat="48.57697" lon="-3.1859">
        <ele>197</ele>
        <time>2016-06-06T07:33:07.1Z</time>
      </trkpt>
      <trkpt lat="48.577" lon="-3.18587">
        <ele>197</ele>
        <time>2016-06-06T07:33:10.1Z</time>
      </trkpt>
      <trkpt lat="48.57701" lon="-3.18586">
        <ele>197</ele>
        <time>2016-06-06T07:33:12.1Z</time>
      </trkpt>
      <trkpt lat="48.57703" lon="-3.18583">
        <ele>197</ele>
        <time>2016-06-06T07:33:15.1Z</time>
      </trkpt>
      <trkpt lat="48.57706" lon="-3.18582">
        <ele>197</ele>
        <time>2016-06-06T07:33:18.1Z</time>
      </trkpt>
      <trkpt lat="48.57707" lon="-3.18579">
        <ele>196</ele>
        <time>2016-06-06T07:33:21.1Z</time>
      </trkpt>
      <trkpt lat="48.57709" lon="-3.18578">
        <ele>196</ele>
        <time>2016-06-06T07:33:23.1Z</time>
      </trkpt>
      <trkpt lat="48.57711" lon="-3.18577">
        <ele>196</ele>
        <time>2016-06-06T07:33:25.1Z</time>
      </trkpt>
      <trkpt lat="48.57713" lon="-3.18574">
        <ele>196</ele>
        <time>2016-06-06T07:33:28.1Z</time>
      </trkpt>
      <trkpt lat="48.57716" lon="-3.18573">
        <ele>196</ele>
        <time>2016-06-06T07:33:31.1Z</time>
      </trkpt>
      <trkpt lat="48.57718" lon="-3.18571">
        <ele>196</ele>
        <time>2016-06-06T07:33:34.1Z</time>
      </trkpt>
      <trkpt lat="48.57721" lon="-3.18569">
        <ele>195</ele>
        <time>2016-06-06T07:33:37.1Z</time>
      </trkpt>
      <trkpt lat="48.57723" lon="-3.18568">
        <ele>195</ele>
        <time>2016-06-06T07:33:40.1Z</time>
      </trkpt>
      <trkpt lat="48.57726" lon="-3.18566">
        <ele>195</ele>
        <time>2016-06-06T07:33:43.1Z</time>
      </trkpt>
      <trkpt lat="48.57728" lon="-3.18566">
        <ele>195</ele>
        <time>2016-06-06T07:33:45.1Z</time>
      </trkpt>
      <trkpt lat="48.57731" lon="-3.18564">
        <ele>195</ele>
        <time>2016-06-06T07:33:48.1Z</time>
      </trkpt>
      <trkpt lat="48.57733" lon="-3.18564">
        <ele>194</ele>
        <time>2016-06-06T07:33:50.1Z</time>
      </trkpt>
      <trkpt lat="48.57735" lon="-3.18562">
        <ele>194</ele>
        <time>2016-06-06T07:33:53.1Z</time>
      </trkpt>
      <trkpt lat="48.57738" lon="-3.18562">
        <ele>194</ele>
        <time>2016-06-06T07:33:55.1Z</time>
      </trkpt>
      <trkpt lat="48.57741" lon="-3.18562">
        <ele>194</ele>
        <time>2016-06-06T07:33:58.1Z</time>
      </trkpt>
      <trkpt lat="48.57744" lon="-3.18562">
        <ele>194</ele>
        <time>2016-06-06T07:34:00.1Z</time>
      </trkpt>
      <trkpt lat="48.57747" lon="-3.18561">
        <ele>194</ele>
        <time>2016-06-06T07:34:02.1Z</time>
      </trkpt>
      <trkpt lat="48.5775" lon="-3.18561">
        <ele>194</ele>
        <time>2016-06-06T07:34:05.1Z</time>
      </trkpt>
      <trkpt lat="48.57752" lon="-3.18561">
        <ele>193</ele>
        <time>2016-06-06T07:34:07.1Z</time>
      </trkpt>
      <trkpt lat="48.57756" lon="-3.18562">
        <ele>193</ele>
        <time>2016-06-06T07:34:10.1Z</time>
      </trkpt>
      <trkpt lat="48.57758" lon="-3.18562">
        <ele>193</ele>
        <time>2016-06-06T07:34:12.1Z</time>
      </trkpt>
      <trkpt lat="48.5776" lon="-3.18562">
        <ele>193</ele>
        <time>2016-06-06T07:34:14.1Z</time>
      </trkpt>
      <trkpt lat="48.57763" lon="-3.18561">
        <ele>193</ele>
        <time>2016-06-06T07:34:17.1Z</time>
      </trkpt>
      <trkpt lat="48.57765" lon="-3.18561">
        <ele>193</ele>
        <time>2016-06-06T07:34:19.1Z</time>
      </trkpt>
      <trkpt lat="48.57769" lon="-3.1856">
        <ele>193</ele>
        <time>2016-06-06T07:34:22.1Z</time>
      </trkpt>
      <trkpt lat="48.57771" lon="-3.18559">
        <ele>193</ele>
        <time>2016-06-06T07:34:24.1Z</time>
      </trkpt>
      <trkpt lat="48.57772" lon="-3.18558">
        <ele>193</ele>
        <time>2016-06-06T07:34:26.1Z</time>
      </trkpt>
      <trkpt lat="48.57775" lon="-3.18558">
        <ele>193</ele>
        <time>2016-06-06T07:34:29.1Z</time>
      </trkpt>
      <trkpt lat="48.57778" lon="-3.18556">
        <ele>193</ele>
        <time>2016-06-06T07:34:32.1Z</time>
      </trkpt>
      <trkpt lat="48.5778" lon="-3.18555">
        <ele>193</ele>
        <time>2016-06-06T07:34:34.1Z</time>
      </trkpt>
      <trkpt lat="48.57782" lon="-3.18554">
        <ele>193</ele>
        <time>2016-06-06T07:34:37.1Z</time>
      </trkpt>
      <trkpt lat="48.57785" lon="-3.18552">
        <ele>193</ele>
        <time>2016-06-06T07:34:40.1Z</time>
      </trkpt>
      <trkpt lat="48.57786" lon="-3.1855">
        <ele>193</ele>
        <time>2016-06-06T07:34:42.1Z</time>
      </trkpt>
      <trkpt lat="48.57788" lon="-3.18547">
        <ele>193</ele>
        <time>2016-06-06T07:34:45.1Z</time>
      </trkpt>
      <trkpt lat="48.57789" lon="-3.18544">
        <ele>193</ele>
        <time>2016-06-06T07:34:47.1Z</time>
      </trkpt>
      <trkpt lat="48.57792" lon="-3.1854">
        <ele>193</ele>
        <time>2016-06-06T07:34:50.1Z</time>
      </trkpt>
      <trkpt lat="48.57794" lon="-3.18538">
        <ele>193</ele>
        <time>2016-06-06T07:34:53.1Z</time>
      </trkpt>
      <trkpt lat="48.57797" lon="-3.18535">
        <ele>194</ele>
        <time>2016-06-06T07:34:56.1Z</time>
      </trkpt>
      <trkpt lat="48.57799" lon="-3.18534">
        <ele>195</ele>
        <time>2016-06-06T07:34:58.1Z</time>
      </trkpt>
      <trkpt lat="48.57801" lon="-3.18531">
        <ele>195</ele>
        <time>2016-06-06T07:35:01.1Z</time>
      </trkpt>
      <trkpt lat="48.57804" lon="-3.18527">
        <ele>195</ele>
        <time>2016-06-06T07:35:04.1Z</time>
      </trkpt>
      <trkpt lat="48.57806" lon="-3.18524">
        <ele>195</ele>
        <time>2016-06-06T07:35:06.1Z</time>
      </trkpt>
      <trkpt lat="48.57809" lon="-3.18522">
        <ele>195</ele>
        <time>2016-06-06T07:35:09.1Z</time>
      </trkpt>
      <trkpt lat="48.5781" lon="-3.1852">
        <ele>195</ele>
        <time>2016-06-06T07:35:11.1Z</time>
      </trkpt>
      <trkpt lat="48.57813" lon="-3.18518">
        <ele>196</ele>
        <time>2016-06-06T07:35:14.1Z</time>
      </trkpt>
      <trkpt lat="48.57816" lon="-3.18516">
        <ele>196</ele>
        <time>2016-06-06T07:35:17.1Z</time>
      </trkpt>
      <trkpt lat="48.57819" lon="-3.18513">
        <ele>196</ele>
        <time>2016-06-06T07:35:20.1Z</time>
      </trkpt>
      <trkpt lat="48.57821" lon="-3.18509">
        <ele>196</ele>
        <time>2016-06-06T07:35:23.1Z</time>
      </trkpt>
      <trkpt lat="48.57823" lon="-3.18507">
        <ele>196</ele>
        <time>2016-06-06T07:35:25.1Z</time>
      </trkpt>
      <trkpt lat="48.57825" lon="-3.18503">
        <ele>196</ele>
        <time>2016-06-06T07:35:28.1Z</time>
      </trkpt>
      <trkpt lat="48.57827" lon="-3.18499">
        <ele>196</ele>
        <time>2016-06-06T07:35:30.1Z</time>
      </trkpt>
      <trkpt lat="48.57827" lon="-3.18496">
        <ele>196</ele>
        <time>2016-06-06T07:35:33.1Z</time>
      </trkpt>
      <trkpt lat="48.57829" lon="-3.18493">
        <ele>197</ele>
        <time>2016-06-06T07:35:36.1Z</time>
      </trkpt>
      <trkpt lat="48.57831" lon="-3.18491">
        <ele>197</ele>
        <time>2016-06-06T07:35:38.1Z</time>
      </trkpt>
      <trkpt lat="48.57834" lon="-3.18486">
        <ele>197</ele>
        <time>2016-06-06T07:35:41.1Z</time>
      </trkpt>
      <trkpt lat="48.57835" lon="-3.18482">
        <ele>197</ele>
        <time>2016-06-06T07:35:44.1Z</time>
      </trkpt>
      <trkpt lat="48.57837" lon="-3.18478">
        <ele>197</ele>
        <time>2016-06-06T07:35:47.1Z</time>
      </trkpt>
      <trkpt lat="48.57838" lon="-3.18475">
        <ele>197</ele>
        <time>2016-06-06T07:35:49.1Z</time>
      </trkpt>
      <trkpt lat="48.57839" lon="-3.1847">
        <ele>197</ele>
        <time>2016-06-06T07:35:51.1Z</time>
      </trkpt>
      <trkpt lat="48.57839" lon="-3.18467">
        <ele>197</ele>
        <time>2016-06-06T07:35:54.1Z</time>
      </trkpt>
      <trkpt lat="48.5784" lon="-3.18464">
        <ele>197</ele>
        <time>2016-06-06T07:35:57.1Z</time>
      </trkpt>
      <trkpt lat="48.57842" lon="-3.18459">
        <ele>198</ele>
        <time>2016-06-06T07:36:00.1Z</time>
      </trkpt>
      <trkpt lat="48.57844" lon="-3.18454">
        <ele>198</ele>
        <time>2016-06-06T07:36:03.1Z</time>
      </trkpt>
      <trkpt lat="48.57846" lon="-3.18451">
        <ele>198</ele>
        <time>2016-06-06T07:36:05.1Z</time>
      </trkpt>
      <trkpt lat="48.57848" lon="-3.18447">
        <ele>198</ele>
        <time>2016-06-06T07:36:08.1Z</time>
      </trkpt>
      <trkpt lat="48.57851" lon="-3.18444">
        <ele>198</ele>
        <time>2016-06-06T07:36:11.1Z</time>
      </trkpt>
      <trkpt lat="48.57851" lon="-3.18441">
        <ele>198</ele>
        <time>2016-06-06T07:36:13.1Z</time>
      </trkpt>
      <trkpt lat="48.57852" lon="-3.18438">
        <ele>198</ele>
        <time>2016-06-06T07:36:15.1Z</time>
      </trkpt>
      <trkpt lat="48.57854" lon="-3.18433">
        <ele>199</ele>
        <time>2016-06-06T07:36:18.1Z</time>
      </trkpt>
      <trkpt lat="48.57855" lon="-3.18428">
        <ele>199</ele>
        <time>2016-06-06T07:36:21.1Z</time>
      </trkpt>
      <trkpt lat="48.57857" lon="-3.18426">
        <ele>199</ele>
        <time>2016-06-06T07:36:23.1Z</time>
      </trkpt>
      <trkpt lat="48.57858" lon="-3.18426">
        <ele>199</ele>
        <time>2016-06-06T07:36:26.1Z</time>
      </trkpt>
      <trkpt lat="48.57861" lon="-3.18427">
        <ele>199</ele>
        <time>2016-06-06T07:36:29.1Z</time>
      </trkpt>
      <trkpt lat="48.57862" lon="-3.18427">
        <ele>199</ele>
        <time>2016-06-06T07:36:31.1Z</time>
      </trkpt>
      <trkpt lat="48.57864" lon="-3.18426">
        <ele>199</ele>
        <time>2016-06-06T07:36:33.1Z</time>
      </trkpt>
      <trkpt lat="48.57866" lon="-3.18424">
        <ele>199</ele>
        <time>2016-06-06T07:36:36.1Z</time>
      </trkpt>
      <trkpt lat="48.57867" lon="-3.18422">
        <ele>199</ele>
        <time>2016-06-06T07:36:38.1Z</time>
      </trkpt>
      <trkpt lat="48.57869" lon="-3.18417">
        <ele>199</ele>
        <time>2016-06-06T07:36:41.1Z</time>
      </trkpt>
      <trkpt lat="48.5787" lon="-3.18413">
        <ele>199</ele>
        <time>2016-06-06T07:36:44.1Z</time>
      </trkpt>
      <trkpt lat="48.57871" lon="-3.18409">
        <ele>199</ele>
        <time>2016-06-06T07:36:47.1Z</time>
      </trkpt>
      <trkpt lat="48.57872" lon="-3.18406">
        <ele>199</ele>
        <time>2016-06-06T07:36:49.1Z</time>
      </trkpt>
      <trkpt lat="48.57874" lon="-3.18403">
        <ele>199</ele>
        <time>2016-06-06T07:36:52.1Z</time>
      </trkpt>
      <trkpt lat="48.57877" lon="-3.18401">
        <ele>199</ele>
        <time>2016-06-06T07:36:54.1Z</time>
      </trkpt>
      <trkpt lat="48.57879" lon="-3.184">
        <ele>199</ele>
        <time>2016-06-06T07:36:57.1Z</time>
      </trkpt>
      <trkpt lat="48.57883" lon="-3.18401">
        <ele>199</ele>
        <time>2016-06-06T07:36:59.1Z</time>
      </trkpt>
      <trkpt lat="48.57886" lon="-3.18401">
        <ele>200</ele>
        <time>2016-06-06T07:37:03.1Z</time>
      </trkpt>
      <trkpt lat="48.57889" lon="-3.18402">
        <ele>200</ele>
        <time>2016-06-06T07:37:06.1Z</time>
      </trkpt>
      <trkpt lat="48.57892" lon="-3.18404">
        <ele>200</ele>
        <time>2016-06-06T07:37:08.1Z</time>
      </trkpt>
      <trkpt lat="48.57893" lon="-3.18405">
        <ele>200</ele>
        <time>2016-06-06T07:37:11.1Z</time>
      </trkpt>
      <trkpt lat="48.57896" lon="-3.18408">
        <ele>201</ele>
        <time>2016-06-06T07:37:14.1Z</time>
      </trkpt>
      <trkpt lat="48.57898" lon="-3.1841">
        <ele>201</ele>
        <time>2016-06-06T07:37:16.1Z</time>
      </trkpt>
      <trkpt lat="48.57899" lon="-3.18411">
        <ele>201</ele>
        <time>2016-06-06T07:37:19.1Z</time>
      </trkpt>
      <trkpt lat="48.57902" lon="-3.18413">
        <ele>201</ele>
        <time>2016-06-06T07:37:22.1Z</time>
      </trkpt>
      <trkpt lat="48.57904" lon="-3.18415">
        <ele>201</ele>
        <time>2016-06-06T07:37:24.1Z</time>
      </trkpt>
      <trkpt lat="48.57907" lon="-3.18417">
        <ele>201</ele>
        <time>2016-06-06T07:37:27.1Z</time>
      </trkpt>
      <trkpt lat="48.5791" lon="-3.1842">
        <ele>201</ele>
        <time>2016-06-06T07:37:29.1Z</time>
      </trkpt>
      <trkpt lat="48.57912" lon="-3.18422">
        <ele>202</ele>
        <time>2016-06-06T07:37:32.1Z</time>
      </trkpt>
      <trkpt lat="48.57915" lon="-3.18424">
        <ele>202</ele>
        <time>2016-06-06T07:37:35.1Z</time>
      </trkpt>
      <trkpt lat="48.57917" lon="-3.18426">
        <ele>203</ele>
        <time>2016-06-06T07:37:37.1Z</time>
      </trkpt>
      <trkpt lat="48.5792" lon="-3.18429">
        <ele>203</ele>
        <time>2016-06-06T07:37:40.1Z</time>
      </trkpt>
      <trkpt lat="48.57922" lon="-3.18431">
        <ele>203</ele>
        <time>2016-06-06T07:37:42.1Z</time>
      </trkpt>
      <trkpt lat="48.57924" lon="-3.18432">
        <ele>203</ele>
        <time>2016-06-06T07:37:45.1Z</time>
      </trkpt>
      <trkpt lat="48.57927" lon="-3.18434">
        <ele>203</ele>
        <time>2016-06-06T07:37:48.1Z</time>
      </trkpt>
      <trkpt lat="48.57929" lon="-3.18437">
        <ele>204</ele>
        <time>2016-06-06T07:37:51.1Z</time>
      </trkpt>
      <trkpt lat="48.57932" lon="-3.18439">
        <ele>204</ele>
        <time>2016-06-06T07:37:54.1Z</time>
      </trkpt>
      <trkpt lat="48.57935" lon="-3.18441">
        <ele>204</ele>
        <time>2016-06-06T07:37:57.1Z</time>
      </trkpt>
      <trkpt lat="48.57938" lon="-3.18443">
        <ele>204</ele>
        <time>2016-06-06T07:38:00.1Z</time>
      </trkpt>
      <trkpt lat="48.57938" lon="-3.18445">
        <ele>204</ele>
        <time>2016-06-06T07:38:02.1Z</time>
      </trkpt>
      <trkpt lat="48.57941" lon="-3.18448">
        <ele>205</ele>
        <time>2016-06-06T07:38:04.1Z</time>
      </trkpt>
      <trkpt lat="48.57943" lon="-3.18449">
        <ele>205</ele>
        <time>2016-06-06T07:38:07.1Z</time>
      </trkpt>
      <trkpt lat="48.57946" lon="-3.18451">
        <ele>204</ele>
        <time>2016-06-06T07:38:10.1Z</time>
      </trkpt>
      <trkpt lat="48.5795" lon="-3.18453">
        <ele>205</ele>
        <time>2016-06-06T07:38:13.1Z</time>
      </trkpt>
      <trkpt lat="48.57953" lon="-3.18455">
        <ele>205</ele>
        <time>2016-06-06T07:38:16.1Z</time>
      </trkpt>
      <trkpt lat="48.57956" lon="-3.18456">
        <ele>206</ele>
        <time>2016-06-06T07:38:19.1Z</time>
      </trkpt>
      <trkpt lat="48.5796" lon="-3.18458">
        <ele>206</ele>
        <time>2016-06-06T07:38:22.1Z</time>
      </trkpt>
      <trkpt lat="48.57964" lon="-3.1846">
        <ele>206</ele>
        <time>2016-06-06T07:38:24.1Z</time>
      </trkpt>
      <trkpt lat="48.57967" lon="-3.18462">
        <ele>206</ele>
        <time>2016-06-06T07:38:28.1Z</time>
      </trkpt>
      <trkpt lat="48.5797" lon="-3.18464">
        <ele>206</ele>
        <time>2016-06-06T07:38:31.1Z</time>
      </trkpt>
      <trkpt lat="48.57974" lon="-3.18465">
        <ele>206</ele>
        <time>2016-06-06T07:38:33.1Z</time>
      </trkpt>
      <trkpt lat="48.57975" lon="-3.18467">
        <ele>206</ele>
        <time>2016-06-06T07:38:36.1Z</time>
      </trkpt>
      <trkpt lat="48.57978" lon="-3.18469">
        <ele>206</ele>
        <time>2016-06-06T07:38:39.1Z</time>
      </trkpt>
      <trkpt lat="48.5798" lon="-3.1847">
        <ele>206</ele>
        <time>2016-06-06T07:38:41.1Z</time>
      </trkpt>
      <trkpt lat="48.57983" lon="-3.18473">
        <ele>207</ele>
        <time>2016-06-06T07:38:44.1Z</time>
      </trkpt>
      <trkpt lat="48.57985" lon="-3.18474">
        <ele>207</ele>
        <time>2016-06-06T07:38:46.1Z</time>
      </trkpt>
      <trkpt lat="48.57989" lon="-3.18475">
        <ele>207</ele>
        <time>2016-06-06T07:38:49.1Z</time>
      </trkpt>
      <trkpt lat="48.57992" lon="-3.18476">
        <ele>207</ele>
        <time>2016-06-06T07:38:51.1Z</time>
      </trkpt>
      <trkpt lat="48.57996" lon="-3.18476">
        <ele>207</ele>
        <time>2016-06-06T07:38:55.1Z</time>
      </trkpt>
      <trkpt lat="48.57999" lon="-3.18477">
        <ele>207</ele>
        <time>2016-06-06T07:38:57.1Z</time>
      </trkpt>
      <trkpt lat="48.58002" lon="-3.18477">
        <ele>207</ele>
        <time>2016-06-06T07:39:01.1Z</time>
      </trkpt>
      <trkpt lat="48.58005" lon="-3.18477">
        <ele>206</ele>
        <time>2016-06-06T07:39:04.1Z</time>
      </trkpt>
      <trkpt lat="48.58009" lon="-3.18478">
        <ele>206</ele>
        <time>2016-06-06T07:39:06.1Z</time>
      </trkpt>
      <trkpt lat="48.58011" lon="-3.18478">
        <ele>206</ele>
        <time>2016-06-06T07:39:08.1Z</time>
      </trkpt>
      <trkpt lat="48.58013" lon="-3.18478">
        <ele>206</ele>
        <time>2016-06-06T07:39:11.1Z</time>
      </trkpt>
      <trkpt lat="48.58015" lon="-3.18479">
        <ele>207</ele>
        <time>2016-06-06T07:39:13.1Z</time>
      </trkpt>
      <trkpt lat="48.58019" lon="-3.18477">
        <ele>206</ele>
        <time>2016-06-06T07:39:15.1Z</time>
      </trkpt>
      <trkpt lat="48.58019" lon="-3.18476">
        <ele>206</ele>
        <time>2016-06-06T07:39:17.1Z</time>
      </trkpt>
      <trkpt lat="48.5802" lon="-3.18477">
        <ele>207</ele>
        <time>2016-06-06T07:39:20.1Z</time>
      </trkpt>
      <trkpt lat="48.5802" lon="-3.18477">
        <ele>207</ele>
        <time>2016-06-06T07:39:22.1Z</time>
      </trkpt>
      <trkpt lat="48.58021" lon="-3.18477">
        <ele>207</ele>
        <time>2016-06-06T07:39:24.1Z</time>
      </trkpt>
      <trkpt lat="48.58024" lon="-3.18478">
        <ele>207</ele>
        <time>2016-06-06T07:39:26.1Z</time>
      </trkpt>
      <trkpt lat="48.58028" lon="-3.18479">
        <ele>206</ele>
        <time>2016-06-06T07:39:30.1Z</time>
      </trkpt>
      <trkpt lat="48.58031" lon="-3.18479">
        <ele>206</ele>
        <time>2016-06-06T07:39:32.1Z</time>
      </trkpt>
      <trkpt lat="48.58034" lon="-3.18478">
        <ele>206</ele>
        <time>2016-06-06T07:39:35.1Z</time>
      </trkpt>
      <trkpt lat="48.58036" lon="-3.18478">
        <ele>206</ele>
        <time>2016-06-06T07:39:37.1Z</time>
      </trkpt>
      <trkpt lat="48.58039" lon="-3.18478">
        <ele>206</ele>
        <time>2016-06-06T07:39:39.1Z</time>
      </trkpt>
      <trkpt lat="48.58042" lon="-3.18478">
        <ele>206</ele>
        <time>2016-06-06T07:39:42.1Z</time>
      </trkpt>
      <trkpt lat="48.58046" lon="-3.18478">
        <ele>206</ele>
        <time>2016-06-06T07:39:45.1Z</time>
      </trkpt>
      <trkpt lat="48.58049" lon="-3.18478">
        <ele>206</ele>
        <time>2016-06-06T07:39:47.1Z</time>
      </trkpt>
      <trkpt lat="48.58051" lon="-3.18478">
        <ele>206</ele>
        <time>2016-06-06T07:39:50.1Z</time>
      </trkpt>
      <trkpt lat="48.58055" lon="-3.18477">
        <ele>206</ele>
        <time>2016-06-06T07:39:53.1Z</time>
      </trkpt>
      <trkpt lat="48.58058" lon="-3.18476">
        <ele>206</ele>
        <time>2016-06-06T07:39:55.1Z</time>
      </trkpt>
      <trkpt lat="48.5806" lon="-3.18476">
        <ele>206</ele>
        <time>2016-06-06T07:39:58.1Z</time>
      </trkpt>
      <trkpt lat="48.58063" lon="-3.18475">
        <ele>206</ele>
        <time>2016-06-06T07:40:00.1Z</time>
      </trkpt>
      <trkpt lat="48.58066" lon="-3.18476">
        <ele>206</ele>
        <time>2016-06-06T07:40:03.1Z</time>
      </trkpt>
      <trkpt lat="48.5807" lon="-3.18475">
        <ele>205</ele>
        <time>2016-06-06T07:40:06.1Z</time>
      </trkpt>
      <trkpt lat="48.58074" lon="-3.18476">
        <ele>206</ele>
        <time>2016-06-06T07:40:08.1Z</time>
      </trkpt>
      <trkpt lat="48.58077" lon="-3.18476">
        <ele>206</ele>
        <time>2016-06-06T07:40:10.1Z</time>
      </trkpt>
      <trkpt lat="48.58079" lon="-3.18478">
        <ele>206</ele>
        <time>2016-06-06T07:40:13.1Z</time>
      </trkpt>
      <trkpt lat="48.58082" lon="-3.18478">
        <ele>206</ele>
        <time>2016-06-06T07:40:16.1Z</time>
      </trkpt>
      <trkpt lat="48.58085" lon="-3.18478">
        <ele>206</ele>
        <time>2016-06-06T07:40:19.1Z</time>
      </trkpt>
      <trkpt lat="48.58087" lon="-3.18478">
        <ele>206</ele>
        <time>2016-06-06T07:40:21.1Z</time>
      </trkpt>
      <trkpt lat="48.58088" lon="-3.18478">
        <ele>206</ele>
        <time>2016-06-06T07:40:23.1Z</time>
      </trkpt>
      <trkpt lat="48.58088" lon="-3.18479">
        <ele>206</ele>
        <time>2016-06-06T07:40:25.1Z</time>
      </trkpt>
      <trkpt lat="48.58088" lon="-3.1848">
        <ele>206</ele>
        <time>2016-06-06T07:40:27.1Z</time>
      </trkpt>
      <trkpt lat="48.58088" lon="-3.18481">
        <ele>206</ele>
        <time>2016-06-06T07:40:30.1Z</time>
      </trkpt>
      <trkpt lat="48.58089" lon="-3.18481">
        <ele>206</ele>
        <time>2016-06-06T07:40:33.1Z</time>
      </trkpt>
      <trkpt lat="48.58088" lon="-3.1848">
        <ele>206</ele>
        <time>2016-06-06T07:40:35.1Z</time>
      </trkpt>
      <trkpt lat="48.58088" lon="-3.1848">
        <ele>206</ele>
        <time>2016-06-06T07:40:39.1Z</time>
      </trkpt>
      <trkpt lat="48.58088" lon="-3.18481">
        <ele>206</ele>
        <time>2016-06-06T07:40:41.1Z</time>
      </trkpt>
      <trkpt lat="48.58089" lon="-3.1848">
        <ele>206</ele>
        <time>2016-06-06T07:40:44.1Z</time>
      </trkpt>
      <trkpt lat="48.5809" lon="-3.18484">
        <ele>206</ele>
        <time>2016-06-06T07:40:46.1Z</time>
      </trkpt>
      <trkpt lat="48.5809" lon="-3.18485">
        <ele>206</ele>
        <time>2016-06-06T07:40:49.1Z</time>
      </trkpt>
      <trkpt lat="48.5809" lon="-3.18485">
        <ele>206</ele>
        <time>2016-06-06T07:40:51.1Z</time>
      </trkpt>
      <trkpt lat="48.5809" lon="-3.18485">
        <ele>206</ele>
        <time>2016-06-06T07:40:53.1Z</time>
      </trkpt>
      <trkpt lat="48.5809" lon="-3.18486">
        <ele>206</ele>
        <time>2016-06-06T07:40:56.1Z</time>
      </trkpt>
      <trkpt lat="48.5809" lon="-3.18488">
        <ele>206</ele>
        <time>2016-06-06T07:40:59.1Z</time>
      </trkpt>
      <trkpt lat="48.58091" lon="-3.18487">
        <ele>206</ele>
        <time>2016-06-06T07:41:01.1Z</time>
      </trkpt>
      <trkpt lat="48.58091" lon="-3.18488">
        <ele>206</ele>
        <time>2016-06-06T07:41:04.1Z</time>
      </trkpt>
      <trkpt lat="48.58091" lon="-3.18488">
        <ele>206</ele>
        <time>2016-06-06T07:41:07.1Z</time>
      </trkpt>
      <trkpt lat="48.58092" lon="-3.18489">
        <ele>206</ele>
        <time>2016-06-06T07:41:09.1Z</time>
      </trkpt>
      <trkpt lat="48.58094" lon="-3.18491">
        <ele>206</ele>
        <time>2016-06-06T07:41:11.1Z</time>
      </trkpt>
      <trkpt lat="48.58097" lon="-3.18492">
        <ele>206</ele>
        <time>2016-06-06T07:41:14.1Z</time>
      </trkpt>
      <trkpt lat="48.58099" lon="-3.18492">
        <ele>206</ele>
        <time>2016-06-06T07:41:16.1Z</time>
      </trkpt>
      <trkpt lat="48.58101" lon="-3.18492">
        <ele>206</ele>
        <time>2016-06-06T07:41:18.1Z</time>
      </trkpt>
      <trkpt lat="48.58103" lon="-3.18492">
        <ele>207</ele>
        <time>2016-06-06T07:41:21.1Z</time>
      </trkpt>
      <trkpt lat="48.58106" lon="-3.18493">
        <ele>207</ele>
        <time>2016-06-06T07:41:24.1Z</time>
      </trkpt>
      <trkpt lat="48.58108" lon="-3.18493">
        <ele>207</ele>
        <time>2016-06-06T07:41:27.1Z</time>
      </trkpt>
      <trkpt lat="48.58111" lon="-3.18494">
        <ele>207</ele>
        <time>2016-06-06T07:41:29.1Z</time>
      </trkpt>
      <trkpt lat="48.58113" lon="-3.18494">
        <ele>207</ele>
        <time>2016-06-06T07:41:32.1Z</time>
      </trkpt>
      <trkpt lat="48.58116" lon="-3.18495">
        <ele>207</ele>
        <time>2016-06-06T07:41:35.1Z</time>
      </trkpt>
      <trkpt lat="48.58118" lon="-3.18496">
        <ele>207</ele>
        <time>2016-06-06T07:41:37.1Z</time>
      </trkpt>
      <trkpt lat="48.5812" lon="-3.18497">
        <ele>207</ele>
        <time>2016-06-06T07:41:39.1Z</time>
      </trkpt>
      <trkpt lat="48.58123" lon="-3.18498">
        <ele>207</ele>
        <time>2016-06-06T07:41:42.1Z</time>
      </trkpt>
      <trkpt lat="48.58126" lon="-3.18499">
        <ele>207</ele>
        <time>2016-06-06T07:41:44.1Z</time>
      </trkpt>
      <trkpt lat="48.58129" lon="-3.18499">
        <ele>207</ele>
        <time>2016-06-06T07:41:46.1Z</time>
      </trkpt>
      <trkpt lat="48.58132" lon="-3.18499">
        <ele>207</ele>
        <time>2016-06-06T07:41:49.1Z</time>
      </trkpt>
      <trkpt lat="48.58136" lon="-3.185">
        <ele>207</ele>
        <time>2016-06-06T07:41:52.1Z</time>
      </trkpt>
      <trkpt lat="48.58141" lon="-3.185">
        <ele>207</ele>
        <time>2016-06-06T07:41:55.1Z</time>
      </trkpt>
      <trkpt lat="48.58145" lon="-3.18502">
        <ele>207</ele>
        <time>2016-06-06T07:41:58.1Z</time>
      </trkpt>
      <trkpt lat="48.58149" lon="-3.18502">
        <ele>207</ele>
        <time>2016-06-06T07:42:00.1Z</time>
      </trkpt>
      <trkpt lat="48.58153" lon="-3.18504">
        <ele>207</ele>
        <time>2016-06-06T07:42:02.1Z</time>
      </trkpt>
      <trkpt lat="48.58157" lon="-3.18505">
        <ele>207</ele>
        <time>2016-06-06T07:42:05.1Z</time>
      </trkpt>
      <trkpt lat="48.58159" lon="-3.18505">
        <ele>207</ele>
        <time>2016-06-06T07:42:07.1Z</time>
      </trkpt>
      <trkpt lat="48.58162" lon="-3.18505">
        <ele>207</ele>
        <time>2016-06-06T07:42:09.1Z</time>
      </trkpt>
      <trkpt lat="48.58165" lon="-3.18506">
        <ele>207</ele>
        <time>2016-06-06T07:42:12.1Z</time>
      </trkpt>
      <trkpt lat="48.5817" lon="-3.18506">
        <ele>207</ele>
        <time>2016-06-06T07:42:14.1Z</time>
      </trkpt>
      <trkpt lat="48.58173" lon="-3.18507">
        <ele>207</ele>
        <time>2016-06-06T07:42:17.1Z</time>
      </trkpt>
      <trkpt lat="48.58177" lon="-3.18507">
        <ele>207</ele>
        <time>2016-06-06T07:42:20.1Z</time>
      </trkpt>
      <trkpt lat="48.58179" lon="-3.18507">
        <ele>207</ele>
        <time>2016-06-06T07:42:22.1Z</time>
      </trkpt>
      <trkpt lat="48.58184" lon="-3.18508">
        <ele>207</ele>
        <time>2016-06-06T07:42:25.1Z</time>
      </trkpt>
      <trkpt lat="48.58189" lon="-3.18509">
        <ele>208</ele>
        <time>2016-06-06T07:42:27.1Z</time>
      </trkpt>
      <trkpt lat="48.58192" lon="-3.18509">
        <ele>208</ele>
        <time>2016-06-06T07:42:30.1Z</time>
      </trkpt>
      <trkpt lat="48.58196" lon="-3.1851">
        <ele>208</ele>
        <time>2016-06-06T07:42:32.1Z</time>
      </trkpt>
      <trkpt lat="48.582" lon="-3.18511">
        <ele>208</ele>
        <time>2016-06-06T07:42:36.1Z</time>
      </trkpt>
      <trkpt lat="48.58204" lon="-3.18511">
        <ele>208</ele>
        <time>2016-06-06T07:42:38.1Z</time>
      </trkpt>
      <trkpt lat="48.58207" lon="-3.18511">
        <ele>208</ele>
        <time>2016-06-06T07:42:42.1Z</time>
      </trkpt>
      <trkpt lat="48.58211" lon="-3.18511">
        <ele>208</ele>
        <time>2016-06-06T07:42:44.1Z</time>
      </trkpt>
      <trkpt lat="48.58214" lon="-3.18512">
        <ele>208</ele>
        <time>2016-06-06T07:42:47.1Z</time>
      </trkpt>
      <trkpt lat="48.58218" lon="-3.18512">
        <ele>208</ele>
        <time>2016-06-06T07:42:49.1Z</time>
      </trkpt>
      <trkpt lat="48.58221" lon="-3.18512">
        <ele>208</ele>
        <time>2016-06-06T07:42:52.1Z</time>
      </trkpt>
      <trkpt lat="48.58225" lon="-3.18512">
        <ele>208</ele>
        <time>2016-06-06T07:42:54.1Z</time>
      </trkpt>
      <trkpt lat="48.58227" lon="-3.18513">
        <ele>208</ele>
        <time>2016-06-06T07:42:57.1Z</time>
      </trkpt>
      <trkpt lat="48.5823" lon="-3.18513">
        <ele>208</ele>
        <time>2016-06-06T07:42:59.1Z</time>
      </trkpt>
      <trkpt lat="48.58234" lon="-3.18514">
        <ele>208</ele>
        <time>2016-06-06T07:43:01.1Z</time>
      </trkpt>
      <trkpt lat="48.58238" lon="-3.18516">
        <ele>208</ele>
        <time>2016-06-06T07:43:05.1Z</time>
      </trkpt>
      <trkpt lat="48.58242" lon="-3.18516">
        <ele>208</ele>
        <time>2016-06-06T07:43:07.1Z</time>
      </trkpt>
      <trkpt lat="48.58244" lon="-3.18517">
        <ele>208</ele>
        <time>2016-06-06T07:43:10.1Z</time>
      </trkpt>
      <trkpt lat="48.58248" lon="-3.18517">
        <ele>209</ele>
        <time>2016-06-06T07:43:12.1Z</time>
      </trkpt>
      <trkpt lat="48.58251" lon="-3.18516">
        <ele>209</ele>
        <time>2016-06-06T07:43:15.1Z</time>
      </trkpt>
      <trkpt lat="48.58254" lon="-3.18517">
        <ele>209</ele>
        <time>2016-06-06T07:43:18.1Z</time>
      </trkpt>
      <trkpt lat="48.58258" lon="-3.18518">
        <ele>209</ele>
        <time>2016-06-06T07:43:20.1Z</time>
      </trkpt>
      <trkpt lat="48.58261" lon="-3.18519">
        <ele>209</ele>
        <time>2016-06-06T07:43:23.1Z</time>
      </trkpt>
      <trkpt lat="48.58264" lon="-3.18521">
        <ele>209</ele>
        <time>2016-06-06T07:43:25.1Z</time>
      </trkpt>
      <trkpt lat="48.58266" lon="-3.18522">
        <ele>209</ele>
        <time>2016-06-06T07:43:27.1Z</time>
      </trkpt>
      <trkpt lat="48.58268" lon="-3.18523">
        <ele>209</ele>
        <time>2016-06-06T07:43:30.1Z</time>
      </trkpt>
      <trkpt lat="48.58272" lon="-3.18524">
        <ele>209</ele>
        <time>2016-06-06T07:43:32.1Z</time>
      </trkpt>
      <trkpt lat="48.58274" lon="-3.18526">
        <ele>209</ele>
        <time>2016-06-06T07:43:35.1Z</time>
      </trkpt>
      <trkpt lat="48.58276" lon="-3.18527">
        <ele>209</ele>
        <time>2016-06-06T07:43:37.1Z</time>
      </trkpt>
      <trkpt lat="48.5828" lon="-3.18529">
        <ele>209</ele>
        <time>2016-06-06T07:43:40.1Z</time>
      </trkpt>
      <trkpt lat="48.58283" lon="-3.18532">
        <ele>209</ele>
        <time>2016-06-06T07:43:42.1Z</time>
      </trkpt>
      <trkpt lat="48.58286" lon="-3.18534">
        <ele>209</ele>
        <time>2016-06-06T07:43:44.1Z</time>
      </trkpt>
      <trkpt lat="48.58288" lon="-3.18536">
        <ele>209</ele>
        <time>2016-06-06T07:43:47.1Z</time>
      </trkpt>
      <trkpt lat="48.58291" lon="-3.1854">
        <ele>209</ele>
        <time>2016-06-06T07:43:50.1Z</time>
      </trkpt>
      <trkpt lat="48.58295" lon="-3.18541">
        <ele>209</ele>
        <time>2016-06-06T07:43:52.1Z</time>
      </trkpt>
      <trkpt lat="48.58298" lon="-3.18543">
        <ele>209</ele>
        <time>2016-06-06T07:43:56.1Z</time>
      </trkpt>
      <trkpt lat="48.58301" lon="-3.18545">
        <ele>209</ele>
        <time>2016-06-06T07:43:58.1Z</time>
      </trkpt>
      <trkpt lat="48.58303" lon="-3.18547">
        <ele>209</ele>
        <time>2016-06-06T07:44:01.1Z</time>
      </trkpt>
      <trkpt lat="48.58305" lon="-3.18548">
        <ele>209</ele>
        <time>2016-06-06T07:44:03.1Z</time>
      </trkpt>
      <trkpt lat="48.58307" lon="-3.1855">
        <ele>209</ele>
        <time>2016-06-06T07:44:05.1Z</time>
      </trkpt>
      <trkpt lat="48.58309" lon="-3.1855">
        <ele>209</ele>
        <time>2016-06-06T07:44:07.1Z</time>
      </trkpt>
      <trkpt lat="48.58311" lon="-3.18552">
        <ele>209</ele>
        <time>2016-06-06T07:44:10.1Z</time>
      </trkpt>
      <trkpt lat="48.58313" lon="-3.18554">
        <ele>209</ele>
        <time>2016-06-06T07:44:12.1Z</time>
      </trkpt>
      <trkpt lat="48.58316" lon="-3.18556">
        <ele>209</ele>
        <time>2016-06-06T07:44:15.1Z</time>
      </trkpt>
      <trkpt lat="48.58319" lon="-3.18558">
        <ele>209</ele>
        <time>2016-06-06T07:44:17.1Z</time>
      </trkpt>
      <trkpt lat="48.58321" lon="-3.18559">
        <ele>209</ele>
        <time>2016-06-06T07:44:20.1Z</time>
      </trkpt>
      <trkpt lat="48.58324" lon="-3.18563">
        <ele>209</ele>
        <time>2016-06-06T07:44:23.1Z</time>
      </trkpt>
      <trkpt lat="48.58327" lon="-3.18564">
        <ele>209</ele>
        <time>2016-06-06T07:44:26.1Z</time>
      </trkpt>
      <trkpt lat="48.58329" lon="-3.18565">
        <ele>209</ele>
        <time>2016-06-06T07:44:28.1Z</time>
      </trkpt>
      <trkpt lat="48.58332" lon="-3.18567">
        <ele>209</ele>
        <time>2016-06-06T07:44:30.1Z</time>
      </trkpt>
      <trkpt lat="48.58334" lon="-3.18569">
        <ele>209</ele>
        <time>2016-06-06T07:44:32.1Z</time>
      </trkpt>
      <trkpt lat="48.58336" lon="-3.18571">
        <ele>209</ele>
        <time>2016-06-06T07:44:36.1Z</time>
      </trkpt>
      <trkpt lat="48.58338" lon="-3.18574">
        <ele>209</ele>
        <time>2016-06-06T07:44:38.1Z</time>
      </trkpt>
      <trkpt lat="48.5834" lon="-3.18576">
        <ele>209</ele>
        <time>2016-06-06T07:44:41.1Z</time>
      </trkpt>
      <trkpt lat="48.58344" lon="-3.18579">
        <ele>209</ele>
        <time>2016-06-06T07:44:44.1Z</time>
      </trkpt>
      <trkpt lat="48.58347" lon="-3.18582">
        <ele>209</ele>
        <time>2016-06-06T07:44:47.1Z</time>
      </trkpt>
      <trkpt lat="48.5835" lon="-3.18584">
        <ele>208</ele>
        <time>2016-06-06T07:44:49.1Z</time>
      </trkpt>
      <trkpt lat="48.58353" lon="-3.18585">
        <ele>208</ele>
        <time>2016-06-06T07:44:51.1Z</time>
      </trkpt>
      <trkpt lat="48.58356" lon="-3.18587">
        <ele>208</ele>
        <time>2016-06-06T07:44:54.1Z</time>
      </trkpt>
      <trkpt lat="48.58361" lon="-3.1859">
        <ele>208</ele>
        <time>2016-06-06T07:44:56.1Z</time>
      </trkpt>
      <trkpt lat="48.58363" lon="-3.18592">
        <ele>208</ele>
        <time>2016-06-06T07:44:59.1Z</time>
      </trkpt>
      <trkpt lat="48.58367" lon="-3.18595">
        <ele>208</ele>
        <time>2016-06-06T07:45:01.1Z</time>
      </trkpt>
      <trkpt lat="48.5837" lon="-3.18598">
        <ele>208</ele>
        <time>2016-06-06T07:45:03.1Z</time>
      </trkpt>
      <trkpt lat="48.58372" lon="-3.186">
        <ele>208</ele>
        <time>2016-06-06T07:45:06.1Z</time>
      </trkpt>
      <trkpt lat="48.58374" lon="-3.18602">
        <ele>208</ele>
        <time>2016-06-06T07:45:08.1Z</time>
      </trkpt>
      <trkpt lat="48.58377" lon="-3.18605">
        <ele>209</ele>
        <time>2016-06-06T07:45:11.1Z</time>
      </trkpt>
      <trkpt lat="48.58381" lon="-3.18608">
        <ele>209</ele>
        <time>2016-06-06T07:45:14.1Z</time>
      </trkpt>
      <trkpt lat="48.58383" lon="-3.18611">
        <ele>209</ele>
        <time>2016-06-06T07:45:16.1Z</time>
      </trkpt>
      <trkpt lat="48.58386" lon="-3.18613">
        <ele>209</ele>
        <time>2016-06-06T07:45:19.1Z</time>
      </trkpt>
      <trkpt lat="48.58389" lon="-3.18614">
        <ele>209</ele>
        <time>2016-06-06T07:45:21.1Z</time>
      </trkpt>
      <trkpt lat="48.58392" lon="-3.18618">
        <ele>209</ele>
        <time>2016-06-06T07:45:23.1Z</time>
      </trkpt>
      <trkpt lat="48.58394" lon="-3.18619">
        <ele>209</ele>
        <time>2016-06-06T07:45:26.1Z</time>
      </trkpt>
      <trkpt lat="48.58398" lon="-3.18621">
        <ele>208</ele>
        <time>2016-06-06T07:45:28.1Z</time>
      </trkpt>
      <trkpt lat="48.584" lon="-3.18624">
        <ele>208</ele>
        <time>2016-06-06T07:45:30.1Z</time>
      </trkpt>
      <trkpt lat="48.58403" lon="-3.18627">
        <ele>209</ele>
        <time>2016-06-06T07:45:33.1Z</time>
      </trkpt>
      <trkpt lat="48.58405" lon="-3.18629">
        <ele>208</ele>
        <time>2016-06-06T07:45:35.1Z</time>
      </trkpt>
      <trkpt lat="48.58409" lon="-3.18631">
        <ele>209</ele>
        <time>2016-06-06T07:45:37.1Z</time>
      </trkpt>
      <trkpt lat="48.58412" lon="-3.18633">
        <ele>209</ele>
        <time>2016-06-06T07:45:40.1Z</time>
      </trkpt>
      <trkpt lat="48.58417" lon="-3.18636">
        <ele>209</ele>
        <time>2016-06-06T07:45:42.1Z</time>
      </trkpt>
      <trkpt lat="48.58419" lon="-3.18637">
        <ele>209</ele>
        <time>2016-06-06T07:45:44.1Z</time>
      </trkpt>
      <trkpt lat="48.58421" lon="-3.18638">
        <ele>209</ele>
        <time>2016-06-06T07:45:47.1Z</time>
      </trkpt>
      <trkpt lat="48.58425" lon="-3.1864">
        <ele>209</ele>
        <time>2016-06-06T07:45:49.1Z</time>
      </trkpt>
      <trkpt lat="48.58427" lon="-3.18642">
        <ele>209</ele>
        <time>2016-06-06T07:45:51.1Z</time>
      </trkpt>
      <trkpt lat="48.58429" lon="-3.18644">
        <ele>209</ele>
        <time>2016-06-06T07:45:54.1Z</time>
      </trkpt>
      <trkpt lat="48.58432" lon="-3.18648">
        <ele>209</ele>
        <time>2016-06-06T07:45:57.1Z</time>
      </trkpt>
      <trkpt lat="48.58437" lon="-3.1865">
        <ele>209</ele>
        <time>2016-06-06T07:45:59.1Z</time>
      </trkpt>
      <trkpt lat="48.58439" lon="-3.18652">
        <ele>209</ele>
        <time>2016-06-06T07:46:02.1Z</time>
      </trkpt>
      <trkpt lat="48.58442" lon="-3.18653">
        <ele>209</ele>
        <time>2016-06-06T07:46:05.1Z</time>
      </trkpt>
      <trkpt lat="48.58445" lon="-3.18657">
        <ele>209</ele>
        <time>2016-06-06T07:46:08.1Z</time>
      </trkpt>
      <trkpt lat="48.58448" lon="-3.18659">
        <ele>209</ele>
        <time>2016-06-06T07:46:10.1Z</time>
      </trkpt>
      <trkpt lat="48.5845" lon="-3.18661">
        <ele>209</ele>
        <time>2016-06-06T07:46:13.1Z</time>
      </trkpt>
      <trkpt lat="48.58452" lon="-3.18663">
        <ele>209</ele>
        <time>2016-06-06T07:46:15.1Z</time>
      </trkpt>
      <trkpt lat="48.58454" lon="-3.18664">
        <ele>209</ele>
        <time>2016-06-06T07:46:18.1Z</time>
      </trkpt>
      <trkpt lat="48.58457" lon="-3.18666">
        <ele>209</ele>
        <time>2016-06-06T07:46:20.1Z</time>
      </trkpt>
      <trkpt lat="48.58458" lon="-3.18668">
        <ele>209</ele>
        <time>2016-06-06T07:46:23.1Z</time>
      </trkpt>
      <trkpt lat="48.58462" lon="-3.1867">
        <ele>209</ele>
        <time>2016-06-06T07:46:25.1Z</time>
      </trkpt>
      <trkpt lat="48.58464" lon="-3.18672">
        <ele>209</ele>
        <time>2016-06-06T07:46:27.1Z</time>
      </trkpt>
      <trkpt lat="48.58468" lon="-3.18674">
        <ele>209</ele>
        <time>2016-06-06T07:46:31.1Z</time>
      </trkpt>
      <trkpt lat="48.58471" lon="-3.18675">
        <ele>210</ele>
        <time>2016-06-06T07:46:33.1Z</time>
      </trkpt>
      <trkpt lat="48.58472" lon="-3.18676">
        <ele>210</ele>
        <time>2016-06-06T07:46:35.1Z</time>
      </trkpt>
      <trkpt lat="48.58475" lon="-3.18679">
        <ele>210</ele>
        <time>2016-06-06T07:46:38.1Z</time>
      </trkpt>
      <trkpt lat="48.58476" lon="-3.18684">
        <ele>210</ele>
        <time>2016-06-06T07:46:41.1Z</time>
      </trkpt>
      <trkpt lat="48.58477" lon="-3.18689">
        <ele>210</ele>
        <time>2016-06-06T07:46:44.1Z</time>
      </trkpt>
      <trkpt lat="48.58478" lon="-3.18692">
        <ele>209</ele>
        <time>2016-06-06T07:46:47.1Z</time>
      </trkpt>
      <trkpt lat="48.58479" lon="-3.18694">
        <ele>209</ele>
        <time>2016-06-06T07:46:49.1Z</time>
      </trkpt>
      <trkpt lat="48.5848" lon="-3.18697">
        <ele>210</ele>
        <time>2016-06-06T07:46:53.1Z</time>
      </trkpt>
      <trkpt lat="48.5848" lon="-3.18699">
        <ele>210</ele>
        <time>2016-06-06T07:46:55.1Z</time>
      </trkpt>
      <trkpt lat="48.58479" lon="-3.18702">
        <ele>211</ele>
        <time>2016-06-06T07:46:57.1Z</time>
      </trkpt>
      <trkpt lat="48.58478" lon="-3.18705">
        <ele>210</ele>
        <time>2016-06-06T07:47:00.1Z</time>
      </trkpt>
      <trkpt lat="48.58476" lon="-3.18709">
        <ele>210</ele>
        <time>2016-06-06T07:47:02.1Z</time>
      </trkpt>
      <trkpt lat="48.58476" lon="-3.18712">
        <ele>210</ele>
        <time>2016-06-06T07:47:04.1Z</time>
      </trkpt>
      <trkpt lat="48.58475" lon="-3.18716">
        <ele>210</ele>
        <time>2016-06-06T07:47:07.1Z</time>
      </trkpt>
      <trkpt lat="48.58474" lon="-3.1872">
        <ele>210</ele>
        <time>2016-06-06T07:47:10.1Z</time>
      </trkpt>
      <trkpt lat="48.58473" lon="-3.18724">
        <ele>210</ele>
        <time>2016-06-06T07:47:13.1Z</time>
      </trkpt>
      <trkpt lat="48.58472" lon="-3.18728">
        <ele>210</ele>
        <time>2016-06-06T07:47:15.1Z</time>
      </trkpt>
      <trkpt lat="48.5847" lon="-3.18732">
        <ele>210</ele>
        <time>2016-06-06T07:47:19.1Z</time>
      </trkpt>
      <trkpt lat="48.58468" lon="-3.18737">
        <ele>210</ele>
        <time>2016-06-06T07:47:21.1Z</time>
      </trkpt>
      <trkpt lat="48.58467" lon="-3.1874">
        <ele>210</ele>
        <time>2016-06-06T07:47:23.1Z</time>
      </trkpt>
      <trkpt lat="48.58466" lon="-3.18743">
        <ele>210</ele>
        <time>2016-06-06T07:47:26.1Z</time>
      </trkpt>
      <trkpt lat="48.58465" lon="-3.18748">
        <ele>210</ele>
        <time>2016-06-06T07:47:28.1Z</time>
      </trkpt>
      <trkpt lat="48.58464" lon="-3.18753">
        <ele>210</ele>
        <time>2016-06-06T07:47:31.1Z</time>
      </trkpt>
      <trkpt lat="48.58461" lon="-3.18758">
        <ele>211</ele>
        <time>2016-06-06T07:47:34.1Z</time>
      </trkpt>
      <trkpt lat="48.58459" lon="-3.18762">
        <ele>210</ele>
        <time>2016-06-06T07:47:37.1Z</time>
      </trkpt>
      <trkpt lat="48.58458" lon="-3.18766">
        <ele>210</ele>
        <time>2016-06-06T07:47:40.1Z</time>
      </trkpt>
      <trkpt lat="48.58456" lon="-3.1877">
        <ele>210</ele>
        <time>2016-06-06T07:47:42.1Z</time>
      </trkpt>
      <trkpt lat="48.58454" lon="-3.18775">
        <ele>210</ele>
        <time>2016-06-06T07:47:45.1Z</time>
      </trkpt>
      <trkpt lat="48.58452" lon="-3.18779">
        <ele>210</ele>
        <time>2016-06-06T07:47:48.1Z</time>
      </trkpt>
      <trkpt lat="48.58451" lon="-3.18782">
        <ele>210</ele>
        <time>2016-06-06T07:47:50.1Z</time>
      </trkpt>
      <trkpt lat="48.5845" lon="-3.18784">
        <ele>210</ele>
        <time>2016-06-06T07:47:53.1Z</time>
      </trkpt>
      <trkpt lat="48.58449" lon="-3.18787">
        <ele>210</ele>
        <time>2016-06-06T07:47:55.1Z</time>
      </trkpt>
      <trkpt lat="48.58448" lon="-3.18789">
        <ele>210</ele>
        <time>2016-06-06T07:47:57.1Z</time>
      </trkpt>
      <trkpt lat="48.58445" lon="-3.18794">
        <ele>210</ele>
        <time>2016-06-06T07:48:00.1Z</time>
      </trkpt>
      <trkpt lat="48.58444" lon="-3.18796">
        <ele>210</ele>
        <time>2016-06-06T07:48:02.1Z</time>
      </trkpt>
      <trkpt lat="48.58442" lon="-3.188">
        <ele>210</ele>
        <time>2016-06-06T07:48:05.1Z</time>
      </trkpt>
      <trkpt lat="48.5844" lon="-3.18804">
        <ele>210</ele>
        <time>2016-06-06T07:48:08.1Z</time>
      </trkpt>
      <trkpt lat="48.58439" lon="-3.18806">
        <ele>210</ele>
        <time>2016-06-06T07:48:10.1Z</time>
      </trkpt>
      <trkpt lat="48.58436" lon="-3.18811">
        <ele>210</ele>
        <time>2016-06-06T07:48:13.1Z</time>
      </trkpt>
      <trkpt lat="48.58435" lon="-3.18814">
        <ele>210</ele>
        <time>2016-06-06T07:48:15.1Z</time>
      </trkpt>
      <trkpt lat="48.58432" lon="-3.18819">
        <ele>210</ele>
        <time>2016-06-06T07:48:19.1Z</time>
      </trkpt>
      <trkpt lat="48.58431" lon="-3.18824">
        <ele>210</ele>
        <time>2016-06-06T07:48:22.1Z</time>
      </trkpt>
      <trkpt lat="48.5843" lon="-3.18827">
        <ele>210</ele>
        <time>2016-06-06T07:48:24.1Z</time>
      </trkpt>
      <trkpt lat="48.58427" lon="-3.18832">
        <ele>210</ele>
        <time>2016-06-06T07:48:27.1Z</time>
      </trkpt>
      <trkpt lat="48.58426" lon="-3.18835">
        <ele>210</ele>
        <time>2016-06-06T07:48:29.1Z</time>
      </trkpt>
      <trkpt lat="48.58424" lon="-3.18841">
        <ele>210</ele>
        <time>2016-06-06T07:48:32.1Z</time>
      </trkpt>
      <trkpt lat="48.58422" lon="-3.18845">
        <ele>210</ele>
        <time>2016-06-06T07:48:35.1Z</time>
      </trkpt>
      <trkpt lat="48.58421" lon="-3.18848">
        <ele>210</ele>
        <time>2016-06-06T07:48:37.1Z</time>
      </trkpt>
      <trkpt lat="48.58418" lon="-3.18853">
        <ele>210</ele>
        <time>2016-06-06T07:48:40.1Z</time>
      </trkpt>
      <trkpt lat="48.58416" lon="-3.18856">
        <ele>210</ele>
        <time>2016-06-06T07:48:42.1Z</time>
      </trkpt>
      <trkpt lat="48.58415" lon="-3.1886">
        <ele>210</ele>
        <time>2016-06-06T07:48:45.1Z</time>
      </trkpt>
      <trkpt lat="48.58412" lon="-3.18864">
        <ele>211</ele>
        <time>2016-06-06T07:48:48.1Z</time>
      </trkpt>
      <trkpt lat="48.58411" lon="-3.18868">
        <ele>211</ele>
        <time>2016-06-06T07:48:50.1Z</time>
      </trkpt>
      <trkpt lat="48.58409" lon="-3.18873">
        <ele>211</ele>
        <time>2016-06-06T07:48:53.1Z</time>
      </trkpt>
      <trkpt lat="48.58406" lon="-3.18877">
        <ele>211</ele>
        <time>2016-06-06T07:48:56.1Z</time>
      </trkpt>
      <trkpt lat="48.58405" lon="-3.1888">
        <ele>211</ele>
        <time>2016-06-06T07:48:58.1Z</time>
      </trkpt>
      <trkpt lat="48.58402" lon="-3.18884">
        <ele>211</ele>
        <time>2016-06-06T07:49:01.1Z</time>
      </trkpt>
      <trkpt lat="48.584" lon="-3.18889">
        <ele>211</ele>
        <time>2016-06-06T07:49:04.1Z</time>
      </trkpt>
      <trkpt lat="48.58398" lon="-3.18892">
        <ele>211</ele>
        <time>2016-06-06T07:49:06.1Z</time>
      </trkpt>
      <trkpt lat="48.58396" lon="-3.18896">
        <ele>211</ele>
        <time>2016-06-06T07:49:09.1Z</time>
      </trkpt>
      <trkpt lat="48.58394" lon="-3.189">
        <ele>211</ele>
        <time>2016-06-06T07:49:12.1Z</time>
      </trkpt>
      <trkpt lat="48.58392" lon="-3.18904">
        <ele>211</ele>
        <time>2016-06-06T07:49:15.1Z</time>
      </trkpt>
      <trkpt lat="48.5839" lon="-3.18909">
        <ele>211</ele>
        <time>2016-06-06T07:49:18.1Z</time>
      </trkpt>
      <trkpt lat="48.58389" lon="-3.18913">
        <ele>211</ele>
        <time>2016-06-06T07:49:21.1Z</time>
      </trkpt>
      <trkpt lat="48.58387" lon="-3.18916">
        <ele>211</ele>
        <time>2016-06-06T07:49:23.1Z</time>
      </trkpt>
      <trkpt lat="48.58386" lon="-3.18919">
        <ele>211</ele>
        <time>2016-06-06T07:49:25.1Z</time>
      </trkpt>
      <trkpt lat="48.58384" lon="-3.18923">
        <ele>211</ele>
        <time>2016-06-06T07:49:28.1Z</time>
      </trkpt>
      <trkpt lat="48.58382" lon="-3.18927">
        <ele>211</ele>
        <time>2016-06-06T07:49:31.1Z</time>
      </trkpt>
      <trkpt lat="48.5838" lon="-3.18932">
        <ele>211</ele>
        <time>2016-06-06T07:49:34.1Z</time>
      </trkpt>
      <trkpt lat="48.58378" lon="-3.18935">
        <ele>211</ele>
        <time>2016-06-06T07:49:36.1Z</time>
      </trkpt>
      <trkpt lat="48.58376" lon="-3.18939">
        <ele>211</ele>
        <time>2016-06-06T07:49:39.1Z</time>
      </trkpt>
      <trkpt lat="48.58374" lon="-3.18942">
        <ele>211</ele>
        <time>2016-06-06T07:49:41.1Z</time>
      </trkpt>
      <trkpt lat="48.58372" lon="-3.18946">
        <ele>211</ele>
        <time>2016-06-06T07:49:44.1Z</time>
      </trkpt>
      <trkpt lat="48.58371" lon="-3.18948">
        <ele>211</ele>
        <time>2016-06-06T07:49:46.1Z</time>
      </trkpt>
      <trkpt lat="48.58369" lon="-3.18952">
        <ele>211</ele>
        <time>2016-06-06T07:49:49.1Z</time>
      </trkpt>
      <trkpt lat="48.58367" lon="-3.18955">
        <ele>211</ele>
        <time>2016-06-06T07:49:52.1Z</time>
      </trkpt>
      <trkpt lat="48.58365" lon="-3.18957">
        <ele>211</ele>
        <time>2016-06-06T07:49:54.1Z</time>
      </trkpt>
      <trkpt lat="48.58362" lon="-3.1896">
        <ele>211</ele>
        <time>2016-06-06T07:49:57.1Z</time>
      </trkpt>
      <trkpt lat="48.5836" lon="-3.18962">
        <ele>211</ele>
        <time>2016-06-06T07:49:59.1Z</time>
      </trkpt>
      <trkpt lat="48.58357" lon="-3.18965">
        <ele>211</ele>
        <time>2016-06-06T07:50:02.1Z</time>
      </trkpt>
      <trkpt lat="48.58354" lon="-3.18967">
        <ele>211</ele>
        <time>2016-06-06T07:50:05.1Z</time>
      </trkpt>
      <trkpt lat="48.58352" lon="-3.18969">
        <ele>211</ele>
        <time>2016-06-06T07:50:07.1Z</time>
      </trkpt>
      <trkpt lat="48.5835" lon="-3.18973">
        <ele>211</ele>
        <time>2016-06-06T07:50:10.1Z</time>
      </trkpt>
      <trkpt lat="48.58349" lon="-3.18976">
        <ele>211</ele>
        <time>2016-06-06T07:50:12.1Z</time>
      </trkpt>
      <trkpt lat="48.58346" lon="-3.1898">
        <ele>211</ele>
        <time>2016-06-06T07:50:15.1Z</time>
      </trkpt>
      <trkpt lat="48.58344" lon="-3.18984">
        <ele>211</ele>
        <time>2016-06-06T07:50:18.1Z</time>
      </trkpt>
      <trkpt lat="48.58342" lon="-3.18988">
        <ele>211</ele>
        <time>2016-06-06T07:50:21.1Z</time>
      </trkpt>
      <trkpt lat="48.58339" lon="-3.18993">
        <ele>211</ele>
        <time>2016-06-06T07:50:24.1Z</time>
      </trkpt>
      <trkpt lat="48.58338" lon="-3.18996">
        <ele>211</ele>
        <time>2016-06-06T07:50:26.1Z</time>
      </trkpt>
      <trkpt lat="48.58337" lon="-3.18999">
        <ele>211</ele>
        <time>2016-06-06T07:50:28.1Z</time>
      </trkpt>
      <trkpt lat="48.58334" lon="-3.19004">
        <ele>211</ele>
        <time>2016-06-06T07:50:31.1Z</time>
      </trkpt>
      <trkpt lat="48.58332" lon="-3.19006">
        <ele>211</ele>
        <time>2016-06-06T07:50:34.1Z</time>
      </trkpt>
      <trkpt lat="48.58331" lon="-3.19008">
        <ele>211</ele>
        <time>2016-06-06T07:50:36.1Z</time>
      </trkpt>
      <trkpt lat="48.58329" lon="-3.19012">
        <ele>212</ele>
        <time>2016-06-06T07:50:39.1Z</time>
      </trkpt>
      <trkpt lat="48.58327" lon="-3.19017">
        <ele>212</ele>
        <time>2016-06-06T07:50:42.1Z</time>
      </trkpt>
      <trkpt lat="48.58324" lon="-3.19022">
        <ele>212</ele>
        <time>2016-06-06T07:50:45.1Z</time>
      </trkpt>
      <trkpt lat="48.58322" lon="-3.19026">
        <ele>212</ele>
        <time>2016-06-06T07:50:48.1Z</time>
      </trkpt>
      <trkpt lat="48.5832" lon="-3.1903">
        <ele>212</ele>
        <time>2016-06-06T07:50:50.1Z</time>
      </trkpt>
      <trkpt lat="48.58318" lon="-3.19034">
        <ele>212</ele>
        <time>2016-06-06T07:50:52.1Z</time>
      </trkpt>
      <trkpt lat="48.58317" lon="-3.19039">
        <ele>212</ele>
        <time>2016-06-06T07:50:55.1Z</time>
      </trkpt>
      <trkpt lat="48.58316" lon="-3.19045">
        <ele>212</ele>
        <time>2016-06-06T07:50:58.1Z</time>
      </trkpt>
      <trkpt lat="48.58316" lon="-3.19048">
        <ele>212</ele>
        <time>2016-06-06T07:51:00.1Z</time>
      </trkpt>
      <trkpt lat="48.58314" lon="-3.19053">
        <ele>212</ele>
        <time>2016-06-06T07:51:03.1Z</time>
      </trkpt>
      <trkpt lat="48.58313" lon="-3.19058">
        <ele>212</ele>
        <time>2016-06-06T07:51:06.1Z</time>
      </trkpt>
      <trkpt lat="48.58313" lon="-3.19063">
        <ele>212</ele>
        <time>2016-06-06T07:51:09.1Z</time>
      </trkpt>
      <trkpt lat="48.58312" lon="-3.19067">
        <ele>212</ele>
        <time>2016-06-06T07:51:11.1Z</time>
      </trkpt>
      <trkpt lat="48.5831" lon="-3.19071">
        <ele>212</ele>
        <time>2016-06-06T07:51:14.1Z</time>
      </trkpt>
      <trkpt lat="48.5831" lon="-3.19076">
        <ele>213</ele>
        <time>2016-06-06T07:51:17.1Z</time>
      </trkpt>
      <trkpt lat="48.58309" lon="-3.19082">
        <ele>213</ele>
        <time>2016-06-06T07:51:20.1Z</time>
      </trkpt>
      <trkpt lat="48.5831" lon="-3.19085">
        <ele>213</ele>
        <time>2016-06-06T07:51:22.1Z</time>
      </trkpt>
      <trkpt lat="48.58309" lon="-3.1909">
        <ele>213</ele>
        <time>2016-06-06T07:51:25.1Z</time>
      </trkpt>
      <trkpt lat="48.5831" lon="-3.19095">
        <ele>213</ele>
        <time>2016-06-06T07:51:28.1Z</time>
      </trkpt>
      <trkpt lat="48.5831" lon="-3.191">
        <ele>213</ele>
        <time>2016-06-06T07:51:31.1Z</time>
      </trkpt>
      <trkpt lat="48.58309" lon="-3.19105">
        <ele>213</ele>
        <time>2016-06-06T07:51:34.1Z</time>
      </trkpt>
      <trkpt lat="48.58308" lon="-3.19108">
        <ele>213</ele>
        <time>2016-06-06T07:51:36.1Z</time>
      </trkpt>
      <trkpt lat="48.58307" lon="-3.19113">
        <ele>213</ele>
        <time>2016-06-06T07:51:39.1Z</time>
      </trkpt>
      <trkpt lat="48.58305" lon="-3.19116">
        <ele>213</ele>
        <time>2016-06-06T07:51:41.1Z</time>
      </trkpt>
      <trkpt lat="48.58304" lon="-3.19121">
        <ele>214</ele>
        <time>2016-06-06T07:51:44.1Z</time>
      </trkpt>
      <trkpt lat="48.58304" lon="-3.19125">
        <ele>214</ele>
        <time>2016-06-06T07:51:46.1Z</time>
      </trkpt>
      <trkpt lat="48.58302" lon="-3.19131">
        <ele>214</ele>
        <time>2016-06-06T07:51:49.1Z</time>
      </trkpt>
      <trkpt lat="48.58301" lon="-3.19136">
        <ele>214</ele>
        <time>2016-06-06T07:51:52.1Z</time>
      </trkpt>
      <trkpt lat="48.58299" lon="-3.19142">
        <ele>213</ele>
        <time>2016-06-06T07:51:55.1Z</time>
      </trkpt>
      <trkpt lat="48.58298" lon="-3.19145">
        <ele>213</ele>
        <time>2016-06-06T07:51:58.1Z</time>
      </trkpt>
      <trkpt lat="48.58297" lon="-3.19149">
        <ele>214</ele>
        <time>2016-06-06T07:52:00.1Z</time>
      </trkpt>
      <trkpt lat="48.58296" lon="-3.19151">
        <ele>214</ele>
        <time>2016-06-06T07:52:02.1Z</time>
      </trkpt>
      <trkpt lat="48.58295" lon="-3.19156">
        <ele>214</ele>
        <time>2016-06-06T07:52:05.1Z</time>
      </trkpt>
      <trkpt lat="48.58293" lon="-3.19161">
        <ele>214</ele>
        <time>2016-06-06T07:52:08.1Z</time>
      </trkpt>
      <trkpt lat="48.58292" lon="-3.19164">
        <ele>214</ele>
        <time>2016-06-06T07:52:10.1Z</time>
      </trkpt>
      <trkpt lat="48.5829" lon="-3.19169">
        <ele>214</ele>
        <time>2016-06-06T07:52:13.1Z</time>
      </trkpt>
      <trkpt lat="48.58287" lon="-3.19175">
        <ele>214</ele>
        <time>2016-06-06T07:52:16.1Z</time>
      </trkpt>
      <trkpt lat="48.58285" lon="-3.1918">
        <ele>214</ele>
        <time>2016-06-06T07:52:19.1Z</time>
      </trkpt>
      <trkpt lat="48.58284" lon="-3.19184">
        <ele>214</ele>
        <time>2016-06-06T07:52:22.1Z</time>
      </trkpt>
      <trkpt lat="48.58282" lon="-3.19188">
        <ele>214</ele>
        <time>2016-06-06T07:52:24.1Z</time>
      </trkpt>
      <trkpt lat="48.58279" lon="-3.19192">
        <ele>214</ele>
        <time>2016-06-06T07:52:27.1Z</time>
      </trkpt>
      <trkpt lat="48.58277" lon="-3.19197">
        <ele>214</ele>
        <time>2016-06-06T07:52:30.1Z</time>
      </trkpt>
      <trkpt lat="48.58275" lon="-3.19202">
        <ele>214</ele>
        <time>2016-06-06T07:52:33.1Z</time>
      </trkpt>
      <trkpt lat="48.58274" lon="-3.19207">
        <ele>215</ele>
        <time>2016-06-06T07:52:36.1Z</time>
      </trkpt>
      <trkpt lat="48.58273" lon="-3.19211">
        <ele>215</ele>
        <time>2016-06-06T07:52:38.1Z</time>
      </trkpt>
      <trkpt lat="48.58273" lon="-3.19215">
        <ele>215</ele>
        <time>2016-06-06T07:52:41.1Z</time>
      </trkpt>
      <trkpt lat="48.58272" lon="-3.19219">
        <ele>214</ele>
        <time>2016-06-06T07:52:43.1Z</time>
      </trkpt>
      <trkpt lat="48.58271" lon="-3.19223">
        <ele>214</ele>
        <time>2016-06-06T07:52:46.1Z</time>
      </trkpt>
      <trkpt lat="48.58271" lon="-3.19226">
        <ele>214</ele>
        <time>2016-06-06T07:52:48.1Z</time>
      </trkpt>
      <trkpt lat="48.58271" lon="-3.19229">
        <ele>214</ele>
        <time>2016-06-06T07:52:50.1Z</time>
      </trkpt>
      <trkpt lat="48.58271" lon="-3.19233">
        <ele>215</ele>
        <time>2016-06-06T07:52:53.1Z</time>
      </trkpt>
      <trkpt lat="48.5827" lon="-3.19239">
        <ele>215</ele>
        <time>2016-06-06T07:52:56.1Z</time>
      </trkpt>
      <trkpt lat="48.5827" lon="-3.19244">
        <ele>215</ele>
        <time>2016-06-06T07:52:59.1Z</time>
      </trkpt>
      <trkpt lat="48.58269" lon="-3.19249">
        <ele>215</ele>
        <time>2016-06-06T07:53:02.1Z</time>
      </trkpt>
      <trkpt lat="48.58268" lon="-3.19253">
        <ele>215</ele>
        <time>2016-06-06T07:53:05.1Z</time>
      </trkpt>
      <trkpt lat="48.58268" lon="-3.19257">
        <ele>215</ele>
        <time>2016-06-06T07:53:07.1Z</time>
      </trkpt>
      <trkpt lat="48.58267" lon="-3.19261">
        <ele>215</ele>
        <time>2016-06-06T07:53:09.1Z</time>
      </trkpt>
      <trkpt lat="48.58266" lon="-3.19267">
        <ele>215</ele>
        <time>2016-06-06T07:53:12.1Z</time>
      </trkpt>
      <trkpt lat="48.58265" lon="-3.19271">
        <ele>216</ele>
        <time>2016-06-06T07:53:15.1Z</time>
      </trkpt>
      <trkpt lat="48.58264" lon="-3.19277">
        <ele>216</ele>
        <time>2016-06-06T07:53:18.1Z</time>
      </trkpt>
      <trkpt lat="48.58263" lon="-3.19282">
        <ele>216</ele>
        <time>2016-06-06T07:53:21.1Z</time>
      </trkpt>
      <trkpt lat="48.58263" lon="-3.19287">
        <ele>216</ele>
        <time>2016-06-06T07:53:24.1Z</time>
      </trkpt>
      <trkpt lat="48.58262" lon="-3.1929">
        <ele>216</ele>
        <time>2016-06-06T07:53:26.1Z</time>
      </trkpt>
      <trkpt lat="48.58262" lon="-3.19293">
        <ele>216</ele>
        <time>2016-06-06T07:53:28.1Z</time>
      </trkpt>
      <trkpt lat="48.58261" lon="-3.19298">
        <ele>216</ele>
        <time>2016-06-06T07:53:31.1Z</time>
      </trkpt>
      <trkpt lat="48.5826" lon="-3.19302">
        <ele>216</ele>
        <time>2016-06-06T07:53:33.1Z</time>
      </trkpt>
      <trkpt lat="48.58259" lon="-3.19306">
        <ele>216</ele>
        <time>2016-06-06T07:53:36.1Z</time>
      </trkpt>
      <trkpt lat="48.58258" lon="-3.1931">
        <ele>216</ele>
        <time>2016-06-06T07:53:38.1Z</time>
      </trkpt>
      <trkpt lat="48.58257" lon="-3.19314">
        <ele>216</ele>
        <time>2016-06-06T07:53:40.1Z</time>
      </trkpt>
      <trkpt lat="48.58255" lon="-3.19318">
        <ele>216</ele>
        <time>2016-06-06T07:53:43.1Z</time>
      </trkpt>
      <trkpt lat="48.58255" lon="-3.19321">
        <ele>216</ele>
        <time>2016-06-06T07:53:45.1Z</time>
      </trkpt>
      <trkpt lat="48.58253" lon="-3.19326">
        <ele>216</ele>
        <time>2016-06-06T07:53:48.1Z</time>
      </trkpt>
      <trkpt lat="48.58252" lon="-3.1933">
        <ele>216</ele>
        <time>2016-06-06T07:53:50.1Z</time>
      </trkpt>
      <trkpt lat="48.58251" lon="-3.19336">
        <ele>217</ele>
        <time>2016-06-06T07:53:53.1Z</time>
      </trkpt>
      <trkpt lat="48.5825" lon="-3.19339">
        <ele>217</ele>
        <time>2016-06-06T07:53:55.1Z</time>
      </trkpt>
      <trkpt lat="48.58249" lon="-3.19344">
        <ele>217</ele>
        <time>2016-06-06T07:53:58.1Z</time>
      </trkpt>
      <trkpt lat="48.58248" lon="-3.19348">
        <ele>217</ele>
        <time>2016-06-06T07:54:00.1Z</time>
      </trkpt>
      <trkpt lat="48.58247" lon="-3.19354">
        <ele>217</ele>
        <time>2016-06-06T07:54:03.1Z</time>
      </trkpt>
      <trkpt lat="48.58246" lon="-3.19359">
        <ele>216</ele>
        <time>2016-06-06T07:54:06.1Z</time>
      </trkpt>
      <trkpt lat="48.58246" lon="-3.19362">
        <ele>216</ele>
        <time>2016-06-06T07:54:08.1Z</time>
      </trkpt>
      <trkpt lat="48.58245" lon="-3.19366">
        <ele>216</ele>
        <time>2016-06-06T07:54:11.1Z</time>
      </trkpt>
      <trkpt lat="48.58245" lon="-3.1937">
        <ele>216</ele>
        <time>2016-06-06T07:54:13.1Z</time>
      </trkpt>
      <trkpt lat="48.58245" lon="-3.19374">
        <ele>217</ele>
        <time>2016-06-06T07:54:15.1Z</time>
      </trkpt>
      <trkpt lat="48.58245" lon="-3.19378">
        <ele>216</ele>
        <time>2016-06-06T07:54:18.1Z</time>
      </trkpt>
      <trkpt lat="48.58245" lon="-3.19384">
        <ele>216</ele>
        <time>2016-06-06T07:54:21.1Z</time>
      </trkpt>
      <trkpt lat="48.58245" lon="-3.19389">
        <ele>217</ele>
        <time>2016-06-06T07:54:24.1Z</time>
      </trkpt>
      <trkpt lat="48.58245" lon="-3.19393">
        <ele>217</ele>
        <time>2016-06-06T07:54:27.1Z</time>
      </trkpt>
      <trkpt lat="48.58245" lon="-3.19398">
        <ele>217</ele>
        <time>2016-06-06T07:54:30.1Z</time>
      </trkpt>
      <trkpt lat="48.58245" lon="-3.19404">
        <ele>217</ele>
        <time>2016-06-06T07:54:33.1Z</time>
      </trkpt>
      <trkpt lat="48.58245" lon="-3.19408">
        <ele>217</ele>
        <time>2016-06-06T07:54:36.1Z</time>
      </trkpt>
      <trkpt lat="48.58245" lon="-3.19413">
        <ele>217</ele>
        <time>2016-06-06T07:54:39.1Z</time>
      </trkpt>
      <trkpt lat="48.58245" lon="-3.19415">
        <ele>217</ele>
        <time>2016-06-06T07:54:41.1Z</time>
      </trkpt>
      <trkpt lat="48.58245" lon="-3.19421">
        <ele>217</ele>
        <time>2016-06-06T07:54:44.1Z</time>
      </trkpt>
      <trkpt lat="48.58244" lon="-3.19424">
        <ele>218</ele>
        <time>2016-06-06T07:54:46.1Z</time>
      </trkpt>
      <trkpt lat="48.58244" lon="-3.1943">
        <ele>218</ele>
        <time>2016-06-06T07:54:49.1Z</time>
      </trkpt>
      <trkpt lat="48.58243" lon="-3.19434">
        <ele>217</ele>
        <time>2016-06-06T07:54:51.1Z</time>
      </trkpt>
      <trkpt lat="48.58242" lon="-3.19438">
        <ele>217</ele>
        <time>2016-06-06T07:54:54.1Z</time>
      </trkpt>
      <trkpt lat="48.58241" lon="-3.19443">
        <ele>217</ele>
        <time>2016-06-06T07:54:57.1Z</time>
      </trkpt>
      <trkpt lat="48.5824" lon="-3.19446">
        <ele>217</ele>
        <time>2016-06-06T07:54:59.1Z</time>
      </trkpt>
      <trkpt lat="48.5824" lon="-3.1945">
        <ele>218</ele>
        <time>2016-06-06T07:55:02.1Z</time>
      </trkpt>
      <trkpt lat="48.5824" lon="-3.19454">
        <ele>217</ele>
        <time>2016-06-06T07:55:05.1Z</time>
      </trkpt>
      <trkpt lat="48.58239" lon="-3.19459">
        <ele>217</ele>
        <time>2016-06-06T07:55:08.1Z</time>
      </trkpt>
      <trkpt lat="48.58239" lon="-3.19461">
        <ele>217</ele>
        <time>2016-06-06T07:55:10.1Z</time>
      </trkpt>
      <trkpt lat="48.58237" lon="-3.19466">
        <ele>218</ele>
        <time>2016-06-06T07:55:13.1Z</time>
      </trkpt>
      <trkpt lat="48.58236" lon="-3.1947">
        <ele>218</ele>
        <time>2016-06-06T07:55:15.1Z</time>
      </trkpt>
      <trkpt lat="48.58234" lon="-3.19475">
        <ele>218</ele>
        <time>2016-06-06T07:55:18.1Z</time>
      </trkpt>
      <trkpt lat="48.58234" lon="-3.19481">
        <ele>218</ele>
        <time>2016-06-06T07:55:21.1Z</time>
      </trkpt>
      <trkpt lat="48.58232" lon="-3.19484">
        <ele>217</ele>
        <time>2016-06-06T07:55:23.1Z</time>
      </trkpt>
      <trkpt lat="48.58231" lon="-3.1949">
        <ele>217</ele>
        <time>2016-06-06T07:55:26.1Z</time>
      </trkpt>
      <trkpt lat="48.5823" lon="-3.19495">
        <ele>217</ele>
        <time>2016-06-06T07:55:29.1Z</time>
      </trkpt>
      <trkpt lat="48.58229" lon="-3.19498">
        <ele>218</ele>
        <time>2016-06-06T07:55:31.1Z</time>
      </trkpt>
      <trkpt lat="48.58228" lon="-3.19504">
        <ele>218</ele>
        <time>2016-06-06T07:55:34.1Z</time>
      </trkpt>
      <trkpt lat="48.58227" lon="-3.19507">
        <ele>218</ele>
        <time>2016-06-06T07:55:36.1Z</time>
      </trkpt>
      <trkpt lat="48.58225" lon="-3.19514">
        <ele>218</ele>
        <time>2016-06-06T07:55:39.1Z</time>
      </trkpt>
      <trkpt lat="48.58223" lon="-3.19517">
        <ele>217</ele>
        <time>2016-06-06T07:55:41.1Z</time>
      </trkpt>
      <trkpt lat="48.58222" lon="-3.1952">
        <ele>218</ele>
        <time>2016-06-06T07:55:44.1Z</time>
      </trkpt>
      <trkpt lat="48.5822" lon="-3.19524">
        <ele>217</ele>
        <time>2016-06-06T07:55:47.1Z</time>
      </trkpt>
      <trkpt lat="48.58218" lon="-3.19526">
        <ele>217</ele>
        <time>2016-06-06T07:55:49.1Z</time>
      </trkpt>
      <trkpt lat="48.58215" lon="-3.1953">
        <ele>217</ele>
        <time>2016-06-06T07:55:52.1Z</time>
      </trkpt>
      <trkpt lat="48.58214" lon="-3.19532">
        <ele>217</ele>
        <time>2016-06-06T07:55:54.1Z</time>
      </trkpt>
      <trkpt lat="48.58212" lon="-3.19536">
        <ele>217</ele>
        <time>2016-06-06T07:55:57.1Z</time>
      </trkpt>
      <trkpt lat="48.58209" lon="-3.1954">
        <ele>217</ele>
        <time>2016-06-06T07:56:00.1Z</time>
      </trkpt>
      <trkpt lat="48.58208" lon="-3.19542">
        <ele>217</ele>
        <time>2016-06-06T07:56:03.1Z</time>
      </trkpt>
      <trkpt lat="48.58207" lon="-3.19542">
        <ele>217</ele>
        <time>2016-06-06T07:56:05.1Z</time>
      </trkpt>
      <trkpt lat="48.58206" lon="-3.19545">
        <ele>217</ele>
        <time>2016-06-06T07:56:08.1Z</time>
      </trkpt>
      <trkpt lat="48.58205" lon="-3.19545">
        <ele>217</ele>
        <time>2016-06-06T07:56:10.1Z</time>
      </trkpt>
      <trkpt lat="48.58204" lon="-3.19546">
        <ele>217</ele>
        <time>2016-06-06T07:56:12.1Z</time>
      </trkpt>
      <trkpt lat="48.58202" lon="-3.19548">
        <ele>218</ele>
        <time>2016-06-06T07:56:15.1Z</time>
      </trkpt>
      <trkpt lat="48.582" lon="-3.19548">
        <ele>218</ele>
        <time>2016-06-06T07:56:17.1Z</time>
      </trkpt>
      <trkpt lat="48.58199" lon="-3.19548">
        <ele>218</ele>
        <time>2016-06-06T07:56:19.1Z</time>
      </trkpt>
      <trkpt lat="48.58197" lon="-3.19547">
        <ele>218</ele>
        <time>2016-06-06T07:56:22.1Z</time>
      </trkpt>
      <trkpt lat="48.58197" lon="-3.19545">
        <ele>218</ele>
        <time>2016-06-06T07:56:24.1Z</time>
      </trkpt>
      <trkpt lat="48.58195" lon="-3.19544">
        <ele>218</ele>
        <time>2016-06-06T07:56:26.1Z</time>
      </trkpt>
      <trkpt lat="48.58194" lon="-3.1954">
        <ele>218</ele>
        <time>2016-06-06T07:56:29.1Z</time>
      </trkpt>
      <trkpt lat="48.58192" lon="-3.19537">
        <ele>218</ele>
        <time>2016-06-06T07:56:32.1Z</time>
      </trkpt>
      <trkpt lat="48.58191" lon="-3.19533">
        <ele>218</ele>
        <time>2016-06-06T07:56:35.1Z</time>
      </trkpt>
      <trkpt lat="48.58189" lon="-3.1953">
        <ele>218</ele>
        <time>2016-06-06T07:56:38.1Z</time>
      </trkpt>
      <trkpt lat="48.58187" lon="-3.19525">
        <ele>218</ele>
        <time>2016-06-06T07:56:41.1Z</time>
      </trkpt>
      <trkpt lat="48.58186" lon="-3.19521">
        <ele>218</ele>
        <time>2016-06-06T07:56:44.1Z</time>
      </trkpt>
      <trkpt lat="48.58184" lon="-3.19519">
        <ele>218</ele>
        <time>2016-06-06T07:56:46.1Z</time>
      </trkpt>
      <trkpt lat="48.58182" lon="-3.19516">
        <ele>218</ele>
        <time>2016-06-06T07:56:49.1Z</time>
      </trkpt>
      <trkpt lat="48.58181" lon="-3.19513">
        <ele>219</ele>
        <time>2016-06-06T07:56:52.1Z</time>
      </trkpt>
      <trkpt lat="48.58178" lon="-3.19509">
        <ele>219</ele>
        <time>2016-06-06T07:56:55.1Z</time>
      </trkpt>
      <trkpt lat="48.58176" lon="-3.19505">
        <ele>218</ele>
        <time>2016-06-06T07:56:58.1Z</time>
      </trkpt>
      <trkpt lat="48.58173" lon="-3.195">
        <ele>218</ele>
        <time>2016-06-06T07:57:01.1Z</time>
      </trkpt>
      <trkpt lat="48.58171" lon="-3.19498">
        <ele>218</ele>
        <time>2016-06-06T07:57:03.1Z</time>
      </trkpt>
      <trkpt lat="48.58169" lon="-3.19493">
        <ele>218</ele>
        <time>2016-06-06T07:57:06.1Z</time>
      </trkpt>
      <trkpt lat="48.58167" lon="-3.1949">
        <ele>218</ele>
        <time>2016-06-06T07:57:09.1Z</time>
      </trkpt>
      <trkpt lat="48.58165" lon="-3.19487">
        <ele>218</ele>
        <time>2016-06-06T07:57:12.1Z</time>
      </trkpt>
      <trkpt lat="48.58163" lon="-3.19485">
        <ele>218</ele>
        <time>2016-06-06T07:57:14.1Z</time>
      </trkpt>
      <trkpt lat="48.5816" lon="-3.19482">
        <ele>218</ele>
        <time>2016-06-06T07:57:17.1Z</time>
      </trkpt>
      <trkpt lat="48.58157" lon="-3.19479">
        <ele>218</ele>
        <time>2016-06-06T07:57:20.1Z</time>
      </trkpt>
      <trkpt lat="48.58155" lon="-3.19476">
        <ele>218</ele>
        <time>2016-06-06T07:57:22.1Z</time>
      </trkpt>
      <trkpt lat="48.58153" lon="-3.19472">
        <ele>218</ele>
        <time>2016-06-06T07:57:25.1Z</time>
      </trkpt>
      <trkpt lat="48.58152" lon="-3.1947">
        <ele>218</ele>
        <time>2016-06-06T07:57:27.1Z</time>
      </trkpt>
      <trkpt lat="48.58149" lon="-3.19466">
        <ele>218</ele>
        <time>2016-06-06T07:57:30.1Z</time>
      </trkpt>
      <trkpt lat="48.58147" lon="-3.19462">
        <ele>218</ele>
        <time>2016-06-06T07:57:33.1Z</time>
      </trkpt>
      <trkpt lat="48.58144" lon="-3.19459">
        <ele>218</ele>
        <time>2016-06-06T07:57:36.1Z</time>
      </trkpt>
      <trkpt lat="48.5814" lon="-3.19455">
        <ele>218</ele>
        <time>2016-06-06T07:57:39.1Z</time>
      </trkpt>
      <trkpt lat="48.58139" lon="-3.19453">
        <ele>218</ele>
        <time>2016-06-06T07:57:41.1Z</time>
      </trkpt>
      <trkpt lat="48.58136" lon="-3.1945">
        <ele>218</ele>
        <time>2016-06-06T07:57:44.1Z</time>
      </trkpt>
      <trkpt lat="48.58133" lon="-3.19449">
        <ele>218</ele>
        <time>2016-06-06T07:57:47.1Z</time>
      </trkpt>
      <trkpt lat="48.58129" lon="-3.19449">
        <ele>218</ele>
        <time>2016-06-06T07:57:50.1Z</time>
      </trkpt>
      <trkpt lat="48.58127" lon="-3.19451">
        <ele>218</ele>
        <time>2016-06-06T07:57:52.1Z</time>
      </trkpt>
      <trkpt lat="48.58125" lon="-3.19454">
        <ele>218</ele>
        <time>2016-06-06T07:57:54.1Z</time>
      </trkpt>
      <trkpt lat="48.58124" lon="-3.19456">
        <ele>218</ele>
        <time>2016-06-06T07:57:56.1Z</time>
      </trkpt>
      <trkpt lat="48.58122" lon="-3.19461">
        <ele>218</ele>
        <time>2016-06-06T07:57:59.1Z</time>
      </trkpt>
      <trkpt lat="48.5812" lon="-3.19465">
        <ele>218</ele>
        <time>2016-06-06T07:58:02.1Z</time>
      </trkpt>
      <trkpt lat="48.58119" lon="-3.19471">
        <ele>218</ele>
        <time>2016-06-06T07:58:05.1Z</time>
      </trkpt>
      <trkpt lat="48.58117" lon="-3.19476">
        <ele>218</ele>
        <time>2016-06-06T07:58:08.1Z</time>
      </trkpt>
      <trkpt lat="48.58116" lon="-3.19481">
        <ele>218</ele>
        <time>2016-06-06T07:58:11.1Z</time>
      </trkpt>
      <trkpt lat="48.58115" lon="-3.19485">
        <ele>218</ele>
        <time>2016-06-06T07:58:13.1Z</time>
      </trkpt>
      <trkpt lat="48.58115" lon="-3.19491">
        <ele>218</ele>
        <time>2016-06-06T07:58:16.1Z</time>
      </trkpt>
      <trkpt lat="48.58114" lon="-3.19494">
        <ele>218</ele>
        <time>2016-06-06T07:58:18.1Z</time>
      </trkpt>
      <trkpt lat="48.58113" lon="-3.195">
        <ele>218</ele>
        <time>2016-06-06T07:58:21.1Z</time>
      </trkpt>
      <trkpt lat="48.58112" lon="-3.19503">
        <ele>218</ele>
        <time>2016-06-06T07:58:23.1Z</time>
      </trkpt>
      <trkpt lat="48.58111" lon="-3.19506">
        <ele>217</ele>
        <time>2016-06-06T07:58:25.1Z</time>
      </trkpt>
      <trkpt lat="48.5811" lon="-3.19511">
        <ele>217</ele>
        <time>2016-06-06T07:58:28.1Z</time>
      </trkpt>
      <trkpt lat="48.58109" lon="-3.19515">
        <ele>217</ele>
        <time>2016-06-06T07:58:30.1Z</time>
      </trkpt>
      <trkpt lat="48.58108" lon="-3.19519">
        <ele>217</ele>
        <time>2016-06-06T07:58:33.1Z</time>
      </trkpt>
      <trkpt lat="48.58107" lon="-3.19523">
        <ele>217</ele>
        <time>2016-06-06T07:58:35.1Z</time>
      </trkpt>
      <trkpt lat="48.58107" lon="-3.19528">
        <ele>217</ele>
        <time>2016-06-06T07:58:38.1Z</time>
      </trkpt>
      <trkpt lat="48.58107" lon="-3.19533">
        <ele>217</ele>
        <time>2016-06-06T07:58:41.1Z</time>
      </trkpt>
      <trkpt lat="48.58107" lon="-3.19537">
        <ele>216</ele>
        <time>2016-06-06T07:58:43.1Z</time>
      </trkpt>
      <trkpt lat="48.58106" lon="-3.19541">
        <ele>216</ele>
        <time>2016-06-06T07:58:46.1Z</time>
      </trkpt>
      <trkpt lat="48.58105" lon="-3.19544">
        <ele>216</ele>
        <time>2016-06-06T07:58:48.1Z</time>
      </trkpt>
      <trkpt lat="48.58104" lon="-3.1955">
        <ele>216</ele>
        <time>2016-06-06T07:58:51.1Z</time>
      </trkpt>
      <trkpt lat="48.58104" lon="-3.19553">
        <ele>216</ele>
        <time>2016-06-06T07:58:53.1Z</time>
      </trkpt>
      <trkpt lat="48.58102" lon="-3.19559">
        <ele>216</ele>
        <time>2016-06-06T07:58:56.1Z</time>
      </trkpt>
      <trkpt lat="48.58101" lon="-3.19565">
        <ele>216</ele>
        <time>2016-06-06T07:58:59.1Z</time>
      </trkpt>
      <trkpt lat="48.581" lon="-3.19569">
        <ele>216</ele>
        <time>2016-06-06T07:59:02.1Z</time>
      </trkpt>
      <trkpt lat="48.581" lon="-3.19575">
        <ele>216</ele>
        <time>2016-06-06T07:59:05.1Z</time>
      </trkpt>
      <trkpt lat="48.581" lon="-3.19579">
        <ele>216</ele>
        <time>2016-06-06T07:59:08.1Z</time>
      </trkpt>
      <trkpt lat="48.58099" lon="-3.19584">
        <ele>216</ele>
        <time>2016-06-06T07:59:11.1Z</time>
      </trkpt>
      <trkpt lat="48.58097" lon="-3.19589">
        <ele>216</ele>
        <time>2016-06-06T07:59:14.1Z</time>
      </trkpt>
      <trkpt lat="48.58096" lon="-3.19594">
        <ele>216</ele>
        <time>2016-06-06T07:59:17.1Z</time>
      </trkpt>
      <trkpt lat="48.58096" lon="-3.196">
        <ele>216</ele>
        <time>2016-06-06T07:59:20.1Z</time>
      </trkpt>
      <trkpt lat="48.58095" lon="-3.19604">
        <ele>216</ele>
        <time>2016-06-06T07:59:23.1Z</time>
      </trkpt>
      <trkpt lat="48.58094" lon="-3.19609">
        <ele>216</ele>
        <time>2016-06-06T07:59:26.1Z</time>
      </trkpt>
      <trkpt lat="48.58093" lon="-3.19612">
        <ele>216</ele>
        <time>2016-06-06T07:59:28.1Z</time>
      </trkpt>
      <trkpt lat="48.58091" lon="-3.19617">
        <ele>216</ele>
        <time>2016-06-06T07:59:31.1Z</time>
      </trkpt>
      <trkpt lat="48.58091" lon="-3.19621">
        <ele>216</ele>
        <time>2016-06-06T07:59:33.1Z</time>
      </trkpt>
      <trkpt lat="48.58089" lon="-3.19625">
        <ele>216</ele>
        <time>2016-06-06T07:59:36.1Z</time>
      </trkpt>
      <trkpt lat="48.58089" lon="-3.19629">
        <ele>216</ele>
        <time>2016-06-06T07:59:38.1Z</time>
      </trkpt>
      <trkpt lat="48.58088" lon="-3.19635">
        <ele>216</ele>
        <time>2016-06-06T07:59:41.1Z</time>
      </trkpt>
      <trkpt lat="48.58088" lon="-3.1964">
        <ele>216</ele>
        <time>2016-06-06T07:59:44.1Z</time>
      </trkpt>
      <trkpt lat="48.58087" lon="-3.19644">
        <ele>216</ele>
        <time>2016-06-06T07:59:46.1Z</time>
      </trkpt>
      <trkpt lat="48.58086" lon="-3.19647">
        <ele>216</ele>
        <time>2016-06-06T07:59:48.1Z</time>
      </trkpt>
      <trkpt lat="48.58086" lon="-3.19651">
        <ele>216</ele>
        <time>2016-06-06T07:59:51.1Z</time>
      </trkpt>
      <trkpt lat="48.58084" lon="-3.19657">
        <ele>216</ele>
        <time>2016-06-06T07:59:54.1Z</time>
      </trkpt>
      <trkpt lat="48.58083" lon="-3.19662">
        <ele>216</ele>
        <time>2016-06-06T07:59:57.1Z</time>
      </trkpt>
      <trkpt lat="48.58082" lon="-3.19668">
        <ele>216</ele>
        <time>2016-06-06T08:00:00.1Z</time>
      </trkpt>
      <trkpt lat="48.58081" lon="-3.1967">
        <ele>216</ele>
        <time>2016-06-06T08:00:02.1Z</time>
      </trkpt>
      <trkpt lat="48.5808" lon="-3.19673">
        <ele>216</ele>
        <time>2016-06-06T08:00:04.1Z</time>
      </trkpt>
      <trkpt lat="48.5808" lon="-3.19679">
        <ele>216</ele>
        <time>2016-06-06T08:00:07.1Z</time>
      </trkpt>
      <trkpt lat="48.58079" lon="-3.19683">
        <ele>216</ele>
        <time>2016-06-06T08:00:09.1Z</time>
      </trkpt>
      <trkpt lat="48.58078" lon="-3.19688">
        <ele>217</ele>
        <time>2016-06-06T08:00:12.1Z</time>
      </trkpt>
      <trkpt lat="48.58076" lon="-3.19693">
        <ele>217</ele>
        <time>2016-06-06T08:00:15.1Z</time>
      </trkpt>
      <trkpt lat="48.58075" lon="-3.19698">
        <ele>217</ele>
        <time>2016-06-06T08:00:18.1Z</time>
      </trkpt>
      <trkpt lat="48.58074" lon="-3.19702">
        <ele>216</ele>
        <time>2016-06-06T08:00:20.1Z</time>
      </trkpt>
      <trkpt lat="48.58073" lon="-3.19708">
        <ele>216</ele>
        <time>2016-06-06T08:00:23.1Z</time>
      </trkpt>
      <trkpt lat="48.58072" lon="-3.19714">
        <ele>216</ele>
        <time>2016-06-06T08:00:26.1Z</time>
      </trkpt>
      <trkpt lat="48.58071" lon="-3.19718">
        <ele>216</ele>
        <time>2016-06-06T08:00:28.1Z</time>
      </trkpt>
      <trkpt lat="48.58071" lon="-3.19723">
        <ele>217</ele>
        <time>2016-06-06T08:00:31.1Z</time>
      </trkpt>
      <trkpt lat="48.5807" lon="-3.19726">
        <ele>216</ele>
        <time>2016-06-06T08:00:33.1Z</time>
      </trkpt>
      <trkpt lat="48.5807" lon="-3.1973">
        <ele>216</ele>
        <time>2016-06-06T08:00:35.1Z</time>
      </trkpt>
      <trkpt lat="48.58069" lon="-3.19734">
        <ele>216</ele>
        <time>2016-06-06T08:00:38.1Z</time>
      </trkpt>
      <trkpt lat="48.58068" lon="-3.19738">
        <ele>217</ele>
        <time>2016-06-06T08:00:40.1Z</time>
      </trkpt>
      <trkpt lat="48.58067" lon="-3.19743">
        <ele>217</ele>
        <time>2016-06-06T08:00:43.1Z</time>
      </trkpt>
      <trkpt lat="48.58067" lon="-3.19746">
        <ele>217</ele>
        <time>2016-06-06T08:00:45.1Z</time>
      </trkpt>
      <trkpt lat="48.58066" lon="-3.19752">
        <ele>216</ele>
        <time>2016-06-06T08:00:48.1Z</time>
      </trkpt>
      <trkpt lat="48.58065" lon="-3.19757">
        <ele>217</ele>
        <time>2016-06-06T08:00:51.1Z</time>
      </trkpt>
      <trkpt lat="48.58064" lon="-3.19762">
        <ele>217</ele>
        <time>2016-06-06T08:00:54.1Z</time>
      </trkpt>
      <trkpt lat="48.58063" lon="-3.19767">
        <ele>217</ele>
        <time>2016-06-06T08:00:57.1Z</time>
      </trkpt>
      <trkpt lat="48.58062" lon="-3.1977">
        <ele>217</ele>
        <time>2016-06-06T08:00:59.1Z</time>
      </trkpt>
      <trkpt lat="48.58061" lon="-3.19775">
        <ele>217</ele>
        <time>2016-06-06T08:01:02.1Z</time>
      </trkpt>
      <trkpt lat="48.5806" lon="-3.19779">
        <ele>217</ele>
        <time>2016-06-06T08:01:05.1Z</time>
      </trkpt>
      <trkpt lat="48.58059" lon="-3.19783">
        <ele>216</ele>
        <time>2016-06-06T08:01:07.1Z</time>
      </trkpt>
      <trkpt lat="48.58059" lon="-3.19787">
        <ele>217</ele>
        <time>2016-06-06T08:01:10.1Z</time>
      </trkpt>
      <trkpt lat="48.58058" lon="-3.1979">
        <ele>217</ele>
        <time>2016-06-06T08:01:12.1Z</time>
      </trkpt>
      <trkpt lat="48.58057" lon="-3.19795">
        <ele>217</ele>
        <time>2016-06-06T08:01:15.1Z</time>
      </trkpt>
      <trkpt lat="48.58057" lon="-3.19798">
        <ele>217</ele>
        <time>2016-06-06T08:01:17.1Z</time>
      </trkpt>
      <trkpt lat="48.58057" lon="-3.19803">
        <ele>217</ele>
        <time>2016-06-06T08:01:20.1Z</time>
      </trkpt>
      <trkpt lat="48.58059" lon="-3.19807">
        <ele>217</ele>
        <time>2016-06-06T08:01:23.1Z</time>
      </trkpt>
      <trkpt lat="48.58062" lon="-3.19811">
        <ele>217</ele>
        <time>2016-06-06T08:01:26.1Z</time>
      </trkpt>
      <trkpt lat="48.58064" lon="-3.19812">
        <ele>217</ele>
        <time>2016-06-06T08:01:28.1Z</time>
      </trkpt>
      <trkpt lat="48.58066" lon="-3.19812">
        <ele>217</ele>
        <time>2016-06-06T08:01:30.1Z</time>
      </trkpt>
      <trkpt lat="48.58069" lon="-3.19813">
        <ele>217</ele>
        <time>2016-06-06T08:01:33.1Z</time>
      </trkpt>
      <trkpt lat="48.58073" lon="-3.19813">
        <ele>217</ele>
        <time>2016-06-06T08:01:36.1Z</time>
      </trkpt>
      <trkpt lat="48.58075" lon="-3.19812">
        <ele>217</ele>
        <time>2016-06-06T08:01:38.1Z</time>
      </trkpt>
      <trkpt lat="48.58079" lon="-3.19812">
        <ele>217</ele>
        <time>2016-06-06T08:01:41.1Z</time>
      </trkpt>
      <trkpt lat="48.58082" lon="-3.19812">
        <ele>217</ele>
        <time>2016-06-06T08:01:43.1Z</time>
      </trkpt>
      <trkpt lat="48.58085" lon="-3.19812">
        <ele>217</ele>
        <time>2016-06-06T08:01:46.1Z</time>
      </trkpt>
      <trkpt lat="48.58088" lon="-3.19812">
        <ele>217</ele>
        <time>2016-06-06T08:01:48.1Z</time>
      </trkpt>
      <trkpt lat="48.58091" lon="-3.19812">
        <ele>217</ele>
        <time>2016-06-06T08:01:51.1Z</time>
      </trkpt>
      <trkpt lat="48.58095" lon="-3.19812">
        <ele>217</ele>
        <time>2016-06-06T08:01:54.1Z</time>
      </trkpt>
      <trkpt lat="48.58097" lon="-3.19811">
        <ele>217</ele>
        <time>2016-06-06T08:01:56.1Z</time>
      </trkpt>
      <trkpt lat="48.58099" lon="-3.19811">
        <ele>217</ele>
        <time>2016-06-06T08:01:58.1Z</time>
      </trkpt>
      <trkpt lat="48.58102" lon="-3.19811">
        <ele>217</ele>
        <time>2016-06-06T08:02:01.1Z</time>
      </trkpt>
      <trkpt lat="48.58104" lon="-3.19811">
        <ele>218</ele>
        <time>2016-06-06T08:02:04.1Z</time>
      </trkpt>
      <trkpt lat="48.58106" lon="-3.19811">
        <ele>218</ele>
        <time>2016-06-06T08:02:06.1Z</time>
      </trkpt>
      <trkpt lat="48.58109" lon="-3.19811">
        <ele>218</ele>
        <time>2016-06-06T08:02:09.1Z</time>
      </trkpt>
      <trkpt lat="48.58112" lon="-3.1981">
        <ele>218</ele>
        <time>2016-06-06T08:02:12.1Z</time>
      </trkpt>
      <trkpt lat="48.58115" lon="-3.19809">
        <ele>218</ele>
        <time>2016-06-06T08:02:14.1Z</time>
      </trkpt>
      <trkpt lat="48.58117" lon="-3.19809">
        <ele>218</ele>
        <time>2016-06-06T08:02:16.1Z</time>
      </trkpt>
      <trkpt lat="48.5812" lon="-3.19808">
        <ele>218</ele>
        <time>2016-06-06T08:02:19.1Z</time>
      </trkpt>
      <trkpt lat="48.58124" lon="-3.19809">
        <ele>218</ele>
        <time>2016-06-06T08:02:22.1Z</time>
      </trkpt>
      <trkpt lat="48.58126" lon="-3.19809">
        <ele>218</ele>
        <time>2016-06-06T08:02:24.1Z</time>
      </trkpt>
      <trkpt lat="48.58129" lon="-3.19808">
        <ele>218</ele>
        <time>2016-06-06T08:02:27.1Z</time>
      </trkpt>
      <trkpt lat="48.58131" lon="-3.19809">
        <ele>218</ele>
        <time>2016-06-06T08:02:29.1Z</time>
      </trkpt>
      <trkpt lat="48.58134" lon="-3.19809">
        <ele>218</ele>
        <time>2016-06-06T08:02:32.1Z</time>
      </trkpt>
      <trkpt lat="48.58136" lon="-3.19809">
        <ele>218</ele>
        <time>2016-06-06T08:02:34.1Z</time>
      </trkpt>
      <trkpt lat="48.5814" lon="-3.1981">
        <ele>219</ele>
        <time>2016-06-06T08:02:37.1Z</time>
      </trkpt>
      <trkpt lat="48.58144" lon="-3.19811">
        <ele>219</ele>
        <time>2016-06-06T08:02:40.1Z</time>
      </trkpt>
      <trkpt lat="48.58148" lon="-3.19811">
        <ele>219</ele>
        <time>2016-06-06T08:02:43.1Z</time>
      </trkpt>
      <trkpt lat="48.58152" lon="-3.19813">
        <ele>218</ele>
        <time>2016-06-06T08:02:46.1Z</time>
      </trkpt>
      <trkpt lat="48.58155" lon="-3.19815">
        <ele>218</ele>
        <time>2016-06-06T08:02:49.1Z</time>
      </trkpt>
      <trkpt lat="48.58157" lon="-3.19815">
        <ele>219</ele>
        <time>2016-06-06T08:02:51.1Z</time>
      </trkpt>
      <trkpt lat="48.58161" lon="-3.19816">
        <ele>219</ele>
        <time>2016-06-06T08:02:54.1Z</time>
      </trkpt>
      <trkpt lat="48.58165" lon="-3.19816">
        <ele>218</ele>
        <time>2016-06-06T08:02:57.1Z</time>
      </trkpt>
      <trkpt lat="48.58168" lon="-3.19817">
        <ele>219</ele>
        <time>2016-06-06T08:02:59.1Z</time>
      </trkpt>
      <trkpt lat="48.58172" lon="-3.19817">
        <ele>219</ele>
        <time>2016-06-06T08:03:02.1Z</time>
      </trkpt>
      <trkpt lat="48.58175" lon="-3.19818">
        <ele>219</ele>
        <time>2016-06-06T08:03:04.1Z</time>
      </trkpt>
      <trkpt lat="48.58179" lon="-3.19819">
        <ele>219</ele>
        <time>2016-06-06T08:03:07.1Z</time>
      </trkpt>
      <trkpt lat="48.58183" lon="-3.1982">
        <ele>219</ele>
        <time>2016-06-06T08:03:10.1Z</time>
      </trkpt>
      <trkpt lat="48.58186" lon="-3.19821">
        <ele>219</ele>
        <time>2016-06-06T08:03:12.1Z</time>
      </trkpt>
      <trkpt lat="48.58189" lon="-3.19823">
        <ele>219</ele>
        <time>2016-06-06T08:03:15.1Z</time>
      </trkpt>
      <trkpt lat="48.58193" lon="-3.19826">
        <ele>219</ele>
        <time>2016-06-06T08:03:18.1Z</time>
      </trkpt>
      <trkpt lat="48.58196" lon="-3.19828">
        <ele>219</ele>
        <time>2016-06-06T08:03:21.1Z</time>
      </trkpt>
      <trkpt lat="48.58199" lon="-3.19831">
        <ele>219</ele>
        <time>2016-06-06T08:03:24.1Z</time>
      </trkpt>
      <trkpt lat="48.58202" lon="-3.19833">
        <ele>220</ele>
        <time>2016-06-06T08:03:27.1Z</time>
      </trkpt>
      <trkpt lat="48.58205" lon="-3.19836">
        <ele>220</ele>
        <time>2016-06-06T08:03:29.1Z</time>
      </trkpt>
      <trkpt lat="48.58207" lon="-3.19839">
        <ele>219</ele>
        <time>2016-06-06T08:03:32.1Z</time>
      </trkpt>
      <trkpt lat="48.58209" lon="-3.19843">
        <ele>219</ele>
        <time>2016-06-06T08:03:35.1Z</time>
      </trkpt>
      <trkpt lat="48.58211" lon="-3.19845">
        <ele>219</ele>
        <time>2016-06-06T08:03:37.1Z</time>
      </trkpt>
      <trkpt lat="48.58213" lon="-3.19848">
        <ele>220</ele>
        <time>2016-06-06T08:03:40.1Z</time>
      </trkpt>
      <trkpt lat="48.58215" lon="-3.19851">
        <ele>220</ele>
        <time>2016-06-06T08:03:42.1Z</time>
      </trkpt>
      <trkpt lat="48.58216" lon="-3.19855">
        <ele>220</ele>
        <time>2016-06-06T08:03:45.1Z</time>
      </trkpt>
      <trkpt lat="48.58218" lon="-3.19861">
        <ele>220</ele>
        <time>2016-06-06T08:03:48.1Z</time>
      </trkpt>
      <trkpt lat="48.5822" lon="-3.19863">
        <ele>220</ele>
        <time>2016-06-06T08:03:50.1Z</time>
      </trkpt>
      <trkpt lat="48.58221" lon="-3.19867">
        <ele>220</ele>
        <time>2016-06-06T08:03:53.1Z</time>
      </trkpt>
      <trkpt lat="48.58223" lon="-3.19873">
        <ele>220</ele>
        <time>2016-06-06T08:03:56.1Z</time>
      </trkpt>
      <trkpt lat="48.58225" lon="-3.19877">
        <ele>220</ele>
        <time>2016-06-06T08:03:59.1Z</time>
      </trkpt>
      <trkpt lat="48.58227" lon="-3.19882">
        <ele>220</ele>
        <time>2016-06-06T08:04:02.1Z</time>
      </trkpt>
      <trkpt lat="48.58228" lon="-3.19885">
        <ele>220</ele>
        <time>2016-06-06T08:04:04.1Z</time>
      </trkpt>
      <trkpt lat="48.58231" lon="-3.1989">
        <ele>220</ele>
        <time>2016-06-06T08:04:07.1Z</time>
      </trkpt>
      <trkpt lat="48.58231" lon="-3.19893">
        <ele>220</ele>
        <time>2016-06-06T08:04:09.1Z</time>
      </trkpt>
      <trkpt lat="48.58233" lon="-3.19896">
        <ele>221</ele>
        <time>2016-06-06T08:04:11.1Z</time>
      </trkpt>
      <trkpt lat="48.58236" lon="-3.19899">
        <ele>221</ele>
        <time>2016-06-06T08:04:14.1Z</time>
      </trkpt>
      <trkpt lat="48.58237" lon="-3.19902">
        <ele>221</ele>
        <time>2016-06-06T08:04:17.1Z</time>
      </trkpt>
      <trkpt lat="48.58239" lon="-3.19905">
        <ele>221</ele>
        <time>2016-06-06T08:04:19.1Z</time>
      </trkpt>
      <trkpt lat="48.58241" lon="-3.19907">
        <ele>221</ele>
        <time>2016-06-06T08:04:21.1Z</time>
      </trkpt>
      <trkpt lat="48.58242" lon="-3.19911">
        <ele>221</ele>
        <time>2016-06-06T08:04:24.1Z</time>
      </trkpt>
      <trkpt lat="48.58243" lon="-3.19913">
        <ele>221</ele>
        <time>2016-06-06T08:04:26.1Z</time>
      </trkpt>
      <trkpt lat="48.58246" lon="-3.19917">
        <ele>221</ele>
        <time>2016-06-06T08:04:29.1Z</time>
      </trkpt>
      <trkpt lat="48.58248" lon="-3.19919">
        <ele>221</ele>
        <time>2016-06-06T08:04:31.1Z</time>
      </trkpt>
      <trkpt lat="48.5825" lon="-3.19922">
        <ele>221</ele>
        <time>2016-06-06T08:04:33.1Z</time>
      </trkpt>
      <trkpt lat="48.58253" lon="-3.19926">
        <ele>221</ele>
        <time>2016-06-06T08:04:36.1Z</time>
      </trkpt>
      <trkpt lat="48.58256" lon="-3.1993">
        <ele>221</ele>
        <time>2016-06-06T08:04:39.1Z</time>
      </trkpt>
      <trkpt lat="48.58258" lon="-3.19934">
        <ele>221</ele>
        <time>2016-06-06T08:04:42.1Z</time>
      </trkpt>
      <trkpt lat="48.5826" lon="-3.19936">
        <ele>221</ele>
        <time>2016-06-06T08:04:44.1Z</time>
      </trkpt>
      <trkpt lat="48.58262" lon="-3.1994">
        <ele>221</ele>
        <time>2016-06-06T08:04:47.1Z</time>
      </trkpt>
      <trkpt lat="48.58264" lon="-3.19942">
        <ele>221</ele>
        <time>2016-06-06T08:04:49.1Z</time>
      </trkpt>
      <trkpt lat="48.58266" lon="-3.19946">
        <ele>221</ele>
        <time>2016-06-06T08:04:52.1Z</time>
      </trkpt>
      <trkpt lat="48.58268" lon="-3.1995">
        <ele>221</ele>
        <time>2016-06-06T08:04:55.1Z</time>
      </trkpt>
      <trkpt lat="48.5827" lon="-3.19954">
        <ele>221</ele>
        <time>2016-06-06T08:04:58.1Z</time>
      </trkpt>
      <trkpt lat="48.58273" lon="-3.19957">
        <ele>221</ele>
        <time>2016-06-06T08:05:01.1Z</time>
      </trkpt>
      <trkpt lat="48.58274" lon="-3.19959">
        <ele>221</ele>
        <time>2016-06-06T08:05:03.1Z</time>
      </trkpt>
      <trkpt lat="48.58275" lon="-3.19962">
        <ele>221</ele>
        <time>2016-06-06T08:05:05.1Z</time>
      </trkpt>
      <trkpt lat="48.58278" lon="-3.19966">
        <ele>221</ele>
        <time>2016-06-06T08:05:08.1Z</time>
      </trkpt>
      <trkpt lat="48.5828" lon="-3.19968">
        <ele>222</ele>
        <time>2016-06-06T08:05:11.1Z</time>
      </trkpt>
      <trkpt lat="48.58282" lon="-3.19972">
        <ele>222</ele>
        <time>2016-06-06T08:05:14.1Z</time>
      </trkpt>
      <trkpt lat="48.58285" lon="-3.19975">
        <ele>222</ele>
        <time>2016-06-06T08:05:17.1Z</time>
      </trkpt>
      <trkpt lat="48.58287" lon="-3.19978">
        <ele>222</ele>
        <time>2016-06-06T08:05:19.1Z</time>
      </trkpt>
      <trkpt lat="48.58289" lon="-3.19982">
        <ele>221</ele>
        <time>2016-06-06T08:05:22.1Z</time>
      </trkpt>
      <trkpt lat="48.58292" lon="-3.19985">
        <ele>222</ele>
        <time>2016-06-06T08:05:24.1Z</time>
      </trkpt>
      <trkpt lat="48.58294" lon="-3.19987">
        <ele>222</ele>
        <time>2016-06-06T08:05:26.1Z</time>
      </trkpt>
      <trkpt lat="48.58296" lon="-3.19991">
        <ele>222</ele>
        <time>2016-06-06T08:05:29.1Z</time>
      </trkpt>
      <trkpt lat="48.58299" lon="-3.19995">
        <ele>222</ele>
        <time>2016-06-06T08:05:32.1Z</time>
      </trkpt>
      <trkpt lat="48.58301" lon="-3.19999">
        <ele>222</ele>
        <time>2016-06-06T08:05:34.1Z</time>
      </trkpt>
      <trkpt lat="48.58303" lon="-3.20003">
        <ele>222</ele>
        <time>2016-06-06T08:05:37.1Z</time>
      </trkpt>
      <trkpt lat="48.58306" lon="-3.20006">
        <ele>222</ele>
        <time>2016-06-06T08:05:40.1Z</time>
      </trkpt>
      <trkpt lat="48.58307" lon="-3.20008">
        <ele>222</ele>
        <time>2016-06-06T08:05:42.1Z</time>
      </trkpt>
      <trkpt lat="48.5831" lon="-3.20011">
        <ele>222</ele>
        <time>2016-06-06T08:05:45.1Z</time>
      </trkpt>
      <trkpt lat="48.58311" lon="-3.20013">
        <ele>222</ele>
        <time>2016-06-06T08:05:47.1Z</time>
      </trkpt>
      <trkpt lat="48.58312" lon="-3.20015">
        <ele>222</ele>
        <time>2016-06-06T08:05:49.1Z</time>
      </trkpt>
      <trkpt lat="48.58315" lon="-3.20018">
        <ele>222</ele>
        <time>2016-06-06T08:05:52.1Z</time>
      </trkpt>
      <trkpt lat="48.58317" lon="-3.20022">
        <ele>222</ele>
        <time>2016-06-06T08:05:55.1Z</time>
      </trkpt>
      <trkpt lat="48.58318" lon="-3.20023">
        <ele>222</ele>
        <time>2016-06-06T08:05:57.1Z</time>
      </trkpt>
      <trkpt lat="48.58319" lon="-3.20025">
        <ele>222</ele>
        <time>2016-06-06T08:06:00.1Z</time>
      </trkpt>
      <trkpt lat="48.58321" lon="-3.20028">
        <ele>222</ele>
        <time>2016-06-06T08:06:03.1Z</time>
      </trkpt>
      <trkpt lat="48.58323" lon="-3.20031">
        <ele>222</ele>
        <time>2016-06-06T08:06:06.1Z</time>
      </trkpt>
      <trkpt lat="48.58324" lon="-3.20034">
        <ele>223</ele>
        <time>2016-06-06T08:06:09.1Z</time>
      </trkpt>
      <trkpt lat="48.58324" lon="-3.20036">
        <ele>223</ele>
        <time>2016-06-06T08:06:12.1Z</time>
      </trkpt>
      <trkpt lat="48.58324" lon="-3.20037">
        <ele>223</ele>
        <time>2016-06-06T08:06:14.1Z</time>
      </trkpt>
      <trkpt lat="48.58325" lon="-3.20038">
        <ele>223</ele>
        <time>2016-06-06T08:06:16.1Z</time>
      </trkpt>
      <trkpt lat="48.58325" lon="-3.20039">
        <ele>223</ele>
        <time>2016-06-06T08:06:19.1Z</time>
      </trkpt>
      <trkpt lat="48.58325" lon="-3.20039">
        <ele>223</ele>
        <time>2016-06-06T08:06:22.1Z</time>
      </trkpt>
      <trkpt lat="48.58325" lon="-3.20039">
        <ele>223</ele>
        <time>2016-06-06T08:06:24.1Z</time>
      </trkpt>
      <trkpt lat="48.58326" lon="-3.2004">
        <ele>223</ele>
        <time>2016-06-06T08:06:26.1Z</time>
      </trkpt>
      <trkpt lat="48.58326" lon="-3.20041">
        <ele>223</ele>
        <time>2016-06-06T08:06:29.1Z</time>
      </trkpt>
      <trkpt lat="48.58327" lon="-3.20042">
        <ele>223</ele>
        <time>2016-06-06T08:06:31.1Z</time>
      </trkpt>
      <trkpt lat="48.58328" lon="-3.20043">
        <ele>223</ele>
        <time>2016-06-06T08:06:34.1Z</time>
      </trkpt>
      <trkpt lat="48.58328" lon="-3.20043">
        <ele>223</ele>
        <time>2016-06-06T08:06:36.1Z</time>
      </trkpt>
      <trkpt lat="48.58328" lon="-3.20044">
        <ele>222</ele>
        <time>2016-06-06T08:06:39.1Z</time>
      </trkpt>
      <trkpt lat="48.58329" lon="-3.20044">
        <ele>222</ele>
        <time>2016-06-06T08:06:41.1Z</time>
      </trkpt>
      <trkpt lat="48.58328" lon="-3.20045">
        <ele>222</ele>
        <time>2016-06-06T08:06:44.1Z</time>
      </trkpt>
      <trkpt lat="48.58327" lon="-3.20045">
        <ele>222</ele>
        <time>2016-06-06T08:06:46.1Z</time>
      </trkpt>
      <trkpt lat="48.58325" lon="-3.20047">
        <ele>223</ele>
        <time>2016-06-06T08:06:49.1Z</time>
      </trkpt>
      <trkpt lat="48.58324" lon="-3.20048">
        <ele>223</ele>
        <time>2016-06-06T08:06:51.1Z</time>
      </trkpt>
      <trkpt lat="48.58322" lon="-3.2005">
        <ele>223</ele>
        <time>2016-06-06T08:06:54.1Z</time>
      </trkpt>
      <trkpt lat="48.58321" lon="-3.20051">
        <ele>223</ele>
        <time>2016-06-06T08:06:56.1Z</time>
      </trkpt>
      <trkpt lat="48.58321" lon="-3.20053">
        <ele>222</ele>
        <time>2016-06-06T08:06:58.1Z</time>
      </trkpt>
      <trkpt lat="48.5832" lon="-3.20055">
        <ele>222</ele>
        <time>2016-06-06T08:07:00.1Z</time>
      </trkpt>
      <trkpt lat="48.58318" lon="-3.20059">
        <ele>222</ele>
        <time>2016-06-06T08:07:03.1Z</time>
      </trkpt>
      <trkpt lat="48.58317" lon="-3.20063">
        <ele>222</ele>
        <time>2016-06-06T08:07:06.1Z</time>
      </trkpt>
      <trkpt lat="48.58316" lon="-3.20066">
        <ele>222</ele>
        <time>2016-06-06T08:07:08.1Z</time>
      </trkpt>
      <trkpt lat="48.58314" lon="-3.2007">
        <ele>222</ele>
        <time>2016-06-06T08:07:11.1Z</time>
      </trkpt>
      <trkpt lat="48.58313" lon="-3.20075">
        <ele>222</ele>
        <time>2016-06-06T08:07:14.1Z</time>
      </trkpt>
      <trkpt lat="48.5831" lon="-3.20079">
        <ele>223</ele>
        <time>2016-06-06T08:07:17.1Z</time>
      </trkpt>
      <trkpt lat="48.58309" lon="-3.20082">
        <ele>222</ele>
        <time>2016-06-06T08:07:19.1Z</time>
      </trkpt>
      <trkpt lat="48.58306" lon="-3.20086">
        <ele>222</ele>
        <time>2016-06-06T08:07:22.1Z</time>
      </trkpt>
      <trkpt lat="48.58305" lon="-3.2009">
        <ele>223</ele>
        <time>2016-06-06T08:07:24.1Z</time>
      </trkpt>
      <trkpt lat="48.58302" lon="-3.20093">
        <ele>223</ele>
        <time>2016-06-06T08:07:27.1Z</time>
      </trkpt>
      <trkpt lat="48.583" lon="-3.20098">
        <ele>223</ele>
        <time>2016-06-06T08:07:30.1Z</time>
      </trkpt>
      <trkpt lat="48.58299" lon="-3.20101">
        <ele>223</ele>
        <time>2016-06-06T08:07:33.1Z</time>
      </trkpt>
      <trkpt lat="48.58298" lon="-3.20104">
        <ele>223</ele>
        <time>2016-06-06T08:07:35.1Z</time>
      </trkpt>
      <trkpt lat="48.58297" lon="-3.20108">
        <ele>223</ele>
        <time>2016-06-06T08:07:37.1Z</time>
      </trkpt>
      <trkpt lat="48.58296" lon="-3.20112">
        <ele>223</ele>
        <time>2016-06-06T08:07:40.1Z</time>
      </trkpt>
      <trkpt lat="48.58294" lon="-3.20116">
        <ele>223</ele>
        <time>2016-06-06T08:07:43.1Z</time>
      </trkpt>
      <trkpt lat="48.58292" lon="-3.20119">
        <ele>223</ele>
        <time>2016-06-06T08:07:45.1Z</time>
      </trkpt>
      <trkpt lat="48.58291" lon="-3.20124">
        <ele>223</ele>
        <time>2016-06-06T08:07:48.1Z</time>
      </trkpt>
      <trkpt lat="48.58289" lon="-3.20128">
        <ele>223</ele>
        <time>2016-06-06T08:07:50.1Z</time>
      </trkpt>
      <trkpt lat="48.58288" lon="-3.20131">
        <ele>224</ele>
        <time>2016-06-06T08:07:52.1Z</time>
      </trkpt>
      <trkpt lat="48.58287" lon="-3.20136">
        <ele>224</ele>
        <time>2016-06-06T08:07:55.1Z</time>
      </trkpt>
      <trkpt lat="48.58287" lon="-3.20139">
        <ele>224</ele>
        <time>2016-06-06T08:07:57.1Z</time>
      </trkpt>
      <trkpt lat="48.58286" lon="-3.20144">
        <ele>224</ele>
        <time>2016-06-06T08:08:00.1Z</time>
      </trkpt>
      <trkpt lat="48.58285" lon="-3.20144">
        <ele>224</ele>
        <time>2016-06-06T08:08:03.1Z</time>
      </trkpt>
      <trkpt lat="48.58284" lon="-3.20146">
        <ele>224</ele>
        <time>2016-06-06T08:08:06.1Z</time>
      </trkpt>
      <trkpt lat="48.58282" lon="-3.20149">
        <ele>224</ele>
        <time>2016-06-06T08:08:09.1Z</time>
      </trkpt>
      <trkpt lat="48.5828" lon="-3.20154">
        <ele>223</ele>
        <time>2016-06-06T08:08:12.1Z</time>
      </trkpt>
      <trkpt lat="48.58279" lon="-3.20159">
        <ele>223</ele>
        <time>2016-06-06T08:08:15.1Z</time>
      </trkpt>
      <trkpt lat="48.58278" lon="-3.20163">
        <ele>223</ele>
        <time>2016-06-06T08:08:17.1Z</time>
      </trkpt>
      <trkpt lat="48.58276" lon="-3.20168">
        <ele>224</ele>
        <time>2016-06-06T08:08:20.1Z</time>
      </trkpt>
      <trkpt lat="48.58274" lon="-3.20172">
        <ele>224</ele>
        <time>2016-06-06T08:08:22.1Z</time>
      </trkpt>
      <trkpt lat="48.58273" lon="-3.20177">
        <ele>224</ele>
        <time>2016-06-06T08:08:25.1Z</time>
      </trkpt>
      <trkpt lat="48.58272" lon="-3.2018">
        <ele>224</ele>
        <time>2016-06-06T08:08:27.1Z</time>
      </trkpt>
      <trkpt lat="48.58271" lon="-3.20184">
        <ele>224</ele>
        <time>2016-06-06T08:08:29.1Z</time>
      </trkpt>
      <trkpt lat="48.5827" lon="-3.20188">
        <ele>224</ele>
        <time>2016-06-06T08:08:32.1Z</time>
      </trkpt>
      <trkpt lat="48.58269" lon="-3.20193">
        <ele>224</ele>
        <time>2016-06-06T08:08:35.1Z</time>
      </trkpt>
      <trkpt lat="48.58267" lon="-3.20197">
        <ele>225</ele>
        <time>2016-06-06T08:08:38.1Z</time>
      </trkpt>
      <trkpt lat="48.58266" lon="-3.202">
        <ele>224</ele>
        <time>2016-06-06T08:08:40.1Z</time>
      </trkpt>
      <trkpt lat="48.58266" lon="-3.20204">
        <ele>224</ele>
        <time>2016-06-06T08:08:42.1Z</time>
      </trkpt>
      <trkpt lat="48.58265" lon="-3.20209">
        <ele>224</ele>
        <time>2016-06-06T08:08:45.1Z</time>
      </trkpt>
      <trkpt lat="48.58265" lon="-3.20215">
        <ele>224</ele>
        <time>2016-06-06T08:08:48.1Z</time>
      </trkpt>
      <trkpt lat="48.58264" lon="-3.2022">
        <ele>224</ele>
        <time>2016-06-06T08:08:51.1Z</time>
      </trkpt>
      <trkpt lat="48.58263" lon="-3.20224">
        <ele>224</ele>
        <time>2016-06-06T08:08:53.1Z</time>
      </trkpt>
      <trkpt lat="48.58262" lon="-3.20228">
        <ele>224</ele>
        <time>2016-06-06T08:08:56.1Z</time>
      </trkpt>
      <trkpt lat="48.5826" lon="-3.20232">
        <ele>224</ele>
        <time>2016-06-06T08:08:58.1Z</time>
      </trkpt>
      <trkpt lat="48.58259" lon="-3.20235">
        <ele>225</ele>
        <time>2016-06-06T08:09:01.1Z</time>
      </trkpt>
      <trkpt lat="48.58259" lon="-3.20238">
        <ele>225</ele>
        <time>2016-06-06T08:09:03.1Z</time>
      </trkpt>
      <trkpt lat="48.58258" lon="-3.2024">
        <ele>224</ele>
        <time>2016-06-06T08:09:05.1Z</time>
      </trkpt>
      <trkpt lat="48.58258" lon="-3.20244">
        <ele>225</ele>
        <time>2016-06-06T08:09:08.1Z</time>
      </trkpt>
      <trkpt lat="48.58257" lon="-3.20248">
        <ele>225</ele>
        <time>2016-06-06T08:09:10.1Z</time>
      </trkpt>
      <trkpt lat="48.58255" lon="-3.20251">
        <ele>225</ele>
        <time>2016-06-06T08:09:13.1Z</time>
      </trkpt>
      <trkpt lat="48.58255" lon="-3.20255">
        <ele>225</ele>
        <time>2016-06-06T08:09:15.1Z</time>
      </trkpt>
      <trkpt lat="48.58253" lon="-3.2026">
        <ele>225</ele>
        <time>2016-06-06T08:09:18.1Z</time>
      </trkpt>
      <trkpt lat="48.58252" lon="-3.20265">
        <ele>225</ele>
        <time>2016-06-06T08:09:21.1Z</time>
      </trkpt>
      <trkpt lat="48.58251" lon="-3.20267">
        <ele>225</ele>
        <time>2016-06-06T08:09:23.1Z</time>
      </trkpt>
      <trkpt lat="48.58251" lon="-3.2027">
        <ele>225</ele>
        <time>2016-06-06T08:09:25.1Z</time>
      </trkpt>
      <trkpt lat="48.5825" lon="-3.20275">
        <ele>225</ele>
        <time>2016-06-06T08:09:28.1Z</time>
      </trkpt>
      <trkpt lat="48.58249" lon="-3.20279">
        <ele>225</ele>
        <time>2016-06-06T08:09:30.1Z</time>
      </trkpt>
      <trkpt lat="48.58248" lon="-3.20282">
        <ele>225</ele>
        <time>2016-06-06T08:09:32.1Z</time>
      </trkpt>
      <trkpt lat="48.58247" lon="-3.20288">
        <ele>225</ele>
        <time>2016-06-06T08:09:35.1Z</time>
      </trkpt>
      <trkpt lat="48.58245" lon="-3.20294">
        <ele>225</ele>
        <time>2016-06-06T08:09:38.1Z</time>
      </trkpt>
      <trkpt lat="48.58244" lon="-3.203">
        <ele>225</ele>
        <time>2016-06-06T08:09:41.1Z</time>
      </trkpt>
      <trkpt lat="48.58244" lon="-3.20306">
        <ele>225</ele>
        <time>2016-06-06T08:09:44.1Z</time>
      </trkpt>
      <trkpt lat="48.58242" lon="-3.2031">
        <ele>225</ele>
        <time>2016-06-06T08:09:46.1Z</time>
      </trkpt>
      <trkpt lat="48.58241" lon="-3.20315">
        <ele>225</ele>
        <time>2016-06-06T08:09:49.1Z</time>
      </trkpt>
      <trkpt lat="48.58241" lon="-3.20319">
        <ele>226</ele>
        <time>2016-06-06T08:09:51.1Z</time>
      </trkpt>
      <trkpt lat="48.58239" lon="-3.20324">
        <ele>226</ele>
        <time>2016-06-06T08:09:54.1Z</time>
      </trkpt>
      <trkpt lat="48.58238" lon="-3.2033">
        <ele>226</ele>
        <time>2016-06-06T08:09:57.1Z</time>
      </trkpt>
      <trkpt lat="48.58237" lon="-3.20336">
        <ele>226</ele>
        <time>2016-06-06T08:10:00.1Z</time>
      </trkpt>
      <trkpt lat="48.58236" lon="-3.20341">
        <ele>226</ele>
        <time>2016-06-06T08:10:03.1Z</time>
      </trkpt>
      <trkpt lat="48.58235" lon="-3.20345">
        <ele>226</ele>
        <time>2016-06-06T08:10:05.1Z</time>
      </trkpt>
      <trkpt lat="48.58234" lon="-3.20351">
        <ele>226</ele>
        <time>2016-06-06T08:10:08.1Z</time>
      </trkpt>
      <trkpt lat="48.58234" lon="-3.20355">
        <ele>226</ele>
        <time>2016-06-06T08:10:10.1Z</time>
      </trkpt>
      <trkpt lat="48.58233" lon="-3.20358">
        <ele>226</ele>
        <time>2016-06-06T08:10:12.1Z</time>
      </trkpt>
      <trkpt lat="48.58232" lon="-3.20364">
        <ele>226</ele>
        <time>2016-06-06T08:10:15.1Z</time>
      </trkpt>
      <trkpt lat="48.58232" lon="-3.20369">
        <ele>226</ele>
        <time>2016-06-06T08:10:18.1Z</time>
      </trkpt>
      <trkpt lat="48.58231" lon="-3.20374">
        <ele>226</ele>
        <time>2016-06-06T08:10:21.1Z</time>
      </trkpt>
      <trkpt lat="48.5823" lon="-3.2038">
        <ele>226</ele>
        <time>2016-06-06T08:10:24.1Z</time>
      </trkpt>
      <trkpt lat="48.58229" lon="-3.20385">
        <ele>226</ele>
        <time>2016-06-06T08:10:27.1Z</time>
      </trkpt>
      <trkpt lat="48.58228" lon="-3.20391">
        <ele>226</ele>
        <time>2016-06-06T08:10:30.1Z</time>
      </trkpt>
      <trkpt lat="48.58226" lon="-3.20394">
        <ele>226</ele>
        <time>2016-06-06T08:10:32.1Z</time>
      </trkpt>
      <trkpt lat="48.58226" lon="-3.204">
        <ele>226</ele>
        <time>2016-06-06T08:10:35.1Z</time>
      </trkpt>
      <trkpt lat="48.58225" lon="-3.20404">
        <ele>226</ele>
        <time>2016-06-06T08:10:37.1Z</time>
      </trkpt>
      <trkpt lat="48.58224" lon="-3.20409">
        <ele>226</ele>
        <time>2016-06-06T08:10:40.1Z</time>
      </trkpt>
      <trkpt lat="48.58223" lon="-3.20414">
        <ele>226</ele>
        <time>2016-06-06T08:10:43.1Z</time>
      </trkpt>
      <trkpt lat="48.58223" lon="-3.20416">
        <ele>226</ele>
        <time>2016-06-06T08:10:45.1Z</time>
      </trkpt>
      <trkpt lat="48.58221" lon="-3.20422">
        <ele>226</ele>
        <time>2016-06-06T08:10:48.1Z</time>
      </trkpt>
      <trkpt lat="48.58221" lon="-3.20424">
        <ele>226</ele>
        <time>2016-06-06T08:10:50.1Z</time>
      </trkpt>
      <trkpt lat="48.58219" lon="-3.20426">
        <ele>226</ele>
        <time>2016-06-06T08:10:52.1Z</time>
      </trkpt>
      <trkpt lat="48.58217" lon="-3.20429">
        <ele>226</ele>
        <time>2016-06-06T08:10:55.1Z</time>
      </trkpt>
      <trkpt lat="48.58215" lon="-3.20432">
        <ele>226</ele>
        <time>2016-06-06T08:10:57.1Z</time>
      </trkpt>
      <trkpt lat="48.58213" lon="-3.20435">
        <ele>227</ele>
        <time>2016-06-06T08:11:00.1Z</time>
      </trkpt>
      <trkpt lat="48.58212" lon="-3.20437">
        <ele>226</ele>
        <time>2016-06-06T08:11:02.1Z</time>
      </trkpt>
      <trkpt lat="48.58211" lon="-3.20438">
        <ele>227</ele>
        <time>2016-06-06T08:11:04.1Z</time>
      </trkpt>
      <trkpt lat="48.58209" lon="-3.20441">
        <ele>226</ele>
        <time>2016-06-06T08:11:07.1Z</time>
      </trkpt>
      <trkpt lat="48.58207" lon="-3.20443">
        <ele>226</ele>
        <time>2016-06-06T08:11:10.1Z</time>
      </trkpt>
      <trkpt lat="48.58205" lon="-3.20445">
        <ele>226</ele>
        <time>2016-06-06T08:11:12.1Z</time>
      </trkpt>
      <trkpt lat="48.58203" lon="-3.20447">
        <ele>226</ele>
        <time>2016-06-06T08:11:15.1Z</time>
      </trkpt>
      <trkpt lat="48.58201" lon="-3.20449">
        <ele>226</ele>
        <time>2016-06-06T08:11:17.1Z</time>
      </trkpt>
      <trkpt lat="48.58199" lon="-3.20452">
        <ele>226</ele>
        <time>2016-06-06T08:11:20.1Z</time>
      </trkpt>
      <trkpt lat="48.58197" lon="-3.20454">
        <ele>226</ele>
        <time>2016-06-06T08:11:22.1Z</time>
      </trkpt>
      <trkpt lat="48.58194" lon="-3.20457">
        <ele>226</ele>
        <time>2016-06-06T08:11:25.1Z</time>
      </trkpt>
      <trkpt lat="48.58192" lon="-3.20459">
        <ele>226</ele>
        <time>2016-06-06T08:11:28.1Z</time>
      </trkpt>
      <trkpt lat="48.5819" lon="-3.20461">
        <ele>226</ele>
        <time>2016-06-06T08:11:30.1Z</time>
      </trkpt>
      <trkpt lat="48.58187" lon="-3.20463">
        <ele>226</ele>
        <time>2016-06-06T08:11:32.1Z</time>
      </trkpt>
      <trkpt lat="48.58185" lon="-3.20466">
        <ele>226</ele>
        <time>2016-06-06T08:11:35.1Z</time>
      </trkpt>
      <trkpt lat="48.58183" lon="-3.20467">
        <ele>226</ele>
        <time>2016-06-06T08:11:37.1Z</time>
      </trkpt>
      <trkpt lat="48.5818" lon="-3.2047">
        <ele>226</ele>
        <time>2016-06-06T08:11:40.1Z</time>
      </trkpt>
      <trkpt lat="48.58177" lon="-3.20472">
        <ele>226</ele>
        <time>2016-06-06T08:11:43.1Z</time>
      </trkpt>
      <trkpt lat="48.58175" lon="-3.20472">
        <ele>226</ele>
        <time>2016-06-06T08:11:45.1Z</time>
      </trkpt>
      <trkpt lat="48.58173" lon="-3.20473">
        <ele>226</ele>
        <time>2016-06-06T08:11:47.1Z</time>
      </trkpt>
      <trkpt lat="48.5817" lon="-3.20475">
        <ele>226</ele>
        <time>2016-06-06T08:11:50.1Z</time>
      </trkpt>
      <trkpt lat="48.58166" lon="-3.20477">
        <ele>226</ele>
        <time>2016-06-06T08:11:53.1Z</time>
      </trkpt>
      <trkpt lat="48.58163" lon="-3.20479">
        <ele>226</ele>
        <time>2016-06-06T08:11:56.1Z</time>
      </trkpt>
      <trkpt lat="48.58161" lon="-3.20479">
        <ele>226</ele>
        <time>2016-06-06T08:11:58.1Z</time>
      </trkpt>
      <trkpt lat="48.58159" lon="-3.2048">
        <ele>226</ele>
        <time>2016-06-06T08:12:00.1Z</time>
      </trkpt>
      <trkpt lat="48.58155" lon="-3.20481">
        <ele>226</ele>
        <time>2016-06-06T08:12:03.1Z</time>
      </trkpt>
      <trkpt lat="48.58152" lon="-3.20482">
        <ele>226</ele>
        <time>2016-06-06T08:12:06.1Z</time>
      </trkpt>
      <trkpt lat="48.58149" lon="-3.20483">
        <ele>226</ele>
        <time>2016-06-06T08:12:09.1Z</time>
      </trkpt>
      <trkpt lat="48.58147" lon="-3.20484">
        <ele>226</ele>
        <time>2016-06-06T08:12:11.1Z</time>
      </trkpt>
      <trkpt lat="48.58145" lon="-3.20485">
        <ele>226</ele>
        <time>2016-06-06T08:12:13.1Z</time>
      </trkpt>
      <trkpt lat="48.58141" lon="-3.20488">
        <ele>226</ele>
        <time>2016-06-06T08:12:16.1Z</time>
      </trkpt>
      <trkpt lat="48.58139" lon="-3.20491">
        <ele>225</ele>
        <time>2016-06-06T08:12:19.1Z</time>
      </trkpt>
      <trkpt lat="48.58139" lon="-3.20496">
        <ele>225</ele>
        <time>2016-06-06T08:12:22.1Z</time>
      </trkpt>
      <trkpt lat="48.5814" lon="-3.20498">
        <ele>225</ele>
        <time>2016-06-06T08:12:24.1Z</time>
      </trkpt>
      <trkpt lat="48.58142" lon="-3.205">
        <ele>225</ele>
        <time>2016-06-06T08:12:27.1Z</time>
      </trkpt>
      <trkpt lat="48.58145" lon="-3.20502">
        <ele>225</ele>
        <time>2016-06-06T08:12:30.1Z</time>
      </trkpt>
      <trkpt lat="48.58147" lon="-3.20503">
        <ele>226</ele>
        <time>2016-06-06T08:12:32.1Z</time>
      </trkpt>
      <trkpt lat="48.58149" lon="-3.20505">
        <ele>226</ele>
        <time>2016-06-06T08:12:35.1Z</time>
      </trkpt>
      <trkpt lat="48.58152" lon="-3.20508">
        <ele>226</ele>
        <time>2016-06-06T08:12:38.1Z</time>
      </trkpt>
      <trkpt lat="48.58155" lon="-3.2051">
        <ele>226</ele>
        <time>2016-06-06T08:12:41.1Z</time>
      </trkpt>
      <trkpt lat="48.58157" lon="-3.20511">
        <ele>226</ele>
        <time>2016-06-06T08:12:44.1Z</time>
      </trkpt>
      <trkpt lat="48.58158" lon="-3.20512">
        <ele>226</ele>
        <time>2016-06-06T08:12:46.1Z</time>
      </trkpt>
      <trkpt lat="48.58159" lon="-3.20513">
        <ele>226</ele>
        <time>2016-06-06T08:12:48.1Z</time>
      </trkpt>
      <trkpt lat="48.58159" lon="-3.20513">
        <ele>226</ele>
        <time>2016-06-06T08:12:51.1Z</time>
      </trkpt>
      <trkpt lat="48.58159" lon="-3.20514">
        <ele>226</ele>
        <time>2016-06-06T08:12:54.1Z</time>
      </trkpt>
      <trkpt lat="48.5816" lon="-3.20514">
        <ele>226</ele>
        <time>2016-06-06T08:12:56.1Z</time>
      </trkpt>
      <trkpt lat="48.5816" lon="-3.20515">
        <ele>226</ele>
        <time>2016-06-06T08:12:58.1Z</time>
      </trkpt>
      <trkpt lat="48.5816" lon="-3.20516">
        <ele>226</ele>
        <time>2016-06-06T08:13:01.1Z</time>
      </trkpt>
      <trkpt lat="48.5816" lon="-3.20516">
        <ele>226</ele>
        <time>2016-06-06T08:13:05.1Z</time>
      </trkpt>
      <trkpt lat="48.5816" lon="-3.20515">
        <ele>226</ele>
        <time>2016-06-06T08:13:07.1Z</time>
      </trkpt>
      <trkpt lat="48.5816" lon="-3.20515">
        <ele>226</ele>
        <time>2016-06-06T08:13:11.1Z</time>
      </trkpt>
      <trkpt lat="48.5816" lon="-3.20515">
        <ele>226</ele>
        <time>2016-06-06T08:13:13.1Z</time>
      </trkpt>
      <trkpt lat="48.5816" lon="-3.20514">
        <ele>226</ele>
        <time>2016-06-06T08:13:16.1Z</time>
      </trkpt>
      <trkpt lat="48.5816" lon="-3.20514">
        <ele>226</ele>
        <time>2016-06-06T08:13:18.1Z</time>
      </trkpt>
      <trkpt lat="48.5816" lon="-3.20514">
        <ele>226</ele>
        <time>2016-06-06T08:13:22.1Z</time>
      </trkpt>
      <trkpt lat="48.5816" lon="-3.20513">
        <ele>227</ele>
        <time>2016-06-06T08:13:25.1Z</time>
      </trkpt>
      <trkpt lat="48.5816" lon="-3.20513">
        <ele>226</ele>
        <time>2016-06-06T08:13:27.1Z</time>
      </trkpt>
      <trkpt lat="48.5816" lon="-3.20512">
        <ele>227</ele>
        <time>2016-06-06T08:13:30.1Z</time>
      </trkpt>
      <trkpt lat="48.5816" lon="-3.20512">
        <ele>226</ele>
        <time>2016-06-06T08:13:33.1Z</time>
      </trkpt>
      <trkpt lat="48.5816" lon="-3.20512">
        <ele>226</ele>
        <time>2016-06-06T08:13:37.1Z</time>
      </trkpt>
      <trkpt lat="48.58161" lon="-3.20514">
        <ele>226</ele>
        <time>2016-06-06T08:13:39.1Z</time>
      </trkpt>
      <trkpt lat="48.58163" lon="-3.20518">
        <ele>226</ele>
        <time>2016-06-06T08:13:42.1Z</time>
      </trkpt>
      <trkpt lat="48.58165" lon="-3.20521">
        <ele>226</ele>
        <time>2016-06-06T08:13:45.1Z</time>
      </trkpt>
      <trkpt lat="48.58168" lon="-3.20524">
        <ele>227</ele>
        <time>2016-06-06T08:13:48.1Z</time>
      </trkpt>
      <trkpt lat="48.5817" lon="-3.20526">
        <ele>227</ele>
        <time>2016-06-06T08:13:50.1Z</time>
      </trkpt>
      <trkpt lat="48.58172" lon="-3.20529">
        <ele>227</ele>
        <time>2016-06-06T08:13:53.1Z</time>
      </trkpt>
      <trkpt lat="48.58174" lon="-3.2053">
        <ele>226</ele>
        <time>2016-06-06T08:13:55.1Z</time>
      </trkpt>
      <trkpt lat="48.58177" lon="-3.20532">
        <ele>226</ele>
        <time>2016-06-06T08:13:58.1Z</time>
      </trkpt>
      <trkpt lat="48.5818" lon="-3.20534">
        <ele>226</ele>
        <time>2016-06-06T08:14:01.1Z</time>
      </trkpt>
      <trkpt lat="48.58183" lon="-3.20535">
        <ele>226</ele>
        <time>2016-06-06T08:14:04.1Z</time>
      </trkpt>
      <trkpt lat="48.58186" lon="-3.20536">
        <ele>226</ele>
        <time>2016-06-06T08:14:07.1Z</time>
      </trkpt>
      <trkpt lat="48.5819" lon="-3.20537">
        <ele>227</ele>
        <time>2016-06-06T08:14:10.1Z</time>
      </trkpt>
      <trkpt lat="48.58193" lon="-3.20539">
        <ele>227</ele>
        <time>2016-06-06T08:14:13.1Z</time>
      </trkpt>
      <trkpt lat="48.58195" lon="-3.2054">
        <ele>227</ele>
        <time>2016-06-06T08:14:15.1Z</time>
      </trkpt>
      <trkpt lat="48.58199" lon="-3.20542">
        <ele>227</ele>
        <time>2016-06-06T08:14:18.1Z</time>
      </trkpt>
      <trkpt lat="48.58201" lon="-3.20542">
        <ele>227</ele>
        <time>2016-06-06T08:14:20.1Z</time>
      </trkpt>
      <trkpt lat="48.58204" lon="-3.20544">
        <ele>227</ele>
        <time>2016-06-06T08:14:22.1Z</time>
      </trkpt>
      <trkpt lat="48.58207" lon="-3.20545">
        <ele>227</ele>
        <time>2016-06-06T08:14:25.1Z</time>
      </trkpt>
      <trkpt lat="48.5821" lon="-3.20545">
        <ele>227</ele>
        <time>2016-06-06T08:14:28.1Z</time>
      </trkpt>
      <trkpt lat="48.58213" lon="-3.20543">
        <ele>227</ele>
        <time>2016-06-06T08:14:31.1Z</time>
      </trkpt>
      <trkpt lat="48.58213" lon="-3.20546">
        <ele>227</ele>
        <time>2016-06-06T08:14:34.1Z</time>
      </trkpt>
      <trkpt lat="48.58214" lon="-3.2055">
        <ele>227</ele>
        <time>2016-06-06T08:14:37.1Z</time>
      </trkpt>
      <trkpt lat="48.58215" lon="-3.2055">
        <ele>227</ele>
        <time>2016-06-06T08:14:40.1Z</time>
      </trkpt>
      <trkpt lat="48.58215" lon="-3.20551">
        <ele>227</ele>
        <time>2016-06-06T08:14:42.1Z</time>
      </trkpt>
      <trkpt lat="48.58217" lon="-3.20553">
        <ele>227</ele>
        <time>2016-06-06T08:14:44.1Z</time>
      </trkpt>
      <trkpt lat="48.58219" lon="-3.20555">
        <ele>227</ele>
        <time>2016-06-06T08:14:47.1Z</time>
      </trkpt>
      <trkpt lat="48.5822" lon="-3.20556">
        <ele>227</ele>
        <time>2016-06-06T08:14:49.1Z</time>
      </trkpt>
      <trkpt lat="48.58221" lon="-3.20557">
        <ele>228</ele>
        <time>2016-06-06T08:14:51.1Z</time>
      </trkpt>
      <trkpt lat="48.58221" lon="-3.20557">
        <ele>228</ele>
        <time>2016-06-06T08:14:54.1Z</time>
      </trkpt>
      <trkpt lat="48.58222" lon="-3.20558">
        <ele>227</ele>
        <time>2016-06-06T08:14:56.1Z</time>
      </trkpt>
      <trkpt lat="48.58223" lon="-3.2056">
        <ele>227</ele>
        <time>2016-06-06T08:14:59.1Z</time>
      </trkpt>
      <trkpt lat="48.58226" lon="-3.20562">
        <ele>227</ele>
        <time>2016-06-06T08:15:02.1Z</time>
      </trkpt>
      <trkpt lat="48.58229" lon="-3.20565">
        <ele>227</ele>
        <time>2016-06-06T08:15:05.1Z</time>
      </trkpt>
      <trkpt lat="48.5823" lon="-3.20567">
        <ele>227</ele>
        <time>2016-06-06T08:15:07.1Z</time>
      </trkpt>
      <trkpt lat="48.58232" lon="-3.20569">
        <ele>227</ele>
        <time>2016-06-06T08:15:10.1Z</time>
      </trkpt>
      <trkpt lat="48.58234" lon="-3.20571">
        <ele>227</ele>
        <time>2016-06-06T08:15:12.1Z</time>
      </trkpt>
      <trkpt lat="48.58236" lon="-3.20574">
        <ele>227</ele>
        <time>2016-06-06T08:15:15.1Z</time>
      </trkpt>
      <trkpt lat="48.58237" lon="-3.20576">
        <ele>227</ele>
        <time>2016-06-06T08:15:17.1Z</time>
      </trkpt>
      <trkpt lat="48.58239" lon="-3.20578">
        <ele>227</ele>
        <time>2016-06-06T08:15:20.1Z</time>
      </trkpt>
      <trkpt lat="48.5824" lon="-3.2058">
        <ele>227</ele>
        <time>2016-06-06T08:15:22.1Z</time>
      </trkpt>
      <trkpt lat="48.58242" lon="-3.20583">
        <ele>227</ele>
        <time>2016-06-06T08:15:25.1Z</time>
      </trkpt>
      <trkpt lat="48.58243" lon="-3.20585">
        <ele>227</ele>
        <time>2016-06-06T08:15:27.1Z</time>
      </trkpt>
      <trkpt lat="48.58245" lon="-3.20588">
        <ele>228</ele>
        <time>2016-06-06T08:15:30.1Z</time>
      </trkpt>
      <trkpt lat="48.58247" lon="-3.20591">
        <ele>227</ele>
        <time>2016-06-06T08:15:33.1Z</time>
      </trkpt>
      <trkpt lat="48.58249" lon="-3.20594">
        <ele>227</ele>
        <time>2016-06-06T08:15:35.1Z</time>
      </trkpt>
      <trkpt lat="48.58252" lon="-3.20597">
        <ele>227</ele>
        <time>2016-06-06T08:15:38.1Z</time>
      </trkpt>
      <trkpt lat="48.58253" lon="-3.20599">
        <ele>227</ele>
        <time>2016-06-06T08:15:40.1Z</time>
      </trkpt>
      <trkpt lat="48.58256" lon="-3.20603">
        <ele>227</ele>
        <time>2016-06-06T08:15:43.1Z</time>
      </trkpt>
      <trkpt lat="48.58258" lon="-3.20606">
        <ele>227</ele>
        <time>2016-06-06T08:15:46.1Z</time>
      </trkpt>
      <trkpt lat="48.5826" lon="-3.20609">
        <ele>228</ele>
        <time>2016-06-06T08:15:48.1Z</time>
      </trkpt>
      <trkpt lat="48.58261" lon="-3.20613">
        <ele>228</ele>
        <time>2016-06-06T08:15:51.1Z</time>
      </trkpt>
      <trkpt lat="48.58262" lon="-3.20617">
        <ele>228</ele>
        <time>2016-06-06T08:15:54.1Z</time>
      </trkpt>
      <trkpt lat="48.58263" lon="-3.2062">
        <ele>228</ele>
        <time>2016-06-06T08:15:56.1Z</time>
      </trkpt>
      <trkpt lat="48.58264" lon="-3.20625">
        <ele>228</ele>
        <time>2016-06-06T08:15:59.1Z</time>
      </trkpt>
      <trkpt lat="48.58264" lon="-3.20628">
        <ele>228</ele>
        <time>2016-06-06T08:16:02.1Z</time>
      </trkpt>
      <trkpt lat="48.58265" lon="-3.20631">
        <ele>228</ele>
        <time>2016-06-06T08:16:04.1Z</time>
      </trkpt>
      <trkpt lat="48.58265" lon="-3.20636">
        <ele>228</ele>
        <time>2016-06-06T08:16:07.1Z</time>
      </trkpt>
      <trkpt lat="48.58266" lon="-3.2064">
        <ele>228</ele>
        <time>2016-06-06T08:16:10.1Z</time>
      </trkpt>
      <trkpt lat="48.58267" lon="-3.20645">
        <ele>228</ele>
        <time>2016-06-06T08:16:13.1Z</time>
      </trkpt>
      <trkpt lat="48.58268" lon="-3.20649">
        <ele>228</ele>
        <time>2016-06-06T08:16:16.1Z</time>
      </trkpt>
      <trkpt lat="48.58269" lon="-3.20653">
        <ele>228</ele>
        <time>2016-06-06T08:16:19.1Z</time>
      </trkpt>
      <trkpt lat="48.58271" lon="-3.20656">
        <ele>228</ele>
        <time>2016-06-06T08:16:21.1Z</time>
      </trkpt>
      <trkpt lat="48.58273" lon="-3.2066">
        <ele>228</ele>
        <time>2016-06-06T08:16:24.1Z</time>
      </trkpt>
      <trkpt lat="48.58274" lon="-3.20663">
        <ele>228</ele>
        <time>2016-06-06T08:16:27.1Z</time>
      </trkpt>
      <trkpt lat="48.58276" lon="-3.20668">
        <ele>228</ele>
        <time>2016-06-06T08:16:30.1Z</time>
      </trkpt>
      <trkpt lat="48.58276" lon="-3.2067">
        <ele>228</ele>
        <time>2016-06-06T08:16:32.1Z</time>
      </trkpt>
      <trkpt lat="48.58278" lon="-3.20674">
        <ele>227</ele>
        <time>2016-06-06T08:16:35.1Z</time>
      </trkpt>
      <trkpt lat="48.58279" lon="-3.20677">
        <ele>227</ele>
        <time>2016-06-06T08:16:37.1Z</time>
      </trkpt>
      <trkpt lat="48.58281" lon="-3.2068">
        <ele>227</ele>
        <time>2016-06-06T08:16:40.1Z</time>
      </trkpt>
      <trkpt lat="48.58282" lon="-3.20683">
        <ele>227</ele>
        <time>2016-06-06T08:16:43.1Z</time>
      </trkpt>
      <trkpt lat="48.58284" lon="-3.20688">
        <ele>228</ele>
        <time>2016-06-06T08:16:46.1Z</time>
      </trkpt>
      <trkpt lat="48.58286" lon="-3.20691">
        <ele>227</ele>
        <time>2016-06-06T08:16:49.1Z</time>
      </trkpt>
      <trkpt lat="48.58288" lon="-3.20695">
        <ele>227</ele>
        <time>2016-06-06T08:16:52.1Z</time>
      </trkpt>
      <trkpt lat="48.58289" lon="-3.20697">
        <ele>227</ele>
        <time>2016-06-06T08:16:54.1Z</time>
      </trkpt>
      <trkpt lat="48.58291" lon="-3.20701">
        <ele>227</ele>
        <time>2016-06-06T08:16:57.1Z</time>
      </trkpt>
      <trkpt lat="48.58292" lon="-3.20701">
        <ele>227</ele>
        <time>2016-06-06T08:16:59.1Z</time>
      </trkpt>
      <trkpt lat="48.58292" lon="-3.20702">
        <ele>227</ele>
        <time>2016-06-06T08:17:02.1Z</time>
      </trkpt>
      <trkpt lat="48.58294" lon="-3.20703">
        <ele>227</ele>
        <time>2016-06-06T08:17:04.1Z</time>
      </trkpt>
      <trkpt lat="48.58295" lon="-3.20705">
        <ele>227</ele>
        <time>2016-06-06T08:17:07.1Z</time>
      </trkpt>
      <trkpt lat="48.58295" lon="-3.20708">
        <ele>227</ele>
        <time>2016-06-06T08:17:10.1Z</time>
      </trkpt>
      <trkpt lat="48.58295" lon="-3.20709">
        <ele>227</ele>
        <time>2016-06-06T08:17:12.1Z</time>
      </trkpt>
      <trkpt lat="48.58296" lon="-3.20711">
        <ele>227</ele>
        <time>2016-06-06T08:17:15.1Z</time>
      </trkpt>
      <trkpt lat="48.58297" lon="-3.20714">
        <ele>228</ele>
        <time>2016-06-06T08:17:17.1Z</time>
      </trkpt>
      <trkpt lat="48.58298" lon="-3.20715">
        <ele>228</ele>
        <time>2016-06-06T08:17:20.1Z</time>
      </trkpt>
      <trkpt lat="48.58298" lon="-3.20717">
        <ele>228</ele>
        <time>2016-06-06T08:17:23.1Z</time>
      </trkpt>
      <trkpt lat="48.58298" lon="-3.20718">
        <ele>228</ele>
        <time>2016-06-06T08:17:25.1Z</time>
      </trkpt>
      <trkpt lat="48.58299" lon="-3.20719">
        <ele>228</ele>
        <time>2016-06-06T08:17:28.1Z</time>
      </trkpt>
      <trkpt lat="48.58299" lon="-3.2072">
        <ele>228</ele>
        <time>2016-06-06T08:17:31.1Z</time>
      </trkpt>
      <trkpt lat="48.583" lon="-3.20722">
        <ele>228</ele>
        <time>2016-06-06T08:17:34.1Z</time>
      </trkpt>
      <trkpt lat="48.583" lon="-3.20723">
        <ele>228</ele>
        <time>2016-06-06T08:17:36.1Z</time>
      </trkpt>
      <trkpt lat="48.58299" lon="-3.20726">
        <ele>228</ele>
        <time>2016-06-06T08:17:39.1Z</time>
      </trkpt>
      <trkpt lat="48.58299" lon="-3.20726">
        <ele>228</ele>
        <time>2016-06-06T08:17:41.1Z</time>
      </trkpt>
      <trkpt lat="48.583" lon="-3.20727">
        <ele>228</ele>
        <time>2016-06-06T08:17:43.1Z</time>
      </trkpt>
      <trkpt lat="48.58302" lon="-3.20726">
        <ele>228</ele>
        <time>2016-06-06T08:17:46.1Z</time>
      </trkpt>
      <trkpt lat="48.58302" lon="-3.20725">
        <ele>228</ele>
        <time>2016-06-06T08:17:49.1Z</time>
      </trkpt>
      <trkpt lat="48.58303" lon="-3.20726">
        <ele>228</ele>
        <time>2016-06-06T08:17:52.1Z</time>
      </trkpt>
      <trkpt lat="48.58304" lon="-3.20727">
        <ele>227</ele>
        <time>2016-06-06T08:17:55.1Z</time>
      </trkpt>
      <trkpt lat="48.58305" lon="-3.20728">
        <ele>227</ele>
        <time>2016-06-06T08:17:58.1Z</time>
      </trkpt>
      <trkpt lat="48.58305" lon="-3.20729">
        <ele>227</ele>
        <time>2016-06-06T08:18:00.1Z</time>
      </trkpt>
      <trkpt lat="48.58306" lon="-3.20731">
        <ele>227</ele>
        <time>2016-06-06T08:18:03.1Z</time>
      </trkpt>
      <trkpt lat="48.58307" lon="-3.20732">
        <ele>227</ele>
        <time>2016-06-06T08:18:05.1Z</time>
      </trkpt>
      <trkpt lat="48.58307" lon="-3.20733">
        <ele>227</ele>
        <time>2016-06-06T08:18:07.1Z</time>
      </trkpt>
      <trkpt lat="48.58309" lon="-3.20737">
        <ele>228</ele>
        <time>2016-06-06T08:18:10.1Z</time>
      </trkpt>
      <trkpt lat="48.5831" lon="-3.20738">
        <ele>227</ele>
        <time>2016-06-06T08:18:12.1Z</time>
      </trkpt>
      <trkpt lat="48.5831" lon="-3.20741">
        <ele>227</ele>
        <time>2016-06-06T08:18:15.1Z</time>
      </trkpt>
      <trkpt lat="48.58312" lon="-3.20745">
        <ele>227</ele>
        <time>2016-06-06T08:18:18.1Z</time>
      </trkpt>
      <trkpt lat="48.58313" lon="-3.20747">
        <ele>227</ele>
        <time>2016-06-06T08:18:20.1Z</time>
      </trkpt>
      <trkpt lat="48.58315" lon="-3.20751">
        <ele>227</ele>
        <time>2016-06-06T08:18:23.1Z</time>
      </trkpt>
      <trkpt lat="48.58316" lon="-3.20755">
        <ele>227</ele>
        <time>2016-06-06T08:18:25.1Z</time>
      </trkpt>
      <trkpt lat="48.58317" lon="-3.20759">
        <ele>227</ele>
        <time>2016-06-06T08:18:28.1Z</time>
      </trkpt>
      <trkpt lat="48.58318" lon="-3.20761">
        <ele>227</ele>
        <time>2016-06-06T08:18:30.1Z</time>
      </trkpt>
      <trkpt lat="48.58319" lon="-3.20766">
        <ele>227</ele>
        <time>2016-06-06T08:18:33.1Z</time>
      </trkpt>
      <trkpt lat="48.5832" lon="-3.20769">
        <ele>227</ele>
        <time>2016-06-06T08:18:35.1Z</time>
      </trkpt>
      <trkpt lat="48.58322" lon="-3.20773">
        <ele>227</ele>
        <time>2016-06-06T08:18:38.1Z</time>
      </trkpt>
      <trkpt lat="48.58323" lon="-3.20776">
        <ele>227</ele>
        <time>2016-06-06T08:18:40.1Z</time>
      </trkpt>
      <trkpt lat="48.58324" lon="-3.20779">
        <ele>227</ele>
        <time>2016-06-06T08:18:42.1Z</time>
      </trkpt>
      <trkpt lat="48.58326" lon="-3.20784">
        <ele>227</ele>
        <time>2016-06-06T08:18:45.1Z</time>
      </trkpt>
      <trkpt lat="48.58327" lon="-3.20789">
        <ele>227</ele>
        <time>2016-06-06T08:18:48.1Z</time>
      </trkpt>
      <trkpt lat="48.58329" lon="-3.20791">
        <ele>227</ele>
        <time>2016-06-06T08:18:50.1Z</time>
      </trkpt>
      <trkpt lat="48.5833" lon="-3.20795">
        <ele>226</ele>
        <time>2016-06-06T08:18:53.1Z</time>
      </trkpt>
      <trkpt lat="48.58331" lon="-3.20798">
        <ele>227</ele>
        <time>2016-06-06T08:18:55.1Z</time>
      </trkpt>
      <trkpt lat="48.58332" lon="-3.20802">
        <ele>226</ele>
        <time>2016-06-06T08:18:58.1Z</time>
      </trkpt>
      <trkpt lat="48.58334" lon="-3.20806">
        <ele>226</ele>
        <time>2016-06-06T08:19:01.1Z</time>
      </trkpt>
      <trkpt lat="48.58335" lon="-3.2081">
        <ele>226</ele>
        <time>2016-06-06T08:19:04.1Z</time>
      </trkpt>
      <trkpt lat="48.58336" lon="-3.20814">
        <ele>226</ele>
        <time>2016-06-06T08:19:06.1Z</time>
      </trkpt>
      <trkpt lat="48.58337" lon="-3.20818">
        <ele>226</ele>
        <time>2016-06-06T08:19:09.1Z</time>
      </trkpt>
      <trkpt lat="48.58339" lon="-3.20823">
        <ele>226</ele>
        <time>2016-06-06T08:19:12.1Z</time>
      </trkpt>
      <trkpt lat="48.58341" lon="-3.20826">
        <ele>226</ele>
        <time>2016-06-06T08:19:14.1Z</time>
      </trkpt>
      <trkpt lat="48.58343" lon="-3.20829">
        <ele>225</ele>
        <time>2016-06-06T08:19:17.1Z</time>
      </trkpt>
      <trkpt lat="48.58345" lon="-3.20833">
        <ele>225</ele>
        <time>2016-06-06T08:19:20.1Z</time>
      </trkpt>
      <trkpt lat="48.58347" lon="-3.20836">
        <ele>225</ele>
        <time>2016-06-06T08:19:22.1Z</time>
      </trkpt>
      <trkpt lat="48.58348" lon="-3.20839">
        <ele>225</ele>
        <time>2016-06-06T08:19:25.1Z</time>
      </trkpt>
      <trkpt lat="48.5835" lon="-3.20843">
        <ele>225</ele>
        <time>2016-06-06T08:19:28.1Z</time>
      </trkpt>
      <trkpt lat="48.58351" lon="-3.20845">
        <ele>225</ele>
        <time>2016-06-06T08:19:30.1Z</time>
      </trkpt>
      <trkpt lat="48.58353" lon="-3.20849">
        <ele>226</ele>
        <time>2016-06-06T08:19:33.1Z</time>
      </trkpt>
      <trkpt lat="48.58355" lon="-3.20853">
        <ele>226</ele>
        <time>2016-06-06T08:19:35.1Z</time>
      </trkpt>
      <trkpt lat="48.58356" lon="-3.20857">
        <ele>226</ele>
        <time>2016-06-06T08:19:38.1Z</time>
      </trkpt>
      <trkpt lat="48.58358" lon="-3.20862">
        <ele>225</ele>
        <time>2016-06-06T08:19:41.1Z</time>
      </trkpt>
      <trkpt lat="48.5836" lon="-3.20866">
        <ele>226</ele>
        <time>2016-06-06T08:19:43.1Z</time>
      </trkpt>
      <trkpt lat="48.58361" lon="-3.2087">
        <ele>225</ele>
        <time>2016-06-06T08:19:46.1Z</time>
      </trkpt>
      <trkpt lat="48.58362" lon="-3.20873">
        <ele>225</ele>
        <time>2016-06-06T08:19:48.1Z</time>
      </trkpt>
      <trkpt lat="48.58364" lon="-3.20876">
        <ele>225</ele>
        <time>2016-06-06T08:19:51.1Z</time>
      </trkpt>
      <trkpt lat="48.58365" lon="-3.20879">
        <ele>225</ele>
        <time>2016-06-06T08:19:53.1Z</time>
      </trkpt>
      <trkpt lat="48.58366" lon="-3.20882">
        <ele>225</ele>
        <time>2016-06-06T08:19:56.1Z</time>
      </trkpt>
      <trkpt lat="48.58368" lon="-3.20884">
        <ele>225</ele>
        <time>2016-06-06T08:19:58.1Z</time>
      </trkpt>
      <trkpt lat="48.58369" lon="-3.20888">
        <ele>225</ele>
        <time>2016-06-06T08:20:00.1Z</time>
      </trkpt>
      <trkpt lat="48.58371" lon="-3.20893">
        <ele>225</ele>
        <time>2016-06-06T08:20:03.1Z</time>
      </trkpt>
      <trkpt lat="48.58372" lon="-3.20896">
        <ele>225</ele>
        <time>2016-06-06T08:20:05.1Z</time>
      </trkpt>
      <trkpt lat="48.58373" lon="-3.20899">
        <ele>225</ele>
        <time>2016-06-06T08:20:08.1Z</time>
      </trkpt>
      <trkpt lat="48.58374" lon="-3.20902">
        <ele>225</ele>
        <time>2016-06-06T08:20:10.1Z</time>
      </trkpt>
      <trkpt lat="48.58376" lon="-3.20906">
        <ele>225</ele>
        <time>2016-06-06T08:20:13.1Z</time>
      </trkpt>
      <trkpt lat="48.58378" lon="-3.2091">
        <ele>225</ele>
        <time>2016-06-06T08:20:16.1Z</time>
      </trkpt>
      <trkpt lat="48.5838" lon="-3.20913">
        <ele>224</ele>
        <time>2016-06-06T08:20:18.1Z</time>
      </trkpt>
      <trkpt lat="48.5838" lon="-3.20915">
        <ele>225</ele>
        <time>2016-06-06T08:20:20.1Z</time>
      </trkpt>
      <trkpt lat="48.58382" lon="-3.2092">
        <ele>224</ele>
        <time>2016-06-06T08:20:23.1Z</time>
      </trkpt>
      <trkpt lat="48.58383" lon="-3.20924">
        <ele>224</ele>
        <time>2016-06-06T08:20:25.1Z</time>
      </trkpt>
      <trkpt lat="48.58385" lon="-3.20929">
        <ele>224</ele>
        <time>2016-06-06T08:20:28.1Z</time>
      </trkpt>
      <trkpt lat="48.58387" lon="-3.20934">
        <ele>225</ele>
        <time>2016-06-06T08:20:31.1Z</time>
      </trkpt>
      <trkpt lat="48.58389" lon="-3.20937">
        <ele>224</ele>
        <time>2016-06-06T08:20:33.1Z</time>
      </trkpt>
      <trkpt lat="48.58391" lon="-3.20941">
        <ele>224</ele>
        <time>2016-06-06T08:20:36.1Z</time>
      </trkpt>
      <trkpt lat="48.58392" lon="-3.20944">
        <ele>224</ele>
        <time>2016-06-06T08:20:38.1Z</time>
      </trkpt>
      <trkpt lat="48.58395" lon="-3.20949">
        <ele>224</ele>
        <time>2016-06-06T08:20:41.1Z</time>
      </trkpt>
      <trkpt lat="48.58397" lon="-3.20954">
        <ele>224</ele>
        <time>2016-06-06T08:20:44.1Z</time>
      </trkpt>
      <trkpt lat="48.58398" lon="-3.20957">
        <ele>224</ele>
        <time>2016-06-06T08:20:46.1Z</time>
      </trkpt>
      <trkpt lat="48.584" lon="-3.20962">
        <ele>225</ele>
        <time>2016-06-06T08:20:49.1Z</time>
      </trkpt>
      <trkpt lat="48.58402" lon="-3.20965">
        <ele>224</ele>
        <time>2016-06-06T08:20:51.1Z</time>
      </trkpt>
      <trkpt lat="48.58403" lon="-3.2097">
        <ele>224</ele>
        <time>2016-06-06T08:20:54.1Z</time>
      </trkpt>
      <trkpt lat="48.58405" lon="-3.20973">
        <ele>223</ele>
        <time>2016-06-06T08:20:57.1Z</time>
      </trkpt>
      <trkpt lat="48.58407" lon="-3.20978">
        <ele>224</ele>
        <time>2016-06-06T08:21:00.1Z</time>
      </trkpt>
      <trkpt lat="48.58408" lon="-3.20982">
        <ele>224</ele>
        <time>2016-06-06T08:21:03.1Z</time>
      </trkpt>
      <trkpt lat="48.5841" lon="-3.20985">
        <ele>224</ele>
        <time>2016-06-06T08:21:05.1Z</time>
      </trkpt>
      <trkpt lat="48.58411" lon="-3.20989">
        <ele>224</ele>
        <time>2016-06-06T08:21:08.1Z</time>
      </trkpt>
      <trkpt lat="48.58413" lon="-3.20993">
        <ele>223</ele>
        <time>2016-06-06T08:21:11.1Z</time>
      </trkpt>
      <trkpt lat="48.58415" lon="-3.20996">
        <ele>224</ele>
        <time>2016-06-06T08:21:13.1Z</time>
      </trkpt>
      <trkpt lat="48.58416" lon="-3.21001">
        <ele>224</ele>
        <time>2016-06-06T08:21:16.1Z</time>
      </trkpt>
      <trkpt lat="48.58418" lon="-3.21005">
        <ele>224</ele>
        <time>2016-06-06T08:21:19.1Z</time>
      </trkpt>
      <trkpt lat="48.5842" lon="-3.21009">
        <ele>224</ele>
        <time>2016-06-06T08:21:22.1Z</time>
      </trkpt>
      <trkpt lat="48.58422" lon="-3.21012">
        <ele>223</ele>
        <time>2016-06-06T08:21:25.1Z</time>
      </trkpt>
      <trkpt lat="48.58424" lon="-3.21015">
        <ele>223</ele>
        <time>2016-06-06T08:21:27.1Z</time>
      </trkpt>
      <trkpt lat="48.58427" lon="-3.21019">
        <ele>223</ele>
        <time>2016-06-06T08:21:30.1Z</time>
      </trkpt>
      <trkpt lat="48.58429" lon="-3.2102">
        <ele>223</ele>
        <time>2016-06-06T08:21:32.1Z</time>
      </trkpt>
      <trkpt lat="48.5843" lon="-3.2102">
        <ele>223</ele>
        <time>2016-06-06T08:21:34.1Z</time>
      </trkpt>
      <trkpt lat="48.58433" lon="-3.2102">
        <ele>224</ele>
        <time>2016-06-06T08:21:37.1Z</time>
      </trkpt>
      <trkpt lat="48.58434" lon="-3.21018">
        <ele>223</ele>
        <time>2016-06-06T08:21:39.1Z</time>
      </trkpt>
      <trkpt lat="48.58435" lon="-3.21015">
        <ele>223</ele>
        <time>2016-06-06T08:21:42.1Z</time>
      </trkpt>
      <trkpt lat="48.58435" lon="-3.21013">
        <ele>223</ele>
        <time>2016-06-06T08:21:44.1Z</time>
      </trkpt>
      <trkpt lat="48.58436" lon="-3.2101">
        <ele>224</ele>
        <time>2016-06-06T08:21:47.1Z</time>
      </trkpt>
      <trkpt lat="48.58437" lon="-3.21008">
        <ele>224</ele>
        <time>2016-06-06T08:21:49.1Z</time>
      </trkpt>
      <trkpt lat="48.58437" lon="-3.21005">
        <ele>224</ele>
        <time>2016-06-06T08:21:52.1Z</time>
      </trkpt>
      <trkpt lat="48.58437" lon="-3.21002">
        <ele>224</ele>
        <time>2016-06-06T08:21:54.1Z</time>
      </trkpt>
      <trkpt lat="48.58437" lon="-3.20998">
        <ele>224</ele>
        <time>2016-06-06T08:21:57.1Z</time>
      </trkpt>
      <trkpt lat="48.58437" lon="-3.20995">
        <ele>223</ele>
        <time>2016-06-06T08:22:00.1Z</time>
      </trkpt>
      <trkpt lat="48.58438" lon="-3.20991">
        <ele>223</ele>
        <time>2016-06-06T08:22:03.1Z</time>
      </trkpt>
      <trkpt lat="48.58438" lon="-3.2099">
        <ele>223</ele>
        <time>2016-06-06T08:22:05.1Z</time>
      </trkpt>
      <trkpt lat="48.58439" lon="-3.20989">
        <ele>224</ele>
        <time>2016-06-06T08:22:08.1Z</time>
      </trkpt>
      <trkpt lat="48.58439" lon="-3.20989">
        <ele>223</ele>
        <time>2016-06-06T08:22:10.1Z</time>
      </trkpt>
      <trkpt lat="48.58441" lon="-3.20988">
        <ele>224</ele>
        <time>2016-06-06T08:22:13.1Z</time>
      </trkpt>
      <trkpt lat="48.58441" lon="-3.20986">
        <ele>224</ele>
        <time>2016-06-06T08:22:16.1Z</time>
      </trkpt>
      <trkpt lat="48.58442" lon="-3.20985">
        <ele>224</ele>
        <time>2016-06-06T08:22:18.1Z</time>
      </trkpt>
      <trkpt lat="48.58443" lon="-3.20984">
        <ele>224</ele>
        <time>2016-06-06T08:22:21.1Z</time>
      </trkpt>
      <trkpt lat="48.58443" lon="-3.20984">
        <ele>224</ele>
        <time>2016-06-06T08:22:23.1Z</time>
      </trkpt>
      <trkpt lat="48.58444" lon="-3.20983">
        <ele>224</ele>
        <time>2016-06-06T08:22:26.1Z</time>
      </trkpt>
      <trkpt lat="48.58444" lon="-3.20981">
        <ele>224</ele>
        <time>2016-06-06T08:22:29.1Z</time>
      </trkpt>
      <trkpt lat="48.58444" lon="-3.2098">
        <ele>224</ele>
        <time>2016-06-06T08:22:31.1Z</time>
      </trkpt>
      <trkpt lat="48.58444" lon="-3.20979">
        <ele>225</ele>
        <time>2016-06-06T08:22:34.1Z</time>
      </trkpt>
      <trkpt lat="48.58444" lon="-3.20979">
        <ele>225</ele>
        <time>2016-06-06T08:22:36.1Z</time>
      </trkpt>
      <trkpt lat="48.58443" lon="-3.2098">
        <ele>224</ele>
        <time>2016-06-06T08:22:39.1Z</time>
      </trkpt>
      <trkpt lat="48.58443" lon="-3.20982">
        <ele>224</ele>
        <time>2016-06-06T08:22:41.1Z</time>
      </trkpt>
      <trkpt lat="48.58442" lon="-3.20985">
        <ele>224</ele>
        <time>2016-06-06T08:22:44.1Z</time>
      </trkpt>
      <trkpt lat="48.58441" lon="-3.20986">
        <ele>224</ele>
        <time>2016-06-06T08:22:46.1Z</time>
      </trkpt>
      <trkpt lat="48.5844" lon="-3.20988">
        <ele>224</ele>
        <time>2016-06-06T08:22:49.1Z</time>
      </trkpt>
      <trkpt lat="48.58438" lon="-3.20989">
        <ele>224</ele>
        <time>2016-06-06T08:22:52.1Z</time>
      </trkpt>
      <trkpt lat="48.58437" lon="-3.20989">
        <ele>223</ele>
        <time>2016-06-06T08:22:55.1Z</time>
      </trkpt>
      <trkpt lat="48.58437" lon="-3.20988">
        <ele>224</ele>
        <time>2016-06-06T08:22:57.1Z</time>
      </trkpt>
      <trkpt lat="48.58437" lon="-3.20987">
        <ele>224</ele>
        <time>2016-06-06T08:23:00.1Z</time>
      </trkpt>
      <trkpt lat="48.58435" lon="-3.20987">
        <ele>224</ele>
        <time>2016-06-06T08:23:03.1Z</time>
      </trkpt>
      <trkpt lat="48.58435" lon="-3.20987">
        <ele>224</ele>
        <time>2016-06-06T08:23:06.1Z</time>
      </trkpt>
      <trkpt lat="48.58435" lon="-3.20987">
        <ele>224</ele>
        <time>2016-06-06T08:23:09.1Z</time>
      </trkpt>
      <trkpt lat="48.58435" lon="-3.20988">
        <ele>224</ele>
        <time>2016-06-06T08:23:12.1Z</time>
      </trkpt>
      <trkpt lat="48.58435" lon="-3.20987">
        <ele>224</ele>
        <time>2016-06-06T08:23:16.1Z</time>
      </trkpt>
      <trkpt lat="48.58435" lon="-3.20987">
        <ele>224</ele>
        <time>2016-06-06T08:23:19.1Z</time>
      </trkpt>
      <trkpt lat="48.58435" lon="-3.20988">
        <ele>224</ele>
        <time>2016-06-06T08:23:22.1Z</time>
      </trkpt>
      <trkpt lat="48.58435" lon="-3.20988">
        <ele>224</ele>
        <time>2016-06-06T08:23:24.1Z</time>
      </trkpt>
      <trkpt lat="48.58435" lon="-3.20989">
        <ele>224</ele>
        <time>2016-06-06T08:23:27.1Z</time>
      </trkpt>
      <trkpt lat="48.58435" lon="-3.20989">
        <ele>224</ele>
        <time>2016-06-06T08:23:30.1Z</time>
      </trkpt>
      <trkpt lat="48.58436" lon="-3.2099">
        <ele>224</ele>
        <time>2016-06-06T08:23:33.1Z</time>
      </trkpt>
      <trkpt lat="48.58437" lon="-3.20991">
        <ele>224</ele>
        <time>2016-06-06T08:23:37.1Z</time>
      </trkpt>
      <trkpt lat="48.58438" lon="-3.2099">
        <ele>224</ele>
        <time>2016-06-06T08:23:40.1Z</time>
      </trkpt>
      <trkpt lat="48.58437" lon="-3.2099">
        <ele>224</ele>
        <time>2016-06-06T08:23:43.1Z</time>
      </trkpt>
      <trkpt lat="48.58437" lon="-3.20989">
        <ele>224</ele>
        <time>2016-06-06T08:23:46.1Z</time>
      </trkpt>
      <trkpt lat="48.58437" lon="-3.20989">
        <ele>224</ele>
        <time>2016-06-06T08:23:48.1Z</time>
      </trkpt>
      <trkpt lat="48.58437" lon="-3.20989">
        <ele>224</ele>
        <time>2016-06-06T08:23:50.1Z</time>
      </trkpt>
      <trkpt lat="48.58436" lon="-3.20988">
        <ele>224</ele>
        <time>2016-06-06T08:23:53.1Z</time>
      </trkpt>
      <trkpt lat="48.58435" lon="-3.20988">
        <ele>224</ele>
        <time>2016-06-06T08:23:56.1Z</time>
      </trkpt>
      <trkpt lat="48.58435" lon="-3.20987">
        <ele>224</ele>
        <time>2016-06-06T08:23:59.1Z</time>
      </trkpt>
      <trkpt lat="48.58435" lon="-3.20987">
        <ele>224</ele>
        <time>2016-06-06T08:24:01.1Z</time>
      </trkpt>
      <trkpt lat="48.58435" lon="-3.20987">
        <ele>224</ele>
        <time>2016-06-06T08:24:03.1Z</time>
      </trkpt>
      <trkpt lat="48.58435" lon="-3.20987">
        <ele>224</ele>
        <time>2016-06-06T08:24:09.1Z</time>
      </trkpt>
      <trkpt lat="48.58435" lon="-3.20986">
        <ele>224</ele>
        <time>2016-06-06T08:24:11.1Z</time>
      </trkpt>
      <trkpt lat="48.58435" lon="-3.20986">
        <ele>224</ele>
        <time>2016-06-06T08:24:14.1Z</time>
      </trkpt>
      <trkpt lat="48.58435" lon="-3.20986">
        <ele>224</ele>
        <time>2016-06-06T08:24:16.1Z</time>
      </trkpt>
      <trkpt lat="48.58435" lon="-3.20986">
        <ele>224</ele>
        <time>2016-06-06T08:24:20.1Z</time>
      </trkpt>
      <trkpt lat="48.58435" lon="-3.20986">
        <ele>224</ele>
        <time>2016-06-06T08:24:23.1Z</time>
      </trkpt>
      <trkpt lat="48.58435" lon="-3.20986">
        <ele>224</ele>
        <time>2016-06-06T08:24:25.1Z</time>
      </trkpt>
      <trkpt lat="48.58435" lon="-3.20986">
        <ele>224</ele>
        <time>2016-06-06T08:24:28.1Z</time>
      </trkpt>
      <trkpt lat="48.58435" lon="-3.20986">
        <ele>224</ele>
        <time>2016-06-06T08:24:31.1Z</time>
      </trkpt>
      <trkpt lat="48.58435" lon="-3.20987">
        <ele>224</ele>
        <time>2016-06-06T08:24:34.1Z</time>
      </trkpt>
      <trkpt lat="48.58435" lon="-3.20988">
        <ele>224</ele>
        <time>2016-06-06T08:24:36.1Z</time>
      </trkpt>
      <trkpt lat="48.58437" lon="-3.20988">
        <ele>224</ele>
        <time>2016-06-06T08:24:39.1Z</time>
      </trkpt>
      <trkpt lat="48.58437" lon="-3.20989">
        <ele>224</ele>
        <time>2016-06-06T08:24:41.1Z</time>
      </trkpt>
      <trkpt lat="48.58438" lon="-3.20991">
        <ele>224</ele>
        <time>2016-06-06T08:24:44.1Z</time>
      </trkpt>
      <trkpt lat="48.58439" lon="-3.20991">
        <ele>224</ele>
        <time>2016-06-06T08:24:46.1Z</time>
      </trkpt>
      <trkpt lat="48.58439" lon="-3.20992">
        <ele>224</ele>
        <time>2016-06-06T08:24:49.1Z</time>
      </trkpt>
      <trkpt lat="48.5844" lon="-3.20992">
        <ele>224</ele>
        <time>2016-06-06T08:24:52.1Z</time>
      </trkpt>
      <trkpt lat="48.58439" lon="-3.20993">
        <ele>224</ele>
        <time>2016-06-06T08:24:55.1Z</time>
      </trkpt>
      <trkpt lat="48.58439" lon="-3.20994">
        <ele>224</ele>
        <time>2016-06-06T08:24:58.1Z</time>
      </trkpt>
      <trkpt lat="48.58438" lon="-3.20996">
        <ele>224</ele>
        <time>2016-06-06T08:25:01.1Z</time>
      </trkpt>
      <trkpt lat="48.58437" lon="-3.21">
        <ele>224</ele>
        <time>2016-06-06T08:25:04.1Z</time>
      </trkpt>
      <trkpt lat="48.58438" lon="-3.21003">
        <ele>223</ele>
        <time>2016-06-06T08:25:07.1Z</time>
      </trkpt>
      <trkpt lat="48.58438" lon="-3.21004">
        <ele>224</ele>
        <time>2016-06-06T08:25:09.1Z</time>
      </trkpt>
      <trkpt lat="48.58439" lon="-3.21006">
        <ele>224</ele>
        <time>2016-06-06T08:25:12.1Z</time>
      </trkpt>
      <trkpt lat="48.58438" lon="-3.21007">
        <ele>224</ele>
        <time>2016-06-06T08:25:15.1Z</time>
      </trkpt>
      <trkpt lat="48.58438" lon="-3.21007">
        <ele>224</ele>
        <time>2016-06-06T08:25:17.1Z</time>
      </trkpt>
      <trkpt lat="48.58437" lon="-3.21005">
        <ele>224</ele>
        <time>2016-06-06T08:25:20.1Z</time>
      </trkpt>
      <trkpt lat="48.58438" lon="-3.21002">
        <ele>224</ele>
        <time>2016-06-06T08:25:23.1Z</time>
      </trkpt>
      <trkpt lat="48.58438" lon="-3.20999">
        <ele>224</ele>
        <time>2016-06-06T08:25:26.1Z</time>
      </trkpt>
      <trkpt lat="48.58438" lon="-3.20999">
        <ele>224</ele>
        <time>2016-06-06T08:25:28.1Z</time>
      </trkpt>
      <trkpt lat="48.58438" lon="-3.21">
        <ele>223</ele>
        <time>2016-06-06T08:25:31.1Z</time>
      </trkpt>
      <trkpt lat="48.58438" lon="-3.20999">
        <ele>223</ele>
        <time>2016-06-06T08:25:34.1Z</time>
      </trkpt>
      <trkpt lat="48.58438" lon="-3.20999">
        <ele>223</ele>
        <time>2016-06-06T08:25:36.1Z</time>
      </trkpt>
      <trkpt lat="48.58438" lon="-3.20998">
        <ele>223</ele>
        <time>2016-06-06T08:25:39.1Z</time>
      </trkpt>
      <trkpt lat="48.58437" lon="-3.20998">
        <ele>224</ele>
        <time>2016-06-06T08:25:41.1Z</time>
      </trkpt>
      <trkpt lat="48.58437" lon="-3.20997">
        <ele>224</ele>
        <time>2016-06-06T08:25:43.1Z</time>
      </trkpt>
      <trkpt lat="48.58438" lon="-3.20996">
        <ele>224</ele>
        <time>2016-06-06T08:25:46.1Z</time>
      </trkpt>
      <trkpt lat="48.58439" lon="-3.20997">
        <ele>224</ele>
        <time>2016-06-06T08:25:49.1Z</time>
      </trkpt>
      <trkpt lat="48.58439" lon="-3.20997">
        <ele>224</ele>
        <time>2016-06-06T08:25:51.1Z</time>
      </trkpt>
      <trkpt lat="48.58439" lon="-3.20996">
        <ele>224</ele>
        <time>2016-06-06T08:25:54.1Z</time>
      </trkpt>
      <trkpt lat="48.5844" lon="-3.20996">
        <ele>223</ele>
        <time>2016-06-06T08:25:56.1Z</time>
      </trkpt>
      <trkpt lat="48.58439" lon="-3.20996">
        <ele>223</ele>
        <time>2016-06-06T08:25:59.1Z</time>
      </trkpt>
      <trkpt lat="48.5844" lon="-3.20996">
        <ele>223</ele>
        <time>2016-06-06T08:26:01.1Z</time>
      </trkpt>
      <trkpt lat="48.5844" lon="-3.20995">
        <ele>223</ele>
        <time>2016-06-06T08:26:04.1Z</time>
      </trkpt>
      <trkpt lat="48.58441" lon="-3.20995">
        <ele>223</ele>
        <time>2016-06-06T08:26:07.1Z</time>
      </trkpt>
      <trkpt lat="48.58441" lon="-3.20995">
        <ele>223</ele>
        <time>2016-06-06T08:26:09.1Z</time>
      </trkpt>
      <trkpt lat="48.58441" lon="-3.20994">
        <ele>223</ele>
        <time>2016-06-06T08:26:11.1Z</time>
      </trkpt>
      <trkpt lat="48.58442" lon="-3.20994">
        <ele>223</ele>
        <time>2016-06-06T08:26:14.1Z</time>
      </trkpt>
      <trkpt lat="48.58442" lon="-3.20994">
        <ele>223</ele>
        <time>2016-06-06T08:26:16.1Z</time>
      </trkpt>
      <trkpt lat="48.58442" lon="-3.20993">
        <ele>223</ele>
        <time>2016-06-06T08:26:19.1Z</time>
      </trkpt>
      <trkpt lat="48.58442" lon="-3.20992">
        <ele>223</ele>
        <time>2016-06-06T08:26:22.1Z</time>
      </trkpt>
      <trkpt lat="48.58442" lon="-3.20992">
        <ele>224</ele>
        <time>2016-06-06T08:26:25.1Z</time>
      </trkpt>
      <trkpt lat="48.58441" lon="-3.20992">
        <ele>224</ele>
        <time>2016-06-06T08:26:27.1Z</time>
      </trkpt>
      <trkpt lat="48.58441" lon="-3.20991">
        <ele>224</ele>
        <time>2016-06-06T08:26:30.1Z</time>
      </trkpt>
      <trkpt lat="48.58441" lon="-3.20991">
        <ele>224</ele>
        <time>2016-06-06T08:26:33.1Z</time>
      </trkpt>
      <trkpt lat="48.5844" lon="-3.20991">
        <ele>224</ele>
        <time>2016-06-06T08:26:36.1Z</time>
      </trkpt>
      <trkpt lat="48.5844" lon="-3.20992">
        <ele>223</ele>
        <time>2016-06-06T08:26:38.1Z</time>
      </trkpt>
      <trkpt lat="48.58441" lon="-3.20994">
        <ele>223</ele>
        <time>2016-06-06T08:26:41.1Z</time>
      </trkpt>
      <trkpt lat="48.58441" lon="-3.20994">
        <ele>223</ele>
        <time>2016-06-06T08:26:43.1Z</time>
      </trkpt>
      <trkpt lat="48.58441" lon="-3.20995">
        <ele>224</ele>
        <time>2016-06-06T08:26:46.1Z</time>
      </trkpt>
      <trkpt lat="48.58441" lon="-3.20995">
        <ele>224</ele>
        <time>2016-06-06T08:26:48.1Z</time>
      </trkpt>
      <trkpt lat="48.58442" lon="-3.20996">
        <ele>224</ele>
        <time>2016-06-06T08:26:51.1Z</time>
      </trkpt>
      <trkpt lat="48.58443" lon="-3.20995">
        <ele>224</ele>
        <time>2016-06-06T08:26:54.1Z</time>
      </trkpt>
      <trkpt lat="48.58444" lon="-3.20995">
        <ele>224</ele>
        <time>2016-06-06T08:26:57.1Z</time>
      </trkpt>
      <trkpt lat="48.58444" lon="-3.20995">
        <ele>224</ele>
        <time>2016-06-06T08:27:00.1Z</time>
      </trkpt>
      <trkpt lat="48.58444" lon="-3.20995">
        <ele>224</ele>
        <time>2016-06-06T08:27:03.1Z</time>
      </trkpt>
      <trkpt lat="48.58445" lon="-3.20996">
        <ele>224</ele>
        <time>2016-06-06T08:27:05.1Z</time>
      </trkpt>
      <trkpt lat="48.58445" lon="-3.20997">
        <ele>224</ele>
        <time>2016-06-06T08:27:08.1Z</time>
      </trkpt>
      <trkpt lat="48.58445" lon="-3.20997">
        <ele>223</ele>
        <time>2016-06-06T08:27:11.1Z</time>
      </trkpt>
      <trkpt lat="48.58445" lon="-3.20998">
        <ele>223</ele>
        <time>2016-06-06T08:27:14.1Z</time>
      </trkpt>
      <trkpt lat="48.58445" lon="-3.20999">
        <ele>223</ele>
        <time>2016-06-06T08:27:16.1Z</time>
      </trkpt>
      <trkpt lat="48.58446" lon="-3.20999">
        <ele>224</ele>
        <time>2016-06-06T08:27:19.1Z</time>
      </trkpt>
      <trkpt lat="48.58446" lon="-3.21">
        <ele>224</ele>
        <time>2016-06-06T08:27:21.1Z</time>
      </trkpt>
      <trkpt lat="48.58447" lon="-3.21">
        <ele>224</ele>
        <time>2016-06-06T08:27:23.1Z</time>
      </trkpt>
      <trkpt lat="48.58447" lon="-3.21001">
        <ele>224</ele>
        <time>2016-06-06T08:27:26.1Z</time>
      </trkpt>
      <trkpt lat="48.58448" lon="-3.21">
        <ele>224</ele>
        <time>2016-06-06T08:27:29.1Z</time>
      </trkpt>
      <trkpt lat="48.58448" lon="-3.21001">
        <ele>224</ele>
        <time>2016-06-06T08:27:31.1Z</time>
      </trkpt>
      <trkpt lat="48.58449" lon="-3.21001">
        <ele>224</ele>
        <time>2016-06-06T08:27:34.1Z</time>
      </trkpt>
      <trkpt lat="48.58449" lon="-3.21">
        <ele>223</ele>
        <time>2016-06-06T08:27:37.1Z</time>
      </trkpt>
      <trkpt lat="48.58449" lon="-3.21">
        <ele>224</ele>
        <time>2016-06-06T08:27:41.1Z</time>
      </trkpt>
      <trkpt lat="48.5845" lon="-3.20999">
        <ele>224</ele>
        <time>2016-06-06T08:27:44.1Z</time>
      </trkpt>
      <trkpt lat="48.5845" lon="-3.20999">
        <ele>224</ele>
        <time>2016-06-06T08:27:47.1Z</time>
      </trkpt>
      <trkpt lat="48.58451" lon="-3.20998">
        <ele>223</ele>
        <time>2016-06-06T08:27:49.1Z</time>
      </trkpt>
      <trkpt lat="48.58451" lon="-3.20999">
        <ele>223</ele>
        <time>2016-06-06T08:27:52.1Z</time>
      </trkpt>
      <trkpt lat="48.58451" lon="-3.20999">
        <ele>223</ele>
        <time>2016-06-06T08:27:54.1Z</time>
      </trkpt>
      <trkpt lat="48.58451" lon="-3.20999">
        <ele>224</ele>
        <time>2016-06-06T08:27:57.1Z</time>
      </trkpt>
      <trkpt lat="48.5845" lon="-3.21">
        <ele>224</ele>
        <time>2016-06-06T08:27:59.1Z</time>
      </trkpt>
      <trkpt lat="48.5845" lon="-3.21001">
        <ele>224</ele>
        <time>2016-06-06T08:28:01.1Z</time>
      </trkpt>
      <trkpt lat="48.58449" lon="-3.21002">
        <ele>224</ele>
        <time>2016-06-06T08:28:04.1Z</time>
      </trkpt>
      <trkpt lat="48.58449" lon="-3.21003">
        <ele>223</ele>
        <time>2016-06-06T08:28:07.1Z</time>
      </trkpt>
      <trkpt lat="48.58448" lon="-3.21004">
        <ele>223</ele>
        <time>2016-06-06T08:28:09.1Z</time>
      </trkpt>
      <trkpt lat="48.58447" lon="-3.21004">
        <ele>224</ele>
        <time>2016-06-06T08:28:11.1Z</time>
      </trkpt>
      <trkpt lat="48.58446" lon="-3.21004">
        <ele>224</ele>
        <time>2016-06-06T08:28:14.1Z</time>
      </trkpt>
      <trkpt lat="48.58445" lon="-3.21004">
        <ele>223</ele>
        <time>2016-06-06T08:28:17.1Z</time>
      </trkpt>
      <trkpt lat="48.58445" lon="-3.21003">
        <ele>223</ele>
        <time>2016-06-06T08:28:19.1Z</time>
      </trkpt>
      <trkpt lat="48.58445" lon="-3.21001">
        <ele>223</ele>
        <time>2016-06-06T08:28:21.1Z</time>
      </trkpt>
      <trkpt lat="48.58444" lon="-3.21">
        <ele>223</ele>
        <time>2016-06-06T08:28:24.1Z</time>
      </trkpt>
      <trkpt lat="48.58444" lon="-3.21">
        <ele>223</ele>
        <time>2016-06-06T08:28:27.1Z</time>
      </trkpt>
      <trkpt lat="48.58444" lon="-3.21">
        <ele>223</ele>
        <time>2016-06-06T08:28:29.1Z</time>
      </trkpt>
      <trkpt lat="48.58445" lon="-3.20999">
        <ele>223</ele>
        <time>2016-06-06T08:28:32.1Z</time>
      </trkpt>
      <trkpt lat="48.58445" lon="-3.20999">
        <ele>223</ele>
        <time>2016-06-06T08:28:34.1Z</time>
      </trkpt>
      <trkpt lat="48.58445" lon="-3.20998">
        <ele>223</ele>
        <time>2016-06-06T08:28:36.1Z</time>
      </trkpt>
      <trkpt lat="48.58446" lon="-3.20997">
        <ele>223</ele>
        <time>2016-06-06T08:28:39.1Z</time>
      </trkpt>
      <trkpt lat="48.58446" lon="-3.20996">
        <ele>223</ele>
        <time>2016-06-06T08:28:41.1Z</time>
      </trkpt>
      <trkpt lat="48.58447" lon="-3.20996">
        <ele>224</ele>
        <time>2016-06-06T08:28:44.1Z</time>
      </trkpt>
      <trkpt lat="48.58446" lon="-3.20995">
        <ele>224</ele>
        <time>2016-06-06T08:28:46.1Z</time>
      </trkpt>
      <trkpt lat="48.58447" lon="-3.20994">
        <ele>224</ele>
        <time>2016-06-06T08:28:49.1Z</time>
      </trkpt>
      <trkpt lat="48.58447" lon="-3.20994">
        <ele>224</ele>
        <time>2016-06-06T08:28:52.1Z</time>
      </trkpt>
      <trkpt lat="48.58446" lon="-3.20994">
        <ele>223</ele>
        <time>2016-06-06T08:28:55.1Z</time>
      </trkpt>
      <trkpt lat="48.58446" lon="-3.20994">
        <ele>224</ele>
        <time>2016-06-06T08:28:58.1Z</time>
      </trkpt>
      <trkpt lat="48.58445" lon="-3.20995">
        <ele>224</ele>
        <time>2016-06-06T08:29:00.1Z</time>
      </trkpt>
      <trkpt lat="48.58445" lon="-3.20995">
        <ele>224</ele>
        <time>2016-06-06T08:29:03.1Z</time>
      </trkpt>
      <trkpt lat="48.58446" lon="-3.20996">
        <ele>224</ele>
        <time>2016-06-06T08:29:05.1Z</time>
      </trkpt>
      <trkpt lat="48.58446" lon="-3.20997">
        <ele>224</ele>
        <time>2016-06-06T08:29:08.1Z</time>
      </trkpt>
      <trkpt lat="48.58446" lon="-3.20998">
        <ele>224</ele>
        <time>2016-06-06T08:29:10.1Z</time>
      </trkpt>
      <trkpt lat="48.58445" lon="-3.21">
        <ele>223</ele>
        <time>2016-06-06T08:29:14.1Z</time>
      </trkpt>
      <trkpt lat="48.58445" lon="-3.21">
        <ele>224</ele>
        <time>2016-06-06T08:29:16.1Z</time>
      </trkpt>
      <trkpt lat="48.58444" lon="-3.21002">
        <ele>223</ele>
        <time>2016-06-06T08:29:19.1Z</time>
      </trkpt>
      <trkpt lat="48.58444" lon="-3.21002">
        <ele>223</ele>
        <time>2016-06-06T08:29:22.1Z</time>
      </trkpt>
      <trkpt lat="48.58444" lon="-3.21003">
        <ele>223</ele>
        <time>2016-06-06T08:29:24.1Z</time>
      </trkpt>
      <trkpt lat="48.58443" lon="-3.21004">
        <ele>223</ele>
        <time>2016-06-06T08:29:27.1Z</time>
      </trkpt>
      <trkpt lat="48.58443" lon="-3.21005">
        <ele>223</ele>
        <time>2016-06-06T08:29:29.1Z</time>
      </trkpt>
      <trkpt lat="48.58443" lon="-3.21005">
        <ele>223</ele>
        <time>2016-06-06T08:29:32.1Z</time>
      </trkpt>
      <trkpt lat="48.58442" lon="-3.21006">
        <ele>223</ele>
        <time>2016-06-06T08:29:35.1Z</time>
      </trkpt>
      <trkpt lat="48.58442" lon="-3.21006">
        <ele>223</ele>
        <time>2016-06-06T08:29:37.1Z</time>
      </trkpt>
      <trkpt lat="48.58442" lon="-3.21007">
        <ele>223</ele>
        <time>2016-06-06T08:29:40.1Z</time>
      </trkpt>
      <trkpt lat="48.58442" lon="-3.21007">
        <ele>223</ele>
        <time>2016-06-06T08:29:43.1Z</time>
      </trkpt>
      <trkpt lat="48.58443" lon="-3.21007">
        <ele>223</ele>
        <time>2016-06-06T08:29:46.1Z</time>
      </trkpt>
      <trkpt lat="48.58442" lon="-3.21007">
        <ele>224</ele>
        <time>2016-06-06T08:29:48.1Z</time>
      </trkpt>
      <trkpt lat="48.58443" lon="-3.21007">
        <ele>224</ele>
        <time>2016-06-06T08:29:51.1Z</time>
      </trkpt>
      <trkpt lat="48.58442" lon="-3.21007">
        <ele>224</ele>
        <time>2016-06-06T08:29:54.1Z</time>
      </trkpt>
      <trkpt lat="48.58442" lon="-3.21006">
        <ele>224</ele>
        <time>2016-06-06T08:29:57.1Z</time>
      </trkpt>
      <trkpt lat="48.58442" lon="-3.21006">
        <ele>224</ele>
        <time>2016-06-06T08:30:00.1Z</time>
      </trkpt>
      <trkpt lat="48.58441" lon="-3.21006">
        <ele>223</ele>
        <time>2016-06-06T08:30:03.1Z</time>
      </trkpt>
      <trkpt lat="48.58441" lon="-3.21005">
        <ele>223</ele>
        <time>2016-06-06T08:30:05.1Z</time>
      </trkpt>
      <trkpt lat="48.58441" lon="-3.21005">
        <ele>223</ele>
        <time>2016-06-06T08:30:09.1Z</time>
      </trkpt>
      <trkpt lat="48.58441" lon="-3.21006">
        <ele>224</ele>
        <time>2016-06-06T08:30:12.1Z</time>
      </trkpt>
      <trkpt lat="48.58441" lon="-3.21005">
        <ele>224</ele>
        <time>2016-06-06T08:30:15.1Z</time>
      </trkpt>
      <trkpt lat="48.58441" lon="-3.21004">
        <ele>224</ele>
        <time>2016-06-06T08:30:18.1Z</time>
      </trkpt>
      <trkpt lat="48.58441" lon="-3.21004">
        <ele>224</ele>
        <time>2016-06-06T08:30:20.1Z</time>
      </trkpt>
      <trkpt lat="48.58442" lon="-3.21003">
        <ele>223</ele>
        <time>2016-06-06T08:30:23.1Z</time>
      </trkpt>
      <trkpt lat="48.58442" lon="-3.21003">
        <ele>223</ele>
        <time>2016-06-06T08:30:26.1Z</time>
      </trkpt>
      <trkpt lat="48.58442" lon="-3.21004">
        <ele>223</ele>
        <time>2016-06-06T08:30:29.1Z</time>
      </trkpt>
      <trkpt lat="48.58443" lon="-3.21004">
        <ele>223</ele>
        <time>2016-06-06T08:30:31.1Z</time>
      </trkpt>
      <trkpt lat="48.58442" lon="-3.21003">
        <ele>223</ele>
        <time>2016-06-06T08:30:34.1Z</time>
      </trkpt>
      <trkpt lat="48.58443" lon="-3.21003">
        <ele>223</ele>
        <time>2016-06-06T08:30:36.1Z</time>
      </trkpt>
      <trkpt lat="48.58443" lon="-3.21003">
        <ele>223</ele>
        <time>2016-06-06T08:30:39.1Z</time>
      </trkpt>
      <trkpt lat="48.58443" lon="-3.21002">
        <ele>223</ele>
        <time>2016-06-06T08:30:41.1Z</time>
      </trkpt>
      <trkpt lat="48.58443" lon="-3.21002">
        <ele>223</ele>
        <time>2016-06-06T08:30:44.1Z</time>
      </trkpt>
      <trkpt lat="48.58443" lon="-3.21002">
        <ele>223</ele>
        <time>2016-06-06T08:30:46.1Z</time>
      </trkpt>
      <trkpt lat="48.58443" lon="-3.21002">
        <ele>223</ele>
        <time>2016-06-06T08:30:49.1Z</time>
      </trkpt>
      <trkpt lat="48.58444" lon="-3.21001">
        <ele>223</ele>
        <time>2016-06-06T08:30:51.1Z</time>
      </trkpt>
      <trkpt lat="48.58444" lon="-3.21001">
        <ele>223</ele>
        <time>2016-06-06T08:30:54.1Z</time>
      </trkpt>
      <trkpt lat="48.58444" lon="-3.21001">
        <ele>223</ele>
        <time>2016-06-06T08:30:56.1Z</time>
      </trkpt>
      <trkpt lat="48.58443" lon="-3.21002">
        <ele>223</ele>
        <time>2016-06-06T08:30:58.1Z</time>
      </trkpt>
      <trkpt lat="48.58443" lon="-3.21002">
        <ele>223</ele>
        <time>2016-06-06T08:31:01.1Z</time>
      </trkpt>
      <trkpt lat="48.58443" lon="-3.21002">
        <ele>224</ele>
        <time>2016-06-06T08:31:05.1Z</time>
      </trkpt>
      <trkpt lat="48.58442" lon="-3.21001">
        <ele>224</ele>
        <time>2016-06-06T08:31:08.1Z</time>
      </trkpt>
      <trkpt lat="48.58442" lon="-3.21001">
        <ele>223</ele>
        <time>2016-06-06T08:31:11.1Z</time>
      </trkpt>
      <trkpt lat="48.58442" lon="-3.21002">
        <ele>223</ele>
        <time>2016-06-06T08:31:14.1Z</time>
      </trkpt>
      <trkpt lat="48.58442" lon="-3.21003">
        <ele>223</ele>
        <time>2016-06-06T08:31:17.1Z</time>
      </trkpt>
      <trkpt lat="48.5844" lon="-3.21005">
        <ele>223</ele>
        <time>2016-06-06T08:31:19.1Z</time>
      </trkpt>
      <trkpt lat="48.58439" lon="-3.21007">
        <ele>223</ele>
        <time>2016-06-06T08:31:22.1Z</time>
      </trkpt>
      <trkpt lat="48.58439" lon="-3.21008">
        <ele>223</ele>
        <time>2016-06-06T08:31:24.1Z</time>
      </trkpt>
      <trkpt lat="48.58439" lon="-3.21012">
        <ele>223</ele>
        <time>2016-06-06T08:31:27.1Z</time>
      </trkpt>
      <trkpt lat="48.58437" lon="-3.21018">
        <ele>223</ele>
        <time>2016-06-06T08:31:30.1Z</time>
      </trkpt>
      <trkpt lat="48.58436" lon="-3.21022">
        <ele>223</ele>
        <time>2016-06-06T08:31:33.1Z</time>
      </trkpt>
      <trkpt lat="48.58435" lon="-3.21024">
        <ele>223</ele>
        <time>2016-06-06T08:31:35.1Z</time>
      </trkpt>
      <trkpt lat="48.58435" lon="-3.21027">
        <ele>223</ele>
        <time>2016-06-06T08:31:38.1Z</time>
      </trkpt>
      <trkpt lat="48.58435" lon="-3.21029">
        <ele>223</ele>
        <time>2016-06-06T08:31:40.1Z</time>
      </trkpt>
      <trkpt lat="48.58433" lon="-3.21031">
        <ele>223</ele>
        <time>2016-06-06T08:31:43.1Z</time>
      </trkpt>
      <trkpt lat="48.58432" lon="-3.21032">
        <ele>223</ele>
        <time>2016-06-06T08:31:45.1Z</time>
      </trkpt>
      <trkpt lat="48.58431" lon="-3.21033">
        <ele>223</ele>
        <time>2016-06-06T08:31:47.1Z</time>
      </trkpt>
      <trkpt lat="48.58429" lon="-3.21031">
        <ele>223</ele>
        <time>2016-06-06T08:31:50.1Z</time>
      </trkpt>
      <trkpt lat="48.58429" lon="-3.21031">
        <ele>224</ele>
        <time>2016-06-06T08:31:55.1Z</time>
      </trkpt>
      <trkpt lat="48.58429" lon="-3.2103">
        <ele>223</ele>
        <time>2016-06-06T08:31:57.1Z</time>
      </trkpt>
      <trkpt lat="48.58426" lon="-3.21028">
        <ele>223</ele>
        <time>2016-06-06T08:32:00.1Z</time>
      </trkpt>
      <trkpt lat="48.58425" lon="-3.21026">
        <ele>223</ele>
        <time>2016-06-06T08:32:02.1Z</time>
      </trkpt>
      <trkpt lat="48.58424" lon="-3.21022">
        <ele>223</ele>
        <time>2016-06-06T08:32:05.1Z</time>
      </trkpt>
      <trkpt lat="48.58423" lon="-3.2102">
        <ele>223</ele>
        <time>2016-06-06T08:32:07.1Z</time>
      </trkpt>
      <trkpt lat="48.58421" lon="-3.21016">
        <ele>223</ele>
        <time>2016-06-06T08:32:10.1Z</time>
      </trkpt>
      <trkpt lat="48.5842" lon="-3.21012">
        <ele>223</ele>
        <time>2016-06-06T08:32:13.1Z</time>
      </trkpt>
      <trkpt lat="48.58419" lon="-3.21009">
        <ele>223</ele>
        <time>2016-06-06T08:32:15.1Z</time>
      </trkpt>
      <trkpt lat="48.58417" lon="-3.21005">
        <ele>223</ele>
        <time>2016-06-06T08:32:18.1Z</time>
      </trkpt>
      <trkpt lat="48.58416" lon="-3.21001">
        <ele>223</ele>
        <time>2016-06-06T08:32:20.1Z</time>
      </trkpt>
      <trkpt lat="48.58415" lon="-3.20997">
        <ele>223</ele>
        <time>2016-06-06T08:32:23.1Z</time>
      </trkpt>
      <trkpt lat="48.58414" lon="-3.20994">
        <ele>223</ele>
        <time>2016-06-06T08:32:25.1Z</time>
      </trkpt>
      <trkpt lat="48.58412" lon="-3.2099">
        <ele>223</ele>
        <time>2016-06-06T08:32:28.1Z</time>
      </trkpt>
      <trkpt lat="48.58411" lon="-3.20988">
        <ele>223</ele>
        <time>2016-06-06T08:32:30.1Z</time>
      </trkpt>
      <trkpt lat="48.5841" lon="-3.20984">
        <ele>223</ele>
        <time>2016-06-06T08:32:33.1Z</time>
      </trkpt>
      <trkpt lat="48.58409" lon="-3.20982">
        <ele>223</ele>
        <time>2016-06-06T08:32:35.1Z</time>
      </trkpt>
      <trkpt lat="48.58407" lon="-3.20978">
        <ele>224</ele>
        <time>2016-06-06T08:32:38.1Z</time>
      </trkpt>
      <trkpt lat="48.58406" lon="-3.20975">
        <ele>224</ele>
        <time>2016-06-06T08:32:40.1Z</time>
      </trkpt>
      <trkpt lat="48.58404" lon="-3.20971">
        <ele>224</ele>
        <time>2016-06-06T08:32:43.1Z</time>
      </trkpt>
      <trkpt lat="48.58403" lon="-3.20968">
        <ele>223</ele>
        <time>2016-06-06T08:32:45.1Z</time>
      </trkpt>
      <trkpt lat="48.58401" lon="-3.20963">
        <ele>223</ele>
        <time>2016-06-06T08:32:48.1Z</time>
      </trkpt>
      <trkpt lat="48.584" lon="-3.20959">
        <ele>224</ele>
        <time>2016-06-06T08:32:50.1Z</time>
      </trkpt>
      <trkpt lat="48.58398" lon="-3.20954">
        <ele>223</ele>
        <time>2016-06-06T08:32:53.1Z</time>
      </trkpt>
      <trkpt lat="48.58397" lon="-3.2095">
        <ele>224</ele>
        <time>2016-06-06T08:32:56.1Z</time>
      </trkpt>
      <trkpt lat="48.58395" lon="-3.20946">
        <ele>224</ele>
        <time>2016-06-06T08:32:59.1Z</time>
      </trkpt>
      <trkpt lat="48.58393" lon="-3.20942">
        <ele>224</ele>
        <time>2016-06-06T08:33:02.1Z</time>
      </trkpt>
      <trkpt lat="48.58391" lon="-3.20938">
        <ele>224</ele>
        <time>2016-06-06T08:33:05.1Z</time>
      </trkpt>
      <trkpt lat="48.58389" lon="-3.20934">
        <ele>224</ele>
        <time>2016-06-06T08:33:08.1Z</time>
      </trkpt>
      <trkpt lat="48.58388" lon="-3.20932">
        <ele>224</ele>
        <time>2016-06-06T08:33:10.1Z</time>
      </trkpt>
      <trkpt lat="48.58387" lon="-3.20928">
        <ele>224</ele>
        <time>2016-06-06T08:33:13.1Z</time>
      </trkpt>
      <trkpt lat="48.58386" lon="-3.20925">
        <ele>224</ele>
        <time>2016-06-06T08:33:15.1Z</time>
      </trkpt>
      <trkpt lat="48.58384" lon="-3.20921">
        <ele>224</ele>
        <time>2016-06-06T08:33:18.1Z</time>
      </trkpt>
      <trkpt lat="48.58383" lon="-3.20918">
        <ele>224</ele>
        <time>2016-06-06T08:33:20.1Z</time>
      </trkpt>
      <trkpt lat="48.58382" lon="-3.20914">
        <ele>224</ele>
        <time>2016-06-06T08:33:23.1Z</time>
      </trkpt>
      <trkpt lat="48.58381" lon="-3.2091">
        <ele>224</ele>
        <time>2016-06-06T08:33:25.1Z</time>
      </trkpt>
      <trkpt lat="48.5838" lon="-3.20907">
        <ele>224</ele>
        <time>2016-06-06T08:33:27.1Z</time>
      </trkpt>
      <trkpt lat="48.58378" lon="-3.20902">
        <ele>224</ele>
        <time>2016-06-06T08:33:30.1Z</time>
      </trkpt>
      <trkpt lat="48.58376" lon="-3.20899">
        <ele>224</ele>
        <time>2016-06-06T08:33:33.1Z</time>
      </trkpt>
      <trkpt lat="48.58374" lon="-3.20895">
        <ele>224</ele>
        <time>2016-06-06T08:33:36.1Z</time>
      </trkpt>
      <trkpt lat="48.58372" lon="-3.20891">
        <ele>224</ele>
        <time>2016-06-06T08:33:39.1Z</time>
      </trkpt>
      <trkpt lat="48.58371" lon="-3.20887">
        <ele>224</ele>
        <time>2016-06-06T08:33:41.1Z</time>
      </trkpt>
      <trkpt lat="48.58368" lon="-3.20884">
        <ele>224</ele>
        <time>2016-06-06T08:33:44.1Z</time>
      </trkpt>
      <trkpt lat="48.58366" lon="-3.2088">
        <ele>224</ele>
        <time>2016-06-06T08:33:47.1Z</time>
      </trkpt>
      <trkpt lat="48.58365" lon="-3.20877">
        <ele>224</ele>
        <time>2016-06-06T08:33:49.1Z</time>
      </trkpt>
      <trkpt lat="48.58363" lon="-3.20873">
        <ele>224</ele>
        <time>2016-06-06T08:33:52.1Z</time>
      </trkpt>
      <trkpt lat="48.58362" lon="-3.20869">
        <ele>225</ele>
        <time>2016-06-06T08:33:55.1Z</time>
      </trkpt>
      <trkpt lat="48.5836" lon="-3.20864">
        <ele>224</ele>
        <time>2016-06-06T08:33:58.1Z</time>
      </trkpt>
      <trkpt lat="48.58359" lon="-3.20861">
        <ele>225</ele>
        <time>2016-06-06T08:34:00.1Z</time>
      </trkpt>
      <trkpt lat="48.58356" lon="-3.20857">
        <ele>224</ele>
        <time>2016-06-06T08:34:03.1Z</time>
      </trkpt>
      <trkpt lat="48.58356" lon="-3.20854">
        <ele>225</ele>
        <time>2016-06-06T08:34:05.1Z</time>
      </trkpt>
      <trkpt lat="48.58355" lon="-3.20852">
        <ele>225</ele>
        <time>2016-06-06T08:34:07.1Z</time>
      </trkpt>
      <trkpt lat="48.58353" lon="-3.20847">
        <ele>224</ele>
        <time>2016-06-06T08:34:10.1Z</time>
      </trkpt>
      <trkpt lat="48.58352" lon="-3.20845">
        <ele>224</ele>
        <time>2016-06-06T08:34:12.1Z</time>
      </trkpt>
      <trkpt lat="48.5835" lon="-3.20841">
        <ele>225</ele>
        <time>2016-06-06T08:34:15.1Z</time>
      </trkpt>
      <trkpt lat="48.58348" lon="-3.20836">
        <ele>225</ele>
        <time>2016-06-06T08:34:18.1Z</time>
      </trkpt>
      <trkpt lat="48.58346" lon="-3.20832">
        <ele>225</ele>
        <time>2016-06-06T08:34:21.1Z</time>
      </trkpt>
      <trkpt lat="48.58345" lon="-3.20829">
        <ele>225</ele>
        <time>2016-06-06T08:34:23.1Z</time>
      </trkpt>
      <trkpt lat="48.58342" lon="-3.20825">
        <ele>225</ele>
        <time>2016-06-06T08:34:26.1Z</time>
      </trkpt>
      <trkpt lat="48.5834" lon="-3.20822">
        <ele>225</ele>
        <time>2016-06-06T08:34:28.1Z</time>
      </trkpt>
      <trkpt lat="48.58338" lon="-3.20817">
        <ele>225</ele>
        <time>2016-06-06T08:34:31.1Z</time>
      </trkpt>
      <trkpt lat="48.58336" lon="-3.20812">
        <ele>225</ele>
        <time>2016-06-06T08:34:34.1Z</time>
      </trkpt>
      <trkpt lat="48.58334" lon="-3.20808">
        <ele>225</ele>
        <time>2016-06-06T08:34:37.1Z</time>
      </trkpt>
      <trkpt lat="48.58333" lon="-3.20804">
        <ele>225</ele>
        <time>2016-06-06T08:34:39.1Z</time>
      </trkpt>
      <trkpt lat="48.58331" lon="-3.208">
        <ele>225</ele>
        <time>2016-06-06T08:34:42.1Z</time>
      </trkpt>
      <trkpt lat="48.5833" lon="-3.20797">
        <ele>225</ele>
        <time>2016-06-06T08:34:44.1Z</time>
      </trkpt>
      <trkpt lat="48.58328" lon="-3.20793">
        <ele>225</ele>
        <time>2016-06-06T08:34:47.1Z</time>
      </trkpt>
      <trkpt lat="48.58328" lon="-3.2079">
        <ele>225</ele>
        <time>2016-06-06T08:34:49.1Z</time>
      </trkpt>
      <trkpt lat="48.58326" lon="-3.20786">
        <ele>225</ele>
        <time>2016-06-06T08:34:52.1Z</time>
      </trkpt>
      <trkpt lat="48.58325" lon="-3.20783">
        <ele>225</ele>
        <time>2016-06-06T08:34:54.1Z</time>
      </trkpt>
      <trkpt lat="48.58323" lon="-3.20779">
        <ele>226</ele>
        <time>2016-06-06T08:34:57.1Z</time>
      </trkpt>
      <trkpt lat="48.58322" lon="-3.20776">
        <ele>226</ele>
        <time>2016-06-06T08:34:59.1Z</time>
      </trkpt>
      <trkpt lat="48.5832" lon="-3.20771">
        <ele>226</ele>
        <time>2016-06-06T08:35:02.1Z</time>
      </trkpt>
      <trkpt lat="48.58318" lon="-3.20767">
        <ele>226</ele>
        <time>2016-06-06T08:35:05.1Z</time>
      </trkpt>
      <trkpt lat="48.58317" lon="-3.20764">
        <ele>226</ele>
        <time>2016-06-06T08:35:07.1Z</time>
      </trkpt>
      <trkpt lat="48.58315" lon="-3.2076">
        <ele>226</ele>
        <time>2016-06-06T08:35:10.1Z</time>
      </trkpt>
      <trkpt lat="48.58313" lon="-3.20755">
        <ele>227</ele>
        <time>2016-06-06T08:35:13.1Z</time>
      </trkpt>
      <trkpt lat="48.58312" lon="-3.20752">
        <ele>227</ele>
        <time>2016-06-06T08:35:15.1Z</time>
      </trkpt>
      <trkpt lat="48.5831" lon="-3.20747">
        <ele>226</ele>
        <time>2016-06-06T08:35:18.1Z</time>
      </trkpt>
      <trkpt lat="48.58308" lon="-3.20745">
        <ele>226</ele>
        <time>2016-06-06T08:35:20.1Z</time>
      </trkpt>
      <trkpt lat="48.58307" lon="-3.20743">
        <ele>226</ele>
        <time>2016-06-06T08:35:22.1Z</time>
      </trkpt>
      <trkpt lat="48.58306" lon="-3.20738">
        <ele>226</ele>
        <time>2016-06-06T08:35:25.1Z</time>
      </trkpt>
      <trkpt lat="48.58306" lon="-3.20734">
        <ele>226</ele>
        <time>2016-06-06T08:35:27.1Z</time>
      </trkpt>
      <trkpt lat="48.58304" lon="-3.20729">
        <ele>226</ele>
        <time>2016-06-06T08:35:30.1Z</time>
      </trkpt>
      <trkpt lat="48.58303" lon="-3.20725">
        <ele>226</ele>
        <time>2016-06-06T08:35:33.1Z</time>
      </trkpt>
      <trkpt lat="48.58302" lon="-3.20723">
        <ele>226</ele>
        <time>2016-06-06T08:35:35.1Z</time>
      </trkpt>
      <trkpt lat="48.58302" lon="-3.2072">
        <ele>226</ele>
        <time>2016-06-06T08:35:38.1Z</time>
      </trkpt>
      <trkpt lat="48.58302" lon="-3.20718">
        <ele>226</ele>
        <time>2016-06-06T08:35:41.1Z</time>
      </trkpt>
      <trkpt lat="48.58303" lon="-3.20715">
        <ele>226</ele>
        <time>2016-06-06T08:35:44.1Z</time>
      </trkpt>
      <trkpt lat="48.58302" lon="-3.20713">
        <ele>226</ele>
        <time>2016-06-06T08:35:47.1Z</time>
      </trkpt>
      <trkpt lat="48.58302" lon="-3.20712">
        <ele>226</ele>
        <time>2016-06-06T08:35:49.1Z</time>
      </trkpt>
      <trkpt lat="48.58301" lon="-3.20709">
        <ele>226</ele>
        <time>2016-06-06T08:35:52.1Z</time>
      </trkpt>
      <trkpt lat="48.58299" lon="-3.20706">
        <ele>226</ele>
        <time>2016-06-06T08:35:55.1Z</time>
      </trkpt>
      <trkpt lat="48.58297" lon="-3.20703">
        <ele>226</ele>
        <time>2016-06-06T08:35:57.1Z</time>
      </trkpt>
      <trkpt lat="48.58294" lon="-3.20698">
        <ele>226</ele>
        <time>2016-06-06T08:36:00.1Z</time>
      </trkpt>
      <trkpt lat="48.58292" lon="-3.20695">
        <ele>226</ele>
        <time>2016-06-06T08:36:02.1Z</time>
      </trkpt>
      <trkpt lat="48.5829" lon="-3.20692">
        <ele>226</ele>
        <time>2016-06-06T08:36:04.1Z</time>
      </trkpt>
      <trkpt lat="48.58288" lon="-3.20687">
        <ele>226</ele>
        <time>2016-06-06T08:36:07.1Z</time>
      </trkpt>
      <trkpt lat="48.58287" lon="-3.20684">
        <ele>226</ele>
        <time>2016-06-06T08:36:09.1Z</time>
      </trkpt>
      <trkpt lat="48.58284" lon="-3.20678">
        <ele>226</ele>
        <time>2016-06-06T08:36:12.1Z</time>
      </trkpt>
      <trkpt lat="48.58281" lon="-3.20673">
        <ele>226</ele>
        <time>2016-06-06T08:36:15.1Z</time>
      </trkpt>
      <trkpt lat="48.58279" lon="-3.2067">
        <ele>226</ele>
        <time>2016-06-06T08:36:17.1Z</time>
      </trkpt>
      <trkpt lat="48.58277" lon="-3.20665">
        <ele>226</ele>
        <time>2016-06-06T08:36:20.1Z</time>
      </trkpt>
      <trkpt lat="48.58273" lon="-3.2066">
        <ele>227</ele>
        <time>2016-06-06T08:36:23.1Z</time>
      </trkpt>
      <trkpt lat="48.58271" lon="-3.20657">
        <ele>227</ele>
        <time>2016-06-06T08:36:26.1Z</time>
      </trkpt>
      <trkpt lat="48.58268" lon="-3.20653">
        <ele>227</ele>
        <time>2016-06-06T08:36:29.1Z</time>
      </trkpt>
      <trkpt lat="48.58265" lon="-3.20651">
        <ele>226</ele>
        <time>2016-06-06T08:36:32.1Z</time>
      </trkpt>
      <trkpt lat="48.58263" lon="-3.2065">
        <ele>226</ele>
        <time>2016-06-06T08:36:34.1Z</time>
      </trkpt>
      <trkpt lat="48.58261" lon="-3.2065">
        <ele>226</ele>
        <time>2016-06-06T08:36:36.1Z</time>
      </trkpt>
      <trkpt lat="48.58258" lon="-3.20651">
        <ele>226</ele>
        <time>2016-06-06T08:36:39.1Z</time>
      </trkpt>
      <trkpt lat="48.58257" lon="-3.20655">
        <ele>226</ele>
        <time>2016-06-06T08:36:42.1Z</time>
      </trkpt>
      <trkpt lat="48.58256" lon="-3.20658">
        <ele>226</ele>
        <time>2016-06-06T08:36:44.1Z</time>
      </trkpt>
      <trkpt lat="48.58255" lon="-3.20663">
        <ele>226</ele>
        <time>2016-06-06T08:36:47.1Z</time>
      </trkpt>
      <trkpt lat="48.58254" lon="-3.20669">
        <ele>226</ele>
        <time>2016-06-06T08:36:50.1Z</time>
      </trkpt>
      <trkpt lat="48.58253" lon="-3.20673">
        <ele>226</ele>
        <time>2016-06-06T08:36:53.1Z</time>
      </trkpt>
      <trkpt lat="48.58252" lon="-3.20678">
        <ele>226</ele>
        <time>2016-06-06T08:36:56.1Z</time>
      </trkpt>
      <trkpt lat="48.58252" lon="-3.20682">
        <ele>226</ele>
        <time>2016-06-06T08:36:58.1Z</time>
      </trkpt>
      <trkpt lat="48.58252" lon="-3.20688">
        <ele>226</ele>
        <time>2016-06-06T08:37:01.1Z</time>
      </trkpt>
      <trkpt lat="48.5825" lon="-3.20693">
        <ele>226</ele>
        <time>2016-06-06T08:37:04.1Z</time>
      </trkpt>
      <trkpt lat="48.58251" lon="-3.20696">
        <ele>226</ele>
        <time>2016-06-06T08:37:06.1Z</time>
      </trkpt>
      <trkpt lat="48.58251" lon="-3.207">
        <ele>227</ele>
        <time>2016-06-06T08:37:09.1Z</time>
      </trkpt>
      <trkpt lat="48.58249" lon="-3.20706">
        <ele>227</ele>
        <time>2016-06-06T08:37:12.1Z</time>
      </trkpt>
      <trkpt lat="48.58249" lon="-3.20709">
        <ele>227</ele>
        <time>2016-06-06T08:37:14.1Z</time>
      </trkpt>
      <trkpt lat="48.58248" lon="-3.20716">
        <ele>226</ele>
        <time>2016-06-06T08:37:17.1Z</time>
      </trkpt>
      <trkpt lat="48.58248" lon="-3.20722">
        <ele>226</ele>
        <time>2016-06-06T08:37:20.1Z</time>
      </trkpt>
      <trkpt lat="48.58247" lon="-3.20727">
        <ele>226</ele>
        <time>2016-06-06T08:37:23.1Z</time>
      </trkpt>
      <trkpt lat="48.58246" lon="-3.20732">
        <ele>226</ele>
        <time>2016-06-06T08:37:26.1Z</time>
      </trkpt>
      <trkpt lat="48.58246" lon="-3.20738">
        <ele>226</ele>
        <time>2016-06-06T08:37:29.1Z</time>
      </trkpt>
      <trkpt lat="48.58246" lon="-3.20742">
        <ele>226</ele>
        <time>2016-06-06T08:37:31.1Z</time>
      </trkpt>
      <trkpt lat="48.58245" lon="-3.20746">
        <ele>227</ele>
        <time>2016-06-06T08:37:34.1Z</time>
      </trkpt>
      <trkpt lat="48.58244" lon="-3.20752">
        <ele>227</ele>
        <time>2016-06-06T08:37:37.1Z</time>
      </trkpt>
      <trkpt lat="48.58244" lon="-3.20756">
        <ele>227</ele>
        <time>2016-06-06T08:37:40.1Z</time>
      </trkpt>
      <trkpt lat="48.58244" lon="-3.2076">
        <ele>227</ele>
        <time>2016-06-06T08:37:42.1Z</time>
      </trkpt>
      <trkpt lat="48.58243" lon="-3.20764">
        <ele>227</ele>
        <time>2016-06-06T08:37:44.1Z</time>
      </trkpt>
      <trkpt lat="48.58243" lon="-3.20769">
        <ele>227</ele>
        <time>2016-06-06T08:37:47.1Z</time>
      </trkpt>
      <trkpt lat="48.58243" lon="-3.20775">
        <ele>226</ele>
        <time>2016-06-06T08:37:50.1Z</time>
      </trkpt>
      <trkpt lat="48.58242" lon="-3.20779">
        <ele>226</ele>
        <time>2016-06-06T08:37:53.1Z</time>
      </trkpt>
      <trkpt lat="48.58242" lon="-3.20782">
        <ele>226</ele>
        <time>2016-06-06T08:37:55.1Z</time>
      </trkpt>
      <trkpt lat="48.58241" lon="-3.20788">
        <ele>226</ele>
        <time>2016-06-06T08:37:58.1Z</time>
      </trkpt>
      <trkpt lat="48.5824" lon="-3.20791">
        <ele>226</ele>
        <time>2016-06-06T08:38:00.1Z</time>
      </trkpt>
      <trkpt lat="48.5824" lon="-3.20794">
        <ele>226</ele>
        <time>2016-06-06T08:38:02.1Z</time>
      </trkpt>
      <trkpt lat="48.58239" lon="-3.208">
        <ele>226</ele>
        <time>2016-06-06T08:38:05.1Z</time>
      </trkpt>
      <trkpt lat="48.58238" lon="-3.20806">
        <ele>226</ele>
        <time>2016-06-06T08:38:08.1Z</time>
      </trkpt>
      <trkpt lat="48.58238" lon="-3.20811">
        <ele>226</ele>
        <time>2016-06-06T08:38:11.1Z</time>
      </trkpt>
      <trkpt lat="48.58237" lon="-3.20815">
        <ele>226</ele>
        <time>2016-06-06T08:38:14.1Z</time>
      </trkpt>
      <trkpt lat="48.58236" lon="-3.20819">
        <ele>226</ele>
        <time>2016-06-06T08:38:16.1Z</time>
      </trkpt>
      <trkpt lat="48.58235" lon="-3.20825">
        <ele>226</ele>
        <time>2016-06-06T08:38:19.1Z</time>
      </trkpt>
      <trkpt lat="48.58235" lon="-3.20828">
        <ele>226</ele>
        <time>2016-06-06T08:38:21.1Z</time>
      </trkpt>
      <trkpt lat="48.58233" lon="-3.20833">
        <ele>226</ele>
        <time>2016-06-06T08:38:24.1Z</time>
      </trkpt>
      <trkpt lat="48.58232" lon="-3.20837">
        <ele>226</ele>
        <time>2016-06-06T08:38:26.1Z</time>
      </trkpt>
      <trkpt lat="48.58231" lon="-3.20842">
        <ele>226</ele>
        <time>2016-06-06T08:38:29.1Z</time>
      </trkpt>
      <trkpt lat="48.5823" lon="-3.20846">
        <ele>226</ele>
        <time>2016-06-06T08:38:31.1Z</time>
      </trkpt>
      <trkpt lat="48.58229" lon="-3.2085">
        <ele>226</ele>
        <time>2016-06-06T08:38:34.1Z</time>
      </trkpt>
      <trkpt lat="48.58228" lon="-3.20854">
        <ele>226</ele>
        <time>2016-06-06T08:38:36.1Z</time>
      </trkpt>
      <trkpt lat="48.58227" lon="-3.2086">
        <ele>226</ele>
        <time>2016-06-06T08:38:39.1Z</time>
      </trkpt>
      <trkpt lat="48.58226" lon="-3.20864">
        <ele>226</ele>
        <time>2016-06-06T08:38:42.1Z</time>
      </trkpt>
      <trkpt lat="48.58226" lon="-3.20869">
        <ele>226</ele>
        <time>2016-06-06T08:38:45.1Z</time>
      </trkpt>
      <trkpt lat="48.58225" lon="-3.20873">
        <ele>226</ele>
        <time>2016-06-06T08:38:47.1Z</time>
      </trkpt>
      <trkpt lat="48.58224" lon="-3.20878">
        <ele>226</ele>
        <time>2016-06-06T08:38:50.1Z</time>
      </trkpt>
      <trkpt lat="48.58223" lon="-3.20883">
        <ele>226</ele>
        <time>2016-06-06T08:38:53.1Z</time>
      </trkpt>
      <trkpt lat="48.58221" lon="-3.20888">
        <ele>225</ele>
        <time>2016-06-06T08:38:56.1Z</time>
      </trkpt>
      <trkpt lat="48.5822" lon="-3.20892">
        <ele>225</ele>
        <time>2016-06-06T08:38:58.1Z</time>
      </trkpt>
      <trkpt lat="48.58219" lon="-3.20896">
        <ele>225</ele>
        <time>2016-06-06T08:39:01.1Z</time>
      </trkpt>
      <trkpt lat="48.58217" lon="-3.209">
        <ele>225</ele>
        <time>2016-06-06T08:39:04.1Z</time>
      </trkpt>
      <trkpt lat="48.58216" lon="-3.20903">
        <ele>225</ele>
        <time>2016-06-06T08:39:06.1Z</time>
      </trkpt>
      <trkpt lat="48.58214" lon="-3.20907">
        <ele>225</ele>
        <time>2016-06-06T08:39:09.1Z</time>
      </trkpt>
      <trkpt lat="48.58211" lon="-3.2091">
        <ele>225</ele>
        <time>2016-06-06T08:39:12.1Z</time>
      </trkpt>
      <trkpt lat="48.58209" lon="-3.20911">
        <ele>225</ele>
        <time>2016-06-06T08:39:14.1Z</time>
      </trkpt>
      <trkpt lat="48.58207" lon="-3.20913">
        <ele>224</ele>
        <time>2016-06-06T08:39:16.1Z</time>
      </trkpt>
      <trkpt lat="48.58204" lon="-3.20915">
        <ele>224</ele>
        <time>2016-06-06T08:39:19.1Z</time>
      </trkpt>
      <trkpt lat="48.58201" lon="-3.20918">
        <ele>224</ele>
        <time>2016-06-06T08:39:22.1Z</time>
      </trkpt>
      <trkpt lat="48.58197" lon="-3.2092">
        <ele>223</ele>
        <time>2016-06-06T08:39:25.1Z</time>
      </trkpt>
      <trkpt lat="48.58194" lon="-3.20922">
        <ele>223</ele>
        <time>2016-06-06T08:39:28.1Z</time>
      </trkpt>
      <trkpt lat="48.58191" lon="-3.20924">
        <ele>223</ele>
        <time>2016-06-06T08:39:31.1Z</time>
      </trkpt>
      <trkpt lat="48.58189" lon="-3.20926">
        <ele>223</ele>
        <time>2016-06-06T08:39:33.1Z</time>
      </trkpt>
      <trkpt lat="48.58186" lon="-3.20929">
        <ele>223</ele>
        <time>2016-06-06T08:39:36.1Z</time>
      </trkpt>
      <trkpt lat="48.58183" lon="-3.20932">
        <ele>222</ele>
        <time>2016-06-06T08:39:39.1Z</time>
      </trkpt>
      <trkpt lat="48.58179" lon="-3.20936">
        <ele>222</ele>
        <time>2016-06-06T08:39:42.1Z</time>
      </trkpt>
      <trkpt lat="48.58178" lon="-3.20937">
        <ele>222</ele>
        <time>2016-06-06T08:39:44.1Z</time>
      </trkpt>
      <trkpt lat="48.58175" lon="-3.2094">
        <ele>221</ele>
        <time>2016-06-06T08:39:47.1Z</time>
      </trkpt>
      <trkpt lat="48.58173" lon="-3.20943">
        <ele>221</ele>
        <time>2016-06-06T08:39:49.1Z</time>
      </trkpt>
      <trkpt lat="48.5817" lon="-3.20946">
        <ele>221</ele>
        <time>2016-06-06T08:39:52.1Z</time>
      </trkpt>
      <trkpt lat="48.58169" lon="-3.20948">
        <ele>221</ele>
        <time>2016-06-06T08:39:54.1Z</time>
      </trkpt>
      <trkpt lat="48.58167" lon="-3.2095">
        <ele>221</ele>
        <time>2016-06-06T08:39:56.1Z</time>
      </trkpt>
      <trkpt lat="48.58165" lon="-3.20954">
        <ele>220</ele>
        <time>2016-06-06T08:39:59.1Z</time>
      </trkpt>
      <trkpt lat="48.58163" lon="-3.20957">
        <ele>220</ele>
        <time>2016-06-06T08:40:02.1Z</time>
      </trkpt>
      <trkpt lat="48.58161" lon="-3.2096">
        <ele>219</ele>
        <time>2016-06-06T08:40:04.1Z</time>
      </trkpt>
      <trkpt lat="48.58159" lon="-3.20964">
        <ele>220</ele>
        <time>2016-06-06T08:40:07.1Z</time>
      </trkpt>
      <trkpt lat="48.58157" lon="-3.20967">
        <ele>220</ele>
        <time>2016-06-06T08:40:09.1Z</time>
      </trkpt>
      <trkpt lat="48.58154" lon="-3.20971">
        <ele>219</ele>
        <time>2016-06-06T08:40:12.1Z</time>
      </trkpt>
      <trkpt lat="48.58153" lon="-3.20973">
        <ele>219</ele>
        <time>2016-06-06T08:40:14.1Z</time>
      </trkpt>
      <trkpt lat="48.5815" lon="-3.20977">
        <ele>219</ele>
        <time>2016-06-06T08:40:17.1Z</time>
      </trkpt>
      <trkpt lat="48.58148" lon="-3.20979">
        <ele>219</ele>
        <time>2016-06-06T08:40:19.1Z</time>
      </trkpt>
      <trkpt lat="48.58145" lon="-3.20982">
        <ele>219</ele>
        <time>2016-06-06T08:40:22.1Z</time>
      </trkpt>
      <trkpt lat="48.58143" lon="-3.20983">
        <ele>219</ele>
        <time>2016-06-06T08:40:24.1Z</time>
      </trkpt>
      <trkpt lat="48.5814" lon="-3.20986">
        <ele>219</ele>
        <time>2016-06-06T08:40:27.1Z</time>
      </trkpt>
      <trkpt lat="48.58137" lon="-3.20989">
        <ele>219</ele>
        <time>2016-06-06T08:40:30.1Z</time>
      </trkpt>
      <trkpt lat="48.58133" lon="-3.20992">
        <ele>218</ele>
        <time>2016-06-06T08:40:33.1Z</time>
      </trkpt>
      <trkpt lat="48.58131" lon="-3.20994">
        <ele>218</ele>
        <time>2016-06-06T08:40:35.1Z</time>
      </trkpt>
      <trkpt lat="48.58128" lon="-3.20996">
        <ele>218</ele>
        <time>2016-06-06T08:40:38.1Z</time>
      </trkpt>
      <trkpt lat="48.58125" lon="-3.20999">
        <ele>218</ele>
        <time>2016-06-06T08:40:41.1Z</time>
      </trkpt>
      <trkpt lat="48.58123" lon="-3.21">
        <ele>218</ele>
        <time>2016-06-06T08:40:43.1Z</time>
      </trkpt>
      <trkpt lat="48.58119" lon="-3.21001">
        <ele>218</ele>
        <time>2016-06-06T08:40:46.1Z</time>
      </trkpt>
      <trkpt lat="48.58116" lon="-3.21002">
        <ele>219</ele>
        <time>2016-06-06T08:40:49.1Z</time>
      </trkpt>
      <trkpt lat="48.58113" lon="-3.21002">
        <ele>219</ele>
        <time>2016-06-06T08:40:52.1Z</time>
      </trkpt>
      <trkpt lat="48.58111" lon="-3.21003">
        <ele>219</ele>
        <time>2016-06-06T08:40:54.1Z</time>
      </trkpt>
      <trkpt lat="48.58107" lon="-3.21004">
        <ele>218</ele>
        <time>2016-06-06T08:40:57.1Z</time>
      </trkpt>
      <trkpt lat="48.58105" lon="-3.21004">
        <ele>218</ele>
        <time>2016-06-06T08:40:59.1Z</time>
      </trkpt>
      <trkpt lat="48.58102" lon="-3.21005">
        <ele>217</ele>
        <time>2016-06-06T08:41:02.1Z</time>
      </trkpt>
      <trkpt lat="48.581" lon="-3.21006">
        <ele>218</ele>
        <time>2016-06-06T08:41:05.1Z</time>
      </trkpt>
      <trkpt lat="48.58096" lon="-3.21007">
        <ele>218</ele>
        <time>2016-06-06T08:41:08.1Z</time>
      </trkpt>
      <trkpt lat="48.58093" lon="-3.21008">
        <ele>218</ele>
        <time>2016-06-06T08:41:11.1Z</time>
      </trkpt>
      <trkpt lat="48.58089" lon="-3.21008">
        <ele>218</ele>
        <time>2016-06-06T08:41:14.1Z</time>
      </trkpt>
      <trkpt lat="48.58085" lon="-3.21009">
        <ele>218</ele>
        <time>2016-06-06T08:41:17.1Z</time>
      </trkpt>
      <trkpt lat="48.58083" lon="-3.2101">
        <ele>217</ele>
        <time>2016-06-06T08:41:19.1Z</time>
      </trkpt>
      <trkpt lat="48.58079" lon="-3.21012">
        <ele>217</ele>
        <time>2016-06-06T08:41:22.1Z</time>
      </trkpt>
      <trkpt lat="48.58077" lon="-3.21012">
        <ele>217</ele>
        <time>2016-06-06T08:41:24.1Z</time>
      </trkpt>
      <trkpt lat="48.58073" lon="-3.21014">
        <ele>217</ele>
        <time>2016-06-06T08:41:27.1Z</time>
      </trkpt>
      <trkpt lat="48.58071" lon="-3.21015">
        <ele>217</ele>
        <time>2016-06-06T08:41:29.1Z</time>
      </trkpt>
      <trkpt lat="48.58069" lon="-3.21016">
        <ele>216</ele>
        <time>2016-06-06T08:41:31.1Z</time>
      </trkpt>
      <trkpt lat="48.58066" lon="-3.21018">
        <ele>216</ele>
        <time>2016-06-06T08:41:34.1Z</time>
      </trkpt>
      <trkpt lat="48.58062" lon="-3.21019">
        <ele>216</ele>
        <time>2016-06-06T08:41:37.1Z</time>
      </trkpt>
      <trkpt lat="48.5806" lon="-3.2102">
        <ele>216</ele>
        <time>2016-06-06T08:41:39.1Z</time>
      </trkpt>
      <trkpt lat="48.58058" lon="-3.2102">
        <ele>216</ele>
        <time>2016-06-06T08:41:41.1Z</time>
      </trkpt>
      <trkpt lat="48.58055" lon="-3.2102">
        <ele>216</ele>
        <time>2016-06-06T08:41:44.1Z</time>
      </trkpt>
      <trkpt lat="48.58052" lon="-3.21022">
        <ele>216</ele>
        <time>2016-06-06T08:41:47.1Z</time>
      </trkpt>
      <trkpt lat="48.58049" lon="-3.21023">
        <ele>216</ele>
        <time>2016-06-06T08:41:50.1Z</time>
      </trkpt>
      <trkpt lat="48.58045" lon="-3.21024">
        <ele>216</ele>
        <time>2016-06-06T08:41:53.1Z</time>
      </trkpt>
      <trkpt lat="48.58042" lon="-3.21024">
        <ele>216</ele>
        <time>2016-06-06T08:41:56.1Z</time>
      </trkpt>
      <trkpt lat="48.58039" lon="-3.21025">
        <ele>216</ele>
        <time>2016-06-06T08:41:58.1Z</time>
      </trkpt>
      <trkpt lat="48.58035" lon="-3.21027">
        <ele>215</ele>
        <time>2016-06-06T08:42:01.1Z</time>
      </trkpt>
      <trkpt lat="48.58033" lon="-3.21028">
        <ele>215</ele>
        <time>2016-06-06T08:42:03.1Z</time>
      </trkpt>
      <trkpt lat="48.5803" lon="-3.2103">
        <ele>215</ele>
        <time>2016-06-06T08:42:06.1Z</time>
      </trkpt>
      <trkpt lat="48.58027" lon="-3.21031">
        <ele>215</ele>
        <time>2016-06-06T08:42:08.1Z</time>
      </trkpt>
      <trkpt lat="48.58023" lon="-3.21032">
        <ele>215</ele>
        <time>2016-06-06T08:42:11.1Z</time>
      </trkpt>
      <trkpt lat="48.5802" lon="-3.21032">
        <ele>214</ele>
        <time>2016-06-06T08:42:14.1Z</time>
      </trkpt>
      <trkpt lat="48.58016" lon="-3.21032">
        <ele>214</ele>
        <time>2016-06-06T08:42:17.1Z</time>
      </trkpt>
      <trkpt lat="48.58014" lon="-3.21034">
        <ele>214</ele>
        <time>2016-06-06T08:42:19.1Z</time>
      </trkpt>
      <trkpt lat="48.58012" lon="-3.21034">
        <ele>214</ele>
        <time>2016-06-06T08:42:21.1Z</time>
      </trkpt>
      <trkpt lat="48.58008" lon="-3.21036">
        <ele>214</ele>
        <time>2016-06-06T08:42:24.1Z</time>
      </trkpt>
      <trkpt lat="48.58004" lon="-3.21037">
        <ele>214</ele>
        <time>2016-06-06T08:42:27.1Z</time>
      </trkpt>
      <trkpt lat="48.58" lon="-3.2104">
        <ele>214</ele>
        <time>2016-06-06T08:42:30.1Z</time>
      </trkpt>
      <trkpt lat="48.57996" lon="-3.21042">
        <ele>214</ele>
        <time>2016-06-06T08:42:33.1Z</time>
      </trkpt>
      <trkpt lat="48.57993" lon="-3.21043">
        <ele>214</ele>
        <time>2016-06-06T08:42:35.1Z</time>
      </trkpt>
      <trkpt lat="48.57991" lon="-3.21044">
        <ele>213</ele>
        <time>2016-06-06T08:42:37.1Z</time>
      </trkpt>
      <trkpt lat="48.57987" lon="-3.21045">
        <ele>213</ele>
        <time>2016-06-06T08:42:40.1Z</time>
      </trkpt>
      <trkpt lat="48.57983" lon="-3.21047">
        <ele>213</ele>
        <time>2016-06-06T08:42:43.1Z</time>
      </trkpt>
      <trkpt lat="48.5798" lon="-3.21049">
        <ele>213</ele>
        <time>2016-06-06T08:42:46.1Z</time>
      </trkpt>
      <trkpt lat="48.57977" lon="-3.21052">
        <ele>212</ele>
        <time>2016-06-06T08:42:49.1Z</time>
      </trkpt>
      <trkpt lat="48.57975" lon="-3.21053">
        <ele>212</ele>
        <time>2016-06-06T08:42:51.1Z</time>
      </trkpt>
      <trkpt lat="48.57971" lon="-3.21055">
        <ele>212</ele>
        <time>2016-06-06T08:42:54.1Z</time>
      </trkpt>
      <trkpt lat="48.57968" lon="-3.21057">
        <ele>212</ele>
        <time>2016-06-06T08:42:57.1Z</time>
      </trkpt>
      <trkpt lat="48.57966" lon="-3.21058">
        <ele>212</ele>
        <time>2016-06-06T08:42:59.1Z</time>
      </trkpt>
      <trkpt lat="48.57963" lon="-3.21059">
        <ele>212</ele>
        <time>2016-06-06T08:43:02.1Z</time>
      </trkpt>
      <trkpt lat="48.57959" lon="-3.21061">
        <ele>212</ele>
        <time>2016-06-06T08:43:05.1Z</time>
      </trkpt>
      <trkpt lat="48.57957" lon="-3.21062">
        <ele>211</ele>
        <time>2016-06-06T08:43:07.1Z</time>
      </trkpt>
      <trkpt lat="48.57954" lon="-3.21063">
        <ele>211</ele>
        <time>2016-06-06T08:43:10.1Z</time>
      </trkpt>
      <trkpt lat="48.57952" lon="-3.21065">
        <ele>211</ele>
        <time>2016-06-06T08:43:13.1Z</time>
      </trkpt>
      <trkpt lat="48.5795" lon="-3.21065">
        <ele>211</ele>
        <time>2016-06-06T08:43:15.1Z</time>
      </trkpt>
      <trkpt lat="48.57946" lon="-3.21066">
        <ele>211</ele>
        <time>2016-06-06T08:43:18.1Z</time>
      </trkpt>
      <trkpt lat="48.57944" lon="-3.21066">
        <ele>211</ele>
        <time>2016-06-06T08:43:20.1Z</time>
      </trkpt>
      <trkpt lat="48.57942" lon="-3.21066">
        <ele>211</ele>
        <time>2016-06-06T08:43:22.1Z</time>
      </trkpt>
      <trkpt lat="48.57938" lon="-3.21065">
        <ele>211</ele>
        <time>2016-06-06T08:43:25.1Z</time>
      </trkpt>
      <trkpt lat="48.57935" lon="-3.21064">
        <ele>211</ele>
        <time>2016-06-06T08:43:28.1Z</time>
      </trkpt>
      <trkpt lat="48.57931" lon="-3.21063">
        <ele>211</ele>
        <time>2016-06-06T08:43:31.1Z</time>
      </trkpt>
      <trkpt lat="48.57928" lon="-3.21061">
        <ele>211</ele>
        <time>2016-06-06T08:43:33.1Z</time>
      </trkpt>
      <trkpt lat="48.57925" lon="-3.21059">
        <ele>211</ele>
        <time>2016-06-06T08:43:36.1Z</time>
      </trkpt>
      <trkpt lat="48.57921" lon="-3.21057">
        <ele>211</ele>
        <time>2016-06-06T08:43:39.1Z</time>
      </trkpt>
      <trkpt lat="48.57919" lon="-3.21056">
        <ele>211</ele>
        <time>2016-06-06T08:43:41.1Z</time>
      </trkpt>
      <trkpt lat="48.57915" lon="-3.21054">
        <ele>211</ele>
        <time>2016-06-06T08:43:44.1Z</time>
      </trkpt>
      <trkpt lat="48.57913" lon="-3.21052">
        <ele>211</ele>
        <time>2016-06-06T08:43:46.1Z</time>
      </trkpt>
      <trkpt lat="48.57911" lon="-3.2105">
        <ele>210</ele>
        <time>2016-06-06T08:43:48.1Z</time>
      </trkpt>
      <trkpt lat="48.57907" lon="-3.21048">
        <ele>210</ele>
        <time>2016-06-06T08:43:51.1Z</time>
      </trkpt>
      <trkpt lat="48.57905" lon="-3.21046">
        <ele>210</ele>
        <time>2016-06-06T08:43:53.1Z</time>
      </trkpt>
      <trkpt lat="48.57902" lon="-3.21043">
        <ele>210</ele>
        <time>2016-06-06T08:43:56.1Z</time>
      </trkpt>
      <trkpt lat="48.579" lon="-3.21042">
        <ele>210</ele>
        <time>2016-06-06T08:43:58.1Z</time>
      </trkpt>
      <trkpt lat="48.57897" lon="-3.2104">
        <ele>210</ele>
        <time>2016-06-06T08:44:01.1Z</time>
      </trkpt>
      <trkpt lat="48.57894" lon="-3.21037">
        <ele>210</ele>
        <time>2016-06-06T08:44:04.1Z</time>
      </trkpt>
      <trkpt lat="48.57892" lon="-3.21035">
        <ele>210</ele>
        <time>2016-06-06T08:44:06.1Z</time>
      </trkpt>
      <trkpt lat="48.57889" lon="-3.21034">
        <ele>210</ele>
        <time>2016-06-06T08:44:09.1Z</time>
      </trkpt>
      <trkpt lat="48.57887" lon="-3.21032">
        <ele>210</ele>
        <time>2016-06-06T08:44:11.1Z</time>
      </trkpt>
      <trkpt lat="48.57885" lon="-3.21031">
        <ele>210</ele>
        <time>2016-06-06T08:44:13.1Z</time>
      </trkpt>
      <trkpt lat="48.5788" lon="-3.21031">
        <ele>209</ele>
        <time>2016-06-06T08:44:16.1Z</time>
      </trkpt>
      <trkpt lat="48.57878" lon="-3.21031">
        <ele>209</ele>
        <time>2016-06-06T08:44:18.1Z</time>
      </trkpt>
      <trkpt lat="48.57876" lon="-3.21033">
        <ele>209</ele>
        <time>2016-06-06T08:44:20.1Z</time>
      </trkpt>
      <trkpt lat="48.57874" lon="-3.21036">
        <ele>209</ele>
        <time>2016-06-06T08:44:22.1Z</time>
      </trkpt>
      <trkpt lat="48.57873" lon="-3.21039">
        <ele>209</ele>
        <time>2016-06-06T08:44:24.1Z</time>
      </trkpt>
      <trkpt lat="48.57871" lon="-3.21044">
        <ele>209</ele>
        <time>2016-06-06T08:44:27.1Z</time>
      </trkpt>
      <trkpt lat="48.5787" lon="-3.21048">
        <ele>209</ele>
        <time>2016-06-06T08:44:29.1Z</time>
      </trkpt>
      <trkpt lat="48.57868" lon="-3.21054">
        <ele>209</ele>
        <time>2016-06-06T08:44:32.1Z</time>
      </trkpt>
      <trkpt lat="48.57867" lon="-3.21057">
        <ele>209</ele>
        <time>2016-06-06T08:44:34.1Z</time>
      </trkpt>
      <trkpt lat="48.57865" lon="-3.21061">
        <ele>209</ele>
        <time>2016-06-06T08:44:37.1Z</time>
      </trkpt>
      <trkpt lat="48.57863" lon="-3.21066">
        <ele>209</ele>
        <time>2016-06-06T08:44:40.1Z</time>
      </trkpt>
      <trkpt lat="48.57861" lon="-3.2107">
        <ele>208</ele>
        <time>2016-06-06T08:44:42.1Z</time>
      </trkpt>
      <trkpt lat="48.57859" lon="-3.21075">
        <ele>208</ele>
        <time>2016-06-06T08:44:45.1Z</time>
      </trkpt>
      <trkpt lat="48.57858" lon="-3.2108">
        <ele>208</ele>
        <time>2016-06-06T08:44:48.1Z</time>
      </trkpt>
      <trkpt lat="48.57857" lon="-3.21083">
        <ele>208</ele>
        <time>2016-06-06T08:44:50.1Z</time>
      </trkpt>
      <trkpt lat="48.57855" lon="-3.21087">
        <ele>208</ele>
        <time>2016-06-06T08:44:52.1Z</time>
      </trkpt>
      <trkpt lat="48.57852" lon="-3.21091">
        <ele>208</ele>
        <time>2016-06-06T08:44:55.1Z</time>
      </trkpt>
      <trkpt lat="48.5785" lon="-3.21094">
        <ele>209</ele>
        <time>2016-06-06T08:44:58.1Z</time>
      </trkpt>
      <trkpt lat="48.57847" lon="-3.21099">
        <ele>209</ele>
        <time>2016-06-06T08:45:01.1Z</time>
      </trkpt>
      <trkpt lat="48.57846" lon="-3.21101">
        <ele>209</ele>
        <time>2016-06-06T08:45:03.1Z</time>
      </trkpt>
      <trkpt lat="48.57845" lon="-3.21105">
        <ele>208</ele>
        <time>2016-06-06T08:45:06.1Z</time>
      </trkpt>
      <trkpt lat="48.57844" lon="-3.2111">
        <ele>208</ele>
        <time>2016-06-06T08:45:09.1Z</time>
      </trkpt>
      <trkpt lat="48.57842" lon="-3.21116">
        <ele>208</ele>
        <time>2016-06-06T08:45:12.1Z</time>
      </trkpt>
      <trkpt lat="48.57842" lon="-3.21119">
        <ele>208</ele>
        <time>2016-06-06T08:45:14.1Z</time>
      </trkpt>
      <trkpt lat="48.57842" lon="-3.21126">
        <ele>208</ele>
        <time>2016-06-06T08:45:17.1Z</time>
      </trkpt>
      <trkpt lat="48.57843" lon="-3.21129">
        <ele>208</ele>
        <time>2016-06-06T08:45:20.1Z</time>
      </trkpt>
      <trkpt lat="48.57841" lon="-3.21136">
        <ele>208</ele>
        <time>2016-06-06T08:45:23.1Z</time>
      </trkpt>
      <trkpt lat="48.5784" lon="-3.2114">
        <ele>209</ele>
        <time>2016-06-06T08:45:25.1Z</time>
      </trkpt>
      <trkpt lat="48.57838" lon="-3.21144">
        <ele>209</ele>
        <time>2016-06-06T08:45:28.1Z</time>
      </trkpt>
      <trkpt lat="48.57837" lon="-3.21147">
        <ele>209</ele>
        <time>2016-06-06T08:45:30.1Z</time>
      </trkpt>
      <trkpt lat="48.57836" lon="-3.21151">
        <ele>209</ele>
        <time>2016-06-06T08:45:33.1Z</time>
      </trkpt>
      <trkpt lat="48.57834" lon="-3.21155">
        <ele>209</ele>
        <time>2016-06-06T08:45:36.1Z</time>
      </trkpt>
      <trkpt lat="48.57832" lon="-3.2116">
        <ele>209</ele>
        <time>2016-06-06T08:45:39.1Z</time>
      </trkpt>
      <trkpt lat="48.57832" lon="-3.21163">
        <ele>209</ele>
        <time>2016-06-06T08:45:41.1Z</time>
      </trkpt>
      <trkpt lat="48.5783" lon="-3.21168">
        <ele>209</ele>
        <time>2016-06-06T08:45:44.1Z</time>
      </trkpt>
      <trkpt lat="48.57828" lon="-3.21173">
        <ele>209</ele>
        <time>2016-06-06T08:45:47.1Z</time>
      </trkpt>
      <trkpt lat="48.57826" lon="-3.21178">
        <ele>209</ele>
        <time>2016-06-06T08:45:50.1Z</time>
      </trkpt>
      <trkpt lat="48.57824" lon="-3.2118">
        <ele>209</ele>
        <time>2016-06-06T08:45:52.1Z</time>
      </trkpt>
      <trkpt lat="48.57823" lon="-3.21183">
        <ele>208</ele>
        <time>2016-06-06T08:45:54.1Z</time>
      </trkpt>
      <trkpt lat="48.57822" lon="-3.21185">
        <ele>208</ele>
        <time>2016-06-06T08:45:56.1Z</time>
      </trkpt>
      <trkpt lat="48.57818" lon="-3.2119">
        <ele>208</ele>
        <time>2016-06-06T08:45:59.1Z</time>
      </trkpt>
      <trkpt lat="48.57816" lon="-3.21192">
        <ele>208</ele>
        <time>2016-06-06T08:46:01.1Z</time>
      </trkpt>
      <trkpt lat="48.57814" lon="-3.21193">
        <ele>208</ele>
        <time>2016-06-06T08:46:03.1Z</time>
      </trkpt>
      <trkpt lat="48.57812" lon="-3.21195">
        <ele>208</ele>
        <time>2016-06-06T08:46:05.1Z</time>
      </trkpt>
      <trkpt lat="48.5781" lon="-3.21197">
        <ele>208</ele>
        <time>2016-06-06T08:46:07.1Z</time>
      </trkpt>
      <trkpt lat="48.57808" lon="-3.21198">
        <ele>208</ele>
        <time>2016-06-06T08:46:09.1Z</time>
      </trkpt>
      <trkpt lat="48.57805" lon="-3.21199">
        <ele>208</ele>
        <time>2016-06-06T08:46:12.1Z</time>
      </trkpt>
      <trkpt lat="48.57802" lon="-3.21199">
        <ele>208</ele>
        <time>2016-06-06T08:46:15.1Z</time>
      </trkpt>
      <trkpt lat="48.57799" lon="-3.21198">
        <ele>208</ele>
        <time>2016-06-06T08:46:18.1Z</time>
      </trkpt>
      <trkpt lat="48.57796" lon="-3.21197">
        <ele>208</ele>
        <time>2016-06-06T08:46:21.1Z</time>
      </trkpt>
      <trkpt lat="48.57793" lon="-3.21195">
        <ele>208</ele>
        <time>2016-06-06T08:46:24.1Z</time>
      </trkpt>
      <trkpt lat="48.57791" lon="-3.21195">
        <ele>207</ele>
        <time>2016-06-06T08:46:27.1Z</time>
      </trkpt>
      <trkpt lat="48.5779" lon="-3.21194">
        <ele>207</ele>
        <time>2016-06-06T08:46:29.1Z</time>
      </trkpt>
      <trkpt lat="48.57788" lon="-3.21194">
        <ele>207</ele>
        <time>2016-06-06T08:46:32.1Z</time>
      </trkpt>
      <trkpt lat="48.57786" lon="-3.21192">
        <ele>207</ele>
        <time>2016-06-06T08:46:34.1Z</time>
      </trkpt>
      <trkpt lat="48.57784" lon="-3.21191">
        <ele>207</ele>
        <time>2016-06-06T08:46:36.1Z</time>
      </trkpt>
      <trkpt lat="48.57782" lon="-3.21189">
        <ele>207</ele>
        <time>2016-06-06T08:46:39.1Z</time>
      </trkpt>
      <trkpt lat="48.57779" lon="-3.21186">
        <ele>207</ele>
        <time>2016-06-06T08:46:42.1Z</time>
      </trkpt>
      <trkpt lat="48.57776" lon="-3.21183">
        <ele>206</ele>
        <time>2016-06-06T08:46:45.1Z</time>
      </trkpt>
      <trkpt lat="48.57774" lon="-3.21181">
        <ele>206</ele>
        <time>2016-06-06T08:46:47.1Z</time>
      </trkpt>
      <trkpt lat="48.57772" lon="-3.21179">
        <ele>206</ele>
        <time>2016-06-06T08:46:49.1Z</time>
      </trkpt>
      <trkpt lat="48.5777" lon="-3.21177">
        <ele>206</ele>
        <time>2016-06-06T08:46:51.1Z</time>
      </trkpt>
      <trkpt lat="48.57766" lon="-3.21174">
        <ele>206</ele>
        <time>2016-06-06T08:46:54.1Z</time>
      </trkpt>
      <trkpt lat="48.57764" lon="-3.21171">
        <ele>206</ele>
        <time>2016-06-06T08:46:56.1Z</time>
      </trkpt>
      <trkpt lat="48.57761" lon="-3.21168">
        <ele>206</ele>
        <time>2016-06-06T08:46:59.1Z</time>
      </trkpt>
      <trkpt lat="48.57758" lon="-3.21165">
        <ele>206</ele>
        <time>2016-06-06T08:47:02.1Z</time>
      </trkpt>
      <trkpt lat="48.57756" lon="-3.21159">
        <ele>206</ele>
        <time>2016-06-06T08:47:05.1Z</time>
      </trkpt>
      <trkpt lat="48.57754" lon="-3.21154">
        <ele>206</ele>
        <time>2016-06-06T08:47:08.1Z</time>
      </trkpt>
      <trkpt lat="48.57753" lon="-3.21151">
        <ele>206</ele>
        <time>2016-06-06T08:47:10.1Z</time>
      </trkpt>
      <trkpt lat="48.57753" lon="-3.21146">
        <ele>206</ele>
        <time>2016-06-06T08:47:13.1Z</time>
      </trkpt>
      <trkpt lat="48.57752" lon="-3.21141">
        <ele>206</ele>
        <time>2016-06-06T08:47:16.1Z</time>
      </trkpt>
      <trkpt lat="48.57751" lon="-3.21136">
        <ele>206</ele>
        <time>2016-06-06T08:47:18.1Z</time>
      </trkpt>
      <trkpt lat="48.57751" lon="-3.21132">
        <ele>206</ele>
        <time>2016-06-06T08:47:21.1Z</time>
      </trkpt>
      <trkpt lat="48.57751" lon="-3.21129">
        <ele>206</ele>
        <time>2016-06-06T08:47:23.1Z</time>
      </trkpt>
      <trkpt lat="48.57751" lon="-3.21124">
        <ele>206</ele>
        <time>2016-06-06T08:47:25.1Z</time>
      </trkpt>
      <trkpt lat="48.57752" lon="-3.21118">
        <ele>206</ele>
        <time>2016-06-06T08:47:28.1Z</time>
      </trkpt>
      <trkpt lat="48.57751" lon="-3.21114">
        <ele>206</ele>
        <time>2016-06-06T08:47:31.1Z</time>
      </trkpt>
      <trkpt lat="48.57752" lon="-3.21109">
        <ele>206</ele>
        <time>2016-06-06T08:47:34.1Z</time>
      </trkpt>
      <trkpt lat="48.57752" lon="-3.21104">
        <ele>206</ele>
        <time>2016-06-06T08:47:37.1Z</time>
      </trkpt>
      <trkpt lat="48.57753" lon="-3.21099">
        <ele>206</ele>
        <time>2016-06-06T08:47:40.1Z</time>
      </trkpt>
      <trkpt lat="48.57753" lon="-3.21096">
        <ele>206</ele>
        <time>2016-06-06T08:47:42.1Z</time>
      </trkpt>
      <trkpt lat="48.57754" lon="-3.21092">
        <ele>206</ele>
        <time>2016-06-06T08:47:45.1Z</time>
      </trkpt>
      <trkpt lat="48.57755" lon="-3.2109">
        <ele>206</ele>
        <time>2016-06-06T08:47:47.1Z</time>
      </trkpt>
      <trkpt lat="48.57755" lon="-3.21087">
        <ele>206</ele>
        <time>2016-06-06T08:47:50.1Z</time>
      </trkpt>
      <trkpt lat="48.57755" lon="-3.21085">
        <ele>206</ele>
        <time>2016-06-06T08:47:52.1Z</time>
      </trkpt>
      <trkpt lat="48.57756" lon="-3.21081">
        <ele>206</ele>
        <time>2016-06-06T08:47:55.1Z</time>
      </trkpt>
      <trkpt lat="48.57756" lon="-3.21077">
        <ele>206</ele>
        <time>2016-06-06T08:47:58.1Z</time>
      </trkpt>
      <trkpt lat="48.57756" lon="-3.21073">
        <ele>206</ele>
        <time>2016-06-06T08:48:00.1Z</time>
      </trkpt>
      <trkpt lat="48.57757" lon="-3.21069">
        <ele>206</ele>
        <time>2016-06-06T08:48:02.1Z</time>
      </trkpt>
      <trkpt lat="48.57757" lon="-3.21063">
        <ele>206</ele>
        <time>2016-06-06T08:48:05.1Z</time>
      </trkpt>
      <trkpt lat="48.57757" lon="-3.21058">
        <ele>206</ele>
        <time>2016-06-06T08:48:08.1Z</time>
      </trkpt>
      <trkpt lat="48.57757" lon="-3.21052">
        <ele>206</ele>
        <time>2016-06-06T08:48:11.1Z</time>
      </trkpt>
      <trkpt lat="48.57758" lon="-3.21046">
        <ele>206</ele>
        <time>2016-06-06T08:48:14.1Z</time>
      </trkpt>
      <trkpt lat="48.57758" lon="-3.2104">
        <ele>206</ele>
        <time>2016-06-06T08:48:17.1Z</time>
      </trkpt>
      <trkpt lat="48.57758" lon="-3.21036">
        <ele>207</ele>
        <time>2016-06-06T08:48:19.1Z</time>
      </trkpt>
      <trkpt lat="48.57758" lon="-3.21032">
        <ele>207</ele>
        <time>2016-06-06T08:48:21.1Z</time>
      </trkpt>
      <trkpt lat="48.57759" lon="-3.21027">
        <ele>207</ele>
        <time>2016-06-06T08:48:24.1Z</time>
      </trkpt>
      <trkpt lat="48.5776" lon="-3.21024">
        <ele>207</ele>
        <time>2016-06-06T08:48:26.1Z</time>
      </trkpt>
      <trkpt lat="48.57762" lon="-3.21018">
        <ele>207</ele>
        <time>2016-06-06T08:48:29.1Z</time>
      </trkpt>
      <trkpt lat="48.57763" lon="-3.21013">
        <ele>207</ele>
        <time>2016-06-06T08:48:32.1Z</time>
      </trkpt>
      <trkpt lat="48.57764" lon="-3.21009">
        <ele>207</ele>
        <time>2016-06-06T08:48:34.1Z</time>
      </trkpt>
      <trkpt lat="48.57765" lon="-3.21004">
        <ele>208</ele>
        <time>2016-06-06T08:48:37.1Z</time>
      </trkpt>
      <trkpt lat="48.57767" lon="-3.20999">
        <ele>208</ele>
        <time>2016-06-06T08:48:40.1Z</time>
      </trkpt>
      <trkpt lat="48.57768" lon="-3.20996">
        <ele>208</ele>
        <time>2016-06-06T08:48:42.1Z</time>
      </trkpt>
      <trkpt lat="48.5777" lon="-3.20991">
        <ele>208</ele>
        <time>2016-06-06T08:48:45.1Z</time>
      </trkpt>
      <trkpt lat="48.57771" lon="-3.20988">
        <ele>208</ele>
        <time>2016-06-06T08:48:47.1Z</time>
      </trkpt>
      <trkpt lat="48.57772" lon="-3.20984">
        <ele>208</ele>
        <time>2016-06-06T08:48:50.1Z</time>
      </trkpt>
      <trkpt lat="48.57773" lon="-3.20979">
        <ele>208</ele>
        <time>2016-06-06T08:48:53.1Z</time>
      </trkpt>
      <trkpt lat="48.57772" lon="-3.20975">
        <ele>208</ele>
        <time>2016-06-06T08:48:56.1Z</time>
      </trkpt>
      <trkpt lat="48.57772" lon="-3.20972">
        <ele>208</ele>
        <time>2016-06-06T08:48:58.1Z</time>
      </trkpt>
      <trkpt lat="48.57772" lon="-3.20969">
        <ele>208</ele>
        <time>2016-06-06T08:49:00.1Z</time>
      </trkpt>
      <trkpt lat="48.57771" lon="-3.20967">
        <ele>209</ele>
        <time>2016-06-06T08:49:02.1Z</time>
      </trkpt>
      <trkpt lat="48.57769" lon="-3.20963">
        <ele>209</ele>
        <time>2016-06-06T08:49:05.1Z</time>
      </trkpt>
      <trkpt lat="48.57768" lon="-3.20961">
        <ele>209</ele>
        <time>2016-06-06T08:49:07.1Z</time>
      </trkpt>
      <trkpt lat="48.57767" lon="-3.20958">
        <ele>209</ele>
        <time>2016-06-06T08:49:10.1Z</time>
      </trkpt>
      <trkpt lat="48.57766" lon="-3.20955">
        <ele>209</ele>
        <time>2016-06-06T08:49:12.1Z</time>
      </trkpt>
      <trkpt lat="48.57764" lon="-3.20955">
        <ele>209</ele>
        <time>2016-06-06T08:49:15.1Z</time>
      </trkpt>
      <trkpt lat="48.57764" lon="-3.20955">
        <ele>209</ele>
        <time>2016-06-06T08:49:18.1Z</time>
      </trkpt>
      <trkpt lat="48.57764" lon="-3.20954">
        <ele>209</ele>
        <time>2016-06-06T08:49:21.1Z</time>
      </trkpt>
      <trkpt lat="48.57763" lon="-3.20952">
        <ele>209</ele>
        <time>2016-06-06T08:49:24.1Z</time>
      </trkpt>
      <trkpt lat="48.57761" lon="-3.20946">
        <ele>209</ele>
        <time>2016-06-06T08:49:27.1Z</time>
      </trkpt>
      <trkpt lat="48.57761" lon="-3.20943">
        <ele>210</ele>
        <time>2016-06-06T08:49:29.1Z</time>
      </trkpt>
      <trkpt lat="48.5776" lon="-3.20938">
        <ele>210</ele>
        <time>2016-06-06T08:49:32.1Z</time>
      </trkpt>
      <trkpt lat="48.57759" lon="-3.20934">
        <ele>210</ele>
        <time>2016-06-06T08:49:35.1Z</time>
      </trkpt>
      <trkpt lat="48.57758" lon="-3.20931">
        <ele>210</ele>
        <time>2016-06-06T08:49:37.1Z</time>
      </trkpt>
      <trkpt lat="48.57757" lon="-3.20927">
        <ele>210</ele>
        <time>2016-06-06T08:49:40.1Z</time>
      </trkpt>
      <trkpt lat="48.57757" lon="-3.20923">
        <ele>210</ele>
        <time>2016-06-06T08:49:43.1Z</time>
      </trkpt>
      <trkpt lat="48.57756" lon="-3.20918">
        <ele>210</ele>
        <time>2016-06-06T08:49:46.1Z</time>
      </trkpt>
      <trkpt lat="48.57755" lon="-3.20915">
        <ele>210</ele>
        <time>2016-06-06T08:49:48.1Z</time>
      </trkpt>
      <trkpt lat="48.57753" lon="-3.20911">
        <ele>210</ele>
        <time>2016-06-06T08:49:51.1Z</time>
      </trkpt>
      <trkpt lat="48.57753" lon="-3.20909">
        <ele>210</ele>
        <time>2016-06-06T08:49:53.1Z</time>
      </trkpt>
      <trkpt lat="48.57752" lon="-3.20906">
        <ele>210</ele>
        <time>2016-06-06T08:49:55.1Z</time>
      </trkpt>
      <trkpt lat="48.57751" lon="-3.20903">
        <ele>210</ele>
        <time>2016-06-06T08:49:58.1Z</time>
      </trkpt>
      <trkpt lat="48.57751" lon="-3.20902">
        <ele>210</ele>
        <time>2016-06-06T08:50:00.1Z</time>
      </trkpt>
      <trkpt lat="48.57751" lon="-3.20901">
        <ele>210</ele>
        <time>2016-06-06T08:50:03.1Z</time>
      </trkpt>
      <trkpt lat="48.5775" lon="-3.20901">
        <ele>210</ele>
        <time>2016-06-06T08:50:05.1Z</time>
      </trkpt>
      <trkpt lat="48.5775" lon="-3.20899">
        <ele>210</ele>
        <time>2016-06-06T08:50:07.1Z</time>
      </trkpt>
      <trkpt lat="48.57749" lon="-3.20894">
        <ele>209</ele>
        <time>2016-06-06T08:50:10.1Z</time>
      </trkpt>
      <trkpt lat="48.57751" lon="-3.2089">
        <ele>209</ele>
        <time>2016-06-06T08:50:13.1Z</time>
      </trkpt>
      <trkpt lat="48.57752" lon="-3.20886">
        <ele>209</ele>
        <time>2016-06-06T08:50:16.1Z</time>
      </trkpt>
      <trkpt lat="48.57753" lon="-3.20884">
        <ele>210</ele>
        <time>2016-06-06T08:50:19.1Z</time>
      </trkpt>
      <trkpt lat="48.57753" lon="-3.20885">
        <ele>210</ele>
        <time>2016-06-06T08:50:22.1Z</time>
      </trkpt>
      <trkpt lat="48.57753" lon="-3.20885">
        <ele>210</ele>
        <time>2016-06-06T08:50:26.1Z</time>
      </trkpt>
      <trkpt lat="48.57753" lon="-3.20886">
        <ele>211</ele>
        <time>2016-06-06T08:50:30.1Z</time>
      </trkpt>
      <trkpt lat="48.57752" lon="-3.20887">
        <ele>211</ele>
        <time>2016-06-06T08:50:32.1Z</time>
      </trkpt>
      <trkpt lat="48.57751" lon="-3.2089">
        <ele>210</ele>
        <time>2016-06-06T08:50:35.1Z</time>
      </trkpt>
      <trkpt lat="48.57751" lon="-3.20889">
        <ele>210</ele>
        <time>2016-06-06T08:50:37.1Z</time>
      </trkpt>
      <trkpt lat="48.5775" lon="-3.20889">
        <ele>210</ele>
        <time>2016-06-06T08:50:41.1Z</time>
      </trkpt>
      <trkpt lat="48.57751" lon="-3.20889">
        <ele>210</ele>
        <time>2016-06-06T08:50:44.1Z</time>
      </trkpt>
      <trkpt lat="48.57751" lon="-3.20889">
        <ele>210</ele>
        <time>2016-06-06T08:50:46.1Z</time>
      </trkpt>
      <trkpt lat="48.57751" lon="-3.20889">
        <ele>210</ele>
        <time>2016-06-06T08:50:49.1Z</time>
      </trkpt>
      <trkpt lat="48.57751" lon="-3.20889">
        <ele>209</ele>
        <time>2016-06-06T08:50:51.1Z</time>
      </trkpt>
      <trkpt lat="48.57751" lon="-3.20888">
        <ele>210</ele>
        <time>2016-06-06T08:50:55.1Z</time>
      </trkpt>
      <trkpt lat="48.5775" lon="-3.2089">
        <ele>210</ele>
        <time>2016-06-06T08:50:57.1Z</time>
      </trkpt>
      <trkpt lat="48.57748" lon="-3.2089">
        <ele>209</ele>
        <time>2016-06-06T08:51:00.1Z</time>
      </trkpt>
      <trkpt lat="48.57747" lon="-3.20887">
        <ele>209</ele>
        <time>2016-06-06T08:51:02.1Z</time>
      </trkpt>
      <trkpt lat="48.57745" lon="-3.20882">
        <ele>210</ele>
        <time>2016-06-06T08:51:05.1Z</time>
      </trkpt>
      <trkpt lat="48.57743" lon="-3.20877">
        <ele>210</ele>
        <time>2016-06-06T08:51:08.1Z</time>
      </trkpt>
      <trkpt lat="48.57742" lon="-3.20874">
        <ele>210</ele>
        <time>2016-06-06T08:51:10.1Z</time>
      </trkpt>
      <trkpt lat="48.57742" lon="-3.20871">
        <ele>210</ele>
        <time>2016-06-06T08:51:12.1Z</time>
      </trkpt>
      <trkpt lat="48.5774" lon="-3.20866">
        <ele>210</ele>
        <time>2016-06-06T08:51:15.1Z</time>
      </trkpt>
      <trkpt lat="48.57739" lon="-3.20861">
        <ele>210</ele>
        <time>2016-06-06T08:51:18.1Z</time>
      </trkpt>
      <trkpt lat="48.57737" lon="-3.20854">
        <ele>210</ele>
        <time>2016-06-06T08:51:21.1Z</time>
      </trkpt>
      <trkpt lat="48.57736" lon="-3.20848">
        <ele>211</ele>
        <time>2016-06-06T08:51:24.1Z</time>
      </trkpt>
      <trkpt lat="48.57735" lon="-3.20845">
        <ele>211</ele>
        <time>2016-06-06T08:51:26.1Z</time>
      </trkpt>
      <trkpt lat="48.57734" lon="-3.20841">
        <ele>211</ele>
        <time>2016-06-06T08:51:28.1Z</time>
      </trkpt>
      <trkpt lat="48.57733" lon="-3.20836">
        <ele>211</ele>
        <time>2016-06-06T08:51:31.1Z</time>
      </trkpt>
      <trkpt lat="48.5773" lon="-3.2083">
        <ele>211</ele>
        <time>2016-06-06T08:51:34.1Z</time>
      </trkpt>
      <trkpt lat="48.57729" lon="-3.20827">
        <ele>211</ele>
        <time>2016-06-06T08:51:36.1Z</time>
      </trkpt>
      <trkpt lat="48.57727" lon="-3.20821">
        <ele>212</ele>
        <time>2016-06-06T08:51:39.1Z</time>
      </trkpt>
      <trkpt lat="48.57726" lon="-3.20817">
        <ele>212</ele>
        <time>2016-06-06T08:51:41.1Z</time>
      </trkpt>
      <trkpt lat="48.57724" lon="-3.20813">
        <ele>213</ele>
        <time>2016-06-06T08:51:44.1Z</time>
      </trkpt>
      <trkpt lat="48.57723" lon="-3.2081">
        <ele>212</ele>
        <time>2016-06-06T08:51:46.1Z</time>
      </trkpt>
      <trkpt lat="48.57721" lon="-3.20808">
        <ele>213</ele>
        <time>2016-06-06T08:51:48.1Z</time>
      </trkpt>
      <trkpt lat="48.57719" lon="-3.20803">
        <ele>213</ele>
        <time>2016-06-06T08:51:51.1Z</time>
      </trkpt>
      <trkpt lat="48.57716" lon="-3.20798">
        <ele>213</ele>
        <time>2016-06-06T08:51:54.1Z</time>
      </trkpt>
      <trkpt lat="48.57713" lon="-3.20794">
        <ele>213</ele>
        <time>2016-06-06T08:51:57.1Z</time>
      </trkpt>
      <trkpt lat="48.57712" lon="-3.20791">
        <ele>213</ele>
        <time>2016-06-06T08:51:59.1Z</time>
      </trkpt>
      <trkpt lat="48.57709" lon="-3.20787">
        <ele>212</ele>
        <time>2016-06-06T08:52:02.1Z</time>
      </trkpt>
      <trkpt lat="48.57707" lon="-3.20784">
        <ele>212</ele>
        <time>2016-06-06T08:52:05.1Z</time>
      </trkpt>
      <trkpt lat="48.57705" lon="-3.20781">
        <ele>213</ele>
        <time>2016-06-06T08:52:07.1Z</time>
      </trkpt>
      <trkpt lat="48.57703" lon="-3.20777">
        <ele>213</ele>
        <time>2016-06-06T08:52:10.1Z</time>
      </trkpt>
      <trkpt lat="48.57701" lon="-3.20774">
        <ele>213</ele>
        <time>2016-06-06T08:52:12.1Z</time>
      </trkpt>
      <trkpt lat="48.57698" lon="-3.20769">
        <ele>213</ele>
        <time>2016-06-06T08:52:15.1Z</time>
      </trkpt>
      <trkpt lat="48.57695" lon="-3.20764">
        <ele>213</ele>
        <time>2016-06-06T08:52:18.1Z</time>
      </trkpt>
      <trkpt lat="48.57693" lon="-3.20761">
        <ele>213</ele>
        <time>2016-06-06T08:52:21.1Z</time>
      </trkpt>
      <trkpt lat="48.57692" lon="-3.20758">
        <ele>213</ele>
        <time>2016-06-06T08:52:23.1Z</time>
      </trkpt>
      <trkpt lat="48.5769" lon="-3.20752">
        <ele>213</ele>
        <time>2016-06-06T08:52:26.1Z</time>
      </trkpt>
      <trkpt lat="48.57689" lon="-3.20748">
        <ele>213</ele>
        <time>2016-06-06T08:52:28.1Z</time>
      </trkpt>
      <trkpt lat="48.57687" lon="-3.20744">
        <ele>213</ele>
        <time>2016-06-06T08:52:30.1Z</time>
      </trkpt>
      <trkpt lat="48.57685" lon="-3.20739">
        <ele>213</ele>
        <time>2016-06-06T08:52:33.1Z</time>
      </trkpt>
      <trkpt lat="48.57683" lon="-3.20735">
        <ele>213</ele>
        <time>2016-06-06T08:52:35.1Z</time>
      </trkpt>
      <trkpt lat="48.57682" lon="-3.20729">
        <ele>212</ele>
        <time>2016-06-06T08:52:38.1Z</time>
      </trkpt>
      <trkpt lat="48.57679" lon="-3.20724">
        <ele>211</ele>
        <time>2016-06-06T08:52:41.1Z</time>
      </trkpt>
      <trkpt lat="48.57679" lon="-3.2072">
        <ele>211</ele>
        <time>2016-06-06T08:52:43.1Z</time>
      </trkpt>
      <trkpt lat="48.57676" lon="-3.20714">
        <ele>212</ele>
        <time>2016-06-06T08:52:46.1Z</time>
      </trkpt>
      <trkpt lat="48.57675" lon="-3.2071">
        <ele>212</ele>
        <time>2016-06-06T08:52:48.1Z</time>
      </trkpt>
      <trkpt lat="48.57673" lon="-3.20705">
        <ele>212</ele>
        <time>2016-06-06T08:52:51.1Z</time>
      </trkpt>
      <trkpt lat="48.57671" lon="-3.20701">
        <ele>212</ele>
        <time>2016-06-06T08:52:53.1Z</time>
      </trkpt>
      <trkpt lat="48.57669" lon="-3.20697">
        <ele>212</ele>
        <time>2016-06-06T08:52:55.1Z</time>
      </trkpt>
      <trkpt lat="48.57666" lon="-3.20691">
        <ele>212</ele>
        <time>2016-06-06T08:52:58.1Z</time>
      </trkpt>
      <trkpt lat="48.57666" lon="-3.20688">
        <ele>212</ele>
        <time>2016-06-06T08:53:00.1Z</time>
      </trkpt>
      <trkpt lat="48.57664" lon="-3.20685">
        <ele>212</ele>
        <time>2016-06-06T08:53:02.1Z</time>
      </trkpt>
      <trkpt lat="48.57662" lon="-3.20679">
        <ele>211</ele>
        <time>2016-06-06T08:53:05.1Z</time>
      </trkpt>
      <trkpt lat="48.57659" lon="-3.20674">
        <ele>211</ele>
        <time>2016-06-06T08:53:08.1Z</time>
      </trkpt>
      <trkpt lat="48.57658" lon="-3.2067">
        <ele>211</ele>
        <time>2016-06-06T08:53:10.1Z</time>
      </trkpt>
      <trkpt lat="48.57656" lon="-3.20664">
        <ele>211</ele>
        <time>2016-06-06T08:53:13.1Z</time>
      </trkpt>
      <trkpt lat="48.57654" lon="-3.2066">
        <ele>211</ele>
        <time>2016-06-06T08:53:15.1Z</time>
      </trkpt>
      <trkpt lat="48.57652" lon="-3.20654">
        <ele>210</ele>
        <time>2016-06-06T08:53:18.1Z</time>
      </trkpt>
      <trkpt lat="48.5765" lon="-3.2065">
        <ele>210</ele>
        <time>2016-06-06T08:53:20.1Z</time>
      </trkpt>
      <trkpt lat="48.57648" lon="-3.20644">
        <ele>210</ele>
        <time>2016-06-06T08:53:23.1Z</time>
      </trkpt>
      <trkpt lat="48.57647" lon="-3.2064">
        <ele>210</ele>
        <time>2016-06-06T08:53:25.1Z</time>
      </trkpt>
      <trkpt lat="48.57647" lon="-3.20636">
        <ele>210</ele>
        <time>2016-06-06T08:53:27.1Z</time>
      </trkpt>
      <trkpt lat="48.57646" lon="-3.20631">
        <ele>210</ele>
        <time>2016-06-06T08:53:29.1Z</time>
      </trkpt>
      <trkpt lat="48.57645" lon="-3.20626">
        <ele>211</ele>
        <time>2016-06-06T08:53:32.1Z</time>
      </trkpt>
      <trkpt lat="48.57645" lon="-3.20621">
        <ele>211</ele>
        <time>2016-06-06T08:53:35.1Z</time>
      </trkpt>
      <trkpt lat="48.57644" lon="-3.20615">
        <ele>211</ele>
        <time>2016-06-06T08:53:38.1Z</time>
      </trkpt>
      <trkpt lat="48.57645" lon="-3.20609">
        <ele>211</ele>
        <time>2016-06-06T08:53:41.1Z</time>
      </trkpt>
      <trkpt lat="48.57646" lon="-3.20606">
        <ele>211</ele>
        <time>2016-06-06T08:53:43.1Z</time>
      </trkpt>
      <trkpt lat="48.57647" lon="-3.20601">
        <ele>211</ele>
        <time>2016-06-06T08:53:46.1Z</time>
      </trkpt>
      <trkpt lat="48.57648" lon="-3.20596">
        <ele>211</ele>
        <time>2016-06-06T08:53:49.1Z</time>
      </trkpt>
      <trkpt lat="48.57648" lon="-3.20592">
        <ele>212</ele>
        <time>2016-06-06T08:53:51.1Z</time>
      </trkpt>
      <trkpt lat="48.57649" lon="-3.20589">
        <ele>212</ele>
        <time>2016-06-06T08:53:53.1Z</time>
      </trkpt>
      <trkpt lat="48.5765" lon="-3.20585">
        <ele>212</ele>
        <time>2016-06-06T08:53:56.1Z</time>
      </trkpt>
      <trkpt lat="48.5765" lon="-3.20581">
        <ele>212</ele>
        <time>2016-06-06T08:53:58.1Z</time>
      </trkpt>
      <trkpt lat="48.5765" lon="-3.20578">
        <ele>212</ele>
        <time>2016-06-06T08:54:00.1Z</time>
      </trkpt>
      <trkpt lat="48.5765" lon="-3.20573">
        <ele>212</ele>
        <time>2016-06-06T08:54:03.1Z</time>
      </trkpt>
      <trkpt lat="48.5765" lon="-3.20567">
        <ele>212</ele>
        <time>2016-06-06T08:54:06.1Z</time>
      </trkpt>
      <trkpt lat="48.57651" lon="-3.20564">
        <ele>212</ele>
        <time>2016-06-06T08:54:08.1Z</time>
      </trkpt>
      <trkpt lat="48.57652" lon="-3.2056">
        <ele>212</ele>
        <time>2016-06-06T08:54:11.1Z</time>
      </trkpt>
      <trkpt lat="48.57652" lon="-3.20556">
        <ele>212</ele>
        <time>2016-06-06T08:54:13.1Z</time>
      </trkpt>
      <trkpt lat="48.57653" lon="-3.20552">
        <ele>211</ele>
        <time>2016-06-06T08:54:15.1Z</time>
      </trkpt>
      <trkpt lat="48.57653" lon="-3.20546">
        <ele>212</ele>
        <time>2016-06-06T08:54:18.1Z</time>
      </trkpt>
      <trkpt lat="48.57654" lon="-3.2054">
        <ele>211</ele>
        <time>2016-06-06T08:54:21.1Z</time>
      </trkpt>
      <trkpt lat="48.57654" lon="-3.20535">
        <ele>212</ele>
        <time>2016-06-06T08:54:24.1Z</time>
      </trkpt>
      <trkpt lat="48.57654" lon="-3.20529">
        <ele>211</ele>
        <time>2016-06-06T08:54:27.1Z</time>
      </trkpt>
      <trkpt lat="48.57654" lon="-3.20523">
        <ele>211</ele>
        <time>2016-06-06T08:54:30.1Z</time>
      </trkpt>
      <trkpt lat="48.57655" lon="-3.20517">
        <ele>211</ele>
        <time>2016-06-06T08:54:33.1Z</time>
      </trkpt>
      <trkpt lat="48.57655" lon="-3.20511">
        <ele>211</ele>
        <time>2016-06-06T08:54:36.1Z</time>
      </trkpt>
      <trkpt lat="48.57655" lon="-3.20505">
        <ele>211</ele>
        <time>2016-06-06T08:54:39.1Z</time>
      </trkpt>
      <trkpt lat="48.57655" lon="-3.20501">
        <ele>211</ele>
        <time>2016-06-06T08:54:41.1Z</time>
      </trkpt>
      <trkpt lat="48.57655" lon="-3.20497">
        <ele>211</ele>
        <time>2016-06-06T08:54:43.1Z</time>
      </trkpt>
      <trkpt lat="48.57655" lon="-3.20492">
        <ele>211</ele>
        <time>2016-06-06T08:54:46.1Z</time>
      </trkpt>
      <trkpt lat="48.57653" lon="-3.20487">
        <ele>211</ele>
        <time>2016-06-06T08:54:49.1Z</time>
      </trkpt>
      <trkpt lat="48.57653" lon="-3.20483">
        <ele>211</ele>
        <time>2016-06-06T08:54:51.1Z</time>
      </trkpt>
      <trkpt lat="48.57653" lon="-3.20478">
        <ele>211</ele>
        <time>2016-06-06T08:54:54.1Z</time>
      </trkpt>
      <trkpt lat="48.57652" lon="-3.20472">
        <ele>211</ele>
        <time>2016-06-06T08:54:57.1Z</time>
      </trkpt>
      <trkpt lat="48.57652" lon="-3.20467">
        <ele>211</ele>
        <time>2016-06-06T08:55:00.1Z</time>
      </trkpt>
      <trkpt lat="48.57652" lon="-3.20463">
        <ele>211</ele>
        <time>2016-06-06T08:55:02.1Z</time>
      </trkpt>
      <trkpt lat="48.57652" lon="-3.2046">
        <ele>211</ele>
        <time>2016-06-06T08:55:04.1Z</time>
      </trkpt>
      <trkpt lat="48.5765" lon="-3.20458">
        <ele>211</ele>
        <time>2016-06-06T08:55:07.1Z</time>
      </trkpt>
      <trkpt lat="48.5765" lon="-3.20458">
        <ele>211</ele>
        <time>2016-06-06T08:55:09.1Z</time>
      </trkpt>
      <trkpt lat="48.5765" lon="-3.20456">
        <ele>211</ele>
        <time>2016-06-06T08:55:12.1Z</time>
      </trkpt>
      <trkpt lat="48.5765" lon="-3.20455">
        <ele>210</ele>
        <time>2016-06-06T08:55:14.1Z</time>
      </trkpt>
      <trkpt lat="48.5765" lon="-3.20455">
        <ele>211</ele>
        <time>2016-06-06T08:55:17.1Z</time>
      </trkpt>
      <trkpt lat="48.5765" lon="-3.20455">
        <ele>211</ele>
        <time>2016-06-06T08:55:20.1Z</time>
      </trkpt>
      <trkpt lat="48.5765" lon="-3.20455">
        <ele>210</ele>
        <time>2016-06-06T08:55:25.1Z</time>
      </trkpt>
      <trkpt lat="48.5765" lon="-3.20455">
        <ele>210</ele>
        <time>2016-06-06T08:55:28.1Z</time>
      </trkpt>
      <trkpt lat="48.57649" lon="-3.20455">
        <ele>210</ele>
        <time>2016-06-06T08:55:30.1Z</time>
      </trkpt>
      <trkpt lat="48.57649" lon="-3.20455">
        <ele>210</ele>
        <time>2016-06-06T08:55:33.1Z</time>
      </trkpt>
      <trkpt lat="48.57648" lon="-3.20452">
        <ele>210</ele>
        <time>2016-06-06T08:55:36.1Z</time>
      </trkpt>
      <trkpt lat="48.57647" lon="-3.20449">
        <ele>210</ele>
        <time>2016-06-06T08:55:38.1Z</time>
      </trkpt>
      <trkpt lat="48.57646" lon="-3.20445">
        <ele>210</ele>
        <time>2016-06-06T08:55:41.1Z</time>
      </trkpt>
      <trkpt lat="48.57644" lon="-3.20439">
        <ele>210</ele>
        <time>2016-06-06T08:55:44.1Z</time>
      </trkpt>
      <trkpt lat="48.57643" lon="-3.20436">
        <ele>210</ele>
        <time>2016-06-06T08:55:46.1Z</time>
      </trkpt>
      <trkpt lat="48.57642" lon="-3.2043">
        <ele>210</ele>
        <time>2016-06-06T08:55:49.1Z</time>
      </trkpt>
      <trkpt lat="48.57642" lon="-3.20427">
        <ele>210</ele>
        <time>2016-06-06T08:55:51.1Z</time>
      </trkpt>
      <trkpt lat="48.57641" lon="-3.20423">
        <ele>210</ele>
        <time>2016-06-06T08:55:53.1Z</time>
      </trkpt>
      <trkpt lat="48.57641" lon="-3.20418">
        <ele>209</ele>
        <time>2016-06-06T08:55:56.1Z</time>
      </trkpt>
      <trkpt lat="48.57642" lon="-3.20413">
        <ele>209</ele>
        <time>2016-06-06T08:55:59.1Z</time>
      </trkpt>
      <trkpt lat="48.57641" lon="-3.20408">
        <ele>209</ele>
        <time>2016-06-06T08:56:02.1Z</time>
      </trkpt>
      <trkpt lat="48.5764" lon="-3.20404">
        <ele>209</ele>
        <time>2016-06-06T08:56:05.1Z</time>
      </trkpt>
      <trkpt lat="48.5764" lon="-3.20401">
        <ele>209</ele>
        <time>2016-06-06T08:56:07.1Z</time>
      </trkpt>
      <trkpt lat="48.5764" lon="-3.20397">
        <ele>209</ele>
        <time>2016-06-06T08:56:09.1Z</time>
      </trkpt>
      <trkpt lat="48.57639" lon="-3.20393">
        <ele>209</ele>
        <time>2016-06-06T08:56:12.1Z</time>
      </trkpt>
      <trkpt lat="48.57639" lon="-3.20388">
        <ele>209</ele>
        <time>2016-06-06T08:56:15.1Z</time>
      </trkpt>
      <trkpt lat="48.57639" lon="-3.20385">
        <ele>209</ele>
        <time>2016-06-06T08:56:17.1Z</time>
      </trkpt>
      <trkpt lat="48.57639" lon="-3.2038">
        <ele>209</ele>
        <time>2016-06-06T08:56:20.1Z</time>
      </trkpt>
      <trkpt lat="48.57638" lon="-3.20376">
        <ele>209</ele>
        <time>2016-06-06T08:56:23.1Z</time>
      </trkpt>
      <trkpt lat="48.57638" lon="-3.20373">
        <ele>209</ele>
        <time>2016-06-06T08:56:25.1Z</time>
      </trkpt>
      <trkpt lat="48.57637" lon="-3.20368">
        <ele>208</ele>
        <time>2016-06-06T08:56:28.1Z</time>
      </trkpt>
      <trkpt lat="48.57637" lon="-3.20362">
        <ele>208</ele>
        <time>2016-06-06T08:56:31.1Z</time>
      </trkpt>
      <trkpt lat="48.57636" lon="-3.20359">
        <ele>208</ele>
        <time>2016-06-06T08:56:33.1Z</time>
      </trkpt>
      <trkpt lat="48.57636" lon="-3.20354">
        <ele>209</ele>
        <time>2016-06-06T08:56:36.1Z</time>
      </trkpt>
      <trkpt lat="48.57635" lon="-3.20351">
        <ele>208</ele>
        <time>2016-06-06T08:56:38.1Z</time>
      </trkpt>
      <trkpt lat="48.57635" lon="-3.20348">
        <ele>208</ele>
        <time>2016-06-06T08:56:40.1Z</time>
      </trkpt>
      <trkpt lat="48.57635" lon="-3.20344">
        <ele>208</ele>
        <time>2016-06-06T08:56:43.1Z</time>
      </trkpt>
      <trkpt lat="48.57634" lon="-3.20341">
        <ele>208</ele>
        <time>2016-06-06T08:56:45.1Z</time>
      </trkpt>
      <trkpt lat="48.57634" lon="-3.20336">
        <ele>208</ele>
        <time>2016-06-06T08:56:48.1Z</time>
      </trkpt>
      <trkpt lat="48.57634" lon="-3.20334">
        <ele>208</ele>
        <time>2016-06-06T08:56:50.1Z</time>
      </trkpt>
      <trkpt lat="48.57633" lon="-3.20329">
        <ele>208</ele>
        <time>2016-06-06T08:56:53.1Z</time>
      </trkpt>
      <trkpt lat="48.57633" lon="-3.20323">
        <ele>208</ele>
        <time>2016-06-06T08:56:56.1Z</time>
      </trkpt>
      <trkpt lat="48.57633" lon="-3.20319">
        <ele>208</ele>
        <time>2016-06-06T08:56:59.1Z</time>
      </trkpt>
      <trkpt lat="48.57632" lon="-3.20317">
        <ele>208</ele>
        <time>2016-06-06T08:57:01.1Z</time>
      </trkpt>
      <trkpt lat="48.57632" lon="-3.20313">
        <ele>208</ele>
        <time>2016-06-06T08:57:04.1Z</time>
      </trkpt>
      <trkpt lat="48.57632" lon="-3.2031">
        <ele>208</ele>
        <time>2016-06-06T08:57:06.1Z</time>
      </trkpt>
      <trkpt lat="48.57633" lon="-3.20307">
        <ele>208</ele>
        <time>2016-06-06T08:57:08.1Z</time>
      </trkpt>
      <trkpt lat="48.57633" lon="-3.20302">
        <ele>208</ele>
        <time>2016-06-06T08:57:11.1Z</time>
      </trkpt>
      <trkpt lat="48.57632" lon="-3.20298">
        <ele>207</ele>
        <time>2016-06-06T08:57:14.1Z</time>
      </trkpt>
      <trkpt lat="48.57632" lon="-3.20295">
        <ele>207</ele>
        <time>2016-06-06T08:57:17.1Z</time>
      </trkpt>
      <trkpt lat="48.57632" lon="-3.20291">
        <ele>207</ele>
        <time>2016-06-06T08:57:19.1Z</time>
      </trkpt>
      <trkpt lat="48.57632" lon="-3.20288">
        <ele>207</ele>
        <time>2016-06-06T08:57:21.1Z</time>
      </trkpt>
      <trkpt lat="48.57633" lon="-3.20283">
        <ele>207</ele>
        <time>2016-06-06T08:57:24.1Z</time>
      </trkpt>
      <trkpt lat="48.57634" lon="-3.20279">
        <ele>207</ele>
        <time>2016-06-06T08:57:26.1Z</time>
      </trkpt>
      <trkpt lat="48.57634" lon="-3.20273">
        <ele>207</ele>
        <time>2016-06-06T08:57:29.1Z</time>
      </trkpt>
      <trkpt lat="48.57634" lon="-3.20267">
        <ele>207</ele>
        <time>2016-06-06T08:57:32.1Z</time>
      </trkpt>
      <trkpt lat="48.57634" lon="-3.20263">
        <ele>207</ele>
        <time>2016-06-06T08:57:34.1Z</time>
      </trkpt>
      <trkpt lat="48.57634" lon="-3.20256">
        <ele>207</ele>
        <time>2016-06-06T08:57:37.1Z</time>
      </trkpt>
      <trkpt lat="48.57634" lon="-3.2025">
        <ele>207</ele>
        <time>2016-06-06T08:57:40.1Z</time>
      </trkpt>
      <trkpt lat="48.57633" lon="-3.20244">
        <ele>207</ele>
        <time>2016-06-06T08:57:43.1Z</time>
      </trkpt>
      <trkpt lat="48.57633" lon="-3.2024">
        <ele>207</ele>
        <time>2016-06-06T08:57:46.1Z</time>
      </trkpt>
      <trkpt lat="48.57631" lon="-3.20235">
        <ele>207</ele>
        <time>2016-06-06T08:57:49.1Z</time>
      </trkpt>
      <trkpt lat="48.57631" lon="-3.20231">
        <ele>207</ele>
        <time>2016-06-06T08:57:51.1Z</time>
      </trkpt>
      <trkpt lat="48.5763" lon="-3.20227">
        <ele>207</ele>
        <time>2016-06-06T08:57:54.1Z</time>
      </trkpt>
      <trkpt lat="48.57629" lon="-3.20221">
        <ele>207</ele>
        <time>2016-06-06T08:57:57.1Z</time>
      </trkpt>
      <trkpt lat="48.57629" lon="-3.20218">
        <ele>207</ele>
        <time>2016-06-06T08:57:59.1Z</time>
      </trkpt>
      <trkpt lat="48.57629" lon="-3.20213">
        <ele>207</ele>
        <time>2016-06-06T08:58:02.1Z</time>
      </trkpt>
      <trkpt lat="48.57628" lon="-3.20206">
        <ele>207</ele>
        <time>2016-06-06T08:58:05.1Z</time>
      </trkpt>
      <trkpt lat="48.57627" lon="-3.20201">
        <ele>207</ele>
        <time>2016-06-06T08:58:08.1Z</time>
      </trkpt>
      <trkpt lat="48.57626" lon="-3.20196">
        <ele>207</ele>
        <time>2016-06-06T08:58:11.1Z</time>
      </trkpt>
      <trkpt lat="48.57626" lon="-3.2019">
        <ele>207</ele>
        <time>2016-06-06T08:58:14.1Z</time>
      </trkpt>
      <trkpt lat="48.57625" lon="-3.20188">
        <ele>208</ele>
        <time>2016-06-06T08:58:16.1Z</time>
      </trkpt>
      <trkpt lat="48.57624" lon="-3.20183">
        <ele>208</ele>
        <time>2016-06-06T08:58:19.1Z</time>
      </trkpt>
      <trkpt lat="48.57624" lon="-3.2018">
        <ele>208</ele>
        <time>2016-06-06T08:58:21.1Z</time>
      </trkpt>
      <trkpt lat="48.57623" lon="-3.20175">
        <ele>208</ele>
        <time>2016-06-06T08:58:24.1Z</time>
      </trkpt>
      <trkpt lat="48.57621" lon="-3.2017">
        <ele>209</ele>
        <time>2016-06-06T08:58:27.1Z</time>
      </trkpt>
      <trkpt lat="48.5762" lon="-3.20168">
        <ele>209</ele>
        <time>2016-06-06T08:58:29.1Z</time>
      </trkpt>
      <trkpt lat="48.57619" lon="-3.20165">
        <ele>209</ele>
        <time>2016-06-06T08:58:31.1Z</time>
      </trkpt>
      <trkpt lat="48.57618" lon="-3.2016">
        <ele>209</ele>
        <time>2016-06-06T08:58:34.1Z</time>
      </trkpt>
      <trkpt lat="48.57616" lon="-3.20156">
        <ele>210</ele>
        <time>2016-06-06T08:58:37.1Z</time>
      </trkpt>
      <trkpt lat="48.57615" lon="-3.20152">
        <ele>209</ele>
        <time>2016-06-06T08:58:39.1Z</time>
      </trkpt>
      <trkpt lat="48.57614" lon="-3.20147">
        <ele>209</ele>
        <time>2016-06-06T08:58:42.1Z</time>
      </trkpt>
      <trkpt lat="48.57612" lon="-3.20142">
        <ele>209</ele>
        <time>2016-06-06T08:58:45.1Z</time>
      </trkpt>
      <trkpt lat="48.5761" lon="-3.20138">
        <ele>210</ele>
        <time>2016-06-06T08:58:48.1Z</time>
      </trkpt>
      <trkpt lat="48.57609" lon="-3.20135">
        <ele>210</ele>
        <time>2016-06-06T08:58:50.1Z</time>
      </trkpt>
      <trkpt lat="48.57608" lon="-3.2013">
        <ele>209</ele>
        <time>2016-06-06T08:58:53.1Z</time>
      </trkpt>
      <trkpt lat="48.57606" lon="-3.20125">
        <ele>210</ele>
        <time>2016-06-06T08:58:56.1Z</time>
      </trkpt>
      <trkpt lat="48.57604" lon="-3.20121">
        <ele>210</ele>
        <time>2016-06-06T08:58:59.1Z</time>
      </trkpt>
      <trkpt lat="48.57603" lon="-3.20118">
        <ele>210</ele>
        <time>2016-06-06T08:59:01.1Z</time>
      </trkpt>
      <trkpt lat="48.57602" lon="-3.20116">
        <ele>210</ele>
        <time>2016-06-06T08:59:03.1Z</time>
      </trkpt>
      <trkpt lat="48.576" lon="-3.20112">
        <ele>210</ele>
        <time>2016-06-06T08:59:06.1Z</time>
      </trkpt>
      <trkpt lat="48.57598" lon="-3.2011">
        <ele>209</ele>
        <time>2016-06-06T08:59:08.1Z</time>
      </trkpt>
      <trkpt lat="48.57596" lon="-3.20108">
        <ele>209</ele>
        <time>2016-06-06T08:59:10.1Z</time>
      </trkpt>
      <trkpt lat="48.57595" lon="-3.20105">
        <ele>210</ele>
        <time>2016-06-06T08:59:12.1Z</time>
      </trkpt>
      <trkpt lat="48.57592" lon="-3.20101">
        <ele>210</ele>
        <time>2016-06-06T08:59:15.1Z</time>
      </trkpt>
      <trkpt lat="48.5759" lon="-3.20099">
        <ele>210</ele>
        <time>2016-06-06T08:59:17.1Z</time>
      </trkpt>
      <trkpt lat="48.57587" lon="-3.20095">
        <ele>211</ele>
        <time>2016-06-06T08:59:20.1Z</time>
      </trkpt>
      <trkpt lat="48.57584" lon="-3.20092">
        <ele>210</ele>
        <time>2016-06-06T08:59:23.1Z</time>
      </trkpt>
      <trkpt lat="48.57582" lon="-3.20089">
        <ele>210</ele>
        <time>2016-06-06T08:59:25.1Z</time>
      </trkpt>
      <trkpt lat="48.5758" lon="-3.20086">
        <ele>210</ele>
        <time>2016-06-06T08:59:28.1Z</time>
      </trkpt>
      <trkpt lat="48.57578" lon="-3.20083">
        <ele>210</ele>
        <time>2016-06-06T08:59:31.1Z</time>
      </trkpt>
      <trkpt lat="48.57575" lon="-3.20081">
        <ele>210</ele>
        <time>2016-06-06T08:59:34.1Z</time>
      </trkpt>
      <trkpt lat="48.57572" lon="-3.20079">
        <ele>209</ele>
        <time>2016-06-06T08:59:37.1Z</time>
      </trkpt>
      <trkpt lat="48.57571" lon="-3.20077">
        <ele>209</ele>
        <time>2016-06-06T08:59:39.1Z</time>
      </trkpt>
      <trkpt lat="48.57568" lon="-3.20075">
        <ele>210</ele>
        <time>2016-06-06T08:59:42.1Z</time>
      </trkpt>
      <trkpt lat="48.57567" lon="-3.20074">
        <ele>209</ele>
        <time>2016-06-06T08:59:44.1Z</time>
      </trkpt>
      <trkpt lat="48.57565" lon="-3.20072">
        <ele>209</ele>
        <time>2016-06-06T08:59:47.1Z</time>
      </trkpt>
      <trkpt lat="48.57563" lon="-3.20071">
        <ele>209</ele>
        <time>2016-06-06T08:59:49.1Z</time>
      </trkpt>
      <trkpt lat="48.57561" lon="-3.20069">
        <ele>209</ele>
        <time>2016-06-06T08:59:52.1Z</time>
      </trkpt>
      <trkpt lat="48.5756" lon="-3.20068">
        <ele>209</ele>
        <time>2016-06-06T08:59:54.1Z</time>
      </trkpt>
      <trkpt lat="48.57557" lon="-3.20066">
        <ele>209</ele>
        <time>2016-06-06T08:59:57.1Z</time>
      </trkpt>
      <trkpt lat="48.57554" lon="-3.20063">
        <ele>209</ele>
        <time>2016-06-06T08:59:59.1Z</time>
      </trkpt>
      <trkpt lat="48.57551" lon="-3.20061">
        <ele>209</ele>
        <time>2016-06-06T09:00:02.1Z</time>
      </trkpt>
      <trkpt lat="48.57549" lon="-3.20059">
        <ele>209</ele>
        <time>2016-06-06T09:00:04.1Z</time>
      </trkpt>
      <trkpt lat="48.57545" lon="-3.20055">
        <ele>209</ele>
        <time>2016-06-06T09:00:07.1Z</time>
      </trkpt>
      <trkpt lat="48.57543" lon="-3.20053">
        <ele>208</ele>
        <time>2016-06-06T09:00:09.1Z</time>
      </trkpt>
      <trkpt lat="48.57541" lon="-3.2005">
        <ele>208</ele>
        <time>2016-06-06T09:00:12.1Z</time>
      </trkpt>
      <trkpt lat="48.57538" lon="-3.20046">
        <ele>208</ele>
        <time>2016-06-06T09:00:15.1Z</time>
      </trkpt>
      <trkpt lat="48.57536" lon="-3.20042">
        <ele>208</ele>
        <time>2016-06-06T09:00:18.1Z</time>
      </trkpt>
      <trkpt lat="48.57534" lon="-3.2004">
        <ele>208</ele>
        <time>2016-06-06T09:00:20.1Z</time>
      </trkpt>
      <trkpt lat="48.57533" lon="-3.20036">
        <ele>207</ele>
        <time>2016-06-06T09:00:22.1Z</time>
      </trkpt>
      <trkpt lat="48.57532" lon="-3.20033">
        <ele>207</ele>
        <time>2016-06-06T09:00:24.1Z</time>
      </trkpt>
      <trkpt lat="48.57531" lon="-3.20028">
        <ele>206</ele>
        <time>2016-06-06T09:00:27.1Z</time>
      </trkpt>
      <trkpt lat="48.57529" lon="-3.20025">
        <ele>206</ele>
        <time>2016-06-06T09:00:29.1Z</time>
      </trkpt>
      <trkpt lat="48.57527" lon="-3.20022">
        <ele>206</ele>
        <time>2016-06-06T09:00:32.1Z</time>
      </trkpt>
      <trkpt lat="48.57524" lon="-3.20017">
        <ele>206</ele>
        <time>2016-06-06T09:00:35.1Z</time>
      </trkpt>
      <trkpt lat="48.57523" lon="-3.20013">
        <ele>206</ele>
        <time>2016-06-06T09:00:37.1Z</time>
      </trkpt>
      <trkpt lat="48.57522" lon="-3.20011">
        <ele>206</ele>
        <time>2016-06-06T09:00:39.1Z</time>
      </trkpt>
      <trkpt lat="48.57521" lon="-3.20008">
        <ele>206</ele>
        <time>2016-06-06T09:00:41.1Z</time>
      </trkpt>
      <trkpt lat="48.5752" lon="-3.20003">
        <ele>206</ele>
        <time>2016-06-06T09:00:44.1Z</time>
      </trkpt>
      <trkpt lat="48.57517" lon="-3.19998">
        <ele>205</ele>
        <time>2016-06-06T09:00:47.1Z</time>
      </trkpt>
      <trkpt lat="48.57516" lon="-3.19992">
        <ele>205</ele>
        <time>2016-06-06T09:00:50.1Z</time>
      </trkpt>
      <trkpt lat="48.57514" lon="-3.19986">
        <ele>205</ele>
        <time>2016-06-06T09:00:53.1Z</time>
      </trkpt>
      <trkpt lat="48.57512" lon="-3.19981">
        <ele>205</ele>
        <time>2016-06-06T09:00:56.1Z</time>
      </trkpt>
      <trkpt lat="48.57509" lon="-3.19976">
        <ele>205</ele>
        <time>2016-06-06T09:00:59.1Z</time>
      </trkpt>
      <trkpt lat="48.57507" lon="-3.19974">
        <ele>205</ele>
        <time>2016-06-06T09:01:01.1Z</time>
      </trkpt>
      <trkpt lat="48.57505" lon="-3.19972">
        <ele>205</ele>
        <time>2016-06-06T09:01:03.1Z</time>
      </trkpt>
      <trkpt lat="48.57502" lon="-3.19969">
        <ele>205</ele>
        <time>2016-06-06T09:01:06.1Z</time>
      </trkpt>
      <trkpt lat="48.57499" lon="-3.19966">
        <ele>205</ele>
        <time>2016-06-06T09:01:09.1Z</time>
      </trkpt>
      <trkpt lat="48.57496" lon="-3.19964">
        <ele>205</ele>
        <time>2016-06-06T09:01:11.1Z</time>
      </trkpt>
      <trkpt lat="48.57494" lon="-3.19962">
        <ele>205</ele>
        <time>2016-06-06T09:01:13.1Z</time>
      </trkpt>
      <trkpt lat="48.5749" lon="-3.19958">
        <ele>205</ele>
        <time>2016-06-06T09:01:16.1Z</time>
      </trkpt>
      <trkpt lat="48.57488" lon="-3.19955">
        <ele>204</ele>
        <time>2016-06-06T09:01:18.1Z</time>
      </trkpt>
      <trkpt lat="48.57486" lon="-3.19951">
        <ele>204</ele>
        <time>2016-06-06T09:01:21.1Z</time>
      </trkpt>
      <trkpt lat="48.57485" lon="-3.19949">
        <ele>204</ele>
        <time>2016-06-06T09:01:23.1Z</time>
      </trkpt>
      <trkpt lat="48.57484" lon="-3.19946">
        <ele>204</ele>
        <time>2016-06-06T09:01:26.1Z</time>
      </trkpt>
      <trkpt lat="48.57481" lon="-3.19942">
        <ele>204</ele>
        <time>2016-06-06T09:01:29.1Z</time>
      </trkpt>
      <trkpt lat="48.57479" lon="-3.19938">
        <ele>204</ele>
        <time>2016-06-06T09:01:32.1Z</time>
      </trkpt>
      <trkpt lat="48.57477" lon="-3.19933">
        <ele>204</ele>
        <time>2016-06-06T09:01:35.1Z</time>
      </trkpt>
      <trkpt lat="48.57475" lon="-3.19929">
        <ele>203</ele>
        <time>2016-06-06T09:01:37.1Z</time>
      </trkpt>
      <trkpt lat="48.57473" lon="-3.19926">
        <ele>203</ele>
        <time>2016-06-06T09:01:39.1Z</time>
      </trkpt>
      <trkpt lat="48.57471" lon="-3.19922">
        <ele>203</ele>
        <time>2016-06-06T09:01:42.1Z</time>
      </trkpt>
      <trkpt lat="48.57469" lon="-3.19917">
        <ele>203</ele>
        <time>2016-06-06T09:01:45.1Z</time>
      </trkpt>
      <trkpt lat="48.57468" lon="-3.19915">
        <ele>203</ele>
        <time>2016-06-06T09:01:47.1Z</time>
      </trkpt>
      <trkpt lat="48.57466" lon="-3.19912">
        <ele>203</ele>
        <time>2016-06-06T09:01:50.1Z</time>
      </trkpt>
      <trkpt lat="48.57465" lon="-3.1991">
        <ele>203</ele>
        <time>2016-06-06T09:01:52.1Z</time>
      </trkpt>
      <trkpt lat="48.57463" lon="-3.19906">
        <ele>203</ele>
        <time>2016-06-06T09:01:55.1Z</time>
      </trkpt>
      <trkpt lat="48.57461" lon="-3.19902">
        <ele>203</ele>
        <time>2016-06-06T09:01:58.1Z</time>
      </trkpt>
      <trkpt lat="48.5746" lon="-3.19898">
        <ele>203</ele>
        <time>2016-06-06T09:02:01.1Z</time>
      </trkpt>
      <trkpt lat="48.57459" lon="-3.19895">
        <ele>203</ele>
        <time>2016-06-06T09:02:04.1Z</time>
      </trkpt>
      <trkpt lat="48.57457" lon="-3.19893">
        <ele>203</ele>
        <time>2016-06-06T09:02:06.1Z</time>
      </trkpt>
      <trkpt lat="48.57455" lon="-3.19888">
        <ele>203</ele>
        <time>2016-06-06T09:02:09.1Z</time>
      </trkpt>
      <trkpt lat="48.57454" lon="-3.19886">
        <ele>202</ele>
        <time>2016-06-06T09:02:11.1Z</time>
      </trkpt>
      <trkpt lat="48.5745" lon="-3.1988">
        <ele>202</ele>
        <time>2016-06-06T09:02:14.1Z</time>
      </trkpt>
      <trkpt lat="48.57448" lon="-3.19875">
        <ele>202</ele>
        <time>2016-06-06T09:02:17.1Z</time>
      </trkpt>
      <trkpt lat="48.57446" lon="-3.1987">
        <ele>202</ele>
        <time>2016-06-06T09:02:20.1Z</time>
      </trkpt>
      <trkpt lat="48.57445" lon="-3.19867">
        <ele>202</ele>
        <time>2016-06-06T09:02:22.1Z</time>
      </trkpt>
      <trkpt lat="48.57442" lon="-3.19862">
        <ele>202</ele>
        <time>2016-06-06T09:02:25.1Z</time>
      </trkpt>
      <trkpt lat="48.57441" lon="-3.19859">
        <ele>202</ele>
        <time>2016-06-06T09:02:27.1Z</time>
      </trkpt>
      <trkpt lat="48.57439" lon="-3.19853">
        <ele>202</ele>
        <time>2016-06-06T09:02:30.1Z</time>
      </trkpt>
      <trkpt lat="48.57437" lon="-3.19849">
        <ele>202</ele>
        <time>2016-06-06T09:02:33.1Z</time>
      </trkpt>
      <trkpt lat="48.57436" lon="-3.19846">
        <ele>202</ele>
        <time>2016-06-06T09:02:35.1Z</time>
      </trkpt>
      <trkpt lat="48.57435" lon="-3.19843">
        <ele>202</ele>
        <time>2016-06-06T09:02:38.1Z</time>
      </trkpt>
      <trkpt lat="48.57434" lon="-3.1984">
        <ele>202</ele>
        <time>2016-06-06T09:02:40.1Z</time>
      </trkpt>
      <trkpt lat="48.57432" lon="-3.19834">
        <ele>202</ele>
        <time>2016-06-06T09:02:43.1Z</time>
      </trkpt>
      <trkpt lat="48.57431" lon="-3.19831">
        <ele>202</ele>
        <time>2016-06-06T09:02:45.1Z</time>
      </trkpt>
      <trkpt lat="48.57431" lon="-3.19827">
        <ele>202</ele>
        <time>2016-06-06T09:02:48.1Z</time>
      </trkpt>
      <trkpt lat="48.57429" lon="-3.19823">
        <ele>202</ele>
        <time>2016-06-06T09:02:51.1Z</time>
      </trkpt>
      <trkpt lat="48.57428" lon="-3.19818">
        <ele>202</ele>
        <time>2016-06-06T09:02:54.1Z</time>
      </trkpt>
      <trkpt lat="48.57427" lon="-3.19815">
        <ele>202</ele>
        <time>2016-06-06T09:02:56.1Z</time>
      </trkpt>
      <trkpt lat="48.57426" lon="-3.19811">
        <ele>202</ele>
        <time>2016-06-06T09:02:59.1Z</time>
      </trkpt>
      <trkpt lat="48.57425" lon="-3.19804">
        <ele>202</ele>
        <time>2016-06-06T09:03:02.1Z</time>
      </trkpt>
      <trkpt lat="48.57424" lon="-3.198">
        <ele>202</ele>
        <time>2016-06-06T09:03:04.1Z</time>
      </trkpt>
      <trkpt lat="48.57423" lon="-3.19795">
        <ele>202</ele>
        <time>2016-06-06T09:03:07.1Z</time>
      </trkpt>
      <trkpt lat="48.57421" lon="-3.19792">
        <ele>202</ele>
        <time>2016-06-06T09:03:10.1Z</time>
      </trkpt>
      <trkpt lat="48.5742" lon="-3.19787">
        <ele>201</ele>
        <time>2016-06-06T09:03:13.1Z</time>
      </trkpt>
      <trkpt lat="48.5742" lon="-3.19783">
        <ele>201</ele>
        <time>2016-06-06T09:03:15.1Z</time>
      </trkpt>
      <trkpt lat="48.57418" lon="-3.19778">
        <ele>201</ele>
        <time>2016-06-06T09:03:18.1Z</time>
      </trkpt>
      <trkpt lat="48.57418" lon="-3.19772">
        <ele>201</ele>
        <time>2016-06-06T09:03:21.1Z</time>
      </trkpt>
      <trkpt lat="48.57417" lon="-3.19767">
        <ele>201</ele>
        <time>2016-06-06T09:03:23.1Z</time>
      </trkpt>
      <trkpt lat="48.57416" lon="-3.19763">
        <ele>200</ele>
        <time>2016-06-06T09:03:25.1Z</time>
      </trkpt>
      <trkpt lat="48.57415" lon="-3.19758">
        <ele>200</ele>
        <time>2016-06-06T09:03:28.1Z</time>
      </trkpt>
      <trkpt lat="48.57415" lon="-3.19754">
        <ele>201</ele>
        <time>2016-06-06T09:03:30.1Z</time>
      </trkpt>
      <trkpt lat="48.57413" lon="-3.19748">
        <ele>201</ele>
        <time>2016-06-06T09:03:33.1Z</time>
      </trkpt>
      <trkpt lat="48.57412" lon="-3.19743">
        <ele>200</ele>
        <time>2016-06-06T09:03:36.1Z</time>
      </trkpt>
      <trkpt lat="48.57411" lon="-3.19738">
        <ele>200</ele>
        <time>2016-06-06T09:03:39.1Z</time>
      </trkpt>
      <trkpt lat="48.5741" lon="-3.19734">
        <ele>200</ele>
        <time>2016-06-06T09:03:41.1Z</time>
      </trkpt>
      <trkpt lat="48.57409" lon="-3.19729">
        <ele>200</ele>
        <time>2016-06-06T09:03:44.1Z</time>
      </trkpt>
      <trkpt lat="48.57408" lon="-3.19723">
        <ele>200</ele>
        <time>2016-06-06T09:03:47.1Z</time>
      </trkpt>
      <trkpt lat="48.57407" lon="-3.19718">
        <ele>200</ele>
        <time>2016-06-06T09:03:50.1Z</time>
      </trkpt>
      <trkpt lat="48.57407" lon="-3.19714">
        <ele>200</ele>
        <time>2016-06-06T09:03:52.1Z</time>
      </trkpt>
      <trkpt lat="48.57405" lon="-3.19709">
        <ele>201</ele>
        <time>2016-06-06T09:03:55.1Z</time>
      </trkpt>
      <trkpt lat="48.57405" lon="-3.19705">
        <ele>200</ele>
        <time>2016-06-06T09:03:57.1Z</time>
      </trkpt>
      <trkpt lat="48.57404" lon="-3.19699">
        <ele>200</ele>
        <time>2016-06-06T09:04:00.1Z</time>
      </trkpt>
      <trkpt lat="48.57403" lon="-3.19693">
        <ele>200</ele>
        <time>2016-06-06T09:04:03.1Z</time>
      </trkpt>
      <trkpt lat="48.57402" lon="-3.1969">
        <ele>200</ele>
        <time>2016-06-06T09:04:05.1Z</time>
      </trkpt>
      <trkpt lat="48.57401" lon="-3.19685">
        <ele>200</ele>
        <time>2016-06-06T09:04:08.1Z</time>
      </trkpt>
      <trkpt lat="48.574" lon="-3.1968">
        <ele>200</ele>
        <time>2016-06-06T09:04:11.1Z</time>
      </trkpt>
      <trkpt lat="48.574" lon="-3.19676">
        <ele>200</ele>
        <time>2016-06-06T09:04:13.1Z</time>
      </trkpt>
      <trkpt lat="48.57399" lon="-3.19672">
        <ele>200</ele>
        <time>2016-06-06T09:04:15.1Z</time>
      </trkpt>
      <trkpt lat="48.57399" lon="-3.19666">
        <ele>200</ele>
        <time>2016-06-06T09:04:18.1Z</time>
      </trkpt>
      <trkpt lat="48.57399" lon="-3.19662">
        <ele>200</ele>
        <time>2016-06-06T09:04:20.1Z</time>
      </trkpt>
      <trkpt lat="48.57399" lon="-3.19657">
        <ele>200</ele>
        <time>2016-06-06T09:04:23.1Z</time>
      </trkpt>
      <trkpt lat="48.57398" lon="-3.19651">
        <ele>200</ele>
        <time>2016-06-06T09:04:26.1Z</time>
      </trkpt>
      <trkpt lat="48.57397" lon="-3.19648">
        <ele>199</ele>
        <time>2016-06-06T09:04:28.1Z</time>
      </trkpt>
      <trkpt lat="48.57396" lon="-3.19642">
        <ele>199</ele>
        <time>2016-06-06T09:04:31.1Z</time>
      </trkpt>
      <trkpt lat="48.57396" lon="-3.19639">
        <ele>199</ele>
        <time>2016-06-06T09:04:33.1Z</time>
      </trkpt>
      <trkpt lat="48.57394" lon="-3.19634">
        <ele>199</ele>
        <time>2016-06-06T09:04:36.1Z</time>
      </trkpt>
      <trkpt lat="48.57394" lon="-3.19628">
        <ele>199</ele>
        <time>2016-06-06T09:04:39.1Z</time>
      </trkpt>
      <trkpt lat="48.57393" lon="-3.19624">
        <ele>199</ele>
        <time>2016-06-06T09:04:41.1Z</time>
      </trkpt>
      <trkpt lat="48.57392" lon="-3.19618">
        <ele>199</ele>
        <time>2016-06-06T09:04:44.1Z</time>
      </trkpt>
      <trkpt lat="48.57392" lon="-3.19614">
        <ele>199</ele>
        <time>2016-06-06T09:04:46.1Z</time>
      </trkpt>
      <trkpt lat="48.57391" lon="-3.19608">
        <ele>199</ele>
        <time>2016-06-06T09:04:49.1Z</time>
      </trkpt>
      <trkpt lat="48.5739" lon="-3.19603">
        <ele>199</ele>
        <time>2016-06-06T09:04:52.1Z</time>
      </trkpt>
      <trkpt lat="48.57389" lon="-3.196">
        <ele>199</ele>
        <time>2016-06-06T09:04:54.1Z</time>
      </trkpt>
      <trkpt lat="48.57388" lon="-3.19593">
        <ele>199</ele>
        <time>2016-06-06T09:04:57.1Z</time>
      </trkpt>
      <trkpt lat="48.57387" lon="-3.19588">
        <ele>198</ele>
        <time>2016-06-06T09:05:00.1Z</time>
      </trkpt>
      <trkpt lat="48.57387" lon="-3.19582">
        <ele>198</ele>
        <time>2016-06-06T09:05:03.1Z</time>
      </trkpt>
      <trkpt lat="48.57386" lon="-3.19579">
        <ele>198</ele>
        <time>2016-06-06T09:05:05.1Z</time>
      </trkpt>
      <trkpt lat="48.57386" lon="-3.19574">
        <ele>199</ele>
        <time>2016-06-06T09:05:08.1Z</time>
      </trkpt>
      <trkpt lat="48.57385" lon="-3.1957">
        <ele>198</ele>
        <time>2016-06-06T09:05:10.1Z</time>
      </trkpt>
      <trkpt lat="48.57384" lon="-3.19566">
        <ele>198</ele>
        <time>2016-06-06T09:05:12.1Z</time>
      </trkpt>
      <trkpt lat="48.57383" lon="-3.19561">
        <ele>198</ele>
        <time>2016-06-06T09:05:15.1Z</time>
      </trkpt>
      <trkpt lat="48.57382" lon="-3.19556">
        <ele>198</ele>
        <time>2016-06-06T09:05:17.1Z</time>
      </trkpt>
      <trkpt lat="48.57381" lon="-3.19551">
        <ele>198</ele>
        <time>2016-06-06T09:05:20.1Z</time>
      </trkpt>
      <trkpt lat="48.5738" lon="-3.19548">
        <ele>198</ele>
        <time>2016-06-06T09:05:22.1Z</time>
      </trkpt>
      <trkpt lat="48.57379" lon="-3.19543">
        <ele>198</ele>
        <time>2016-06-06T09:05:25.1Z</time>
      </trkpt>
      <trkpt lat="48.57378" lon="-3.19541">
        <ele>197</ele>
        <time>2016-06-06T09:05:27.1Z</time>
      </trkpt>
      <trkpt lat="48.57377" lon="-3.19535">
        <ele>197</ele>
        <time>2016-06-06T09:05:30.1Z</time>
      </trkpt>
      <trkpt lat="48.57376" lon="-3.1953">
        <ele>197</ele>
        <time>2016-06-06T09:05:33.1Z</time>
      </trkpt>
      <trkpt lat="48.57376" lon="-3.19527">
        <ele>197</ele>
        <time>2016-06-06T09:05:35.1Z</time>
      </trkpt>
      <trkpt lat="48.57374" lon="-3.19522">
        <ele>197</ele>
        <time>2016-06-06T09:05:38.1Z</time>
      </trkpt>
      <trkpt lat="48.57373" lon="-3.19518">
        <ele>197</ele>
        <time>2016-06-06T09:05:40.1Z</time>
      </trkpt>
      <trkpt lat="48.57373" lon="-3.19514">
        <ele>197</ele>
        <time>2016-06-06T09:05:42.1Z</time>
      </trkpt>
      <trkpt lat="48.57372" lon="-3.19509">
        <ele>197</ele>
        <time>2016-06-06T09:05:45.1Z</time>
      </trkpt>
      <trkpt lat="48.5737" lon="-3.19504">
        <ele>197</ele>
        <time>2016-06-06T09:05:48.1Z</time>
      </trkpt>
      <trkpt lat="48.5737" lon="-3.195">
        <ele>197</ele>
        <time>2016-06-06T09:05:50.1Z</time>
      </trkpt>
      <trkpt lat="48.57369" lon="-3.19495">
        <ele>197</ele>
        <time>2016-06-06T09:05:53.1Z</time>
      </trkpt>
      <trkpt lat="48.57368" lon="-3.19491">
        <ele>197</ele>
        <time>2016-06-06T09:05:55.1Z</time>
      </trkpt>
      <trkpt lat="48.57367" lon="-3.19488">
        <ele>196</ele>
        <time>2016-06-06T09:05:57.1Z</time>
      </trkpt>
      <trkpt lat="48.57366" lon="-3.19483">
        <ele>196</ele>
        <time>2016-06-06T09:06:00.1Z</time>
      </trkpt>
      <trkpt lat="48.57365" lon="-3.1948">
        <ele>196</ele>
        <time>2016-06-06T09:06:03.1Z</time>
      </trkpt>
      <trkpt lat="48.57364" lon="-3.19479">
        <ele>196</ele>
        <time>2016-06-06T09:06:07.1Z</time>
      </trkpt>
      <trkpt lat="48.57364" lon="-3.19478">
        <ele>196</ele>
        <time>2016-06-06T09:06:10.1Z</time>
      </trkpt>
      <trkpt lat="48.57365" lon="-3.19477">
        <ele>196</ele>
        <time>2016-06-06T09:06:13.1Z</time>
      </trkpt>
      <trkpt lat="48.57365" lon="-3.19477">
        <ele>196</ele>
        <time>2016-06-06T09:06:15.1Z</time>
      </trkpt>
      <trkpt lat="48.57364" lon="-3.19476">
        <ele>196</ele>
        <time>2016-06-06T09:06:18.1Z</time>
      </trkpt>
      <trkpt lat="48.57365" lon="-3.19475">
        <ele>196</ele>
        <time>2016-06-06T09:06:20.1Z</time>
      </trkpt>
      <trkpt lat="48.57365" lon="-3.19475">
        <ele>196</ele>
        <time>2016-06-06T09:06:23.1Z</time>
      </trkpt>
      <trkpt lat="48.57365" lon="-3.19474">
        <ele>196</ele>
        <time>2016-06-06T09:06:26.1Z</time>
      </trkpt>
      <trkpt lat="48.57365" lon="-3.19474">
        <ele>196</ele>
        <time>2016-06-06T09:06:30.1Z</time>
      </trkpt>
      <trkpt lat="48.57365" lon="-3.19474">
        <ele>196</ele>
        <time>2016-06-06T09:06:33.1Z</time>
      </trkpt>
      <trkpt lat="48.57365" lon="-3.19474">
        <ele>196</ele>
        <time>2016-06-06T09:06:35.1Z</time>
      </trkpt>
      <trkpt lat="48.57366" lon="-3.19474">
        <ele>196</ele>
        <time>2016-06-06T09:06:38.1Z</time>
      </trkpt>
      <trkpt lat="48.57366" lon="-3.19473">
        <ele>196</ele>
        <time>2016-06-06T09:06:41.1Z</time>
      </trkpt>
      <trkpt lat="48.57366" lon="-3.19473">
        <ele>196</ele>
        <time>2016-06-06T09:06:44.1Z</time>
      </trkpt>
      <trkpt lat="48.57366" lon="-3.19472">
        <ele>196</ele>
        <time>2016-06-06T09:06:46.1Z</time>
      </trkpt>
      <trkpt lat="48.57365" lon="-3.19472">
        <ele>196</ele>
        <time>2016-06-06T09:06:49.1Z</time>
      </trkpt>
      <trkpt lat="48.57365" lon="-3.19473">
        <ele>196</ele>
        <time>2016-06-06T09:06:52.1Z</time>
      </trkpt>
      <trkpt lat="48.57365" lon="-3.19473">
        <ele>196</ele>
        <time>2016-06-06T09:06:55.1Z</time>
      </trkpt>
      <trkpt lat="48.57365" lon="-3.19473">
        <ele>196</ele>
        <time>2016-06-06T09:06:58.1Z</time>
      </trkpt>
      <trkpt lat="48.57365" lon="-3.19473">
        <ele>196</ele>
        <time>2016-06-06T09:07:01.1Z</time>
      </trkpt>
      <trkpt lat="48.57364" lon="-3.19474">
        <ele>196</ele>
        <time>2016-06-06T09:07:04.1Z</time>
      </trkpt>
      <trkpt lat="48.57363" lon="-3.19474">
        <ele>195</ele>
        <time>2016-06-06T09:07:06.1Z</time>
      </trkpt>
      <trkpt lat="48.57362" lon="-3.19474">
        <ele>196</ele>
        <time>2016-06-06T09:07:09.1Z</time>
      </trkpt>
      <trkpt lat="48.57362" lon="-3.19475">
        <ele>196</ele>
        <time>2016-06-06T09:07:11.1Z</time>
      </trkpt>
      <trkpt lat="48.57361" lon="-3.19474">
        <ele>196</ele>
        <time>2016-06-06T09:07:14.1Z</time>
      </trkpt>
      <trkpt lat="48.5736" lon="-3.19474">
        <ele>196</ele>
        <time>2016-06-06T09:07:16.1Z</time>
      </trkpt>
      <trkpt lat="48.5736" lon="-3.19473">
        <ele>196</ele>
        <time>2016-06-06T09:07:19.1Z</time>
      </trkpt>
      <trkpt lat="48.57359" lon="-3.19473">
        <ele>196</ele>
        <time>2016-06-06T09:07:21.1Z</time>
      </trkpt>
      <trkpt lat="48.57359" lon="-3.19473">
        <ele>196</ele>
        <time>2016-06-06T09:07:24.1Z</time>
      </trkpt>
      <trkpt lat="48.57359" lon="-3.19473">
        <ele>197</ele>
        <time>2016-06-06T09:07:26.1Z</time>
      </trkpt>
      <trkpt lat="48.57358" lon="-3.19471">
        <ele>197</ele>
        <time>2016-06-06T09:07:29.1Z</time>
      </trkpt>
      <trkpt lat="48.57358" lon="-3.19471">
        <ele>197</ele>
        <time>2016-06-06T09:07:31.1Z</time>
      </trkpt>
      <trkpt lat="48.57358" lon="-3.19471">
        <ele>197</ele>
        <time>2016-06-06T09:07:36.1Z</time>
      </trkpt>
      <trkpt lat="48.57358" lon="-3.19471">
        <ele>197</ele>
        <time>2016-06-06T09:07:39.1Z</time>
      </trkpt>
      <trkpt lat="48.57358" lon="-3.1947">
        <ele>197</ele>
        <time>2016-06-06T09:07:42.1Z</time>
      </trkpt>
      <trkpt lat="48.57358" lon="-3.19468">
        <ele>197</ele>
        <time>2016-06-06T09:07:44.1Z</time>
      </trkpt>
      <trkpt lat="48.57357" lon="-3.19468">
        <ele>197</ele>
        <time>2016-06-06T09:07:47.1Z</time>
      </trkpt>
      <trkpt lat="48.57357" lon="-3.19468">
        <ele>197</ele>
        <time>2016-06-06T09:07:49.1Z</time>
      </trkpt>
      <trkpt lat="48.57357" lon="-3.19468">
        <ele>197</ele>
        <time>2016-06-06T09:07:52.1Z</time>
      </trkpt>
      <trkpt lat="48.57357" lon="-3.19467">
        <ele>197</ele>
        <time>2016-06-06T09:07:54.1Z</time>
      </trkpt>
      <trkpt lat="48.57357" lon="-3.19467">
        <ele>197</ele>
        <time>2016-06-06T09:07:59.1Z</time>
      </trkpt>
      <trkpt lat="48.57357" lon="-3.19467">
        <ele>197</ele>
        <time>2016-06-06T09:08:06.1Z</time>
      </trkpt>
      <trkpt lat="48.57357" lon="-3.19467">
        <ele>197</ele>
        <time>2016-06-06T09:08:09.1Z</time>
      </trkpt>
      <trkpt lat="48.57357" lon="-3.19467">
        <ele>196</ele>
        <time>2016-06-06T09:08:13.1Z</time>
      </trkpt>
      <trkpt lat="48.57357" lon="-3.19467">
        <ele>197</ele>
        <time>2016-06-06T09:08:16.1Z</time>
      </trkpt>
      <trkpt lat="48.57357" lon="-3.19466">
        <ele>196</ele>
        <time>2016-06-06T09:08:19.1Z</time>
      </trkpt>
      <trkpt lat="48.57357" lon="-3.19467">
        <ele>196</ele>
        <time>2016-06-06T09:08:21.1Z</time>
      </trkpt>
      <trkpt lat="48.57357" lon="-3.19468">
        <ele>196</ele>
        <time>2016-06-06T09:08:24.1Z</time>
      </trkpt>
      <trkpt lat="48.57357" lon="-3.19468">
        <ele>196</ele>
        <time>2016-06-06T09:08:26.1Z</time>
      </trkpt>
      <trkpt lat="48.57358" lon="-3.19468">
        <ele>196</ele>
        <time>2016-06-06T09:08:29.1Z</time>
      </trkpt>
      <trkpt lat="48.57358" lon="-3.19467">
        <ele>196</ele>
        <time>2016-06-06T09:08:31.1Z</time>
      </trkpt>
      <trkpt lat="48.57358" lon="-3.19466">
        <ele>196</ele>
        <time>2016-06-06T09:08:34.1Z</time>
      </trkpt>
      <trkpt lat="48.57358" lon="-3.19466">
        <ele>196</ele>
        <time>2016-06-06T09:08:36.1Z</time>
      </trkpt>
      <trkpt lat="48.57359" lon="-3.19465">
        <ele>196</ele>
        <time>2016-06-06T09:08:39.1Z</time>
      </trkpt>
      <trkpt lat="48.57359" lon="-3.19465">
        <ele>196</ele>
        <time>2016-06-06T09:08:41.1Z</time>
      </trkpt>
      <trkpt lat="48.57359" lon="-3.19464">
        <ele>197</ele>
        <time>2016-06-06T09:08:44.1Z</time>
      </trkpt>
      <trkpt lat="48.57359" lon="-3.19464">
        <ele>197</ele>
        <time>2016-06-06T09:08:47.1Z</time>
      </trkpt>
      <trkpt lat="48.57359" lon="-3.19464">
        <ele>197</ele>
        <time>2016-06-06T09:08:49.1Z</time>
      </trkpt>
      <trkpt lat="48.57359" lon="-3.19464">
        <ele>196</ele>
        <time>2016-06-06T09:08:55.1Z</time>
      </trkpt>
      <trkpt lat="48.57358" lon="-3.19462">
        <ele>196</ele>
        <time>2016-06-06T09:08:58.1Z</time>
      </trkpt>
      <trkpt lat="48.57358" lon="-3.19461">
        <ele>197</ele>
        <time>2016-06-06T09:09:02.1Z</time>
      </trkpt>
      <trkpt lat="48.57358" lon="-3.1946">
        <ele>197</ele>
        <time>2016-06-06T09:09:05.1Z</time>
      </trkpt>
      <trkpt lat="48.57358" lon="-3.1946">
        <ele>197</ele>
        <time>2016-06-06T09:09:07.1Z</time>
      </trkpt>
      <trkpt lat="48.57357" lon="-3.19456">
        <ele>197</ele>
        <time>2016-06-06T09:09:10.1Z</time>
      </trkpt>
      <trkpt lat="48.57356" lon="-3.19453">
        <ele>197</ele>
        <time>2016-06-06T09:09:13.1Z</time>
      </trkpt>
      <trkpt lat="48.57355" lon="-3.19453">
        <ele>197</ele>
        <time>2016-06-06T09:09:15.1Z</time>
      </trkpt>
      <trkpt lat="48.57354" lon="-3.19451">
        <ele>197</ele>
        <time>2016-06-06T09:09:18.1Z</time>
      </trkpt>
      <trkpt lat="48.57353" lon="-3.19449">
        <ele>197</ele>
        <time>2016-06-06T09:09:20.1Z</time>
      </trkpt>
      <trkpt lat="48.57352" lon="-3.19446">
        <ele>197</ele>
        <time>2016-06-06T09:09:23.1Z</time>
      </trkpt>
      <trkpt lat="48.57351" lon="-3.19444">
        <ele>196</ele>
        <time>2016-06-06T09:09:25.1Z</time>
      </trkpt>
      <trkpt lat="48.57351" lon="-3.1944">
        <ele>196</ele>
        <time>2016-06-06T09:09:28.1Z</time>
      </trkpt>
      <trkpt lat="48.5735" lon="-3.19437">
        <ele>196</ele>
        <time>2016-06-06T09:09:30.1Z</time>
      </trkpt>
      <trkpt lat="48.5735" lon="-3.19433">
        <ele>196</ele>
        <time>2016-06-06T09:09:33.1Z</time>
      </trkpt>
      <trkpt lat="48.5735" lon="-3.19431">
        <ele>196</ele>
        <time>2016-06-06T09:09:35.1Z</time>
      </trkpt>
      <trkpt lat="48.57349" lon="-3.19427">
        <ele>196</ele>
        <time>2016-06-06T09:09:38.1Z</time>
      </trkpt>
      <trkpt lat="48.57349" lon="-3.19424">
        <ele>196</ele>
        <time>2016-06-06T09:09:40.1Z</time>
      </trkpt>
      <trkpt lat="48.57348" lon="-3.1942">
        <ele>195</ele>
        <time>2016-06-06T09:09:43.1Z</time>
      </trkpt>
      <trkpt lat="48.57347" lon="-3.19417">
        <ele>196</ele>
        <time>2016-06-06T09:09:45.1Z</time>
      </trkpt>
      <trkpt lat="48.57347" lon="-3.19412">
        <ele>195</ele>
        <time>2016-06-06T09:09:48.1Z</time>
      </trkpt>
      <trkpt lat="48.57346" lon="-3.1941">
        <ele>195</ele>
        <time>2016-06-06T09:09:50.1Z</time>
      </trkpt>
      <trkpt lat="48.57345" lon="-3.19405">
        <ele>195</ele>
        <time>2016-06-06T09:09:53.1Z</time>
      </trkpt>
      <trkpt lat="48.57345" lon="-3.19402">
        <ele>195</ele>
        <time>2016-06-06T09:09:55.1Z</time>
      </trkpt>
      <trkpt lat="48.57344" lon="-3.19398">
        <ele>194</ele>
        <time>2016-06-06T09:09:58.1Z</time>
      </trkpt>
      <trkpt lat="48.57342" lon="-3.19392">
        <ele>194</ele>
        <time>2016-06-06T09:10:01.1Z</time>
      </trkpt>
      <trkpt lat="48.57342" lon="-3.19389">
        <ele>194</ele>
        <time>2016-06-06T09:10:03.1Z</time>
      </trkpt>
      <trkpt lat="48.57341" lon="-3.19385">
        <ele>194</ele>
        <time>2016-06-06T09:10:06.1Z</time>
      </trkpt>
      <trkpt lat="48.57341" lon="-3.19381">
        <ele>194</ele>
        <time>2016-06-06T09:10:08.1Z</time>
      </trkpt>
      <trkpt lat="48.57339" lon="-3.19375">
        <ele>194</ele>
        <time>2016-06-06T09:10:11.1Z</time>
      </trkpt>
      <trkpt lat="48.57338" lon="-3.19371">
        <ele>194</ele>
        <time>2016-06-06T09:10:14.1Z</time>
      </trkpt>
      <trkpt lat="48.57338" lon="-3.19367">
        <ele>193</ele>
        <time>2016-06-06T09:10:16.1Z</time>
      </trkpt>
      <trkpt lat="48.57337" lon="-3.19362">
        <ele>193</ele>
        <time>2016-06-06T09:10:19.1Z</time>
      </trkpt>
      <trkpt lat="48.57337" lon="-3.19359">
        <ele>193</ele>
        <time>2016-06-06T09:10:21.1Z</time>
      </trkpt>
      <trkpt lat="48.57336" lon="-3.19354">
        <ele>192</ele>
        <time>2016-06-06T09:10:24.1Z</time>
      </trkpt>
      <trkpt lat="48.57335" lon="-3.19351">
        <ele>193</ele>
        <time>2016-06-06T09:10:26.1Z</time>
      </trkpt>
      <trkpt lat="48.57335" lon="-3.19348">
        <ele>193</ele>
        <time>2016-06-06T09:10:28.1Z</time>
      </trkpt>
      <trkpt lat="48.57335" lon="-3.19344">
        <ele>193</ele>
        <time>2016-06-06T09:10:30.1Z</time>
      </trkpt>
      <trkpt lat="48.57334" lon="-3.19338">
        <ele>192</ele>
        <time>2016-06-06T09:10:33.1Z</time>
      </trkpt>
      <trkpt lat="48.57333" lon="-3.19334">
        <ele>192</ele>
        <time>2016-06-06T09:10:36.1Z</time>
      </trkpt>
      <trkpt lat="48.57332" lon="-3.19328">
        <ele>192</ele>
        <time>2016-06-06T09:10:39.1Z</time>
      </trkpt>
      <trkpt lat="48.57331" lon="-3.19325">
        <ele>192</ele>
        <time>2016-06-06T09:10:41.1Z</time>
      </trkpt>
      <trkpt lat="48.5733" lon="-3.1932">
        <ele>192</ele>
        <time>2016-06-06T09:10:44.1Z</time>
      </trkpt>
      <trkpt lat="48.57329" lon="-3.19315">
        <ele>191</ele>
        <time>2016-06-06T09:10:47.1Z</time>
      </trkpt>
      <trkpt lat="48.57328" lon="-3.19312">
        <ele>191</ele>
        <time>2016-06-06T09:10:49.1Z</time>
      </trkpt>
      <trkpt lat="48.57327" lon="-3.19307">
        <ele>191</ele>
        <time>2016-06-06T09:10:52.1Z</time>
      </trkpt>
      <trkpt lat="48.57325" lon="-3.19303">
        <ele>191</ele>
        <time>2016-06-06T09:10:55.1Z</time>
      </trkpt>
      <trkpt lat="48.57324" lon="-3.19299">
        <ele>190</ele>
        <time>2016-06-06T09:10:57.1Z</time>
      </trkpt>
      <trkpt lat="48.57323" lon="-3.19295">
        <ele>191</ele>
        <time>2016-06-06T09:11:00.1Z</time>
      </trkpt>
      <trkpt lat="48.57321" lon="-3.1929">
        <ele>190</ele>
        <time>2016-06-06T09:11:03.1Z</time>
      </trkpt>
      <trkpt lat="48.5732" lon="-3.19287">
        <ele>190</ele>
        <time>2016-06-06T09:11:05.1Z</time>
      </trkpt>
      <trkpt lat="48.57319" lon="-3.19282">
        <ele>190</ele>
        <time>2016-06-06T09:11:08.1Z</time>
      </trkpt>
      <trkpt lat="48.57318" lon="-3.19279">
        <ele>190</ele>
        <time>2016-06-06T09:11:10.1Z</time>
      </trkpt>
      <trkpt lat="48.57317" lon="-3.19273">
        <ele>190</ele>
        <time>2016-06-06T09:11:13.1Z</time>
      </trkpt>
      <trkpt lat="48.57316" lon="-3.19268">
        <ele>190</ele>
        <time>2016-06-06T09:11:16.1Z</time>
      </trkpt>
      <trkpt lat="48.57315" lon="-3.19265">
        <ele>190</ele>
        <time>2016-06-06T09:11:18.1Z</time>
      </trkpt>
      <trkpt lat="48.57314" lon="-3.1926">
        <ele>189</ele>
        <time>2016-06-06T09:11:21.1Z</time>
      </trkpt>
      <trkpt lat="48.57312" lon="-3.19256">
        <ele>189</ele>
        <time>2016-06-06T09:11:23.1Z</time>
      </trkpt>
      <trkpt lat="48.57312" lon="-3.19251">
        <ele>189</ele>
        <time>2016-06-06T09:11:26.1Z</time>
      </trkpt>
      <trkpt lat="48.5731" lon="-3.19246">
        <ele>188</ele>
        <time>2016-06-06T09:11:29.1Z</time>
      </trkpt>
      <trkpt lat="48.57309" lon="-3.19241">
        <ele>189</ele>
        <time>2016-06-06T09:11:32.1Z</time>
      </trkpt>
      <trkpt lat="48.57309" lon="-3.19238">
        <ele>189</ele>
        <time>2016-06-06T09:11:34.1Z</time>
      </trkpt>
      <trkpt lat="48.57309" lon="-3.19236">
        <ele>189</ele>
        <time>2016-06-06T09:11:36.1Z</time>
      </trkpt>
      <trkpt lat="48.57308" lon="-3.19233">
        <ele>189</ele>
        <time>2016-06-06T09:11:38.1Z</time>
      </trkpt>
      <trkpt lat="48.57307" lon="-3.19229">
        <ele>189</ele>
        <time>2016-06-06T09:11:41.1Z</time>
      </trkpt>
      <trkpt lat="48.57307" lon="-3.19225">
        <ele>188</ele>
        <time>2016-06-06T09:11:44.1Z</time>
      </trkpt>
      <trkpt lat="48.57305" lon="-3.1922">
        <ele>188</ele>
        <time>2016-06-06T09:11:47.1Z</time>
      </trkpt>
      <trkpt lat="48.57305" lon="-3.19217">
        <ele>188</ele>
        <time>2016-06-06T09:11:49.1Z</time>
      </trkpt>
      <trkpt lat="48.57303" lon="-3.19214">
        <ele>188</ele>
        <time>2016-06-06T09:11:51.1Z</time>
      </trkpt>
      <trkpt lat="48.57301" lon="-3.19212">
        <ele>188</ele>
        <time>2016-06-06T09:11:53.1Z</time>
      </trkpt>
      <trkpt lat="48.57299" lon="-3.19209">
        <ele>187</ele>
        <time>2016-06-06T09:11:56.1Z</time>
      </trkpt>
      <trkpt lat="48.57297" lon="-3.19204">
        <ele>187</ele>
        <time>2016-06-06T09:11:59.1Z</time>
      </trkpt>
      <trkpt lat="48.57294" lon="-3.192">
        <ele>187</ele>
        <time>2016-06-06T09:12:02.1Z</time>
      </trkpt>
      <trkpt lat="48.57293" lon="-3.19196">
        <ele>187</ele>
        <time>2016-06-06T09:12:05.1Z</time>
      </trkpt>
      <trkpt lat="48.57291" lon="-3.19192">
        <ele>187</ele>
        <time>2016-06-06T09:12:08.1Z</time>
      </trkpt>
      <trkpt lat="48.57288" lon="-3.19187">
        <ele>186</ele>
        <time>2016-06-06T09:12:11.1Z</time>
      </trkpt>
      <trkpt lat="48.57287" lon="-3.19184">
        <ele>187</ele>
        <time>2016-06-06T09:12:13.1Z</time>
      </trkpt>
      <trkpt lat="48.57285" lon="-3.19181">
        <ele>186</ele>
        <time>2016-06-06T09:12:16.1Z</time>
      </trkpt>
      <trkpt lat="48.57282" lon="-3.19178">
        <ele>187</ele>
        <time>2016-06-06T09:12:19.1Z</time>
      </trkpt>
      <trkpt lat="48.57281" lon="-3.19175">
        <ele>187</ele>
        <time>2016-06-06T09:12:21.1Z</time>
      </trkpt>
      <trkpt lat="48.57279" lon="-3.19171">
        <ele>187</ele>
        <time>2016-06-06T09:12:24.1Z</time>
      </trkpt>
      <trkpt lat="48.57277" lon="-3.19168">
        <ele>186</ele>
        <time>2016-06-06T09:12:26.1Z</time>
      </trkpt>
      <trkpt lat="48.57275" lon="-3.19165">
        <ele>186</ele>
        <time>2016-06-06T09:12:29.1Z</time>
      </trkpt>
      <trkpt lat="48.57272" lon="-3.19161">
        <ele>186</ele>
        <time>2016-06-06T09:12:32.1Z</time>
      </trkpt>
      <trkpt lat="48.57271" lon="-3.19159">
        <ele>186</ele>
        <time>2016-06-06T09:12:34.1Z</time>
      </trkpt>
      <trkpt lat="48.57269" lon="-3.19155">
        <ele>186</ele>
        <time>2016-06-06T09:12:37.1Z</time>
      </trkpt>
      <trkpt lat="48.57268" lon="-3.19152">
        <ele>186</ele>
        <time>2016-06-06T09:12:39.1Z</time>
      </trkpt>
      <trkpt lat="48.57266" lon="-3.19148">
        <ele>186</ele>
        <time>2016-06-06T09:12:42.1Z</time>
      </trkpt>
      <trkpt lat="48.57264" lon="-3.19145">
        <ele>186</ele>
        <time>2016-06-06T09:12:44.1Z</time>
      </trkpt>
      <trkpt lat="48.57262" lon="-3.19142">
        <ele>186</ele>
        <time>2016-06-06T09:12:47.1Z</time>
      </trkpt>
      <trkpt lat="48.57261" lon="-3.19139">
        <ele>186</ele>
        <time>2016-06-06T09:12:49.1Z</time>
      </trkpt>
      <trkpt lat="48.57259" lon="-3.19135">
        <ele>186</ele>
        <time>2016-06-06T09:12:52.1Z</time>
      </trkpt>
      <trkpt lat="48.57256" lon="-3.19132">
        <ele>186</ele>
        <time>2016-06-06T09:12:55.1Z</time>
      </trkpt>
      <trkpt lat="48.57253" lon="-3.19128">
        <ele>186</ele>
        <time>2016-06-06T09:12:58.1Z</time>
      </trkpt>
      <trkpt lat="48.57252" lon="-3.19126">
        <ele>186</ele>
        <time>2016-06-06T09:13:00.1Z</time>
      </trkpt>
      <trkpt lat="48.5725" lon="-3.19123">
        <ele>186</ele>
        <time>2016-06-06T09:13:02.1Z</time>
      </trkpt>
      <trkpt lat="48.57248" lon="-3.19118">
        <ele>186</ele>
        <time>2016-06-06T09:13:05.1Z</time>
      </trkpt>
      <trkpt lat="48.57246" lon="-3.19116">
        <ele>186</ele>
        <time>2016-06-06T09:13:07.1Z</time>
      </trkpt>
      <trkpt lat="48.57243" lon="-3.19112">
        <ele>186</ele>
        <time>2016-06-06T09:13:10.1Z</time>
      </trkpt>
      <trkpt lat="48.57241" lon="-3.1911">
        <ele>186</ele>
        <time>2016-06-06T09:13:13.1Z</time>
      </trkpt>
      <trkpt lat="48.57239" lon="-3.19108">
        <ele>186</ele>
        <time>2016-06-06T09:13:15.1Z</time>
      </trkpt>
      <trkpt lat="48.57236" lon="-3.19105">
        <ele>185</ele>
        <time>2016-06-06T09:13:18.1Z</time>
      </trkpt>
      <trkpt lat="48.57235" lon="-3.19102">
        <ele>186</ele>
        <time>2016-06-06T09:13:20.1Z</time>
      </trkpt>
      <trkpt lat="48.57233" lon="-3.19098">
        <ele>185</ele>
        <time>2016-06-06T09:13:23.1Z</time>
      </trkpt>
      <trkpt lat="48.57231" lon="-3.19094">
        <ele>186</ele>
        <time>2016-06-06T09:13:26.1Z</time>
      </trkpt>
      <trkpt lat="48.57229" lon="-3.1909">
        <ele>186</ele>
        <time>2016-06-06T09:13:29.1Z</time>
      </trkpt>
      <trkpt lat="48.57228" lon="-3.19088">
        <ele>186</ele>
        <time>2016-06-06T09:13:31.1Z</time>
      </trkpt>
      <trkpt lat="48.57228" lon="-3.19085">
        <ele>186</ele>
        <time>2016-06-06T09:13:33.1Z</time>
      </trkpt>
      <trkpt lat="48.57227" lon="-3.19081">
        <ele>186</ele>
        <time>2016-06-06T09:13:36.1Z</time>
      </trkpt>
      <trkpt lat="48.57226" lon="-3.19078">
        <ele>186</ele>
        <time>2016-06-06T09:13:39.1Z</time>
      </trkpt>
      <trkpt lat="48.57225" lon="-3.19074">
        <ele>186</ele>
        <time>2016-06-06T09:13:42.1Z</time>
      </trkpt>
      <trkpt lat="48.57222" lon="-3.19071">
        <ele>187</ele>
        <time>2016-06-06T09:13:45.1Z</time>
      </trkpt>
      <trkpt lat="48.57222" lon="-3.19069">
        <ele>187</ele>
        <time>2016-06-06T09:13:47.1Z</time>
      </trkpt>
      <trkpt lat="48.5722" lon="-3.19066">
        <ele>187</ele>
        <time>2016-06-06T09:13:49.1Z</time>
      </trkpt>
      <trkpt lat="48.57219" lon="-3.19069">
        <ele>187</ele>
        <time>2016-06-06T09:13:52.1Z</time>
      </trkpt>
      <trkpt lat="48.57217" lon="-3.19073">
        <ele>187</ele>
        <time>2016-06-06T09:13:55.1Z</time>
      </trkpt>
      <trkpt lat="48.57214" lon="-3.19076">
        <ele>186</ele>
        <time>2016-06-06T09:13:58.1Z</time>
      </trkpt>
      <trkpt lat="48.57213" lon="-3.19078">
        <ele>186</ele>
        <time>2016-06-06T09:14:00.1Z</time>
      </trkpt>
      <trkpt lat="48.57211" lon="-3.19078">
        <ele>186</ele>
        <time>2016-06-06T09:14:03.1Z</time>
      </trkpt>
      <trkpt lat="48.57212" lon="-3.19076">
        <ele>186</ele>
        <time>2016-06-06T09:14:06.1Z</time>
      </trkpt>
      <trkpt lat="48.57214" lon="-3.19073">
        <ele>185</ele>
        <time>2016-06-06T09:14:09.1Z</time>
      </trkpt>
      <trkpt lat="48.57216" lon="-3.19068">
        <ele>186</ele>
        <time>2016-06-06T09:14:12.1Z</time>
      </trkpt>
      <trkpt lat="48.57217" lon="-3.19066">
        <ele>186</ele>
        <time>2016-06-06T09:14:14.1Z</time>
      </trkpt>
      <trkpt lat="48.57217" lon="-3.19065">
        <ele>186</ele>
        <time>2016-06-06T09:14:17.1Z</time>
      </trkpt>
      <trkpt lat="48.57217" lon="-3.19064">
        <ele>186</ele>
        <time>2016-06-06T09:14:19.1Z</time>
      </trkpt>
      <trkpt lat="48.57217" lon="-3.19061">
        <ele>187</ele>
        <time>2016-06-06T09:14:21.1Z</time>
      </trkpt>
      <trkpt lat="48.57218" lon="-3.19056">
        <ele>188</ele>
        <time>2016-06-06T09:14:24.1Z</time>
      </trkpt>
      <trkpt lat="48.57217" lon="-3.19051">
        <ele>188</ele>
        <time>2016-06-06T09:14:27.1Z</time>
      </trkpt>
      <trkpt lat="48.57215" lon="-3.19045">
        <ele>188</ele>
        <time>2016-06-06T09:14:30.1Z</time>
      </trkpt>
      <trkpt lat="48.57214" lon="-3.19043">
        <ele>189</ele>
        <time>2016-06-06T09:14:32.1Z</time>
      </trkpt>
      <trkpt lat="48.57213" lon="-3.1904">
        <ele>189</ele>
        <time>2016-06-06T09:14:34.1Z</time>
      </trkpt>
      <trkpt lat="48.57212" lon="-3.19035">
        <ele>190</ele>
        <time>2016-06-06T09:14:37.1Z</time>
      </trkpt>
      <trkpt lat="48.57211" lon="-3.1903">
        <ele>190</ele>
        <time>2016-06-06T09:14:40.1Z</time>
      </trkpt>
      <trkpt lat="48.57209" lon="-3.19025">
        <ele>190</ele>
        <time>2016-06-06T09:14:43.1Z</time>
      </trkpt>
      <trkpt lat="48.57209" lon="-3.19022">
        <ele>190</ele>
        <time>2016-06-06T09:14:45.1Z</time>
      </trkpt>
      <trkpt lat="48.5721" lon="-3.19018">
        <ele>190</ele>
        <time>2016-06-06T09:14:48.1Z</time>
      </trkpt>
      <trkpt lat="48.57209" lon="-3.19012">
        <ele>190</ele>
        <time>2016-06-06T09:14:51.1Z</time>
      </trkpt>
      <trkpt lat="48.5721" lon="-3.19008">
        <ele>191</ele>
        <time>2016-06-06T09:14:53.1Z</time>
      </trkpt>
      <trkpt lat="48.5721" lon="-3.19003">
        <ele>191</ele>
        <time>2016-06-06T09:14:56.1Z</time>
      </trkpt>
      <trkpt lat="48.5721" lon="-3.18999">
        <ele>191</ele>
        <time>2016-06-06T09:14:58.1Z</time>
      </trkpt>
      <trkpt lat="48.5721" lon="-3.18993">
        <ele>191</ele>
        <time>2016-06-06T09:15:01.1Z</time>
      </trkpt>
      <trkpt lat="48.5721" lon="-3.18989">
        <ele>191</ele>
        <time>2016-06-06T09:15:03.1Z</time>
      </trkpt>
      <trkpt lat="48.57211" lon="-3.18985">
        <ele>191</ele>
        <time>2016-06-06T09:15:05.1Z</time>
      </trkpt>
      <trkpt lat="48.57211" lon="-3.18977">
        <ele>192</ele>
        <time>2016-06-06T09:15:08.1Z</time>
      </trkpt>
      <trkpt lat="48.57211" lon="-3.1897">
        <ele>192</ele>
        <time>2016-06-06T09:15:11.1Z</time>
      </trkpt>
      <trkpt lat="48.57212" lon="-3.18966">
        <ele>192</ele>
        <time>2016-06-06T09:15:13.1Z</time>
      </trkpt>
      <trkpt lat="48.57212" lon="-3.18962">
        <ele>192</ele>
        <time>2016-06-06T09:15:15.1Z</time>
      </trkpt>
      <trkpt lat="48.57211" lon="-3.18955">
        <ele>192</ele>
        <time>2016-06-06T09:15:18.1Z</time>
      </trkpt>
      <trkpt lat="48.57211" lon="-3.18949">
        <ele>192</ele>
        <time>2016-06-06T09:15:21.1Z</time>
      </trkpt>
      <trkpt lat="48.57211" lon="-3.18945">
        <ele>192</ele>
        <time>2016-06-06T09:15:23.1Z</time>
      </trkpt>
      <trkpt lat="48.57212" lon="-3.18939">
        <ele>191</ele>
        <time>2016-06-06T09:15:26.1Z</time>
      </trkpt>
      <trkpt lat="48.57213" lon="-3.18933">
        <ele>191</ele>
        <time>2016-06-06T09:15:29.1Z</time>
      </trkpt>
      <trkpt lat="48.57214" lon="-3.18926">
        <ele>191</ele>
        <time>2016-06-06T09:15:32.1Z</time>
      </trkpt>
      <trkpt lat="48.57215" lon="-3.18922">
        <ele>191</ele>
        <time>2016-06-06T09:15:34.1Z</time>
      </trkpt>
      <trkpt lat="48.57216" lon="-3.18918">
        <ele>190</ele>
        <time>2016-06-06T09:15:36.1Z</time>
      </trkpt>
      <trkpt lat="48.57217" lon="-3.18914">
        <ele>190</ele>
        <time>2016-06-06T09:15:38.1Z</time>
      </trkpt>
      <trkpt lat="48.57219" lon="-3.18908">
        <ele>190</ele>
        <time>2016-06-06T09:15:41.1Z</time>
      </trkpt>
      <trkpt lat="48.5722" lon="-3.18904">
        <ele>190</ele>
        <time>2016-06-06T09:15:43.1Z</time>
      </trkpt>
      <trkpt lat="48.57221" lon="-3.18898">
        <ele>190</ele>
        <time>2016-06-06T09:15:46.1Z</time>
      </trkpt>
      <trkpt lat="48.57222" lon="-3.18895">
        <ele>190</ele>
        <time>2016-06-06T09:15:48.1Z</time>
      </trkpt>
      <trkpt lat="48.57223" lon="-3.18891">
        <ele>190</ele>
        <time>2016-06-06T09:15:50.1Z</time>
      </trkpt>
      <trkpt lat="48.57224" lon="-3.18885">
        <ele>190</ele>
        <time>2016-06-06T09:15:53.1Z</time>
      </trkpt>
      <trkpt lat="48.57225" lon="-3.18879">
        <ele>190</ele>
        <time>2016-06-06T09:15:56.1Z</time>
      </trkpt>
      <trkpt lat="48.57227" lon="-3.18874">
        <ele>190</ele>
        <time>2016-06-06T09:15:59.1Z</time>
      </trkpt>
      <trkpt lat="48.57227" lon="-3.18871">
        <ele>190</ele>
        <time>2016-06-06T09:16:01.1Z</time>
      </trkpt>
      <trkpt lat="48.57228" lon="-3.18867">
        <ele>189</ele>
        <time>2016-06-06T09:16:03.1Z</time>
      </trkpt>
      <trkpt lat="48.5723" lon="-3.18861">
        <ele>189</ele>
        <time>2016-06-06T09:16:06.1Z</time>
      </trkpt>
      <trkpt lat="48.5723" lon="-3.18857">
        <ele>189</ele>
        <time>2016-06-06T09:16:08.1Z</time>
      </trkpt>
      <trkpt lat="48.5723" lon="-3.18853">
        <ele>189</ele>
        <time>2016-06-06T09:16:11.1Z</time>
      </trkpt>
      <trkpt lat="48.57231" lon="-3.18846">
        <ele>188</ele>
        <time>2016-06-06T09:16:14.1Z</time>
      </trkpt>
      <trkpt lat="48.57232" lon="-3.18843">
        <ele>188</ele>
        <time>2016-06-06T09:16:16.1Z</time>
      </trkpt>
      <trkpt lat="48.57232" lon="-3.1884">
        <ele>188</ele>
        <time>2016-06-06T09:16:18.1Z</time>
      </trkpt>
      <trkpt lat="48.57232" lon="-3.18837">
        <ele>188</ele>
        <time>2016-06-06T09:16:20.1Z</time>
      </trkpt>
      <trkpt lat="48.57231" lon="-3.18833">
        <ele>188</ele>
        <time>2016-06-06T09:16:23.1Z</time>
      </trkpt>
      <trkpt lat="48.5723" lon="-3.1883">
        <ele>188</ele>
        <time>2016-06-06T09:16:26.1Z</time>
      </trkpt>
      <trkpt lat="48.5723" lon="-3.18828">
        <ele>188</ele>
        <time>2016-06-06T09:16:28.1Z</time>
      </trkpt>
      <trkpt lat="48.57229" lon="-3.18826">
        <ele>188</ele>
        <time>2016-06-06T09:16:30.1Z</time>
      </trkpt>
      <trkpt lat="48.57227" lon="-3.18824">
        <ele>188</ele>
        <time>2016-06-06T09:16:33.1Z</time>
      </trkpt>
      <trkpt lat="48.57226" lon="-3.18823">
        <ele>188</ele>
        <time>2016-06-06T09:16:35.1Z</time>
      </trkpt>
      <trkpt lat="48.57224" lon="-3.18821">
        <ele>188</ele>
        <time>2016-06-06T09:16:38.1Z</time>
      </trkpt>
      <trkpt lat="48.57223" lon="-3.1882">
        <ele>188</ele>
        <time>2016-06-06T09:16:40.1Z</time>
      </trkpt>
      <trkpt lat="48.57221" lon="-3.18819">
        <ele>188</ele>
        <time>2016-06-06T09:16:42.1Z</time>
      </trkpt>
      <trkpt lat="48.5722" lon="-3.18819">
        <ele>188</ele>
        <time>2016-06-06T09:16:44.1Z</time>
      </trkpt>
      <trkpt lat="48.57219" lon="-3.18817">
        <ele>188</ele>
        <time>2016-06-06T09:16:47.1Z</time>
      </trkpt>
      <trkpt lat="48.57217" lon="-3.18817">
        <ele>189</ele>
        <time>2016-06-06T09:16:49.1Z</time>
      </trkpt>
      <trkpt lat="48.57215" lon="-3.18817">
        <ele>189</ele>
        <time>2016-06-06T09:16:52.1Z</time>
      </trkpt>
      <trkpt lat="48.57214" lon="-3.18816">
        <ele>188</ele>
        <time>2016-06-06T09:16:54.1Z</time>
      </trkpt>
      <trkpt lat="48.57213" lon="-3.18816">
        <ele>188</ele>
        <time>2016-06-06T09:16:56.1Z</time>
      </trkpt>
      <trkpt lat="48.57212" lon="-3.18815">
        <ele>188</ele>
        <time>2016-06-06T09:16:58.1Z</time>
      </trkpt>
      <trkpt lat="48.57211" lon="-3.18816">
        <ele>188</ele>
        <time>2016-06-06T09:17:00.1Z</time>
      </trkpt>
      <trkpt lat="48.57212" lon="-3.18814">
        <ele>188</ele>
        <time>2016-06-06T09:17:03.1Z</time>
      </trkpt>
      <trkpt lat="48.57213" lon="-3.18812">
        <ele>188</ele>
        <time>2016-06-06T09:17:05.1Z</time>
      </trkpt>
      <trkpt lat="48.57214" lon="-3.1881">
        <ele>188</ele>
        <time>2016-06-06T09:17:08.1Z</time>
      </trkpt>
      <trkpt lat="48.57213" lon="-3.18809">
        <ele>188</ele>
        <time>2016-06-06T09:17:10.1Z</time>
      </trkpt>
      <trkpt lat="48.57214" lon="-3.18809">
        <ele>188</ele>
        <time>2016-06-06T09:17:12.1Z</time>
      </trkpt>
      <trkpt lat="48.57214" lon="-3.18809">
        <ele>188</ele>
        <time>2016-06-06T09:17:14.1Z</time>
      </trkpt>
      <trkpt lat="48.57215" lon="-3.18809">
        <ele>188</ele>
        <time>2016-06-06T09:17:17.1Z</time>
      </trkpt>
      <trkpt lat="48.57216" lon="-3.18808">
        <ele>188</ele>
        <time>2016-06-06T09:17:19.1Z</time>
      </trkpt>
      <trkpt lat="48.57217" lon="-3.18808">
        <ele>188</ele>
        <time>2016-06-06T09:17:22.1Z</time>
      </trkpt>
      <trkpt lat="48.57217" lon="-3.18808">
        <ele>189</ele>
        <time>2016-06-06T09:17:24.1Z</time>
      </trkpt>
      <trkpt lat="48.57218" lon="-3.18809">
        <ele>188</ele>
        <time>2016-06-06T09:17:26.1Z</time>
      </trkpt>
      <trkpt lat="48.57219" lon="-3.1881">
        <ele>188</ele>
        <time>2016-06-06T09:17:29.1Z</time>
      </trkpt>
      <trkpt lat="48.57219" lon="-3.1881">
        <ele>188</ele>
        <time>2016-06-06T09:17:32.1Z</time>
      </trkpt>
      <trkpt lat="48.57218" lon="-3.18811">
        <ele>188</ele>
        <time>2016-06-06T09:17:35.1Z</time>
      </trkpt>
      <trkpt lat="48.57216" lon="-3.18811">
        <ele>188</ele>
        <time>2016-06-06T09:17:37.1Z</time>
      </trkpt>
      <trkpt lat="48.57213" lon="-3.18811">
        <ele>188</ele>
        <time>2016-06-06T09:17:39.1Z</time>
      </trkpt>
      <trkpt lat="48.57212" lon="-3.1881">
        <ele>188</ele>
        <time>2016-06-06T09:17:41.1Z</time>
      </trkpt>
      <trkpt lat="48.57209" lon="-3.18806">
        <ele>188</ele>
        <time>2016-06-06T09:17:44.1Z</time>
      </trkpt>
      <trkpt lat="48.57207" lon="-3.18803">
        <ele>188</ele>
        <time>2016-06-06T09:17:46.1Z</time>
      </trkpt>
      <trkpt lat="48.57205" lon="-3.18799">
        <ele>188</ele>
        <time>2016-06-06T09:17:49.1Z</time>
      </trkpt>
      <trkpt lat="48.57203" lon="-3.18795">
        <ele>188</ele>
        <time>2016-06-06T09:17:52.1Z</time>
      </trkpt>
      <trkpt lat="48.57201" lon="-3.18791">
        <ele>188</ele>
        <time>2016-06-06T09:17:55.1Z</time>
      </trkpt>
      <trkpt lat="48.572" lon="-3.18787">
        <ele>188</ele>
        <time>2016-06-06T09:17:57.1Z</time>
      </trkpt>
      <trkpt lat="48.57199" lon="-3.18781">
        <ele>188</ele>
        <time>2016-06-06T09:18:00.1Z</time>
      </trkpt>
      <trkpt lat="48.57198" lon="-3.18776">
        <ele>188</ele>
        <time>2016-06-06T09:18:03.1Z</time>
      </trkpt>
      <trkpt lat="48.57198" lon="-3.18772">
        <ele>188</ele>
        <time>2016-06-06T09:18:05.1Z</time>
      </trkpt>
      <trkpt lat="48.57198" lon="-3.18767">
        <ele>188</ele>
        <time>2016-06-06T09:18:08.1Z</time>
      </trkpt>
      <trkpt lat="48.57197" lon="-3.18764">
        <ele>188</ele>
        <time>2016-06-06T09:18:10.1Z</time>
      </trkpt>
      <trkpt lat="48.57199" lon="-3.1876">
        <ele>188</ele>
        <time>2016-06-06T09:18:13.1Z</time>
      </trkpt>
      <trkpt lat="48.57201" lon="-3.18756">
        <ele>188</ele>
        <time>2016-06-06T09:18:16.1Z</time>
      </trkpt>
      <trkpt lat="48.57202" lon="-3.18753">
        <ele>188</ele>
        <time>2016-06-06T09:18:19.1Z</time>
      </trkpt>
      <trkpt lat="48.57204" lon="-3.18751">
        <ele>189</ele>
        <time>2016-06-06T09:18:21.1Z</time>
      </trkpt>
      <trkpt lat="48.57206" lon="-3.1875">
        <ele>189</ele>
        <time>2016-06-06T09:18:23.1Z</time>
      </trkpt>
      <trkpt lat="48.57207" lon="-3.18748">
        <ele>189</ele>
        <time>2016-06-06T09:18:26.1Z</time>
      </trkpt>
      <trkpt lat="48.57208" lon="-3.18747">
        <ele>189</ele>
        <time>2016-06-06T09:18:28.1Z</time>
      </trkpt>
      <trkpt lat="48.57209" lon="-3.18745">
        <ele>188</ele>
        <time>2016-06-06T09:18:31.1Z</time>
      </trkpt>
      <trkpt lat="48.5721" lon="-3.18744">
        <ele>188</ele>
        <time>2016-06-06T09:18:34.1Z</time>
      </trkpt>
      <trkpt lat="48.5721" lon="-3.18745">
        <ele>188</ele>
        <time>2016-06-06T09:18:36.1Z</time>
      </trkpt>
      <trkpt lat="48.5721" lon="-3.18745">
        <ele>188</ele>
        <time>2016-06-06T09:18:39.1Z</time>
      </trkpt>
      <trkpt lat="48.57209" lon="-3.18745">
        <ele>188</ele>
        <time>2016-06-06T09:18:44.1Z</time>
      </trkpt>
      <trkpt lat="48.57209" lon="-3.18745">
        <ele>188</ele>
        <time>2016-06-06T09:18:48.1Z</time>
      </trkpt>
      <trkpt lat="48.57209" lon="-3.18745">
        <ele>188</ele>
        <time>2016-06-06T09:18:50.1Z</time>
      </trkpt>
      <trkpt lat="48.57209" lon="-3.18745">
        <ele>188</ele>
        <time>2016-06-06T09:18:54.1Z</time>
      </trkpt>
      <trkpt lat="48.57209" lon="-3.18745">
        <ele>188</ele>
        <time>2016-06-06T09:18:57.1Z</time>
      </trkpt>
      <trkpt lat="48.57209" lon="-3.18745">
        <ele>188</ele>
        <time>2016-06-06T09:18:59.1Z</time>
      </trkpt>
      <trkpt lat="48.57209" lon="-3.18745">
        <ele>188</ele>
        <time>2016-06-06T09:19:02.1Z</time>
      </trkpt>
      <trkpt lat="48.57209" lon="-3.18745">
        <ele>188</ele>
        <time>2016-06-06T09:19:04.1Z</time>
      </trkpt>
      <trkpt lat="48.57208" lon="-3.18745">
        <ele>189</ele>
        <time>2016-06-06T09:19:07.1Z</time>
      </trkpt>
      <trkpt lat="48.57208" lon="-3.18746">
        <ele>189</ele>
        <time>2016-06-06T09:19:09.1Z</time>
      </trkpt>
      <trkpt lat="48.57207" lon="-3.18746">
        <ele>189</ele>
        <time>2016-06-06T09:19:12.1Z</time>
      </trkpt>
      <trkpt lat="48.57207" lon="-3.18746">
        <ele>189</ele>
        <time>2016-06-06T09:19:15.1Z</time>
      </trkpt>
      <trkpt lat="48.57207" lon="-3.18745">
        <ele>189</ele>
        <time>2016-06-06T09:19:17.1Z</time>
      </trkpt>
      <trkpt lat="48.57207" lon="-3.18744">
        <ele>189</ele>
        <time>2016-06-06T09:19:20.1Z</time>
      </trkpt>
      <trkpt lat="48.57207" lon="-3.18744">
        <ele>189</ele>
        <time>2016-06-06T09:19:22.1Z</time>
      </trkpt>
      <trkpt lat="48.57206" lon="-3.18743">
        <ele>189</ele>
        <time>2016-06-06T09:19:25.1Z</time>
      </trkpt>
      <trkpt lat="48.57206" lon="-3.18743">
        <ele>189</ele>
        <time>2016-06-06T09:19:27.1Z</time>
      </trkpt>
      <trkpt lat="48.57206" lon="-3.18742">
        <ele>189</ele>
        <time>2016-06-06T09:19:30.1Z</time>
      </trkpt>
      <trkpt lat="48.57205" lon="-3.18742">
        <ele>189</ele>
        <time>2016-06-06T09:19:32.1Z</time>
      </trkpt>
      <trkpt lat="48.57205" lon="-3.18742">
        <ele>189</ele>
        <time>2016-06-06T09:19:35.1Z</time>
      </trkpt>
      <trkpt lat="48.57205" lon="-3.18742">
        <ele>189</ele>
        <time>2016-06-06T09:19:37.1Z</time>
      </trkpt>
      <trkpt lat="48.57205" lon="-3.18741">
        <ele>189</ele>
        <time>2016-06-06T09:19:39.1Z</time>
      </trkpt>
      <trkpt lat="48.57204" lon="-3.18741">
        <ele>190</ele>
        <time>2016-06-06T09:19:42.1Z</time>
      </trkpt>
      <trkpt lat="48.57204" lon="-3.18741">
        <ele>189</ele>
        <time>2016-06-06T09:19:46.1Z</time>
      </trkpt>
      <trkpt lat="48.57204" lon="-3.18741">
        <ele>189</ele>
        <time>2016-06-06T09:19:49.1Z</time>
      </trkpt>
      <trkpt lat="48.57204" lon="-3.18741">
        <ele>189</ele>
        <time>2016-06-06T09:19:51.1Z</time>
      </trkpt>
      <trkpt lat="48.57204" lon="-3.18741">
        <ele>189</ele>
        <time>2016-06-06T09:19:53.1Z</time>
      </trkpt>
      <trkpt lat="48.57204" lon="-3.1874">
        <ele>189</ele>
        <time>2016-06-06T09:19:56.1Z</time>
      </trkpt>
      <trkpt lat="48.57204" lon="-3.18741">
        <ele>189</ele>
        <time>2016-06-06T09:20:01.1Z</time>
      </trkpt>
      <trkpt lat="48.57204" lon="-3.18741">
        <ele>189</ele>
        <time>2016-06-06T09:20:03.1Z</time>
      </trkpt>
      <trkpt lat="48.57204" lon="-3.1874">
        <ele>189</ele>
        <time>2016-06-06T09:20:05.1Z</time>
      </trkpt>
      <trkpt lat="48.57203" lon="-3.1874">
        <ele>189</ele>
        <time>2016-06-06T09:20:08.1Z</time>
      </trkpt>
      <trkpt lat="48.57203" lon="-3.1874">
        <ele>189</ele>
        <time>2016-06-06T09:20:11.1Z</time>
      </trkpt>
      <trkpt lat="48.57203" lon="-3.18739">
        <ele>189</ele>
        <time>2016-06-06T09:20:14.1Z</time>
      </trkpt>
      <trkpt lat="48.57203" lon="-3.1874">
        <ele>189</ele>
        <time>2016-06-06T09:20:16.1Z</time>
      </trkpt>
      <trkpt lat="48.57203" lon="-3.1874">
        <ele>189</ele>
        <time>2016-06-06T09:20:18.1Z</time>
      </trkpt>
      <trkpt lat="48.57203" lon="-3.1874">
        <ele>189</ele>
        <time>2016-06-06T09:20:22.1Z</time>
      </trkpt>
      <trkpt lat="48.57203" lon="-3.18739">
        <ele>189</ele>
        <time>2016-06-06T09:20:25.1Z</time>
      </trkpt>
      <trkpt lat="48.57203" lon="-3.18739">
        <ele>189</ele>
        <time>2016-06-06T09:20:27.1Z</time>
      </trkpt>
      <trkpt lat="48.57202" lon="-3.1874">
        <ele>189</ele>
        <time>2016-06-06T09:20:31.1Z</time>
      </trkpt>
      <trkpt lat="48.57202" lon="-3.18739">
        <ele>189</ele>
        <time>2016-06-06T09:20:34.1Z</time>
      </trkpt>
      <trkpt lat="48.57202" lon="-3.18739">
        <ele>189</ele>
        <time>2016-06-06T09:20:37.1Z</time>
      </trkpt>
      <trkpt lat="48.57202" lon="-3.18739">
        <ele>189</ele>
        <time>2016-06-06T09:20:42.1Z</time>
      </trkpt>
      <trkpt lat="48.57202" lon="-3.18739">
        <ele>189</ele>
        <time>2016-06-06T09:20:44.1Z</time>
      </trkpt>
      <trkpt lat="48.57202" lon="-3.18739">
        <ele>189</ele>
        <time>2016-06-06T09:20:47.1Z</time>
      </trkpt>
      <trkpt lat="48.57202" lon="-3.18739">
        <ele>189</ele>
        <time>2016-06-06T09:20:49.1Z</time>
      </trkpt>
      <trkpt lat="48.57202" lon="-3.18739">
        <ele>189</ele>
        <time>2016-06-06T09:20:52.1Z</time>
      </trkpt>
      <trkpt lat="48.57201" lon="-3.1874">
        <ele>189</ele>
        <time>2016-06-06T09:20:54.1Z</time>
      </trkpt>
      <trkpt lat="48.57201" lon="-3.1874">
        <ele>189</ele>
        <time>2016-06-06T09:20:58.1Z</time>
      </trkpt>
      <trkpt lat="48.57201" lon="-3.1874">
        <ele>189</ele>
        <time>2016-06-06T09:21:04.1Z</time>
      </trkpt>
      <trkpt lat="48.57201" lon="-3.18741">
        <ele>189</ele>
        <time>2016-06-06T09:21:06.1Z</time>
      </trkpt>
      <trkpt lat="48.57201" lon="-3.18741">
        <ele>189</ele>
        <time>2016-06-06T09:21:09.1Z</time>
      </trkpt>
      <trkpt lat="48.57201" lon="-3.18741">
        <ele>189</ele>
        <time>2016-06-06T09:21:11.1Z</time>
      </trkpt>
      <trkpt lat="48.57201" lon="-3.18741">
        <ele>189</ele>
        <time>2016-06-06T09:21:13.1Z</time>
      </trkpt>
      <trkpt lat="48.57201" lon="-3.18741">
        <ele>188</ele>
        <time>2016-06-06T09:21:16.1Z</time>
      </trkpt>
      <trkpt lat="48.57201" lon="-3.18743">
        <ele>188</ele>
        <time>2016-06-06T09:21:19.1Z</time>
      </trkpt>
      <trkpt lat="48.57198" lon="-3.18745">
        <ele>189</ele>
        <time>2016-06-06T09:21:22.1Z</time>
      </trkpt>
      <trkpt lat="48.57196" lon="-3.18747">
        <ele>189</ele>
        <time>2016-06-06T09:21:24.1Z</time>
      </trkpt>
      <trkpt lat="48.57193" lon="-3.18749">
        <ele>188</ele>
        <time>2016-06-06T09:21:27.1Z</time>
      </trkpt>
      <trkpt lat="48.57193" lon="-3.18754">
        <ele>188</ele>
        <time>2016-06-06T09:21:30.1Z</time>
      </trkpt>
      <trkpt lat="48.57192" lon="-3.18757">
        <ele>188</ele>
        <time>2016-06-06T09:21:33.1Z</time>
      </trkpt>
      <trkpt lat="48.5719" lon="-3.18761">
        <ele>188</ele>
        <time>2016-06-06T09:21:36.1Z</time>
      </trkpt>
      <trkpt lat="48.57189" lon="-3.18766">
        <ele>189</ele>
        <time>2016-06-06T09:21:38.1Z</time>
      </trkpt>
      <trkpt lat="48.57188" lon="-3.18769">
        <ele>188</ele>
        <time>2016-06-06T09:21:41.1Z</time>
      </trkpt>
      <trkpt lat="48.57188" lon="-3.18774">
        <ele>188</ele>
        <time>2016-06-06T09:21:43.1Z</time>
      </trkpt>
      <trkpt lat="48.57188" lon="-3.18777">
        <ele>188</ele>
        <time>2016-06-06T09:21:45.1Z</time>
      </trkpt>
      <trkpt lat="48.57188" lon="-3.18781">
        <ele>188</ele>
        <time>2016-06-06T09:21:47.1Z</time>
      </trkpt>
      <trkpt lat="48.5719" lon="-3.18787">
        <ele>187</ele>
        <time>2016-06-06T09:21:50.1Z</time>
      </trkpt>
      <trkpt lat="48.57191" lon="-3.18791">
        <ele>187</ele>
        <time>2016-06-06T09:21:52.1Z</time>
      </trkpt>
      <trkpt lat="48.57192" lon="-3.18794">
        <ele>187</ele>
        <time>2016-06-06T09:21:54.1Z</time>
      </trkpt>
      <trkpt lat="48.57195" lon="-3.18798">
        <ele>187</ele>
        <time>2016-06-06T09:21:57.1Z</time>
      </trkpt>
      <trkpt lat="48.57197" lon="-3.18804">
        <ele>187</ele>
        <time>2016-06-06T09:22:00.1Z</time>
      </trkpt>
      <trkpt lat="48.57198" lon="-3.18807">
        <ele>187</ele>
        <time>2016-06-06T09:22:02.1Z</time>
      </trkpt>
      <trkpt lat="48.572" lon="-3.1881">
        <ele>187</ele>
        <time>2016-06-06T09:22:04.1Z</time>
      </trkpt>
      <trkpt lat="48.57201" lon="-3.18812">
        <ele>187</ele>
        <time>2016-06-06T09:22:06.1Z</time>
      </trkpt>
      <trkpt lat="48.57202" lon="-3.18814">
        <ele>187</ele>
        <time>2016-06-06T09:22:09.1Z</time>
      </trkpt>
      <trkpt lat="48.57203" lon="-3.18816">
        <ele>187</ele>
        <time>2016-06-06T09:22:12.1Z</time>
      </trkpt>
      <trkpt lat="48.57206" lon="-3.18819">
        <ele>187</ele>
        <time>2016-06-06T09:22:15.1Z</time>
      </trkpt>
      <trkpt lat="48.57208" lon="-3.1882">
        <ele>187</ele>
        <time>2016-06-06T09:22:18.1Z</time>
      </trkpt>
      <trkpt lat="48.57209" lon="-3.18822">
        <ele>187</ele>
        <time>2016-06-06T09:22:20.1Z</time>
      </trkpt>
      <trkpt lat="48.57212" lon="-3.18826">
        <ele>187</ele>
        <time>2016-06-06T09:22:23.1Z</time>
      </trkpt>
      <trkpt lat="48.57212" lon="-3.18829">
        <ele>188</ele>
        <time>2016-06-06T09:22:25.1Z</time>
      </trkpt>
      <trkpt lat="48.57212" lon="-3.18829">
        <ele>188</ele>
        <time>2016-06-06T09:22:28.1Z</time>
      </trkpt>
      <trkpt lat="48.57212" lon="-3.18829">
        <ele>188</ele>
        <time>2016-06-06T09:22:31.1Z</time>
      </trkpt>
      <trkpt lat="48.57213" lon="-3.18829">
        <ele>188</ele>
        <time>2016-06-06T09:22:34.1Z</time>
      </trkpt>
      <trkpt lat="48.57212" lon="-3.18829">
        <ele>188</ele>
        <time>2016-06-06T09:22:36.1Z</time>
      </trkpt>
      <trkpt lat="48.57212" lon="-3.18829">
        <ele>188</ele>
        <time>2016-06-06T09:22:38.1Z</time>
      </trkpt>
      <trkpt lat="48.57212" lon="-3.18828">
        <ele>188</ele>
        <time>2016-06-06T09:22:41.1Z</time>
      </trkpt>
      <trkpt lat="48.57213" lon="-3.18828">
        <ele>188</ele>
        <time>2016-06-06T09:22:43.1Z</time>
      </trkpt>
      <trkpt lat="48.57213" lon="-3.18828">
        <ele>188</ele>
        <time>2016-06-06T09:22:46.1Z</time>
      </trkpt>
      <trkpt lat="48.57214" lon="-3.18828">
        <ele>188</ele>
        <time>2016-06-06T09:22:48.1Z</time>
      </trkpt>
      <trkpt lat="48.57214" lon="-3.18826">
        <ele>188</ele>
        <time>2016-06-06T09:22:51.1Z</time>
      </trkpt>
      <trkpt lat="48.57215" lon="-3.18821">
        <ele>188</ele>
        <time>2016-06-06T09:22:53.1Z</time>
      </trkpt>
      <trkpt lat="48.57214" lon="-3.18819">
        <ele>188</ele>
        <time>2016-06-06T09:22:55.1Z</time>
      </trkpt>
      <trkpt lat="48.57212" lon="-3.18815">
        <ele>188</ele>
        <time>2016-06-06T09:22:58.1Z</time>
      </trkpt>
      <trkpt lat="48.57211" lon="-3.18815">
        <ele>187</ele>
        <time>2016-06-06T09:23:00.1Z</time>
      </trkpt>
      <trkpt lat="48.57209" lon="-3.18815">
        <ele>188</ele>
        <time>2016-06-06T09:23:03.1Z</time>
      </trkpt>
      <trkpt lat="48.57207" lon="-3.18815">
        <ele>188</ele>
        <time>2016-06-06T09:23:05.1Z</time>
      </trkpt>
      <trkpt lat="48.57209" lon="-3.18815">
        <ele>187</ele>
        <time>2016-06-06T09:23:07.1Z</time>
      </trkpt>
      <trkpt lat="48.57211" lon="-3.18817">
        <ele>187</ele>
        <time>2016-06-06T09:23:10.1Z</time>
      </trkpt>
      <trkpt lat="48.57214" lon="-3.18818">
        <ele>187</ele>
        <time>2016-06-06T09:23:13.1Z</time>
      </trkpt>
      <trkpt lat="48.57215" lon="-3.1882">
        <ele>187</ele>
        <time>2016-06-06T09:23:15.1Z</time>
      </trkpt>
      <trkpt lat="48.57215" lon="-3.18823">
        <ele>187</ele>
        <time>2016-06-06T09:23:17.1Z</time>
      </trkpt>
      <trkpt lat="48.57214" lon="-3.18826">
        <ele>188</ele>
        <time>2016-06-06T09:23:20.1Z</time>
      </trkpt>
      <trkpt lat="48.57212" lon="-3.18828">
        <ele>187</ele>
        <time>2016-06-06T09:23:22.1Z</time>
      </trkpt>
      <trkpt lat="48.57211" lon="-3.18829">
        <ele>187</ele>
        <time>2016-06-06T09:23:25.1Z</time>
      </trkpt>
      <trkpt lat="48.5721" lon="-3.1883">
        <ele>187</ele>
        <time>2016-06-06T09:23:28.1Z</time>
      </trkpt>
      <trkpt lat="48.57209" lon="-3.18831">
        <ele>187</ele>
        <time>2016-06-06T09:23:30.1Z</time>
      </trkpt>
      <trkpt lat="48.57206" lon="-3.18832">
        <ele>187</ele>
        <time>2016-06-06T09:23:33.1Z</time>
      </trkpt>
      <trkpt lat="48.57205" lon="-3.18832">
        <ele>187</ele>
        <time>2016-06-06T09:23:35.1Z</time>
      </trkpt>
      <trkpt lat="48.57202" lon="-3.18833">
        <ele>187</ele>
        <time>2016-06-06T09:23:37.1Z</time>
      </trkpt>
      <trkpt lat="48.57201" lon="-3.18833">
        <ele>187</ele>
        <time>2016-06-06T09:23:40.1Z</time>
      </trkpt>
      <trkpt lat="48.57198" lon="-3.18834">
        <ele>187</ele>
        <time>2016-06-06T09:23:43.1Z</time>
      </trkpt>
      <trkpt lat="48.57196" lon="-3.18835">
        <ele>187</ele>
        <time>2016-06-06T09:23:45.1Z</time>
      </trkpt>
      <trkpt lat="48.57192" lon="-3.18835">
        <ele>187</ele>
        <time>2016-06-06T09:23:47.1Z</time>
      </trkpt>
      <trkpt lat="48.5719" lon="-3.18835">
        <ele>186</ele>
        <time>2016-06-06T09:23:50.1Z</time>
      </trkpt>
      <trkpt lat="48.57188" lon="-3.18836">
        <ele>186</ele>
        <time>2016-06-06T09:23:52.1Z</time>
      </trkpt>
      <trkpt lat="48.57185" lon="-3.18837">
        <ele>187</ele>
        <time>2016-06-06T09:23:54.1Z</time>
      </trkpt>
      <trkpt lat="48.57182" lon="-3.18837">
        <ele>187</ele>
        <time>2016-06-06T09:23:57.1Z</time>
      </trkpt>
      <trkpt lat="48.57179" lon="-3.18838">
        <ele>187</ele>
        <time>2016-06-06T09:23:59.1Z</time>
      </trkpt>
      <trkpt lat="48.57177" lon="-3.18839">
        <ele>187</ele>
        <time>2016-06-06T09:24:03.1Z</time>
      </trkpt>
      <trkpt lat="48.57174" lon="-3.1884">
        <ele>186</ele>
        <time>2016-06-06T09:24:05.1Z</time>
      </trkpt>
      <trkpt lat="48.57171" lon="-3.1884">
        <ele>186</ele>
        <time>2016-06-06T09:24:07.1Z</time>
      </trkpt>
      <trkpt lat="48.57169" lon="-3.18841">
        <ele>186</ele>
        <time>2016-06-06T09:24:10.1Z</time>
      </trkpt>
      <trkpt lat="48.57165" lon="-3.18842">
        <ele>186</ele>
        <time>2016-06-06T09:24:12.1Z</time>
      </trkpt>
      <trkpt lat="48.57164" lon="-3.18843">
        <ele>186</ele>
        <time>2016-06-06T09:24:15.1Z</time>
      </trkpt>
      <trkpt lat="48.57161" lon="-3.18844">
        <ele>186</ele>
        <time>2016-06-06T09:24:18.1Z</time>
      </trkpt>
      <trkpt lat="48.57157" lon="-3.18846">
        <ele>186</ele>
        <time>2016-06-06T09:24:20.1Z</time>
      </trkpt>
      <trkpt lat="48.57155" lon="-3.18847">
        <ele>185</ele>
        <time>2016-06-06T09:24:23.1Z</time>
      </trkpt>
      <trkpt lat="48.57153" lon="-3.18848">
        <ele>185</ele>
        <time>2016-06-06T09:24:25.1Z</time>
      </trkpt>
      <trkpt lat="48.57149" lon="-3.18849">
        <ele>185</ele>
        <time>2016-06-06T09:24:27.1Z</time>
      </trkpt>
      <trkpt lat="48.57147" lon="-3.1885">
        <ele>185</ele>
        <time>2016-06-06T09:24:30.1Z</time>
      </trkpt>
      <trkpt lat="48.57144" lon="-3.18852">
        <ele>185</ele>
        <time>2016-06-06T09:24:32.1Z</time>
      </trkpt>
      <trkpt lat="48.57142" lon="-3.18853">
        <ele>185</ele>
        <time>2016-06-06T09:24:35.1Z</time>
      </trkpt>
      <trkpt lat="48.5714" lon="-3.18853">
        <ele>185</ele>
        <time>2016-06-06T09:24:37.1Z</time>
      </trkpt>
      <trkpt lat="48.57138" lon="-3.18854">
        <ele>185</ele>
        <time>2016-06-06T09:24:40.1Z</time>
      </trkpt>
      <trkpt lat="48.57133" lon="-3.18855">
        <ele>185</ele>
        <time>2016-06-06T09:24:42.1Z</time>
      </trkpt>
      <trkpt lat="48.5713" lon="-3.18855">
        <ele>184</ele>
        <time>2016-06-06T09:24:45.1Z</time>
      </trkpt>
      <trkpt lat="48.57129" lon="-3.18856">
        <ele>184</ele>
        <time>2016-06-06T09:24:47.1Z</time>
      </trkpt>
      <trkpt lat="48.57126" lon="-3.18857">
        <ele>184</ele>
        <time>2016-06-06T09:24:49.1Z</time>
      </trkpt>
      <trkpt lat="48.57124" lon="-3.18857">
        <ele>184</ele>
        <time>2016-06-06T09:24:52.1Z</time>
      </trkpt>
      <trkpt lat="48.57121" lon="-3.18856">
        <ele>184</ele>
        <time>2016-06-06T09:24:54.1Z</time>
      </trkpt>
      <trkpt lat="48.57116" lon="-3.18856">
        <ele>183</ele>
        <time>2016-06-06T09:24:57.1Z</time>
      </trkpt>
      <trkpt lat="48.57114" lon="-3.18855">
        <ele>183</ele>
        <time>2016-06-06T09:24:59.1Z</time>
      </trkpt>
      <trkpt lat="48.57112" lon="-3.18854">
        <ele>183</ele>
        <time>2016-06-06T09:25:01.1Z</time>
      </trkpt>
      <trkpt lat="48.5711" lon="-3.18852">
        <ele>183</ele>
        <time>2016-06-06T09:25:03.1Z</time>
      </trkpt>
      <trkpt lat="48.57109" lon="-3.18851">
        <ele>183</ele>
        <time>2016-06-06T09:25:05.1Z</time>
      </trkpt>
      <trkpt lat="48.57106" lon="-3.18848">
        <ele>182</ele>
        <time>2016-06-06T09:25:07.1Z</time>
      </trkpt>
      <trkpt lat="48.57104" lon="-3.18846">
        <ele>182</ele>
        <time>2016-06-06T09:25:09.1Z</time>
      </trkpt>
      <trkpt lat="48.57103" lon="-3.18843">
        <ele>182</ele>
        <time>2016-06-06T09:25:11.1Z</time>
      </trkpt>
      <trkpt lat="48.57102" lon="-3.18839">
        <ele>182</ele>
        <time>2016-06-06T09:25:15.1Z</time>
      </trkpt>
      <trkpt lat="48.57101" lon="-3.18836">
        <ele>182</ele>
        <time>2016-06-06T09:25:17.1Z</time>
      </trkpt>
      <trkpt lat="48.57101" lon="-3.18833">
        <ele>182</ele>
        <time>2016-06-06T09:25:20.1Z</time>
      </trkpt>
      <trkpt lat="48.57101" lon="-3.1883">
        <ele>182</ele>
        <time>2016-06-06T09:25:22.1Z</time>
      </trkpt>
      <trkpt lat="48.57101" lon="-3.18825">
        <ele>182</ele>
        <time>2016-06-06T09:25:24.1Z</time>
      </trkpt>
      <trkpt lat="48.57101" lon="-3.18822">
        <ele>181</ele>
        <time>2016-06-06T09:25:27.1Z</time>
      </trkpt>
      <trkpt lat="48.57102" lon="-3.18817">
        <ele>181</ele>
        <time>2016-06-06T09:25:29.1Z</time>
      </trkpt>
      <trkpt lat="48.57102" lon="-3.18813">
        <ele>181</ele>
        <time>2016-06-06T09:25:33.1Z</time>
      </trkpt>
      <trkpt lat="48.57101" lon="-3.1881">
        <ele>181</ele>
        <time>2016-06-06T09:25:35.1Z</time>
      </trkpt>
      <trkpt lat="48.57101" lon="-3.18805">
        <ele>180</ele>
        <time>2016-06-06T09:25:37.1Z</time>
      </trkpt>
      <trkpt lat="48.57101" lon="-3.188">
        <ele>180</ele>
        <time>2016-06-06T09:25:40.1Z</time>
      </trkpt>
      <trkpt lat="48.57101" lon="-3.18795">
        <ele>179</ele>
        <time>2016-06-06T09:25:44.1Z</time>
      </trkpt>
      <trkpt lat="48.57101" lon="-3.1879">
        <ele>179</ele>
        <time>2016-06-06T09:25:47.1Z</time>
      </trkpt>
      <trkpt lat="48.57102" lon="-3.18786">
        <ele>179</ele>
        <time>2016-06-06T09:25:50.1Z</time>
      </trkpt>
      <trkpt lat="48.57103" lon="-3.18779">
        <ele>179</ele>
        <time>2016-06-06T09:25:53.1Z</time>
      </trkpt>
      <trkpt lat="48.57103" lon="-3.18775">
        <ele>179</ele>
        <time>2016-06-06T09:25:55.1Z</time>
      </trkpt>
      <trkpt lat="48.57104" lon="-3.18772">
        <ele>178</ele>
        <time>2016-06-06T09:25:58.1Z</time>
      </trkpt>
      <trkpt lat="48.57105" lon="-3.18767">
        <ele>178</ele>
        <time>2016-06-06T09:26:01.1Z</time>
      </trkpt>
      <trkpt lat="48.57106" lon="-3.18763">
        <ele>178</ele>
        <time>2016-06-06T09:26:04.1Z</time>
      </trkpt>
      <trkpt lat="48.57106" lon="-3.1876">
        <ele>177</ele>
        <time>2016-06-06T09:26:06.1Z</time>
      </trkpt>
      <trkpt lat="48.57106" lon="-3.18758">
        <ele>177</ele>
        <time>2016-06-06T09:26:08.1Z</time>
      </trkpt>
      <trkpt lat="48.57105" lon="-3.18754">
        <ele>177</ele>
        <time>2016-06-06T09:26:11.1Z</time>
      </trkpt>
      <trkpt lat="48.57104" lon="-3.1875">
        <ele>177</ele>
        <time>2016-06-06T09:26:14.1Z</time>
      </trkpt>
      <trkpt lat="48.57103" lon="-3.18745">
        <ele>177</ele>
        <time>2016-06-06T09:26:16.1Z</time>
      </trkpt>
      <trkpt lat="48.57101" lon="-3.1874">
        <ele>176</ele>
        <time>2016-06-06T09:26:19.1Z</time>
      </trkpt>
      <trkpt lat="48.57099" lon="-3.18737">
        <ele>176</ele>
        <time>2016-06-06T09:26:21.1Z</time>
      </trkpt>
      <trkpt lat="48.57097" lon="-3.18731">
        <ele>175</ele>
        <time>2016-06-06T09:26:25.1Z</time>
      </trkpt>
      <trkpt lat="48.57095" lon="-3.18726">
        <ele>175</ele>
        <time>2016-06-06T09:26:27.1Z</time>
      </trkpt>
      <trkpt lat="48.57094" lon="-3.18722">
        <ele>175</ele>
        <time>2016-06-06T09:26:30.1Z</time>
      </trkpt>
      <trkpt lat="48.57093" lon="-3.18717">
        <ele>175</ele>
        <time>2016-06-06T09:26:32.1Z</time>
      </trkpt>
      <trkpt lat="48.57092" lon="-3.18712">
        <ele>174</ele>
        <time>2016-06-06T09:26:36.1Z</time>
      </trkpt>
      <trkpt lat="48.5709" lon="-3.18709">
        <ele>174</ele>
        <time>2016-06-06T09:26:38.1Z</time>
      </trkpt>
      <trkpt lat="48.57088" lon="-3.18704">
        <ele>174</ele>
        <time>2016-06-06T09:26:40.1Z</time>
      </trkpt>
      <trkpt lat="48.57087" lon="-3.18701">
        <ele>174</ele>
        <time>2016-06-06T09:26:44.1Z</time>
      </trkpt>
      <trkpt lat="48.57087" lon="-3.18697">
        <ele>174</ele>
        <time>2016-06-06T09:26:46.1Z</time>
      </trkpt>
      <trkpt lat="48.57085" lon="-3.18691">
        <ele>173</ele>
        <time>2016-06-06T09:26:49.1Z</time>
      </trkpt>
      <trkpt lat="48.57085" lon="-3.18687">
        <ele>173</ele>
        <time>2016-06-06T09:26:51.1Z</time>
      </trkpt>
      <trkpt lat="48.57085" lon="-3.18683">
        <ele>173</ele>
        <time>2016-06-06T09:26:53.1Z</time>
      </trkpt>
      <trkpt lat="48.57086" lon="-3.18678">
        <ele>172</ele>
        <time>2016-06-06T09:26:56.1Z</time>
      </trkpt>
      <trkpt lat="48.57087" lon="-3.18672">
        <ele>172</ele>
        <time>2016-06-06T09:26:59.1Z</time>
      </trkpt>
      <trkpt lat="48.57087" lon="-3.18669">
        <ele>172</ele>
        <time>2016-06-06T09:27:01.1Z</time>
      </trkpt>
      <trkpt lat="48.57088" lon="-3.18664">
        <ele>171</ele>
        <time>2016-06-06T09:27:03.1Z</time>
      </trkpt>
      <trkpt lat="48.57088" lon="-3.18659">
        <ele>171</ele>
        <time>2016-06-06T09:27:06.1Z</time>
      </trkpt>
      <trkpt lat="48.57088" lon="-3.18655">
        <ele>171</ele>
        <time>2016-06-06T09:27:09.1Z</time>
      </trkpt>
      <trkpt lat="48.57089" lon="-3.18649">
        <ele>170</ele>
        <time>2016-06-06T09:27:12.1Z</time>
      </trkpt>
      <trkpt lat="48.57089" lon="-3.18642">
        <ele>170</ele>
        <time>2016-06-06T09:27:14.1Z</time>
      </trkpt>
      <trkpt lat="48.57089" lon="-3.18637">
        <ele>170</ele>
        <time>2016-06-06T09:27:17.1Z</time>
      </trkpt>
      <trkpt lat="48.57088" lon="-3.18633">
        <ele>170</ele>
        <time>2016-06-06T09:27:19.1Z</time>
      </trkpt>
      <trkpt lat="48.57088" lon="-3.18629">
        <ele>170</ele>
        <time>2016-06-06T09:27:22.1Z</time>
      </trkpt>
      <trkpt lat="48.57087" lon="-3.18624">
        <ele>170</ele>
        <time>2016-06-06T09:27:25.1Z</time>
      </trkpt>
      <trkpt lat="48.57086" lon="-3.1862">
        <ele>169</ele>
        <time>2016-06-06T09:27:27.1Z</time>
      </trkpt>
      <trkpt lat="48.57085" lon="-3.18614">
        <ele>169</ele>
        <time>2016-06-06T09:27:29.1Z</time>
      </trkpt>
      <trkpt lat="48.57086" lon="-3.1861">
        <ele>169</ele>
        <time>2016-06-06T09:27:31.1Z</time>
      </trkpt>
      <trkpt lat="48.57086" lon="-3.18606">
        <ele>168</ele>
        <time>2016-06-06T09:27:34.1Z</time>
      </trkpt>
      <trkpt lat="48.57086" lon="-3.18602">
        <ele>168</ele>
        <time>2016-06-06T09:27:37.1Z</time>
      </trkpt>
      <trkpt lat="48.57087" lon="-3.18597">
        <ele>168</ele>
        <time>2016-06-06T09:27:39.1Z</time>
      </trkpt>
      <trkpt lat="48.57088" lon="-3.18593">
        <ele>168</ele>
        <time>2016-06-06T09:27:42.1Z</time>
      </trkpt>
      <trkpt lat="48.57088" lon="-3.18588">
        <ele>167</ele>
        <time>2016-06-06T09:27:46.1Z</time>
      </trkpt>
      <trkpt lat="48.57088" lon="-3.18582">
        <ele>167</ele>
        <time>2016-06-06T09:27:48.1Z</time>
      </trkpt>
      <trkpt lat="48.57089" lon="-3.18579">
        <ele>167</ele>
        <time>2016-06-06T09:27:50.1Z</time>
      </trkpt>
      <trkpt lat="48.57089" lon="-3.18573">
        <ele>166</ele>
        <time>2016-06-06T09:27:54.1Z</time>
      </trkpt>
      <trkpt lat="48.57088" lon="-3.1857">
        <ele>166</ele>
        <time>2016-06-06T09:27:56.1Z</time>
      </trkpt>
      <trkpt lat="48.57088" lon="-3.18564">
        <ele>166</ele>
        <time>2016-06-06T09:27:58.1Z</time>
      </trkpt>
      <trkpt lat="48.57087" lon="-3.18558">
        <ele>166</ele>
        <time>2016-06-06T09:28:02.1Z</time>
      </trkpt>
      <trkpt lat="48.57088" lon="-3.18552">
        <ele>165</ele>
        <time>2016-06-06T09:28:04.1Z</time>
      </trkpt>
      <trkpt lat="48.57088" lon="-3.18548">
        <ele>165</ele>
        <time>2016-06-06T09:28:08.1Z</time>
      </trkpt>
      <trkpt lat="48.57087" lon="-3.18544">
        <ele>166</ele>
        <time>2016-06-06T09:28:10.1Z</time>
      </trkpt>
      <trkpt lat="48.57087" lon="-3.18538">
        <ele>166</ele>
        <time>2016-06-06T09:28:14.1Z</time>
      </trkpt>
      <trkpt lat="48.57087" lon="-3.18533">
        <ele>165</ele>
        <time>2016-06-06T09:28:16.1Z</time>
      </trkpt>
      <trkpt lat="48.57087" lon="-3.1853">
        <ele>165</ele>
        <time>2016-06-06T09:28:18.1Z</time>
      </trkpt>
      <trkpt lat="48.57087" lon="-3.18526">
        <ele>164</ele>
        <time>2016-06-06T09:28:20.1Z</time>
      </trkpt>
      <trkpt lat="48.57087" lon="-3.18522">
        <ele>164</ele>
        <time>2016-06-06T09:28:23.1Z</time>
      </trkpt>
      <trkpt lat="48.57087" lon="-3.1852">
        <ele>163</ele>
        <time>2016-06-06T09:28:26.1Z</time>
      </trkpt>
      <trkpt lat="48.57088" lon="-3.18516">
        <ele>163</ele>
        <time>2016-06-06T09:28:29.1Z</time>
      </trkpt>
      <trkpt lat="48.57088" lon="-3.18511">
        <ele>163</ele>
        <time>2016-06-06T09:28:31.1Z</time>
      </trkpt>
      <trkpt lat="48.57088" lon="-3.18506">
        <ele>163</ele>
        <time>2016-06-06T09:28:34.1Z</time>
      </trkpt>
      <trkpt lat="48.57088" lon="-3.18502">
        <ele>162</ele>
        <time>2016-06-06T09:28:36.1Z</time>
      </trkpt>
      <trkpt lat="48.57087" lon="-3.18496">
        <ele>162</ele>
        <time>2016-06-06T09:28:40.1Z</time>
      </trkpt>
      <trkpt lat="48.57087" lon="-3.18491">
        <ele>162</ele>
        <time>2016-06-06T09:28:42.1Z</time>
      </trkpt>
      <trkpt lat="48.57086" lon="-3.18486">
        <ele>161</ele>
        <time>2016-06-06T09:28:44.1Z</time>
      </trkpt>
      <trkpt lat="48.57086" lon="-3.18482">
        <ele>161</ele>
        <time>2016-06-06T09:28:46.1Z</time>
      </trkpt>
      <trkpt lat="48.57085" lon="-3.18477">
        <ele>161</ele>
        <time>2016-06-06T09:28:48.1Z</time>
      </trkpt>
      <trkpt lat="48.57085" lon="-3.18472">
        <ele>161</ele>
        <time>2016-06-06T09:28:52.1Z</time>
      </trkpt>
      <trkpt lat="48.57085" lon="-3.18468">
        <ele>160</ele>
        <time>2016-06-06T09:28:54.1Z</time>
      </trkpt>
      <trkpt lat="48.57085" lon="-3.18463">
        <ele>160</ele>
        <time>2016-06-06T09:28:56.1Z</time>
      </trkpt>
      <trkpt lat="48.57084" lon="-3.18458">
        <ele>160</ele>
        <time>2016-06-06T09:28:59.1Z</time>
      </trkpt>
      <trkpt lat="48.57083" lon="-3.18454">
        <ele>160</ele>
        <time>2016-06-06T09:29:02.1Z</time>
      </trkpt>
      <trkpt lat="48.57083" lon="-3.18449">
        <ele>160</ele>
        <time>2016-06-06T09:29:04.1Z</time>
      </trkpt>
      <trkpt lat="48.57081" lon="-3.18445">
        <ele>159</ele>
        <time>2016-06-06T09:29:07.1Z</time>
      </trkpt>
      <trkpt lat="48.5708" lon="-3.1844">
        <ele>159</ele>
        <time>2016-06-06T09:29:10.1Z</time>
      </trkpt>
      <trkpt lat="48.57079" lon="-3.18436">
        <ele>158</ele>
        <time>2016-06-06T09:29:13.1Z</time>
      </trkpt>
      <trkpt lat="48.57078" lon="-3.18431">
        <ele>158</ele>
        <time>2016-06-06T09:29:15.1Z</time>
      </trkpt>
      <trkpt lat="48.57077" lon="-3.18426">
        <ele>158</ele>
        <time>2016-06-06T09:29:18.1Z</time>
      </trkpt>
      <trkpt lat="48.57077" lon="-3.18423">
        <ele>158</ele>
        <time>2016-06-06T09:29:21.1Z</time>
      </trkpt>
      <trkpt lat="48.57076" lon="-3.18417">
        <ele>157</ele>
        <time>2016-06-06T09:29:24.1Z</time>
      </trkpt>
      <trkpt lat="48.57075" lon="-3.18412">
        <ele>157</ele>
        <time>2016-06-06T09:29:26.1Z</time>
      </trkpt>
      <trkpt lat="48.57074" lon="-3.1841">
        <ele>157</ele>
        <time>2016-06-06T09:29:29.1Z</time>
      </trkpt>
      <trkpt lat="48.57073" lon="-3.18407">
        <ele>156</ele>
        <time>2016-06-06T09:29:31.1Z</time>
      </trkpt>
      <trkpt lat="48.57073" lon="-3.18405">
        <ele>156</ele>
        <time>2016-06-06T09:29:34.1Z</time>
      </trkpt>
      <trkpt lat="48.57073" lon="-3.18403">
        <ele>156</ele>
        <time>2016-06-06T09:29:36.1Z</time>
      </trkpt>
      <trkpt lat="48.57073" lon="-3.18402">
        <ele>156</ele>
        <time>2016-06-06T09:29:38.1Z</time>
      </trkpt>
      <trkpt lat="48.57073" lon="-3.18402">
        <ele>156</ele>
        <time>2016-06-06T09:29:40.1Z</time>
      </trkpt>
      <trkpt lat="48.57074" lon="-3.184">
        <ele>156</ele>
        <time>2016-06-06T09:29:44.1Z</time>
      </trkpt>
      <trkpt lat="48.57075" lon="-3.184">
        <ele>156</ele>
        <time>2016-06-06T09:29:46.1Z</time>
      </trkpt>
      <trkpt lat="48.57074" lon="-3.184">
        <ele>156</ele>
        <time>2016-06-06T09:29:48.1Z</time>
      </trkpt>
      <trkpt lat="48.57073" lon="-3.18397">
        <ele>156</ele>
        <time>2016-06-06T09:29:51.1Z</time>
      </trkpt>
      <trkpt lat="48.57072" lon="-3.18394">
        <ele>156</ele>
        <time>2016-06-06T09:29:54.1Z</time>
      </trkpt>
      <trkpt lat="48.5707" lon="-3.18392">
        <ele>156</ele>
        <time>2016-06-06T09:29:56.1Z</time>
      </trkpt>
      <trkpt lat="48.5707" lon="-3.18392">
        <ele>156</ele>
        <time>2016-06-06T09:29:59.1Z</time>
      </trkpt>
      <trkpt lat="48.57069" lon="-3.18391">
        <ele>156</ele>
        <time>2016-06-06T09:30:01.1Z</time>
      </trkpt>
      <trkpt lat="48.57068" lon="-3.18391">
        <ele>156</ele>
        <time>2016-06-06T09:30:04.1Z</time>
      </trkpt>
      <trkpt lat="48.57067" lon="-3.1839">
        <ele>156</ele>
        <time>2016-06-06T09:30:06.1Z</time>
      </trkpt>
      <trkpt lat="48.57066" lon="-3.18388">
        <ele>155</ele>
        <time>2016-06-06T09:30:08.1Z</time>
      </trkpt>
      <trkpt lat="48.57064" lon="-3.18385">
        <ele>155</ele>
        <time>2016-06-06T09:30:11.1Z</time>
      </trkpt>
      <trkpt lat="48.57063" lon="-3.18383">
        <ele>155</ele>
        <time>2016-06-06T09:30:13.1Z</time>
      </trkpt>
      <trkpt lat="48.5706" lon="-3.18378">
        <ele>155</ele>
        <time>2016-06-06T09:30:16.1Z</time>
      </trkpt>
      <trkpt lat="48.57057" lon="-3.18373">
        <ele>155</ele>
        <time>2016-06-06T09:30:19.1Z</time>
      </trkpt>
      <trkpt lat="48.57056" lon="-3.18369">
        <ele>155</ele>
        <time>2016-06-06T09:30:21.1Z</time>
      </trkpt>
      <trkpt lat="48.57054" lon="-3.18365">
        <ele>154</ele>
        <time>2016-06-06T09:30:24.1Z</time>
      </trkpt>
      <trkpt lat="48.57053" lon="-3.18362">
        <ele>154</ele>
        <time>2016-06-06T09:30:27.1Z</time>
      </trkpt>
      <trkpt lat="48.57053" lon="-3.18359">
        <ele>154</ele>
        <time>2016-06-06T09:30:29.1Z</time>
      </trkpt>
      <trkpt lat="48.57052" lon="-3.18357">
        <ele>154</ele>
        <time>2016-06-06T09:30:32.1Z</time>
      </trkpt>
      <trkpt lat="48.57049" lon="-3.18354">
        <ele>154</ele>
        <time>2016-06-06T09:30:34.1Z</time>
      </trkpt>
      <trkpt lat="48.57048" lon="-3.18352">
        <ele>153</ele>
        <time>2016-06-06T09:30:36.1Z</time>
      </trkpt>
      <trkpt lat="48.57046" lon="-3.18349">
        <ele>153</ele>
        <time>2016-06-06T09:30:39.1Z</time>
      </trkpt>
      <trkpt lat="48.57043" lon="-3.18344">
        <ele>153</ele>
        <time>2016-06-06T09:30:42.1Z</time>
      </trkpt>
      <trkpt lat="48.57038" lon="-3.18339">
        <ele>153</ele>
        <time>2016-06-06T09:30:45.1Z</time>
      </trkpt>
      <trkpt lat="48.57036" lon="-3.18337">
        <ele>152</ele>
        <time>2016-06-06T09:30:47.1Z</time>
      </trkpt>
      <trkpt lat="48.57034" lon="-3.18332">
        <ele>153</ele>
        <time>2016-06-06T09:30:50.1Z</time>
      </trkpt>
      <trkpt lat="48.5703" lon="-3.18328">
        <ele>153</ele>
        <time>2016-06-06T09:30:53.1Z</time>
      </trkpt>
      <trkpt lat="48.57028" lon="-3.18325">
        <ele>153</ele>
        <time>2016-06-06T09:30:55.1Z</time>
      </trkpt>
      <trkpt lat="48.57026" lon="-3.18322">
        <ele>152</ele>
        <time>2016-06-06T09:30:58.1Z</time>
      </trkpt>
      <trkpt lat="48.57023" lon="-3.18317">
        <ele>152</ele>
        <time>2016-06-06T09:31:00.1Z</time>
      </trkpt>
      <trkpt lat="48.5702" lon="-3.18313">
        <ele>152</ele>
        <time>2016-06-06T09:31:03.1Z</time>
      </trkpt>
      <trkpt lat="48.57017" lon="-3.1831">
        <ele>152</ele>
        <time>2016-06-06T09:31:06.1Z</time>
      </trkpt>
      <trkpt lat="48.57015" lon="-3.18308">
        <ele>152</ele>
        <time>2016-06-06T09:31:08.1Z</time>
      </trkpt>
      <trkpt lat="48.57014" lon="-3.18305">
        <ele>152</ele>
        <time>2016-06-06T09:31:10.1Z</time>
      </trkpt>
      <trkpt lat="48.57011" lon="-3.183">
        <ele>152</ele>
        <time>2016-06-06T09:31:14.1Z</time>
      </trkpt>
      <trkpt lat="48.57008" lon="-3.18295">
        <ele>152</ele>
        <time>2016-06-06T09:31:16.1Z</time>
      </trkpt>
      <trkpt lat="48.57007" lon="-3.18293">
        <ele>152</ele>
        <time>2016-06-06T09:31:19.1Z</time>
      </trkpt>
      <trkpt lat="48.57006" lon="-3.18292">
        <ele>152</ele>
        <time>2016-06-06T09:31:21.1Z</time>
      </trkpt>
      <trkpt lat="48.57006" lon="-3.18291">
        <ele>151</ele>
        <time>2016-06-06T09:31:23.1Z</time>
      </trkpt>
      <trkpt lat="48.57006" lon="-3.18291">
        <ele>151</ele>
        <time>2016-06-06T09:31:27.1Z</time>
      </trkpt>
      <trkpt lat="48.57005" lon="-3.18289">
        <ele>152</ele>
        <time>2016-06-06T09:31:29.1Z</time>
      </trkpt>
      <trkpt lat="48.57004" lon="-3.18288">
        <ele>152</ele>
        <time>2016-06-06T09:31:31.1Z</time>
      </trkpt>
      <trkpt lat="48.57004" lon="-3.18288">
        <ele>152</ele>
        <time>2016-06-06T09:31:34.1Z</time>
      </trkpt>
      <trkpt lat="48.57003" lon="-3.18288">
        <ele>152</ele>
        <time>2016-06-06T09:31:37.1Z</time>
      </trkpt>
      <trkpt lat="48.57003" lon="-3.18287">
        <ele>152</ele>
        <time>2016-06-06T09:31:39.1Z</time>
      </trkpt>
      <trkpt lat="48.57003" lon="-3.18287">
        <ele>152</ele>
        <time>2016-06-06T09:31:42.1Z</time>
      </trkpt>
      <trkpt lat="48.57003" lon="-3.18286">
        <ele>152</ele>
        <time>2016-06-06T09:31:45.1Z</time>
      </trkpt>
      <trkpt lat="48.57002" lon="-3.18285">
        <ele>152</ele>
        <time>2016-06-06T09:31:47.1Z</time>
      </trkpt>
      <trkpt lat="48.57001" lon="-3.18284">
        <ele>152</ele>
        <time>2016-06-06T09:31:50.1Z</time>
      </trkpt>
      <trkpt lat="48.57001" lon="-3.18284">
        <ele>152</ele>
        <time>2016-06-06T09:31:52.1Z</time>
      </trkpt>
      <trkpt lat="48.57" lon="-3.18284">
        <ele>152</ele>
        <time>2016-06-06T09:31:55.1Z</time>
      </trkpt>
      <trkpt lat="48.57" lon="-3.18284">
        <ele>152</ele>
        <time>2016-06-06T09:31:58.1Z</time>
      </trkpt>
      <trkpt lat="48.57" lon="-3.18285">
        <ele>152</ele>
        <time>2016-06-06T09:32:00.1Z</time>
      </trkpt>
      <trkpt lat="48.57001" lon="-3.18286">
        <ele>152</ele>
        <time>2016-06-06T09:32:03.1Z</time>
      </trkpt>
      <trkpt lat="48.57002" lon="-3.18286">
        <ele>152</ele>
        <time>2016-06-06T09:32:05.1Z</time>
      </trkpt>
      <trkpt lat="48.57003" lon="-3.18288">
        <ele>152</ele>
        <time>2016-06-06T09:32:08.1Z</time>
      </trkpt>
      <trkpt lat="48.57004" lon="-3.18289">
        <ele>152</ele>
        <time>2016-06-06T09:32:10.1Z</time>
      </trkpt>
      <trkpt lat="48.57005" lon="-3.1829">
        <ele>152</ele>
        <time>2016-06-06T09:32:13.1Z</time>
      </trkpt>
      <trkpt lat="48.57006" lon="-3.1829">
        <ele>151</ele>
        <time>2016-06-06T09:32:15.1Z</time>
      </trkpt>
      <trkpt lat="48.57007" lon="-3.18291">
        <ele>151</ele>
        <time>2016-06-06T09:32:18.1Z</time>
      </trkpt>
      <trkpt lat="48.57007" lon="-3.1829">
        <ele>152</ele>
        <time>2016-06-06T09:32:21.1Z</time>
      </trkpt>
      <trkpt lat="48.57007" lon="-3.1829">
        <ele>152</ele>
        <time>2016-06-06T09:32:23.1Z</time>
      </trkpt>
      <trkpt lat="48.57005" lon="-3.18286">
        <ele>153</ele>
        <time>2016-06-06T09:32:26.1Z</time>
      </trkpt>
      <trkpt lat="48.57004" lon="-3.18284">
        <ele>153</ele>
        <time>2016-06-06T09:32:29.1Z</time>
      </trkpt>
      <trkpt lat="48.57004" lon="-3.1828">
        <ele>152</ele>
        <time>2016-06-06T09:32:31.1Z</time>
      </trkpt>
      <trkpt lat="48.57004" lon="-3.18277">
        <ele>152</ele>
        <time>2016-06-06T09:32:34.1Z</time>
      </trkpt>
      <trkpt lat="48.57004" lon="-3.18275">
        <ele>152</ele>
        <time>2016-06-06T09:32:37.1Z</time>
      </trkpt>
      <trkpt lat="48.57004" lon="-3.18272">
        <ele>153</ele>
        <time>2016-06-06T09:32:40.1Z</time>
      </trkpt>
      <trkpt lat="48.57004" lon="-3.18269">
        <ele>153</ele>
        <time>2016-06-06T09:32:42.1Z</time>
      </trkpt>
      <trkpt lat="48.57004" lon="-3.18265">
        <ele>153</ele>
        <time>2016-06-06T09:32:45.1Z</time>
      </trkpt>
      <trkpt lat="48.57003" lon="-3.18262">
        <ele>153</ele>
        <time>2016-06-06T09:32:48.1Z</time>
      </trkpt>
      <trkpt lat="48.57003" lon="-3.18257">
        <ele>153</ele>
        <time>2016-06-06T09:32:50.1Z</time>
      </trkpt>
      <trkpt lat="48.57003" lon="-3.18254">
        <ele>153</ele>
        <time>2016-06-06T09:32:52.1Z</time>
      </trkpt>
      <trkpt lat="48.57002" lon="-3.18249">
        <ele>153</ele>
        <time>2016-06-06T09:32:55.1Z</time>
      </trkpt>
      <trkpt lat="48.57001" lon="-3.18245">
        <ele>153</ele>
        <time>2016-06-06T09:32:58.1Z</time>
      </trkpt>
      <trkpt lat="48.57" lon="-3.18242">
        <ele>153</ele>
        <time>2016-06-06T09:33:01.1Z</time>
      </trkpt>
      <trkpt lat="48.56999" lon="-3.1824">
        <ele>153</ele>
        <time>2016-06-06T09:33:04.1Z</time>
      </trkpt>
      <trkpt lat="48.56999" lon="-3.18235">
        <ele>153</ele>
        <time>2016-06-06T09:33:06.1Z</time>
      </trkpt>
      <trkpt lat="48.56998" lon="-3.18231">
        <ele>153</ele>
        <time>2016-06-06T09:33:09.1Z</time>
      </trkpt>
      <trkpt lat="48.56997" lon="-3.18225">
        <ele>153</ele>
        <time>2016-06-06T09:33:12.1Z</time>
      </trkpt>
      <trkpt lat="48.56995" lon="-3.1822">
        <ele>153</ele>
        <time>2016-06-06T09:33:15.1Z</time>
      </trkpt>
      <trkpt lat="48.56995" lon="-3.18215">
        <ele>154</ele>
        <time>2016-06-06T09:33:18.1Z</time>
      </trkpt>
      <trkpt lat="48.56994" lon="-3.18212">
        <ele>153</ele>
        <time>2016-06-06T09:33:21.1Z</time>
      </trkpt>
      <trkpt lat="48.56993" lon="-3.18208">
        <ele>153</ele>
        <time>2016-06-06T09:33:23.1Z</time>
      </trkpt>
      <trkpt lat="48.56993" lon="-3.18205">
        <ele>153</ele>
        <time>2016-06-06T09:33:25.1Z</time>
      </trkpt>
      <trkpt lat="48.56993" lon="-3.18202">
        <ele>153</ele>
        <time>2016-06-06T09:33:27.1Z</time>
      </trkpt>
      <trkpt lat="48.56992" lon="-3.18198">
        <ele>154</ele>
        <time>2016-06-06T09:33:30.1Z</time>
      </trkpt>
      <trkpt lat="48.5699" lon="-3.18194">
        <ele>153</ele>
        <time>2016-06-06T09:33:33.1Z</time>
      </trkpt>
      <trkpt lat="48.56989" lon="-3.1819">
        <ele>154</ele>
        <time>2016-06-06T09:33:36.1Z</time>
      </trkpt>
      <trkpt lat="48.56987" lon="-3.18185">
        <ele>154</ele>
        <time>2016-06-06T09:33:39.1Z</time>
      </trkpt>
      <trkpt lat="48.56988" lon="-3.18181">
        <ele>154</ele>
        <time>2016-06-06T09:33:42.1Z</time>
      </trkpt>
      <trkpt lat="48.56988" lon="-3.18178">
        <ele>154</ele>
        <time>2016-06-06T09:33:44.1Z</time>
      </trkpt>
      <trkpt lat="48.56988" lon="-3.18174">
        <ele>154</ele>
        <time>2016-06-06T09:33:47.1Z</time>
      </trkpt>
      <trkpt lat="48.56988" lon="-3.18171">
        <ele>154</ele>
        <time>2016-06-06T09:33:49.1Z</time>
      </trkpt>
      <trkpt lat="48.56988" lon="-3.18168">
        <ele>154</ele>
        <time>2016-06-06T09:33:52.1Z</time>
      </trkpt>
      <trkpt lat="48.5699" lon="-3.18165">
        <ele>154</ele>
        <time>2016-06-06T09:33:54.1Z</time>
      </trkpt>
      <trkpt lat="48.56992" lon="-3.18161">
        <ele>154</ele>
        <time>2016-06-06T09:33:57.1Z</time>
      </trkpt>
      <trkpt lat="48.56993" lon="-3.18158">
        <ele>155</ele>
        <time>2016-06-06T09:33:59.1Z</time>
      </trkpt>
      <trkpt lat="48.56995" lon="-3.18157">
        <ele>155</ele>
        <time>2016-06-06T09:34:01.1Z</time>
      </trkpt>
      <trkpt lat="48.56997" lon="-3.18155">
        <ele>155</ele>
        <time>2016-06-06T09:34:04.1Z</time>
      </trkpt>
      <trkpt lat="48.56998" lon="-3.18152">
        <ele>155</ele>
        <time>2016-06-06T09:34:07.1Z</time>
      </trkpt>
      <trkpt lat="48.57" lon="-3.1815">
        <ele>155</ele>
        <time>2016-06-06T09:34:10.1Z</time>
      </trkpt>
      <trkpt lat="48.57001" lon="-3.18148">
        <ele>155</ele>
        <time>2016-06-06T09:34:12.1Z</time>
      </trkpt>
      <trkpt lat="48.57004" lon="-3.18144">
        <ele>155</ele>
        <time>2016-06-06T09:34:15.1Z</time>
      </trkpt>
      <trkpt lat="48.57006" lon="-3.18141">
        <ele>155</ele>
        <time>2016-06-06T09:34:18.1Z</time>
      </trkpt>
      <trkpt lat="48.57008" lon="-3.18137">
        <ele>155</ele>
        <time>2016-06-06T09:34:21.1Z</time>
      </trkpt>
      <trkpt lat="48.57011" lon="-3.18133">
        <ele>155</ele>
        <time>2016-06-06T09:34:23.1Z</time>
      </trkpt>
      <trkpt lat="48.57013" lon="-3.18129">
        <ele>155</ele>
        <time>2016-06-06T09:34:25.1Z</time>
      </trkpt>
      <trkpt lat="48.57015" lon="-3.18124">
        <ele>155</ele>
        <time>2016-06-06T09:34:28.1Z</time>
      </trkpt>
      <trkpt lat="48.57017" lon="-3.18119">
        <ele>156</ele>
        <time>2016-06-06T09:34:31.1Z</time>
      </trkpt>
      <trkpt lat="48.57018" lon="-3.18116">
        <ele>156</ele>
        <time>2016-06-06T09:34:33.1Z</time>
      </trkpt>
      <trkpt lat="48.5702" lon="-3.18111">
        <ele>156</ele>
        <time>2016-06-06T09:34:36.1Z</time>
      </trkpt>
      <trkpt lat="48.57021" lon="-3.18107">
        <ele>156</ele>
        <time>2016-06-06T09:34:39.1Z</time>
      </trkpt>
      <trkpt lat="48.57021" lon="-3.18101">
        <ele>156</ele>
        <time>2016-06-06T09:34:42.1Z</time>
      </trkpt>
      <trkpt lat="48.57022" lon="-3.18098">
        <ele>156</ele>
        <time>2016-06-06T09:34:44.1Z</time>
      </trkpt>
      <trkpt lat="48.57022" lon="-3.18096">
        <ele>157</ele>
        <time>2016-06-06T09:34:47.1Z</time>
      </trkpt>
      <trkpt lat="48.57021" lon="-3.18091">
        <ele>156</ele>
        <time>2016-06-06T09:34:49.1Z</time>
      </trkpt>
      <trkpt lat="48.5702" lon="-3.18088">
        <ele>156</ele>
        <time>2016-06-06T09:34:51.1Z</time>
      </trkpt>
      <trkpt lat="48.57019" lon="-3.18085">
        <ele>156</ele>
        <time>2016-06-06T09:34:53.1Z</time>
      </trkpt>
      <trkpt lat="48.57018" lon="-3.18081">
        <ele>156</ele>
        <time>2016-06-06T09:34:56.1Z</time>
      </trkpt>
      <trkpt lat="48.57016" lon="-3.18079">
        <ele>156</ele>
        <time>2016-06-06T09:34:58.1Z</time>
      </trkpt>
      <trkpt lat="48.57015" lon="-3.18075">
        <ele>156</ele>
        <time>2016-06-06T09:35:01.1Z</time>
      </trkpt>
      <trkpt lat="48.57013" lon="-3.18072">
        <ele>156</ele>
        <time>2016-06-06T09:35:04.1Z</time>
      </trkpt>
      <trkpt lat="48.57012" lon="-3.1807">
        <ele>156</ele>
        <time>2016-06-06T09:35:06.1Z</time>
      </trkpt>
      <trkpt lat="48.5701" lon="-3.18067">
        <ele>157</ele>
        <time>2016-06-06T09:35:09.1Z</time>
      </trkpt>
      <trkpt lat="48.57009" lon="-3.18064">
        <ele>157</ele>
        <time>2016-06-06T09:35:11.1Z</time>
      </trkpt>
      <trkpt lat="48.57007" lon="-3.18061">
        <ele>157</ele>
        <time>2016-06-06T09:35:14.1Z</time>
      </trkpt>
      <trkpt lat="48.57004" lon="-3.18056">
        <ele>157</ele>
        <time>2016-06-06T09:35:16.1Z</time>
      </trkpt>
      <trkpt lat="48.57001" lon="-3.18052">
        <ele>157</ele>
        <time>2016-06-06T09:35:19.1Z</time>
      </trkpt>
      <trkpt lat="48.56998" lon="-3.18048">
        <ele>158</ele>
        <time>2016-06-06T09:35:22.1Z</time>
      </trkpt>
      <trkpt lat="48.56996" lon="-3.18045">
        <ele>158</ele>
        <time>2016-06-06T09:35:25.1Z</time>
      </trkpt>
      <trkpt lat="48.56993" lon="-3.18043">
        <ele>158</ele>
        <time>2016-06-06T09:35:27.1Z</time>
      </trkpt>
      <trkpt lat="48.5699" lon="-3.18039">
        <ele>157</ele>
        <time>2016-06-06T09:35:30.1Z</time>
      </trkpt>
      <trkpt lat="48.56988" lon="-3.18037">
        <ele>157</ele>
        <time>2016-06-06T09:35:32.1Z</time>
      </trkpt>
      <trkpt lat="48.56986" lon="-3.18035">
        <ele>158</ele>
        <time>2016-06-06T09:35:35.1Z</time>
      </trkpt>
      <trkpt lat="48.56984" lon="-3.18033">
        <ele>158</ele>
        <time>2016-06-06T09:35:37.1Z</time>
      </trkpt>
      <trkpt lat="48.56982" lon="-3.18031">
        <ele>158</ele>
        <time>2016-06-06T09:35:39.1Z</time>
      </trkpt>
      <trkpt lat="48.56981" lon="-3.1803">
        <ele>159</ele>
        <time>2016-06-06T09:35:41.1Z</time>
      </trkpt>
      <trkpt lat="48.56977" lon="-3.18027">
        <ele>158</ele>
        <time>2016-06-06T09:35:44.1Z</time>
      </trkpt>
      <trkpt lat="48.56976" lon="-3.18026">
        <ele>158</ele>
        <time>2016-06-06T09:35:46.1Z</time>
      </trkpt>
      <trkpt lat="48.56973" lon="-3.18024">
        <ele>158</ele>
        <time>2016-06-06T09:35:49.1Z</time>
      </trkpt>
      <trkpt lat="48.56971" lon="-3.18023">
        <ele>158</ele>
        <time>2016-06-06T09:35:51.1Z</time>
      </trkpt>
      <trkpt lat="48.56967" lon="-3.18021">
        <ele>159</ele>
        <time>2016-06-06T09:35:54.1Z</time>
      </trkpt>
      <trkpt lat="48.56964" lon="-3.1802">
        <ele>159</ele>
        <time>2016-06-06T09:35:56.1Z</time>
      </trkpt>
      <trkpt lat="48.56962" lon="-3.1802">
        <ele>159</ele>
        <time>2016-06-06T09:35:58.1Z</time>
      </trkpt>
      <trkpt lat="48.56959" lon="-3.18019">
        <ele>159</ele>
        <time>2016-06-06T09:36:00.1Z</time>
      </trkpt>
      <trkpt lat="48.56955" lon="-3.18017">
        <ele>159</ele>
        <time>2016-06-06T09:36:03.1Z</time>
      </trkpt>
      <trkpt lat="48.56953" lon="-3.18017">
        <ele>159</ele>
        <time>2016-06-06T09:36:05.1Z</time>
      </trkpt>
      <trkpt lat="48.56949" lon="-3.18016">
        <ele>160</ele>
        <time>2016-06-06T09:36:08.1Z</time>
      </trkpt>
      <trkpt lat="48.56945" lon="-3.18015">
        <ele>160</ele>
        <time>2016-06-06T09:36:11.1Z</time>
      </trkpt>
      <trkpt lat="48.56943" lon="-3.18015">
        <ele>160</ele>
        <time>2016-06-06T09:36:13.1Z</time>
      </trkpt>
      <trkpt lat="48.56941" lon="-3.18015">
        <ele>160</ele>
        <time>2016-06-06T09:36:15.1Z</time>
      </trkpt>
      <trkpt lat="48.56938" lon="-3.18015">
        <ele>160</ele>
        <time>2016-06-06T09:36:17.1Z</time>
      </trkpt>
      <trkpt lat="48.56936" lon="-3.18015">
        <ele>160</ele>
        <time>2016-06-06T09:36:19.1Z</time>
      </trkpt>
      <trkpt lat="48.56933" lon="-3.18015">
        <ele>161</ele>
        <time>2016-06-06T09:36:22.1Z</time>
      </trkpt>
      <trkpt lat="48.56929" lon="-3.18016">
        <ele>161</ele>
        <time>2016-06-06T09:36:24.1Z</time>
      </trkpt>
      <trkpt lat="48.56925" lon="-3.18016">
        <ele>161</ele>
        <time>2016-06-06T09:36:27.1Z</time>
      </trkpt>
      <trkpt lat="48.56921" lon="-3.18017">
        <ele>161</ele>
        <time>2016-06-06T09:36:30.1Z</time>
      </trkpt>
      <trkpt lat="48.56919" lon="-3.18018">
        <ele>161</ele>
        <time>2016-06-06T09:36:32.1Z</time>
      </trkpt>
      <trkpt lat="48.56916" lon="-3.1802">
        <ele>161</ele>
        <time>2016-06-06T09:36:34.1Z</time>
      </trkpt>
      <trkpt lat="48.56914" lon="-3.1802">
        <ele>161</ele>
        <time>2016-06-06T09:36:36.1Z</time>
      </trkpt>
      <trkpt lat="48.56911" lon="-3.18021">
        <ele>161</ele>
        <time>2016-06-06T09:36:39.1Z</time>
      </trkpt>
      <trkpt lat="48.56909" lon="-3.18022">
        <ele>161</ele>
        <time>2016-06-06T09:36:41.1Z</time>
      </trkpt>
      <trkpt lat="48.56906" lon="-3.18022">
        <ele>161</ele>
        <time>2016-06-06T09:36:44.1Z</time>
      </trkpt>
      <trkpt lat="48.56903" lon="-3.18023">
        <ele>161</ele>
        <time>2016-06-06T09:36:47.1Z</time>
      </trkpt>
      <trkpt lat="48.569" lon="-3.18024">
        <ele>161</ele>
        <time>2016-06-06T09:36:50.1Z</time>
      </trkpt>
      <trkpt lat="48.56897" lon="-3.18025">
        <ele>161</ele>
        <time>2016-06-06T09:36:52.1Z</time>
      </trkpt>
      <trkpt lat="48.56895" lon="-3.18025">
        <ele>161</ele>
        <time>2016-06-06T09:36:54.1Z</time>
      </trkpt>
      <trkpt lat="48.56892" lon="-3.18026">
        <ele>161</ele>
        <time>2016-06-06T09:36:57.1Z</time>
      </trkpt>
      <trkpt lat="48.5689" lon="-3.18026">
        <ele>161</ele>
        <time>2016-06-06T09:36:59.1Z</time>
      </trkpt>
      <trkpt lat="48.56889" lon="-3.18025">
        <ele>162</ele>
        <time>2016-06-06T09:37:02.1Z</time>
      </trkpt>
      <trkpt lat="48.56887" lon="-3.18024">
        <ele>162</ele>
        <time>2016-06-06T09:37:04.1Z</time>
      </trkpt>
      <trkpt lat="48.56887" lon="-3.18022">
        <ele>162</ele>
        <time>2016-06-06T09:37:07.1Z</time>
      </trkpt>
      <trkpt lat="48.56888" lon="-3.18021">
        <ele>161</ele>
        <time>2016-06-06T09:37:10.1Z</time>
      </trkpt>
      <trkpt lat="48.56889" lon="-3.18021">
        <ele>161</ele>
        <time>2016-06-06T09:37:12.1Z</time>
      </trkpt>
      <trkpt lat="48.56889" lon="-3.18021">
        <ele>160</ele>
        <time>2016-06-06T09:37:15.1Z</time>
      </trkpt>
      <trkpt lat="48.56891" lon="-3.1802">
        <ele>160</ele>
        <time>2016-06-06T09:37:17.1Z</time>
      </trkpt>
      <trkpt lat="48.56893" lon="-3.1802">
        <ele>159</ele>
        <time>2016-06-06T09:37:19.1Z</time>
      </trkpt>
      <trkpt lat="48.56895" lon="-3.18018">
        <ele>159</ele>
        <time>2016-06-06T09:37:22.1Z</time>
      </trkpt>
      <trkpt lat="48.56897" lon="-3.18017">
        <ele>158</ele>
        <time>2016-06-06T09:37:25.1Z</time>
      </trkpt>
      <trkpt lat="48.56899" lon="-3.18017">
        <ele>158</ele>
        <time>2016-06-06T09:37:27.1Z</time>
      </trkpt>
      <trkpt lat="48.569" lon="-3.18017">
        <ele>158</ele>
        <time>2016-06-06T09:37:30.1Z</time>
      </trkpt>
      <trkpt lat="48.56902" lon="-3.18016">
        <ele>158</ele>
        <time>2016-06-06T09:37:32.1Z</time>
      </trkpt>
      <trkpt lat="48.56905" lon="-3.18015">
        <ele>158</ele>
        <time>2016-06-06T09:37:35.1Z</time>
      </trkpt>
      <trkpt lat="48.56906" lon="-3.18014">
        <ele>157</ele>
        <time>2016-06-06T09:37:38.1Z</time>
      </trkpt>
      <trkpt lat="48.56909" lon="-3.18012">
        <ele>157</ele>
        <time>2016-06-06T09:37:41.1Z</time>
      </trkpt>
      <trkpt lat="48.5691" lon="-3.1801">
        <ele>157</ele>
        <time>2016-06-06T09:37:43.1Z</time>
      </trkpt>
      <trkpt lat="48.56912" lon="-3.18009">
        <ele>157</ele>
        <time>2016-06-06T09:37:45.1Z</time>
      </trkpt>
      <trkpt lat="48.56915" lon="-3.18008">
        <ele>156</ele>
        <time>2016-06-06T09:37:47.1Z</time>
      </trkpt>
      <trkpt lat="48.56917" lon="-3.18005">
        <ele>157</ele>
        <time>2016-06-06T09:37:49.1Z</time>
      </trkpt>
      <trkpt lat="48.56919" lon="-3.18004">
        <ele>156</ele>
        <time>2016-06-06T09:37:51.1Z</time>
      </trkpt>
      <trkpt lat="48.56922" lon="-3.18002">
        <ele>156</ele>
        <time>2016-06-06T09:37:54.1Z</time>
      </trkpt>
      <trkpt lat="48.56925" lon="-3.18001">
        <ele>156</ele>
        <time>2016-06-06T09:37:57.1Z</time>
      </trkpt>
      <trkpt lat="48.56929" lon="-3.17999">
        <ele>155</ele>
        <time>2016-06-06T09:38:00.1Z</time>
      </trkpt>
      <trkpt lat="48.56931" lon="-3.17997">
        <ele>155</ele>
        <time>2016-06-06T09:38:02.1Z</time>
      </trkpt>
      <trkpt lat="48.56934" lon="-3.17996">
        <ele>154</ele>
        <time>2016-06-06T09:38:04.1Z</time>
      </trkpt>
      <trkpt lat="48.56936" lon="-3.17994">
        <ele>154</ele>
        <time>2016-06-06T09:38:07.1Z</time>
      </trkpt>
      <trkpt lat="48.56939" lon="-3.17992">
        <ele>154</ele>
        <time>2016-06-06T09:38:10.1Z</time>
      </trkpt>
      <trkpt lat="48.56941" lon="-3.17991">
        <ele>154</ele>
        <time>2016-06-06T09:38:12.1Z</time>
      </trkpt>
      <trkpt lat="48.56943" lon="-3.1799">
        <ele>153</ele>
        <time>2016-06-06T09:38:14.1Z</time>
      </trkpt>
      <trkpt lat="48.56945" lon="-3.1799">
        <ele>153</ele>
        <time>2016-06-06T09:38:17.1Z</time>
      </trkpt>
      <trkpt lat="48.56947" lon="-3.17989">
        <ele>153</ele>
        <time>2016-06-06T09:38:19.1Z</time>
      </trkpt>
      <trkpt lat="48.56949" lon="-3.17988">
        <ele>152</ele>
        <time>2016-06-06T09:38:21.1Z</time>
      </trkpt>
      <trkpt lat="48.56952" lon="-3.17986">
        <ele>152</ele>
        <time>2016-06-06T09:38:24.1Z</time>
      </trkpt>
      <trkpt lat="48.56955" lon="-3.17985">
        <ele>152</ele>
        <time>2016-06-06T09:38:27.1Z</time>
      </trkpt>
      <trkpt lat="48.56957" lon="-3.17985">
        <ele>152</ele>
        <time>2016-06-06T09:38:29.1Z</time>
      </trkpt>
      <trkpt lat="48.56959" lon="-3.17984">
        <ele>152</ele>
        <time>2016-06-06T09:38:32.1Z</time>
      </trkpt>
      <trkpt lat="48.56961" lon="-3.17983">
        <ele>151</ele>
        <time>2016-06-06T09:38:34.1Z</time>
      </trkpt>
      <trkpt lat="48.56963" lon="-3.17983">
        <ele>151</ele>
        <time>2016-06-06T09:38:36.1Z</time>
      </trkpt>
      <trkpt lat="48.56966" lon="-3.17981">
        <ele>151</ele>
        <time>2016-06-06T09:38:39.1Z</time>
      </trkpt>
      <trkpt lat="48.5697" lon="-3.17979">
        <ele>151</ele>
        <time>2016-06-06T09:38:42.1Z</time>
      </trkpt>
      <trkpt lat="48.56974" lon="-3.17978">
        <ele>151</ele>
        <time>2016-06-06T09:38:45.1Z</time>
      </trkpt>
      <trkpt lat="48.56976" lon="-3.17977">
        <ele>151</ele>
        <time>2016-06-06T09:38:48.1Z</time>
      </trkpt>
      <trkpt lat="48.56977" lon="-3.17976">
        <ele>151</ele>
        <time>2016-06-06T09:38:50.1Z</time>
      </trkpt>
      <trkpt lat="48.5698" lon="-3.17974">
        <ele>151</ele>
        <time>2016-06-06T09:38:53.1Z</time>
      </trkpt>
      <trkpt lat="48.56982" lon="-3.17972">
        <ele>151</ele>
        <time>2016-06-06T09:38:55.1Z</time>
      </trkpt>
      <trkpt lat="48.56985" lon="-3.1797">
        <ele>150</ele>
        <time>2016-06-06T09:38:58.1Z</time>
      </trkpt>
      <trkpt lat="48.56987" lon="-3.1797">
        <ele>150</ele>
        <time>2016-06-06T09:39:00.1Z</time>
      </trkpt>
      <trkpt lat="48.5699" lon="-3.17969">
        <ele>150</ele>
        <time>2016-06-06T09:39:02.1Z</time>
      </trkpt>
      <trkpt lat="48.56993" lon="-3.17969">
        <ele>149</ele>
        <time>2016-06-06T09:39:04.1Z</time>
      </trkpt>
      <trkpt lat="48.56997" lon="-3.17967">
        <ele>149</ele>
        <time>2016-06-06T09:39:07.1Z</time>
      </trkpt>
      <trkpt lat="48.57001" lon="-3.17967">
        <ele>149</ele>
        <time>2016-06-06T09:39:10.1Z</time>
      </trkpt>
      <trkpt lat="48.57004" lon="-3.17966">
        <ele>149</ele>
        <time>2016-06-06T09:39:13.1Z</time>
      </trkpt>
      <trkpt lat="48.57007" lon="-3.17965">
        <ele>148</ele>
        <time>2016-06-06T09:39:16.1Z</time>
      </trkpt>
      <trkpt lat="48.57011" lon="-3.17964">
        <ele>148</ele>
        <time>2016-06-06T09:39:19.1Z</time>
      </trkpt>
      <trkpt lat="48.57014" lon="-3.17962">
        <ele>148</ele>
        <time>2016-06-06T09:39:22.1Z</time>
      </trkpt>
      <trkpt lat="48.57016" lon="-3.17961">
        <ele>148</ele>
        <time>2016-06-06T09:39:24.1Z</time>
      </trkpt>
      <trkpt lat="48.57019" lon="-3.1796">
        <ele>148</ele>
        <time>2016-06-06T09:39:27.1Z</time>
      </trkpt>
      <trkpt lat="48.57022" lon="-3.1796">
        <ele>148</ele>
        <time>2016-06-06T09:39:29.1Z</time>
      </trkpt>
      <trkpt lat="48.57025" lon="-3.17958">
        <ele>148</ele>
        <time>2016-06-06T09:39:32.1Z</time>
      </trkpt>
      <trkpt lat="48.57028" lon="-3.17958">
        <ele>148</ele>
        <time>2016-06-06T09:39:34.1Z</time>
      </trkpt>
      <trkpt lat="48.57031" lon="-3.17956">
        <ele>147</ele>
        <time>2016-06-06T09:39:37.1Z</time>
      </trkpt>
      <trkpt lat="48.57034" lon="-3.17955">
        <ele>147</ele>
        <time>2016-06-06T09:39:39.1Z</time>
      </trkpt>
      <trkpt lat="48.57037" lon="-3.17953">
        <ele>146</ele>
        <time>2016-06-06T09:39:42.1Z</time>
      </trkpt>
      <trkpt lat="48.57039" lon="-3.17952">
        <ele>146</ele>
        <time>2016-06-06T09:39:44.1Z</time>
      </trkpt>
      <trkpt lat="48.57043" lon="-3.17951">
        <ele>146</ele>
        <time>2016-06-06T09:39:47.1Z</time>
      </trkpt>
      <trkpt lat="48.57045" lon="-3.1795">
        <ele>146</ele>
        <time>2016-06-06T09:39:49.1Z</time>
      </trkpt>
      <trkpt lat="48.57049" lon="-3.17949">
        <ele>146</ele>
        <time>2016-06-06T09:39:52.1Z</time>
      </trkpt>
      <trkpt lat="48.57051" lon="-3.17947">
        <ele>146</ele>
        <time>2016-06-06T09:39:54.1Z</time>
      </trkpt>
      <trkpt lat="48.57055" lon="-3.17947">
        <ele>146</ele>
        <time>2016-06-06T09:39:57.1Z</time>
      </trkpt>
      <trkpt lat="48.57057" lon="-3.17947">
        <ele>146</ele>
        <time>2016-06-06T09:39:59.1Z</time>
      </trkpt>
      <trkpt lat="48.57059" lon="-3.17946">
        <ele>145</ele>
        <time>2016-06-06T09:40:02.1Z</time>
      </trkpt>
      <trkpt lat="48.57061" lon="-3.17945">
        <ele>145</ele>
        <time>2016-06-06T09:40:04.1Z</time>
      </trkpt>
      <trkpt lat="48.57064" lon="-3.17943">
        <ele>145</ele>
        <time>2016-06-06T09:40:07.1Z</time>
      </trkpt>
      <trkpt lat="48.57067" lon="-3.17944">
        <ele>145</ele>
        <time>2016-06-06T09:40:10.1Z</time>
      </trkpt>
      <trkpt lat="48.57069" lon="-3.17943">
        <ele>145</ele>
        <time>2016-06-06T09:40:13.1Z</time>
      </trkpt>
      <trkpt lat="48.57072" lon="-3.17941">
        <ele>145</ele>
        <time>2016-06-06T09:40:16.1Z</time>
      </trkpt>
      <trkpt lat="48.57075" lon="-3.17942">
        <ele>145</ele>
        <time>2016-06-06T09:40:19.1Z</time>
      </trkpt>
      <trkpt lat="48.57078" lon="-3.17942">
        <ele>144</ele>
        <time>2016-06-06T09:40:21.1Z</time>
      </trkpt>
      <trkpt lat="48.57082" lon="-3.17941">
        <ele>144</ele>
        <time>2016-06-06T09:40:24.1Z</time>
      </trkpt>
      <trkpt lat="48.57085" lon="-3.1794">
        <ele>144</ele>
        <time>2016-06-06T09:40:27.1Z</time>
      </trkpt>
      <trkpt lat="48.57087" lon="-3.1794">
        <ele>144</ele>
        <time>2016-06-06T09:40:29.1Z</time>
      </trkpt>
      <trkpt lat="48.57091" lon="-3.17941">
        <ele>144</ele>
        <time>2016-06-06T09:40:32.1Z</time>
      </trkpt>
      <trkpt lat="48.57094" lon="-3.17942">
        <ele>144</ele>
        <time>2016-06-06T09:40:35.1Z</time>
      </trkpt>
      <trkpt lat="48.57095" lon="-3.17942">
        <ele>144</ele>
        <time>2016-06-06T09:40:37.1Z</time>
      </trkpt>
      <trkpt lat="48.57096" lon="-3.17942">
        <ele>144</ele>
        <time>2016-06-06T09:40:39.1Z</time>
      </trkpt>
      <trkpt lat="48.571" lon="-3.17942">
        <ele>144</ele>
        <time>2016-06-06T09:40:42.1Z</time>
      </trkpt>
      <trkpt lat="48.57102" lon="-3.17941">
        <ele>144</ele>
        <time>2016-06-06T09:40:44.1Z</time>
      </trkpt>
      <trkpt lat="48.57105" lon="-3.17941">
        <ele>144</ele>
        <time>2016-06-06T09:40:47.1Z</time>
      </trkpt>
      <trkpt lat="48.57109" lon="-3.1794">
        <ele>144</ele>
        <time>2016-06-06T09:40:50.1Z</time>
      </trkpt>
      <trkpt lat="48.57111" lon="-3.1794">
        <ele>144</ele>
        <time>2016-06-06T09:40:52.1Z</time>
      </trkpt>
      <trkpt lat="48.57114" lon="-3.17942">
        <ele>144</ele>
        <time>2016-06-06T09:40:55.1Z</time>
      </trkpt>
      <trkpt lat="48.57116" lon="-3.17943">
        <ele>144</ele>
        <time>2016-06-06T09:40:57.1Z</time>
      </trkpt>
      <trkpt lat="48.57119" lon="-3.17945">
        <ele>144</ele>
        <time>2016-06-06T09:41:00.1Z</time>
      </trkpt>
      <trkpt lat="48.57121" lon="-3.17946">
        <ele>144</ele>
        <time>2016-06-06T09:41:03.1Z</time>
      </trkpt>
      <trkpt lat="48.57123" lon="-3.17944">
        <ele>145</ele>
        <time>2016-06-06T09:41:06.1Z</time>
      </trkpt>
      <trkpt lat="48.57125" lon="-3.17944">
        <ele>145</ele>
        <time>2016-06-06T09:41:09.1Z</time>
      </trkpt>
      <trkpt lat="48.57127" lon="-3.17946">
        <ele>145</ele>
        <time>2016-06-06T09:41:12.1Z</time>
      </trkpt>
      <trkpt lat="48.57128" lon="-3.17948">
        <ele>145</ele>
        <time>2016-06-06T09:41:14.1Z</time>
      </trkpt>
      <trkpt lat="48.57128" lon="-3.17948">
        <ele>145</ele>
        <time>2016-06-06T09:41:17.1Z</time>
      </trkpt>
      <trkpt lat="48.57128" lon="-3.17949">
        <ele>145</ele>
        <time>2016-06-06T09:41:19.1Z</time>
      </trkpt>
      <trkpt lat="48.57128" lon="-3.17949">
        <ele>145</ele>
        <time>2016-06-06T09:41:22.1Z</time>
      </trkpt>
      <trkpt lat="48.57129" lon="-3.1795">
        <ele>145</ele>
        <time>2016-06-06T09:41:25.1Z</time>
      </trkpt>
      <trkpt lat="48.57129" lon="-3.1795">
        <ele>145</ele>
        <time>2016-06-06T09:41:27.1Z</time>
      </trkpt>
      <trkpt lat="48.5713" lon="-3.17949">
        <ele>145</ele>
        <time>2016-06-06T09:41:30.1Z</time>
      </trkpt>
      <trkpt lat="48.5713" lon="-3.17948">
        <ele>145</ele>
        <time>2016-06-06T09:41:32.1Z</time>
      </trkpt>
      <trkpt lat="48.5713" lon="-3.17947">
        <ele>145</ele>
        <time>2016-06-06T09:41:35.1Z</time>
      </trkpt>
      <trkpt lat="48.57131" lon="-3.17946">
        <ele>145</ele>
        <time>2016-06-06T09:41:37.1Z</time>
      </trkpt>
      <trkpt lat="48.57131" lon="-3.17944">
        <ele>145</ele>
        <time>2016-06-06T09:41:39.1Z</time>
      </trkpt>
      <trkpt lat="48.57131" lon="-3.17941">
        <ele>145</ele>
        <time>2016-06-06T09:41:42.1Z</time>
      </trkpt>
      <trkpt lat="48.57131" lon="-3.1794">
        <ele>145</ele>
        <time>2016-06-06T09:41:44.1Z</time>
      </trkpt>
      <trkpt lat="48.57132" lon="-3.17939">
        <ele>145</ele>
        <time>2016-06-06T09:41:46.1Z</time>
      </trkpt>
      <trkpt lat="48.57135" lon="-3.17936">
        <ele>145</ele>
        <time>2016-06-06T09:41:49.1Z</time>
      </trkpt>
      <trkpt lat="48.57136" lon="-3.17936">
        <ele>145</ele>
        <time>2016-06-06T09:41:51.1Z</time>
      </trkpt>
      <trkpt lat="48.57138" lon="-3.17935">
        <ele>145</ele>
        <time>2016-06-06T09:41:54.1Z</time>
      </trkpt>
      <trkpt lat="48.57141" lon="-3.17934">
        <ele>145</ele>
        <time>2016-06-06T09:41:57.1Z</time>
      </trkpt>
      <trkpt lat="48.57143" lon="-3.17934">
        <ele>145</ele>
        <time>2016-06-06T09:42:00.1Z</time>
      </trkpt>
      <trkpt lat="48.57145" lon="-3.17933">
        <ele>145</ele>
        <time>2016-06-06T09:42:02.1Z</time>
      </trkpt>
      <trkpt lat="48.57147" lon="-3.17933">
        <ele>145</ele>
        <time>2016-06-06T09:42:04.1Z</time>
      </trkpt>
      <trkpt lat="48.5715" lon="-3.17933">
        <ele>145</ele>
        <time>2016-06-06T09:42:07.1Z</time>
      </trkpt>
      <trkpt lat="48.57152" lon="-3.17933">
        <ele>145</ele>
        <time>2016-06-06T09:42:10.1Z</time>
      </trkpt>
      <trkpt lat="48.57153" lon="-3.17934">
        <ele>145</ele>
        <time>2016-06-06T09:42:13.1Z</time>
      </trkpt>
      <trkpt lat="48.57155" lon="-3.17934">
        <ele>145</ele>
        <time>2016-06-06T09:42:15.1Z</time>
      </trkpt>
      <trkpt lat="48.57157" lon="-3.17935">
        <ele>145</ele>
        <time>2016-06-06T09:42:18.1Z</time>
      </trkpt>
      <trkpt lat="48.5716" lon="-3.17936">
        <ele>145</ele>
        <time>2016-06-06T09:42:21.1Z</time>
      </trkpt>
      <trkpt lat="48.57162" lon="-3.17938">
        <ele>146</ele>
        <time>2016-06-06T09:42:24.1Z</time>
      </trkpt>
      <trkpt lat="48.57164" lon="-3.17939">
        <ele>146</ele>
        <time>2016-06-06T09:42:26.1Z</time>
      </trkpt>
      <trkpt lat="48.57166" lon="-3.17941">
        <ele>146</ele>
        <time>2016-06-06T09:42:29.1Z</time>
      </trkpt>
      <trkpt lat="48.57169" lon="-3.17942">
        <ele>146</ele>
        <time>2016-06-06T09:42:32.1Z</time>
      </trkpt>
      <trkpt lat="48.5717" lon="-3.17943">
        <ele>146</ele>
        <time>2016-06-06T09:42:34.1Z</time>
      </trkpt>
      <trkpt lat="48.57172" lon="-3.17944">
        <ele>147</ele>
        <time>2016-06-06T09:42:36.1Z</time>
      </trkpt>
      <trkpt lat="48.57175" lon="-3.17945">
        <ele>147</ele>
        <time>2016-06-06T09:42:38.1Z</time>
      </trkpt>
      <trkpt lat="48.57177" lon="-3.17946">
        <ele>148</ele>
        <time>2016-06-06T09:42:41.1Z</time>
      </trkpt>
      <trkpt lat="48.57179" lon="-3.17946">
        <ele>148</ele>
        <time>2016-06-06T09:42:43.1Z</time>
      </trkpt>
      <trkpt lat="48.57182" lon="-3.17947">
        <ele>148</ele>
        <time>2016-06-06T09:42:46.1Z</time>
      </trkpt>
      <trkpt lat="48.57183" lon="-3.17947">
        <ele>148</ele>
        <time>2016-06-06T09:42:48.1Z</time>
      </trkpt>
      <trkpt lat="48.57186" lon="-3.17949">
        <ele>149</ele>
        <time>2016-06-06T09:42:51.1Z</time>
      </trkpt>
      <trkpt lat="48.57188" lon="-3.17951">
        <ele>149</ele>
        <time>2016-06-06T09:42:54.1Z</time>
      </trkpt>
      <trkpt lat="48.5719" lon="-3.17952">
        <ele>149</ele>
        <time>2016-06-06T09:42:56.1Z</time>
      </trkpt>
      <trkpt lat="48.57193" lon="-3.17954">
        <ele>149</ele>
        <time>2016-06-06T09:42:59.1Z</time>
      </trkpt>
      <trkpt lat="48.57196" lon="-3.17955">
        <ele>150</ele>
        <time>2016-06-06T09:43:02.1Z</time>
      </trkpt>
      <trkpt lat="48.57197" lon="-3.17957">
        <ele>150</ele>
        <time>2016-06-06T09:43:04.1Z</time>
      </trkpt>
      <trkpt lat="48.572" lon="-3.17958">
        <ele>151</ele>
        <time>2016-06-06T09:43:07.1Z</time>
      </trkpt>
      <trkpt lat="48.57203" lon="-3.17959">
        <ele>151</ele>
        <time>2016-06-06T09:43:10.1Z</time>
      </trkpt>
      <trkpt lat="48.57205" lon="-3.1796">
        <ele>151</ele>
        <time>2016-06-06T09:43:12.1Z</time>
      </trkpt>
      <trkpt lat="48.57208" lon="-3.17961">
        <ele>151</ele>
        <time>2016-06-06T09:43:15.1Z</time>
      </trkpt>
      <trkpt lat="48.57211" lon="-3.17962">
        <ele>152</ele>
        <time>2016-06-06T09:43:18.1Z</time>
      </trkpt>
      <trkpt lat="48.57213" lon="-3.17962">
        <ele>152</ele>
        <time>2016-06-06T09:43:20.1Z</time>
      </trkpt>
      <trkpt lat="48.57216" lon="-3.17963">
        <ele>153</ele>
        <time>2016-06-06T09:43:23.1Z</time>
      </trkpt>
      <trkpt lat="48.5722" lon="-3.17963">
        <ele>153</ele>
        <time>2016-06-06T09:43:26.1Z</time>
      </trkpt>
      <trkpt lat="48.57223" lon="-3.17964">
        <ele>153</ele>
        <time>2016-06-06T09:43:29.1Z</time>
      </trkpt>
      <trkpt lat="48.57225" lon="-3.17965">
        <ele>153</ele>
        <time>2016-06-06T09:43:31.1Z</time>
      </trkpt>
      <trkpt lat="48.57228" lon="-3.17966">
        <ele>154</ele>
        <time>2016-06-06T09:43:34.1Z</time>
      </trkpt>
      <trkpt lat="48.57231" lon="-3.17966">
        <ele>154</ele>
        <time>2016-06-06T09:43:37.1Z</time>
      </trkpt>
      <trkpt lat="48.57234" lon="-3.17968">
        <ele>155</ele>
        <time>2016-06-06T09:43:40.1Z</time>
      </trkpt>
      <trkpt lat="48.57237" lon="-3.17969">
        <ele>155</ele>
        <time>2016-06-06T09:43:43.1Z</time>
      </trkpt>
      <trkpt lat="48.5724" lon="-3.17971">
        <ele>155</ele>
        <time>2016-06-06T09:43:46.1Z</time>
      </trkpt>
      <trkpt lat="48.57242" lon="-3.17971">
        <ele>155</ele>
        <time>2016-06-06T09:43:48.1Z</time>
      </trkpt>
      <trkpt lat="48.57245" lon="-3.17972">
        <ele>156</ele>
        <time>2016-06-06T09:43:51.1Z</time>
      </trkpt>
      <trkpt lat="48.57248" lon="-3.17973">
        <ele>156</ele>
        <time>2016-06-06T09:43:54.1Z</time>
      </trkpt>
      <trkpt lat="48.57251" lon="-3.17974">
        <ele>156</ele>
        <time>2016-06-06T09:43:56.1Z</time>
      </trkpt>
      <trkpt lat="48.57254" lon="-3.17975">
        <ele>157</ele>
        <time>2016-06-06T09:43:59.1Z</time>
      </trkpt>
      <trkpt lat="48.57256" lon="-3.17976">
        <ele>157</ele>
        <time>2016-06-06T09:44:01.1Z</time>
      </trkpt>
      <trkpt lat="48.57259" lon="-3.17977">
        <ele>157</ele>
        <time>2016-06-06T09:44:04.1Z</time>
      </trkpt>
      <trkpt lat="48.57261" lon="-3.17978">
        <ele>157</ele>
        <time>2016-06-06T09:44:06.1Z</time>
      </trkpt>
      <trkpt lat="48.57262" lon="-3.17979">
        <ele>158</ele>
        <time>2016-06-06T09:44:08.1Z</time>
      </trkpt>
      <trkpt lat="48.57265" lon="-3.17981">
        <ele>158</ele>
        <time>2016-06-06T09:44:11.1Z</time>
      </trkpt>
      <trkpt lat="48.57268" lon="-3.17983">
        <ele>158</ele>
        <time>2016-06-06T09:44:14.1Z</time>
      </trkpt>
      <trkpt lat="48.5727" lon="-3.17984">
        <ele>159</ele>
        <time>2016-06-06T09:44:17.1Z</time>
      </trkpt>
      <trkpt lat="48.57271" lon="-3.17985">
        <ele>159</ele>
        <time>2016-06-06T09:44:19.1Z</time>
      </trkpt>
      <trkpt lat="48.57274" lon="-3.17986">
        <ele>159</ele>
        <time>2016-06-06T09:44:22.1Z</time>
      </trkpt>
      <trkpt lat="48.57276" lon="-3.17987">
        <ele>159</ele>
        <time>2016-06-06T09:44:24.1Z</time>
      </trkpt>
      <trkpt lat="48.57278" lon="-3.1799">
        <ele>159</ele>
        <time>2016-06-06T09:44:27.1Z</time>
      </trkpt>
      <trkpt lat="48.5728" lon="-3.17991">
        <ele>160</ele>
        <time>2016-06-06T09:44:30.1Z</time>
      </trkpt>
      <trkpt lat="48.57282" lon="-3.17993">
        <ele>160</ele>
        <time>2016-06-06T09:44:32.1Z</time>
      </trkpt>
      <trkpt lat="48.57285" lon="-3.17996">
        <ele>160</ele>
        <time>2016-06-06T09:44:35.1Z</time>
      </trkpt>
      <trkpt lat="48.57287" lon="-3.17998">
        <ele>160</ele>
        <time>2016-06-06T09:44:38.1Z</time>
      </trkpt>
      <trkpt lat="48.57289" lon="-3.17999">
        <ele>160</ele>
        <time>2016-06-06T09:44:41.1Z</time>
      </trkpt>
      <trkpt lat="48.57292" lon="-3.18001">
        <ele>161</ele>
        <time>2016-06-06T09:44:43.1Z</time>
      </trkpt>
      <trkpt lat="48.57293" lon="-3.18003">
        <ele>161</ele>
        <time>2016-06-06T09:44:46.1Z</time>
      </trkpt>
      <trkpt lat="48.57295" lon="-3.18004">
        <ele>162</ele>
        <time>2016-06-06T09:44:49.1Z</time>
      </trkpt>
      <trkpt lat="48.57297" lon="-3.18005">
        <ele>162</ele>
        <time>2016-06-06T09:44:51.1Z</time>
      </trkpt>
      <trkpt lat="48.57299" lon="-3.18006">
        <ele>162</ele>
        <time>2016-06-06T09:44:53.1Z</time>
      </trkpt>
      <trkpt lat="48.57302" lon="-3.18008">
        <ele>162</ele>
        <time>2016-06-06T09:44:56.1Z</time>
      </trkpt>
      <trkpt lat="48.57304" lon="-3.18009">
        <ele>162</ele>
        <time>2016-06-06T09:44:59.1Z</time>
      </trkpt>
      <trkpt lat="48.57306" lon="-3.18011">
        <ele>163</ele>
        <time>2016-06-06T09:45:01.1Z</time>
      </trkpt>
      <trkpt lat="48.57307" lon="-3.18013">
        <ele>163</ele>
        <time>2016-06-06T09:45:03.1Z</time>
      </trkpt>
      <trkpt lat="48.57309" lon="-3.18014">
        <ele>163</ele>
        <time>2016-06-06T09:45:06.1Z</time>
      </trkpt>
      <trkpt lat="48.57312" lon="-3.18017">
        <ele>164</ele>
        <time>2016-06-06T09:45:09.1Z</time>
      </trkpt>
      <trkpt lat="48.57314" lon="-3.1802">
        <ele>164</ele>
        <time>2016-06-06T09:45:12.1Z</time>
      </trkpt>
      <trkpt lat="48.57315" lon="-3.18022">
        <ele>164</ele>
        <time>2016-06-06T09:45:14.1Z</time>
      </trkpt>
      <trkpt lat="48.57317" lon="-3.18023">
        <ele>164</ele>
        <time>2016-06-06T09:45:17.1Z</time>
      </trkpt>
      <trkpt lat="48.57319" lon="-3.18026">
        <ele>165</ele>
        <time>2016-06-06T09:45:20.1Z</time>
      </trkpt>
      <trkpt lat="48.57321" lon="-3.18028">
        <ele>165</ele>
        <time>2016-06-06T09:45:22.1Z</time>
      </trkpt>
      <trkpt lat="48.57323" lon="-3.1803">
        <ele>166</ele>
        <time>2016-06-06T09:45:25.1Z</time>
      </trkpt>
      <trkpt lat="48.57325" lon="-3.18032">
        <ele>166</ele>
        <time>2016-06-06T09:45:28.1Z</time>
      </trkpt>
      <trkpt lat="48.57327" lon="-3.18034">
        <ele>166</ele>
        <time>2016-06-06T09:45:30.1Z</time>
      </trkpt>
      <trkpt lat="48.57329" lon="-3.18036">
        <ele>166</ele>
        <time>2016-06-06T09:45:32.1Z</time>
      </trkpt>
      <trkpt lat="48.5733" lon="-3.18038">
        <ele>166</ele>
        <time>2016-06-06T09:45:34.1Z</time>
      </trkpt>
      <trkpt lat="48.57332" lon="-3.1804">
        <ele>167</ele>
        <time>2016-06-06T09:45:36.1Z</time>
      </trkpt>
      <trkpt lat="48.57333" lon="-3.18042">
        <ele>167</ele>
        <time>2016-06-06T09:45:38.1Z</time>
      </trkpt>
      <trkpt lat="48.57335" lon="-3.18044">
        <ele>167</ele>
        <time>2016-06-06T09:45:41.1Z</time>
      </trkpt>
      <trkpt lat="48.57337" lon="-3.18046">
        <ele>168</ele>
        <time>2016-06-06T09:45:43.1Z</time>
      </trkpt>
      <trkpt lat="48.5734" lon="-3.18048">
        <ele>168</ele>
        <time>2016-06-06T09:45:46.1Z</time>
      </trkpt>
      <trkpt lat="48.57342" lon="-3.1805">
        <ele>169</ele>
        <time>2016-06-06T09:45:49.1Z</time>
      </trkpt>
      <trkpt lat="48.57344" lon="-3.18053">
        <ele>169</ele>
        <time>2016-06-06T09:45:52.1Z</time>
      </trkpt>
      <trkpt lat="48.57346" lon="-3.18055">
        <ele>170</ele>
        <time>2016-06-06T09:45:54.1Z</time>
      </trkpt>
      <trkpt lat="48.57348" lon="-3.18057">
        <ele>170</ele>
        <time>2016-06-06T09:45:57.1Z</time>
      </trkpt>
      <trkpt lat="48.57349" lon="-3.18059">
        <ele>170</ele>
        <time>2016-06-06T09:45:59.1Z</time>
      </trkpt>
      <trkpt lat="48.57352" lon="-3.18061">
        <ele>170</ele>
        <time>2016-06-06T09:46:01.1Z</time>
      </trkpt>
      <trkpt lat="48.57354" lon="-3.18062">
        <ele>171</ele>
        <time>2016-06-06T09:46:04.1Z</time>
      </trkpt>
      <trkpt lat="48.57355" lon="-3.18064">
        <ele>171</ele>
        <time>2016-06-06T09:46:07.1Z</time>
      </trkpt>
      <trkpt lat="48.57357" lon="-3.18065">
        <ele>171</ele>
        <time>2016-06-06T09:46:09.1Z</time>
      </trkpt>
      <trkpt lat="48.57359" lon="-3.18068">
        <ele>172</ele>
        <time>2016-06-06T09:46:12.1Z</time>
      </trkpt>
      <trkpt lat="48.57361" lon="-3.1807">
        <ele>172</ele>
        <time>2016-06-06T09:46:15.1Z</time>
      </trkpt>
      <trkpt lat="48.57362" lon="-3.18072">
        <ele>173</ele>
        <time>2016-06-06T09:46:18.1Z</time>
      </trkpt>
      <trkpt lat="48.57364" lon="-3.18074">
        <ele>173</ele>
        <time>2016-06-06T09:46:20.1Z</time>
      </trkpt>
      <trkpt lat="48.57366" lon="-3.18077">
        <ele>174</ele>
        <time>2016-06-06T09:46:23.1Z</time>
      </trkpt>
      <trkpt lat="48.57367" lon="-3.1808">
        <ele>174</ele>
        <time>2016-06-06T09:46:25.1Z</time>
      </trkpt>
      <trkpt lat="48.57368" lon="-3.18082">
        <ele>175</ele>
        <time>2016-06-06T09:46:28.1Z</time>
      </trkpt>
      <trkpt lat="48.57368" lon="-3.18084">
        <ele>175</ele>
        <time>2016-06-06T09:46:31.1Z</time>
      </trkpt>
      <trkpt lat="48.57369" lon="-3.18086">
        <ele>175</ele>
        <time>2016-06-06T09:46:34.1Z</time>
      </trkpt>
      <trkpt lat="48.57371" lon="-3.18087">
        <ele>176</ele>
        <time>2016-06-06T09:46:37.1Z</time>
      </trkpt>
      <trkpt lat="48.57372" lon="-3.18089">
        <ele>176</ele>
        <time>2016-06-06T09:46:40.1Z</time>
      </trkpt>
      <trkpt lat="48.57373" lon="-3.1809">
        <ele>177</ele>
        <time>2016-06-06T09:46:43.1Z</time>
      </trkpt>
      <trkpt lat="48.57375" lon="-3.18092">
        <ele>177</ele>
        <time>2016-06-06T09:46:46.1Z</time>
      </trkpt>
      <trkpt lat="48.57375" lon="-3.18093">
        <ele>178</ele>
        <time>2016-06-06T09:46:48.1Z</time>
      </trkpt>
      <trkpt lat="48.57377" lon="-3.18096">
        <ele>178</ele>
        <time>2016-06-06T09:46:51.1Z</time>
      </trkpt>
      <trkpt lat="48.57378" lon="-3.18098">
        <ele>178</ele>
        <time>2016-06-06T09:46:54.1Z</time>
      </trkpt>
      <trkpt lat="48.57379" lon="-3.181">
        <ele>179</ele>
        <time>2016-06-06T09:46:56.1Z</time>
      </trkpt>
      <trkpt lat="48.57381" lon="-3.18103">
        <ele>179</ele>
        <time>2016-06-06T09:46:58.1Z</time>
      </trkpt>
      <trkpt lat="48.57382" lon="-3.18105">
        <ele>179</ele>
        <time>2016-06-06T09:47:00.1Z</time>
      </trkpt>
      <trkpt lat="48.57384" lon="-3.18107">
        <ele>179</ele>
        <time>2016-06-06T09:47:02.1Z</time>
      </trkpt>
      <trkpt lat="48.57385" lon="-3.18111">
        <ele>180</ele>
        <time>2016-06-06T09:47:05.1Z</time>
      </trkpt>
      <trkpt lat="48.57386" lon="-3.18113">
        <ele>180</ele>
        <time>2016-06-06T09:47:07.1Z</time>
      </trkpt>
      <trkpt lat="48.57388" lon="-3.18117">
        <ele>180</ele>
        <time>2016-06-06T09:47:10.1Z</time>
      </trkpt>
      <trkpt lat="48.57389" lon="-3.18118">
        <ele>181</ele>
        <time>2016-06-06T09:47:12.1Z</time>
      </trkpt>
      <trkpt lat="48.57389" lon="-3.18121">
        <ele>181</ele>
        <time>2016-06-06T09:47:14.1Z</time>
      </trkpt>
      <trkpt lat="48.5739" lon="-3.18124">
        <ele>181</ele>
        <time>2016-06-06T09:47:16.1Z</time>
      </trkpt>
      <trkpt lat="48.57391" lon="-3.18126">
        <ele>182</ele>
        <time>2016-06-06T09:47:18.1Z</time>
      </trkpt>
      <trkpt lat="48.57392" lon="-3.1813">
        <ele>182</ele>
        <time>2016-06-06T09:47:21.1Z</time>
      </trkpt>
      <trkpt lat="48.57393" lon="-3.18134">
        <ele>182</ele>
        <time>2016-06-06T09:47:23.1Z</time>
      </trkpt>
      <trkpt lat="48.57394" lon="-3.18139">
        <ele>182</ele>
        <time>2016-06-06T09:47:26.1Z</time>
      </trkpt>
      <trkpt lat="48.57394" lon="-3.18142">
        <ele>183</ele>
        <time>2016-06-06T09:47:28.1Z</time>
      </trkpt>
      <trkpt lat="48.57393" lon="-3.18147">
        <ele>183</ele>
        <time>2016-06-06T09:47:31.1Z</time>
      </trkpt>
      <trkpt lat="48.57395" lon="-3.1815">
        <ele>184</ele>
        <time>2016-06-06T09:47:33.1Z</time>
      </trkpt>
      <trkpt lat="48.57396" lon="-3.18153">
        <ele>184</ele>
        <time>2016-06-06T09:47:35.1Z</time>
      </trkpt>
      <trkpt lat="48.57399" lon="-3.18157">
        <ele>184</ele>
        <time>2016-06-06T09:47:38.1Z</time>
      </trkpt>
      <trkpt lat="48.57401" lon="-3.18161">
        <ele>184</ele>
        <time>2016-06-06T09:47:41.1Z</time>
      </trkpt>
      <trkpt lat="48.57403" lon="-3.18164">
        <ele>184</ele>
        <time>2016-06-06T09:47:44.1Z</time>
      </trkpt>
      <trkpt lat="48.57404" lon="-3.18167">
        <ele>185</ele>
        <time>2016-06-06T09:47:46.1Z</time>
      </trkpt>
      <trkpt lat="48.57406" lon="-3.18169">
        <ele>185</ele>
        <time>2016-06-06T09:47:49.1Z</time>
      </trkpt>
      <trkpt lat="48.57408" lon="-3.18172">
        <ele>185</ele>
        <time>2016-06-06T09:47:52.1Z</time>
      </trkpt>
      <trkpt lat="48.57409" lon="-3.18176">
        <ele>186</ele>
        <time>2016-06-06T09:47:55.1Z</time>
      </trkpt>
      <trkpt lat="48.5741" lon="-3.18178">
        <ele>186</ele>
        <time>2016-06-06T09:47:57.1Z</time>
      </trkpt>
      <trkpt lat="48.57412" lon="-3.18182">
        <ele>187</ele>
        <time>2016-06-06T09:48:00.1Z</time>
      </trkpt>
      <trkpt lat="48.57414" lon="-3.18186">
        <ele>187</ele>
        <time>2016-06-06T09:48:03.1Z</time>
      </trkpt>
      <trkpt lat="48.57415" lon="-3.18189">
        <ele>187</ele>
        <time>2016-06-06T09:48:06.1Z</time>
      </trkpt>
      <trkpt lat="48.57416" lon="-3.18193">
        <ele>188</ele>
        <time>2016-06-06T09:48:09.1Z</time>
      </trkpt>
      <trkpt lat="48.57418" lon="-3.18196">
        <ele>188</ele>
        <time>2016-06-06T09:48:12.1Z</time>
      </trkpt>
      <trkpt lat="48.5742" lon="-3.182">
        <ele>188</ele>
        <time>2016-06-06T09:48:15.1Z</time>
      </trkpt>
      <trkpt lat="48.57421" lon="-3.18202">
        <ele>188</ele>
        <time>2016-06-06T09:48:17.1Z</time>
      </trkpt>
      <trkpt lat="48.57423" lon="-3.18206">
        <ele>188</ele>
        <time>2016-06-06T09:48:20.1Z</time>
      </trkpt>
      <trkpt lat="48.57425" lon="-3.1821">
        <ele>188</ele>
        <time>2016-06-06T09:48:23.1Z</time>
      </trkpt>
      <trkpt lat="48.57426" lon="-3.18212">
        <ele>188</ele>
        <time>2016-06-06T09:48:25.1Z</time>
      </trkpt>
      <trkpt lat="48.57427" lon="-3.18215">
        <ele>188</ele>
        <time>2016-06-06T09:48:28.1Z</time>
      </trkpt>
      <trkpt lat="48.57428" lon="-3.18218">
        <ele>188</ele>
        <time>2016-06-06T09:48:30.1Z</time>
      </trkpt>
      <trkpt lat="48.5743" lon="-3.1822">
        <ele>189</ele>
        <time>2016-06-06T09:48:32.1Z</time>
      </trkpt>
      <trkpt lat="48.57431" lon="-3.18223">
        <ele>189</ele>
        <time>2016-06-06T09:48:35.1Z</time>
      </trkpt>
      <trkpt lat="48.57433" lon="-3.18226">
        <ele>189</ele>
        <time>2016-06-06T09:48:38.1Z</time>
      </trkpt>
      <trkpt lat="48.57434" lon="-3.18228">
        <ele>189</ele>
        <time>2016-06-06T09:48:40.1Z</time>
      </trkpt>
      <trkpt lat="48.57436" lon="-3.18231">
        <ele>189</ele>
        <time>2016-06-06T09:48:43.1Z</time>
      </trkpt>
      <trkpt lat="48.57437" lon="-3.18234">
        <ele>189</ele>
        <time>2016-06-06T09:48:45.1Z</time>
      </trkpt>
      <trkpt lat="48.57439" lon="-3.18237">
        <ele>189</ele>
        <time>2016-06-06T09:48:48.1Z</time>
      </trkpt>
      <trkpt lat="48.5744" lon="-3.1824">
        <ele>189</ele>
        <time>2016-06-06T09:48:51.1Z</time>
      </trkpt>
      <trkpt lat="48.57442" lon="-3.18243">
        <ele>189</ele>
        <time>2016-06-06T09:48:53.1Z</time>
      </trkpt>
      <trkpt lat="48.57444" lon="-3.18246">
        <ele>189</ele>
        <time>2016-06-06T09:48:56.1Z</time>
      </trkpt>
      <trkpt lat="48.57446" lon="-3.18248">
        <ele>189</ele>
        <time>2016-06-06T09:48:58.1Z</time>
      </trkpt>
      <trkpt lat="48.57448" lon="-3.18251">
        <ele>189</ele>
        <time>2016-06-06T09:49:01.1Z</time>
      </trkpt>
      <trkpt lat="48.57449" lon="-3.18254">
        <ele>189</ele>
        <time>2016-06-06T09:49:03.1Z</time>
      </trkpt>
      <trkpt lat="48.57451" lon="-3.18257">
        <ele>189</ele>
        <time>2016-06-06T09:49:06.1Z</time>
      </trkpt>
      <trkpt lat="48.57452" lon="-3.18258">
        <ele>189</ele>
        <time>2016-06-06T09:49:08.1Z</time>
      </trkpt>
      <trkpt lat="48.57453" lon="-3.1826">
        <ele>189</ele>
        <time>2016-06-06T09:49:11.1Z</time>
      </trkpt>
      <trkpt lat="48.57454" lon="-3.18262">
        <ele>189</ele>
        <time>2016-06-06T09:49:14.1Z</time>
      </trkpt>
      <trkpt lat="48.57455" lon="-3.18265">
        <ele>189</ele>
        <time>2016-06-06T09:49:16.1Z</time>
      </trkpt>
      <trkpt lat="48.57456" lon="-3.18266">
        <ele>189</ele>
        <time>2016-06-06T09:49:18.1Z</time>
      </trkpt>
      <trkpt lat="48.57458" lon="-3.18269">
        <ele>189</ele>
        <time>2016-06-06T09:49:21.1Z</time>
      </trkpt>
      <trkpt lat="48.57459" lon="-3.18271">
        <ele>189</ele>
        <time>2016-06-06T09:49:23.1Z</time>
      </trkpt>
      <trkpt lat="48.5746" lon="-3.18273">
        <ele>189</ele>
        <time>2016-06-06T09:49:26.1Z</time>
      </trkpt>
      <trkpt lat="48.5746" lon="-3.18274">
        <ele>189</ele>
        <time>2016-06-06T09:49:28.1Z</time>
      </trkpt>
      <trkpt lat="48.57462" lon="-3.18277">
        <ele>189</ele>
        <time>2016-06-06T09:49:31.1Z</time>
      </trkpt>
      <trkpt lat="48.57462" lon="-3.18279">
        <ele>189</ele>
        <time>2016-06-06T09:49:33.1Z</time>
      </trkpt>
      <trkpt lat="48.57463" lon="-3.18281">
        <ele>189</ele>
        <time>2016-06-06T09:49:36.1Z</time>
      </trkpt>
      <trkpt lat="48.57463" lon="-3.18282">
        <ele>190</ele>
        <time>2016-06-06T09:49:38.1Z</time>
      </trkpt>
      <trkpt lat="48.57464" lon="-3.18282">
        <ele>190</ele>
        <time>2016-06-06T09:49:40.1Z</time>
      </trkpt>
      <trkpt lat="48.57465" lon="-3.18283">
        <ele>189</ele>
        <time>2016-06-06T09:49:43.1Z</time>
      </trkpt>
      <trkpt lat="48.57466" lon="-3.18283">
        <ele>189</ele>
        <time>2016-06-06T09:49:46.1Z</time>
      </trkpt>
      <trkpt lat="48.57466" lon="-3.18283">
        <ele>189</ele>
        <time>2016-06-06T09:49:51.1Z</time>
      </trkpt>
      <trkpt lat="48.57467" lon="-3.18283">
        <ele>189</ele>
        <time>2016-06-06T09:49:54.1Z</time>
      </trkpt>
      <trkpt lat="48.57467" lon="-3.18284">
        <ele>189</ele>
        <time>2016-06-06T09:49:56.1Z</time>
      </trkpt>
      <trkpt lat="48.57468" lon="-3.18284">
        <ele>189</ele>
        <time>2016-06-06T09:49:59.1Z</time>
      </trkpt>
      <trkpt lat="48.57468" lon="-3.18284">
        <ele>189</ele>
        <time>2016-06-06T09:50:01.1Z</time>
      </trkpt>
      <trkpt lat="48.57468" lon="-3.18284">
        <ele>189</ele>
        <time>2016-06-06T09:50:03.1Z</time>
      </trkpt>
      <trkpt lat="48.57469" lon="-3.18283">
        <ele>189</ele>
        <time>2016-06-06T09:50:05.1Z</time>
      </trkpt>
      <trkpt lat="48.57469" lon="-3.18283">
        <ele>189</ele>
        <time>2016-06-06T09:50:08.1Z</time>
      </trkpt>
      <trkpt lat="48.57469" lon="-3.18284">
        <ele>189</ele>
        <time>2016-06-06T09:50:10.1Z</time>
      </trkpt>
      <trkpt lat="48.57469" lon="-3.18284">
        <ele>189</ele>
        <time>2016-06-06T09:50:12.1Z</time>
      </trkpt>
      <trkpt lat="48.5747" lon="-3.18284">
        <ele>189</ele>
        <time>2016-06-06T09:50:15.1Z</time>
      </trkpt>
      <trkpt lat="48.57469" lon="-3.18283">
        <ele>189</ele>
        <time>2016-06-06T09:50:17.1Z</time>
      </trkpt>
      <trkpt lat="48.5747" lon="-3.18283">
        <ele>189</ele>
        <time>2016-06-06T09:50:21.1Z</time>
      </trkpt>
      <trkpt lat="48.57469" lon="-3.18283">
        <ele>189</ele>
        <time>2016-06-06T09:50:24.1Z</time>
      </trkpt>
      <trkpt lat="48.5747" lon="-3.18283">
        <ele>189</ele>
        <time>2016-06-06T09:50:27.1Z</time>
      </trkpt>
      <trkpt lat="48.5747" lon="-3.18282">
        <ele>189</ele>
        <time>2016-06-06T09:50:29.1Z</time>
      </trkpt>
      <trkpt lat="48.57471" lon="-3.18282">
        <ele>189</ele>
        <time>2016-06-06T09:50:32.1Z</time>
      </trkpt>
      <trkpt lat="48.57471" lon="-3.18282">
        <ele>189</ele>
        <time>2016-06-06T09:50:34.1Z</time>
      </trkpt>
      <trkpt lat="48.57472" lon="-3.18282">
        <ele>189</ele>
        <time>2016-06-06T09:50:38.1Z</time>
      </trkpt>
      <trkpt lat="48.57473" lon="-3.18282">
        <ele>189</ele>
        <time>2016-06-06T09:50:40.1Z</time>
      </trkpt>
      <trkpt lat="48.57473" lon="-3.18282">
        <ele>189</ele>
        <time>2016-06-06T09:50:43.1Z</time>
      </trkpt>
      <trkpt lat="48.57473" lon="-3.18282">
        <ele>189</ele>
        <time>2016-06-06T09:50:45.1Z</time>
      </trkpt>
      <trkpt lat="48.57473" lon="-3.18282">
        <ele>189</ele>
        <time>2016-06-06T09:50:48.1Z</time>
      </trkpt>
      <trkpt lat="48.57474" lon="-3.18282">
        <ele>189</ele>
        <time>2016-06-06T09:50:50.1Z</time>
      </trkpt>
      <trkpt lat="48.57474" lon="-3.18283">
        <ele>189</ele>
        <time>2016-06-06T09:50:53.1Z</time>
      </trkpt>
      <trkpt lat="48.57473" lon="-3.18283">
        <ele>189</ele>
        <time>2016-06-06T09:50:56.1Z</time>
      </trkpt>
      <trkpt lat="48.57473" lon="-3.18281">
        <ele>189</ele>
        <time>2016-06-06T09:50:58.1Z</time>
      </trkpt>
      <trkpt lat="48.57473" lon="-3.18282">
        <ele>189</ele>
        <time>2016-06-06T09:51:01.1Z</time>
      </trkpt>
      <trkpt lat="48.57474" lon="-3.18282">
        <ele>189</ele>
        <time>2016-06-06T09:51:04.1Z</time>
      </trkpt>
      <trkpt lat="48.57474" lon="-3.18281">
        <ele>189</ele>
        <time>2016-06-06T09:51:08.1Z</time>
      </trkpt>
      <trkpt lat="48.57473" lon="-3.1828">
        <ele>189</ele>
        <time>2016-06-06T09:51:11.1Z</time>
      </trkpt>
      <trkpt lat="48.57471" lon="-3.18281">
        <ele>189</ele>
        <time>2016-06-06T09:51:14.1Z</time>
      </trkpt>
      <trkpt lat="48.57471" lon="-3.18282">
        <ele>189</ele>
        <time>2016-06-06T09:51:17.1Z</time>
      </trkpt>
      <trkpt lat="48.57471" lon="-3.18282">
        <ele>189</ele>
        <time>2016-06-06T09:51:19.1Z</time>
      </trkpt>
      <trkpt lat="48.57472" lon="-3.18282">
        <ele>189</ele>
        <time>2016-06-06T09:51:21.1Z</time>
      </trkpt>
      <trkpt lat="48.57473" lon="-3.18283">
        <ele>189</ele>
        <time>2016-06-06T09:51:23.1Z</time>
      </trkpt>
      <trkpt lat="48.57474" lon="-3.18285">
        <ele>189</ele>
        <time>2016-06-06T09:51:26.1Z</time>
      </trkpt>
      <trkpt lat="48.57475" lon="-3.18286">
        <ele>189</ele>
        <time>2016-06-06T09:51:28.1Z</time>
      </trkpt>
      <trkpt lat="48.57476" lon="-3.18288">
        <ele>189</ele>
        <time>2016-06-06T09:51:31.1Z</time>
      </trkpt>
      <trkpt lat="48.57477" lon="-3.18289">
        <ele>189</ele>
        <time>2016-06-06T09:51:33.1Z</time>
      </trkpt>
      <trkpt lat="48.57478" lon="-3.18291">
        <ele>189</ele>
        <time>2016-06-06T09:51:35.1Z</time>
      </trkpt>
      <trkpt lat="48.57479" lon="-3.18293">
        <ele>189</ele>
        <time>2016-06-06T09:51:37.1Z</time>
      </trkpt>
      <trkpt lat="48.57481" lon="-3.18296">
        <ele>189</ele>
        <time>2016-06-06T09:51:40.1Z</time>
      </trkpt>
      <trkpt lat="48.57482" lon="-3.18299">
        <ele>189</ele>
        <time>2016-06-06T09:51:43.1Z</time>
      </trkpt>
      <trkpt lat="48.57484" lon="-3.18302">
        <ele>190</ele>
        <time>2016-06-06T09:51:46.1Z</time>
      </trkpt>
      <trkpt lat="48.57486" lon="-3.18306">
        <ele>189</ele>
        <time>2016-06-06T09:51:49.1Z</time>
      </trkpt>
      <trkpt lat="48.57487" lon="-3.18308">
        <ele>189</ele>
        <time>2016-06-06T09:51:51.1Z</time>
      </trkpt>
      <trkpt lat="48.57489" lon="-3.18313">
        <ele>189</ele>
        <time>2016-06-06T09:51:54.1Z</time>
      </trkpt>
      <trkpt lat="48.57491" lon="-3.18315">
        <ele>189</ele>
        <time>2016-06-06T09:51:56.1Z</time>
      </trkpt>
      <trkpt lat="48.57494" lon="-3.18319">
        <ele>189</ele>
        <time>2016-06-06T09:51:59.1Z</time>
      </trkpt>
      <trkpt lat="48.57496" lon="-3.18323">
        <ele>189</ele>
        <time>2016-06-06T09:52:02.1Z</time>
      </trkpt>
      <trkpt lat="48.57498" lon="-3.18326">
        <ele>189</ele>
        <time>2016-06-06T09:52:04.1Z</time>
      </trkpt>
      <trkpt lat="48.57502" lon="-3.1833">
        <ele>189</ele>
        <time>2016-06-06T09:52:07.1Z</time>
      </trkpt>
      <trkpt lat="48.57502" lon="-3.18333">
        <ele>189</ele>
        <time>2016-06-06T09:52:09.1Z</time>
      </trkpt>
      <trkpt lat="48.57505" lon="-3.18337">
        <ele>189</ele>
        <time>2016-06-06T09:52:12.1Z</time>
      </trkpt>
      <trkpt lat="48.57507" lon="-3.18339">
        <ele>189</ele>
        <time>2016-06-06T09:52:14.1Z</time>
      </trkpt>
      <trkpt lat="48.57508" lon="-3.18344">
        <ele>189</ele>
        <time>2016-06-06T09:52:17.1Z</time>
      </trkpt>
      <trkpt lat="48.5751" lon="-3.18348">
        <ele>189</ele>
        <time>2016-06-06T09:52:20.1Z</time>
      </trkpt>
      <trkpt lat="48.57511" lon="-3.18352">
        <ele>189</ele>
        <time>2016-06-06T09:52:23.1Z</time>
      </trkpt>
      <trkpt lat="48.57512" lon="-3.18355">
        <ele>189</ele>
        <time>2016-06-06T09:52:25.1Z</time>
      </trkpt>
      <trkpt lat="48.57513" lon="-3.18358">
        <ele>189</ele>
        <time>2016-06-06T09:52:28.1Z</time>
      </trkpt>
      <trkpt lat="48.57513" lon="-3.18359">
        <ele>189</ele>
        <time>2016-06-06T09:52:31.1Z</time>
      </trkpt>
      <trkpt lat="48.57515" lon="-3.18362">
        <ele>189</ele>
        <time>2016-06-06T09:52:34.1Z</time>
      </trkpt>
      <trkpt lat="48.57517" lon="-3.18366">
        <ele>189</ele>
        <time>2016-06-06T09:52:37.1Z</time>
      </trkpt>
      <trkpt lat="48.57518" lon="-3.1837">
        <ele>189</ele>
        <time>2016-06-06T09:52:40.1Z</time>
      </trkpt>
      <trkpt lat="48.5752" lon="-3.18373">
        <ele>189</ele>
        <time>2016-06-06T09:52:42.1Z</time>
      </trkpt>
      <trkpt lat="48.57521" lon="-3.18377">
        <ele>189</ele>
        <time>2016-06-06T09:52:45.1Z</time>
      </trkpt>
      <trkpt lat="48.57523" lon="-3.18379">
        <ele>189</ele>
        <time>2016-06-06T09:52:47.1Z</time>
      </trkpt>
      <trkpt lat="48.57523" lon="-3.18383">
        <ele>189</ele>
        <time>2016-06-06T09:52:49.1Z</time>
      </trkpt>
      <trkpt lat="48.57526" lon="-3.18388">
        <ele>189</ele>
        <time>2016-06-06T09:52:52.1Z</time>
      </trkpt>
      <trkpt lat="48.57527" lon="-3.1839">
        <ele>189</ele>
        <time>2016-06-06T09:52:54.1Z</time>
      </trkpt>
      <trkpt lat="48.57529" lon="-3.18395">
        <ele>189</ele>
        <time>2016-06-06T09:52:57.1Z</time>
      </trkpt>
      <trkpt lat="48.57531" lon="-3.184">
        <ele>189</ele>
        <time>2016-06-06T09:53:00.1Z</time>
      </trkpt>
      <trkpt lat="48.57532" lon="-3.18404">
        <ele>189</ele>
        <time>2016-06-06T09:53:03.1Z</time>
      </trkpt>
      <trkpt lat="48.57533" lon="-3.18408">
        <ele>189</ele>
        <time>2016-06-06T09:53:06.1Z</time>
      </trkpt>
      <trkpt lat="48.57534" lon="-3.18413">
        <ele>189</ele>
        <time>2016-06-06T09:53:09.1Z</time>
      </trkpt>
      <trkpt lat="48.57536" lon="-3.18419">
        <ele>189</ele>
        <time>2016-06-06T09:53:12.1Z</time>
      </trkpt>
      <trkpt lat="48.57538" lon="-3.18424">
        <ele>189</ele>
        <time>2016-06-06T09:53:15.1Z</time>
      </trkpt>
      <trkpt lat="48.5754" lon="-3.18428">
        <ele>189</ele>
        <time>2016-06-06T09:53:18.1Z</time>
      </trkpt>
      <trkpt lat="48.57542" lon="-3.18433">
        <ele>189</ele>
        <time>2016-06-06T09:53:21.1Z</time>
      </trkpt>
      <trkpt lat="48.57543" lon="-3.18438">
        <ele>189</ele>
        <time>2016-06-06T09:53:24.1Z</time>
      </trkpt>
      <trkpt lat="48.57544" lon="-3.18442">
        <ele>189</ele>
        <time>2016-06-06T09:53:26.1Z</time>
      </trkpt>
      <trkpt lat="48.57545" lon="-3.18444">
        <ele>189</ele>
        <time>2016-06-06T09:53:28.1Z</time>
      </trkpt>
      <trkpt lat="48.57546" lon="-3.18448">
        <ele>189</ele>
        <time>2016-06-06T09:53:31.1Z</time>
      </trkpt>
      <trkpt lat="48.57548" lon="-3.18454">
        <ele>189</ele>
        <time>2016-06-06T09:53:34.1Z</time>
      </trkpt>
      <trkpt lat="48.57549" lon="-3.18458">
        <ele>189</ele>
        <time>2016-06-06T09:53:37.1Z</time>
      </trkpt>
      <trkpt lat="48.5755" lon="-3.18461">
        <ele>189</ele>
        <time>2016-06-06T09:53:39.1Z</time>
      </trkpt>
      <trkpt lat="48.57552" lon="-3.18465">
        <ele>189</ele>
        <time>2016-06-06T09:53:42.1Z</time>
      </trkpt>
      <trkpt lat="48.57553" lon="-3.18468">
        <ele>189</ele>
        <time>2016-06-06T09:53:44.1Z</time>
      </trkpt>
      <trkpt lat="48.57555" lon="-3.18471">
        <ele>189</ele>
        <time>2016-06-06T09:53:46.1Z</time>
      </trkpt>
      <trkpt lat="48.57556" lon="-3.18476">
        <ele>189</ele>
        <time>2016-06-06T09:53:49.1Z</time>
      </trkpt>
      <trkpt lat="48.57557" lon="-3.18478">
        <ele>189</ele>
        <time>2016-06-06T09:53:51.1Z</time>
      </trkpt>
      <trkpt lat="48.57559" lon="-3.18481">
        <ele>189</ele>
        <time>2016-06-06T09:53:54.1Z</time>
      </trkpt>
      <trkpt lat="48.57559" lon="-3.18482">
        <ele>189</ele>
        <time>2016-06-06T09:53:56.1Z</time>
      </trkpt>
      <trkpt lat="48.57561" lon="-3.18485">
        <ele>189</ele>
        <time>2016-06-06T09:53:58.1Z</time>
      </trkpt>
      <trkpt lat="48.57565" lon="-3.18489">
        <ele>189</ele>
        <time>2016-06-06T09:54:01.1Z</time>
      </trkpt>
      <trkpt lat="48.57566" lon="-3.18492">
        <ele>189</ele>
        <time>2016-06-06T09:54:04.1Z</time>
      </trkpt>
      <trkpt lat="48.57569" lon="-3.18496">
        <ele>188</ele>
        <time>2016-06-06T09:54:07.1Z</time>
      </trkpt>
      <trkpt lat="48.57571" lon="-3.18498">
        <ele>189</ele>
        <time>2016-06-06T09:54:09.1Z</time>
      </trkpt>
      <trkpt lat="48.57572" lon="-3.185">
        <ele>189</ele>
        <time>2016-06-06T09:54:11.1Z</time>
      </trkpt>
      <trkpt lat="48.57575" lon="-3.18504">
        <ele>189</ele>
        <time>2016-06-06T09:54:14.1Z</time>
      </trkpt>
      <trkpt lat="48.57577" lon="-3.18508">
        <ele>189</ele>
        <time>2016-06-06T09:54:17.1Z</time>
      </trkpt>
      <trkpt lat="48.57579" lon="-3.18511">
        <ele>189</ele>
        <time>2016-06-06T09:54:19.1Z</time>
      </trkpt>
      <trkpt lat="48.57579" lon="-3.18513">
        <ele>189</ele>
        <time>2016-06-06T09:54:21.1Z</time>
      </trkpt>
      <trkpt lat="48.57581" lon="-3.18518">
        <ele>189</ele>
        <time>2016-06-06T09:54:24.1Z</time>
      </trkpt>
      <trkpt lat="48.57583" lon="-3.18521">
        <ele>189</ele>
        <time>2016-06-06T09:54:27.1Z</time>
      </trkpt>
      <trkpt lat="48.57585" lon="-3.18525">
        <ele>189</ele>
        <time>2016-06-06T09:54:30.1Z</time>
      </trkpt>
      <trkpt lat="48.57586" lon="-3.18526">
        <ele>189</ele>
        <time>2016-06-06T09:54:32.1Z</time>
      </trkpt>
      <trkpt lat="48.57586" lon="-3.18526">
        <ele>189</ele>
        <time>2016-06-06T09:54:33.1Z</time>
      </trkpt>
    </trkseg>
  </trk>
</gpx>